GFSNGP_sfc_wetblb_000.txt.gz
Wetbulb
33.66 35.19 34.92 35.34 34.87 35.13 32.68 32.89 31.09 33.16 31.85 35.97 37.31 36.78 39.16 40.64 40.67 41.29 41.80 41.63 41.15 41.19 42.64 41.78 41.95 41.29 39.69 38.94 38.26 38.03 37.49 37.36 36.16 37.79 38.16 36.70 36.66 37.29 37.54 37.58 37.87 37.98 36.84 32.66
30.15 33.95 33.80 31.74 34.45 35.00 34.73 34.29 33.68 34.56 33.63 38.67 37.00 38.86 39.47 40.34 40.90 40.68 40.29 40.39 41.17 40.89 39.97 40.94 41.42 39.36 38.72 37.87 37.67 38.58 37.38 37.17 38.95 40.15 39.22 38.30 38.52 37.96 37.59 37.31 36.91 36.98 31.90 28.62
23.97 30.44 29.47 25.09 29.72 32.31 33.24 34.61 33.74 29.78 34.73 35.19 36.85 38.66 39.27 40.34 40.27 39.84 39.11 40.07 38.11 38.88 40.43 41.17 39.25 37.54 36.35 36.90 37.04 36.80 36.96 34.83 34.06 35.29 36.23 36.84 37.00 36.26 34.15 30.81 29.19 27.66 27.37 27.57
23.88 30.76 21.90 32.95 36.20 36.67 34.09 34.81 35.97 34.51 35.08 36.73 38.56 39.54 39.78 41.13 39.92 38.13 38.07 39.38 39.80 40.02 40.44 38.42 37.72 36.06 34.52 33.21 32.98 31.99 31.47 32.48 34.21 34.04 31.79 30.77 29.70 28.79 28.08 27.61 26.45 25.95 26.21 27.16
28.73 28.30 29.11 34.38 35.68 32.46 31.38 31.43 35.54 34.23 37.36 38.39 39.42 37.99 37.62 39.55 39.29 39.79 39.96 40.04 40.06 39.91 38.46 36.54 35.09 31.40 29.93 29.96 29.99 31.01 32.88 33.26 33.22 30.21 28.86 28.72 27.33 25.94 25.90 25.27 25.12 25.49 27.00 25.79
27.97 25.42 23.34 30.94 34.15 36.67 37.70 28.13 36.90 39.41 39.76 40.07 38.02 33.54 37.71 40.35 40.81 40.36 39.84 40.50 39.66 38.32 36.89 35.52 35.56 32.02 32.42 30.88 30.09 29.38 31.25 30.21 29.09 28.76 27.54 25.64 24.49 24.20 24.66 24.02 25.44 25.57 24.27 23.93
30.35 27.02 27.53 33.88 36.18 38.62 28.70 30.29 38.49 38.10 39.76 38.03 35.66 38.60 38.14 39.06 38.47 38.91 39.90 39.62 38.65 37.12 34.68 35.26 35.78 32.44 29.78 28.89 28.25 30.12 30.06 28.97 28.25 27.50 26.13 24.61 23.79 23.64 23.05 23.04 23.00 18.20 16.26 18.66
25.47 24.97 21.99 35.87 37.29 32.70 37.10 39.36 39.96 40.15 38.78 39.95 39.16 38.14 37.54 37.76 37.49 37.52 38.08 37.21 36.93 34.61 33.82 35.56 35.12 30.44 29.55 28.47 29.71 30.20 28.82 27.27 26.66 26.37 25.88 24.93 23.13 22.70 22.74 21.36 19.22 17.19 13.26 15.69
32.87 29.20 35.64 39.26 40.41 41.12 41.63 39.98 38.28 37.63 39.66 38.15 36.17 36.00 36.44 35.82 36.42 36.89 37.67 36.27 34.90 32.92 33.61 34.42 32.64 33.16 32.83 33.46 30.31 28.88 27.60 26.29 25.95 26.27 25.50 24.61 22.96 22.10 21.62 20.44 17.33 16.71 20.63 19.10
34.29 36.63 39.71 42.39 42.67 42.48 41.71 41.21 39.58 39.14 38.46 37.97 36.19 36.70 35.70 35.91 35.53 35.88 36.20 33.88 32.56 32.84 33.32 32.90 33.45 33.77 29.73 28.68 28.31 27.68 26.84 26.23 25.73 24.71 24.32 22.89 23.09 23.24 21.93 17.71 16.23 19.99 18.44 17.95
35.58 40.28 40.13 40.37 40.30 41.22 40.50 40.71 39.84 39.63 38.81 37.42 36.14 35.17 35.21 34.35 34.10 34.97 33.84 32.71 32.65 33.23 32.52 32.03 31.68 30.42 28.48 27.56 27.71 26.70 26.95 26.99 25.70 24.67 23.43 23.23 23.09 22.01 22.44 21.11 18.41 19.11 17.04 16.81
35.05 40.34 41.19 41.71 42.16 42.90 40.00 38.98 39.25 37.90 36.36 37.44 36.07 33.65 34.44 34.30 34.34 33.92 33.41 32.61 32.22 33.29 31.72 31.69 30.65 27.92 27.40 27.16 26.85 26.08 26.40 25.58 21.38 20.63 19.90 22.07 21.25 20.87 24.74 23.97 24.97 24.34 24.04 21.05
41.26 43.98 43.36 41.71 40.32 39.41 37.60 36.80 36.58 36.03 35.53 33.54 33.93 34.05 33.21 32.68 32.57 34.08 33.61 32.91 32.09 31.14 30.48 28.16 27.74 27.49 26.50 24.38 22.73 22.02 20.28 21.97 19.10 19.95 18.10 16.74 15.97 15.93 11.03 16.59 22.18 22.35 22.84 22.55
42.53 42.14 37.54 37.57 36.17 38.11 37.82 37.29 36.18 35.57 35.03 34.71 33.62 32.57 31.69 31.35 31.90 31.23 30.76 29.72 29.31 28.96 28.20 27.00 26.39 26.42 27.06 26.85 24.56 18.19 16.09 16.44 17.21 15.60 13.55 13.24 7.13 9.24 6.06 5.93 6.35 10.45 17.18 19.96
38.10 38.34 37.23 38.95 38.22 36.85 35.10 33.59 31.71 30.91 31.61 31.39 31.19 30.37 30.53 30.03 29.81 30.20 30.41 28.49 29.06 28.35 27.15 26.70 25.00 26.11 27.49 28.33 26.46 24.24 24.19 19.62 11.39 9.96 9.25 8.89 7.11 6.74 5.46 5.55 5.49 9.41 12.90 14.06
36.30 35.83 35.64 32.33 31.78 32.08 31.68 30.71 29.47 29.20 30.02 29.99 29.67 29.63 29.98 29.24 28.73 29.56 29.95 28.18 24.61 24.53 25.86 22.16 24.26 25.05 27.54 28.93 28.29 25.60 22.36 19.33 14.48 13.84 11.58 10.91 9.21 7.45 9.06 7.12 9.21 12.03 9.28 9.68
31.97 31.12 30.56 30.13 30.45 30.54 30.86 30.24 30.00 29.53 30.28 30.19 28.41 26.02 30.04 28.37 25.03 26.45 25.12 20.77 18.01 19.25 22.07 24.73 21.40 27.67 27.01 28.44 26.82 20.69 17.39 17.83 16.85 15.08 12.85 10.97 7.47 6.57 5.89 6.85 9.28 11.68 6.15 7.19
32.36 32.10 32.34 32.65 31.48 31.14 30.32 29.62 29.12 28.44 28.56 29.15 23.89 24.21 29.34 28.19 24.98 26.58 18.91 18.56 17.45 24.32 24.94 21.67 21.53 24.89 22.57 27.47 27.10 23.86 18.58 14.92 14.34 11.45 10.72 6.79 6.77 6.94 2.90 5.42 8.40 8.10 7.65 9.87
32.43 32.20 32.27 32.21 32.18 31.05 30.20 29.74 28.38 27.70 24.24 30.33 29.43 27.65 28.45 28.75 25.56 21.57 22.62 24.90 23.08 24.22 23.68 21.96 26.95 26.03 25.03 24.89 26.18 23.38 21.75 13.65 11.27 12.54 8.12 5.27 2.84 3.36 0.55 -0.90 4.51 3.94 4.87 8.13
29.71 29.90 29.90 29.60 29.15 26.23 27.16 27.74 25.91 26.34 27.71 28.08 31.41 29.80 28.95 29.37 26.79 21.11 22.62 24.31 24.16 25.26 26.21 25.85 25.76 24.60 24.02 24.45 23.93 22.62 15.35 13.06 16.90 9.80 1.82 6.72 -1.44 -1.62 -3.25 1.26 5.07 2.19 1.60 3.38
28.23 28.96 26.93 25.75 25.96 26.10 23.60 24.31 22.95 24.07 26.69 23.74 30.99 30.78 29.88 30.44 22.88 21.27 22.28 24.24 25.79 24.09 26.63 26.40 25.10 24.79 26.10 25.09 24.58 23.55 21.51 22.59 13.97 6.17 3.27 3.64 0.37 -1.98 -3.80 -4.70 -2.71 -0.90 0.50 3.22
28.93 26.34 24.25 24.15 23.86 25.45 26.85 25.08 24.08 23.01 24.04 29.07 31.35 30.26 30.41 22.83 22.74 22.05 23.02 26.50 26.76 26.70 26.09 24.96 24.74 25.26 25.26 25.11 24.06 24.09 24.22 23.66 18.72 9.57 4.00 4.14 4.30 1.46 -1.26 -4.88 -2.89 0.19 -1.44 2.43
28.51 27.28 27.02 23.67 23.93 27.49 27.31 25.42 24.57 23.41 23.82 26.43 29.64 30.08 29.15 25.19 22.37 20.29 22.22 24.16 23.70 24.27 25.82 20.44 24.03 26.66 26.31 21.49 23.52 23.70 24.01 23.28 21.67 18.53 11.97 10.99 8.37 7.96 0.69 -1.08 -2.89 -1.44 -2.71 -0.54
27.74 26.98 26.99 26.62 23.83 22.06 23.12 27.97 26.42 26.02 23.97 23.98 24.69 29.58 28.04 24.35 23.30 22.22 22.25 23.56 22.66 20.67 16.70 19.28 25.72 24.07 24.22 22.06 22.53 23.47 24.01 24.04 23.34 13.00 6.90 4.54 1.46 4.28 1.63 -2.35 -1.44 -3.98 -5.25 -3.62
25.54 25.30 24.72 22.28 24.00 26.67 27.33 27.86 27.56 27.28 25.52 25.22 28.13 27.55 25.22 25.79 24.40 19.62 15.58 16.32 18.68 18.92 17.82 21.60 24.12 19.38 20.90 23.30 24.01 21.50 19.69 22.25 23.50 17.11 7.98 6.90 9.41 6.32 6.11 0.19 2.61 4.06 -2.35 -2.89
27.15 27.63 28.00 26.95 27.29 27.89 27.72 27.16 28.90 30.77 30.80 30.32 26.93 22.57 21.42 23.85 23.64 23.48 25.16 23.72 16.03 18.21 21.99 21.90 23.79 21.88 16.29 15.97 22.59 24.14 19.02 17.89 16.60 17.12 14.26 13.39 11.74 12.61 12.41 12.02 8.68 6.49 5.00 6.21
24.46 21.96 24.51 25.70 26.27 26.06 25.95 30.50 30.67 31.11 31.95 32.04 30.15 19.73 21.51 28.15 26.67 26.00 24.87 23.47 21.39 22.27 16.60 21.05 21.10 22.76 23.01 13.28 13.16 11.97 14.75 17.19 14.89 15.86 16.20 15.14 12.98 13.32 15.07 14.32 13.42 10.72 6.25 4.63

GFSNGP_sfc_wetblb_003.txt.gz
Wetbulb
36.44 37.51 36.85 36.52 36.26 36.75 35.57 36.83 32.91 35.75 36.12 39.83 41.99 42.25 42.49 44.45 44.95 44.66 45.23 45.37 44.44 43.63 43.50 43.68 43.45 43.12 42.61 42.27 41.80 42.36 41.67 40.98 40.24 41.16 40.83 38.97 38.34 38.74 39.64 40.44 40.18 39.65 38.86 37.40
32.99 35.15 34.73 32.78 35.69 36.10 36.62 36.89 36.56 37.17 36.45 42.78 42.98 42.60 43.24 43.36 43.34 43.29 43.75 42.59 41.82 41.30 41.01 41.88 42.95 41.83 40.66 40.14 40.44 40.74 38.54 36.35 36.88 37.28 38.45 38.37 38.23 38.10 37.48 36.27 34.74 34.26 33.37 32.59
29.67 32.48 32.51 29.81 33.47 35.44 36.69 37.98 37.66 33.59 38.76 39.96 40.57 41.70 43.05 43.21 43.20 41.25 39.55 40.04 40.03 40.58 41.20 41.90 42.74 40.22 39.35 39.20 39.36 37.94 36.02 36.27 37.31 38.07 36.49 34.95 34.89 34.39 33.53 32.94 33.08 32.31 31.96 31.97
30.92 32.36 25.59 36.55 39.49 39.47 37.37 38.33 38.85 37.94 38.83 40.40 41.93 43.17 43.48 42.47 40.48 39.52 39.46 38.70 39.84 40.98 42.08 43.31 42.06 39.92 38.00 37.79 36.60 35.26 35.68 37.09 37.86 36.08 33.74 33.85 33.49 32.52 32.07 31.99 31.16 30.87 30.96 31.02
29.41 29.42 32.13 36.21 38.55 36.82 35.62 35.93 39.13 39.32 40.81 42.17 43.76 43.03 40.97 40.64 40.94 39.35 38.35 40.16 41.28 42.68 43.36 42.36 40.32 39.28 35.69 34.91 34.72 35.04 35.80 36.29 34.93 33.42 32.78 32.27 31.17 30.73 31.05 30.45 30.23 29.98 29.53 28.99
30.73 27.78 25.53 34.88 38.00 40.31 40.29 32.85 40.80 41.45 41.44 41.93 41.82 35.11 40.05 38.37 39.86 39.91 40.80 41.50 41.62 43.07 42.42 39.99 39.89 38.22 34.93 35.11 35.15 34.53 34.76 34.05 33.49 32.76 31.98 31.13 30.55 30.09 30.15 30.00 29.16 28.79 27.58 28.22
30.92 28.99 32.07 37.38 38.68 40.29 31.50 34.05 39.84 41.48 42.06 40.52 38.10 38.16 38.67 39.89 39.46 40.82 40.93 40.30 41.67 42.19 39.62 39.09 39.79 38.73 35.46 32.76 32.56 35.51 34.71 33.68 32.90 32.25 31.31 31.23 30.03 30.20 29.39 29.09 28.01 27.10 26.74 26.99
28.00 26.96 25.36 38.34 38.66 36.57 40.30 40.58 41.44 41.20 41.09 39.70 38.88 38.41 38.16 38.96 38.66 38.77 38.91 39.69 40.37 39.80 38.60 38.86 39.29 35.97 34.26 34.75 37.71 38.10 34.74 32.95 32.39 31.92 31.07 30.07 29.52 29.70 28.95 28.28 27.03 26.27 25.46 25.94
33.32 33.85 39.34 40.35 41.56 43.07 42.11 41.12 40.13 39.55 39.17 38.41 36.87 35.86 37.86 37.89 38.28 38.74 38.44 38.75 39.65 38.48 37.60 38.37 38.66 35.91 36.42 37.65 37.18 35.06 33.23 32.41 31.92 31.39 30.84 30.38 28.92 28.50 27.68 27.67 26.27 25.08 24.59 23.69
35.51 39.95 40.41 42.38 43.08 43.50 42.25 41.43 40.37 40.74 39.27 38.51 37.09 37.55 37.70 37.73 37.84 37.15 37.41 37.39 38.30 37.40 36.97 37.23 38.01 36.26 36.56 36.17 34.16 32.77 32.09 31.75 31.60 30.74 30.22 30.77 29.26 28.78 27.17 26.85 25.40 24.35 23.39 22.31
36.42 41.02 41.34 41.81 43.04 44.30 41.37 41.59 40.00 40.40 39.82 38.89 38.37 37.43 37.30 36.88 36.27 36.27 36.61 36.84 37.18 36.54 36.51 37.23 37.30 35.74 34.50 32.80 32.37 31.55 31.29 31.17 30.59 29.96 28.95 28.31 28.46 27.49 26.94 27.14 25.37 23.95 23.08 22.83
36.36 41.39 41.72 41.38 43.27 43.06 40.10 39.27 39.09 37.76 37.19 37.95 37.56 36.62 36.66 35.59 35.65 35.58 35.39 35.98 35.80 35.82 36.71 36.79 35.09 32.96 32.59 31.77 30.67 30.26 29.56 29.76 29.78 28.88 28.20 27.27 26.89 26.53 26.07 24.59 24.48 23.79 23.43 22.93
41.69 42.81 41.22 40.62 40.47 40.38 38.12 37.51 37.51 37.64 36.74 35.35 36.35 36.42 35.06 34.29 35.22 34.71 34.72 34.69 34.19 33.30 32.80 32.47 31.77 30.94 30.51 29.85 28.92 27.94 28.20 28.26 28.92 25.71 27.41 26.65 25.76 24.89 23.29 24.58 22.69 21.94 22.21 21.89
42.47 41.15 36.79 37.56 36.32 38.06 38.23 37.76 37.22 36.73 36.26 35.54 35.50 35.37 34.51 33.93 34.33 34.10 33.38 33.64 33.48 32.25 31.72 30.97 30.19 29.74 30.58 30.99 29.64 26.81 27.13 22.66 27.21 27.27 26.87 25.91 25.20 23.89 22.87 21.71 20.41 20.45 21.05 20.11
38.56 39.68 38.76 37.75 36.62 36.25 36.90 36.15 34.68 33.77 33.49 33.39 34.57 34.10 34.11 33.39 33.54 33.48 33.53 33.37 32.52 31.45 31.01 30.14 29.17 29.31 30.62 30.59 29.73 28.52 28.86 28.82 27.28 26.69 26.12 23.60 24.27 23.84 22.87 22.19 21.34 20.27 19.83 19.65
36.22 34.99 35.54 35.14 35.62 35.77 35.33 34.77 33.29 32.86 33.01 33.24 33.24 33.22 33.57 32.89 32.23 32.04 32.28 32.11 27.25 28.34 28.76 28.06 26.84 28.56 29.20 30.10 29.48 29.18 28.78 25.02 22.25 26.76 26.09 25.15 24.58 23.00 22.44 21.82 21.22 19.63 18.41 17.18
33.59 32.81 33.99 33.62 33.66 33.77 33.70 34.46 33.30 32.33 32.44 32.84 31.90 30.55 30.00 30.17 30.21 29.66 30.15 27.88 25.14 24.68 27.72 27.74 27.85 29.53 27.98 29.51 29.48 28.34 27.69 27.44 21.21 26.48 25.44 24.39 23.50 22.69 21.83 21.29 20.49 19.51 18.25 17.32
35.78 35.25 34.56 33.39 32.69 32.68 32.78 33.16 32.42 31.62 31.07 31.90 28.95 28.99 29.54 28.73 28.69 28.76 30.13 26.56 25.36 26.66 27.93 28.80 27.11 27.81 27.00 29.62 28.64 28.06 26.60 25.53 26.54 25.40 25.02 24.51 23.32 22.25 21.30 20.37 20.08 19.05 18.27 17.83
33.59 32.64 32.41 32.07 32.65 31.83 31.63 31.25 30.75 30.43 28.89 28.16 25.95 27.56 30.80 31.42 30.44 29.92 28.45 25.11 25.71 26.68 28.33 28.15 27.92 29.09 27.91 28.18 28.05 26.83 26.21 26.65 26.08 25.30 23.74 20.72 23.54 22.29 21.22 20.80 20.49 20.08 18.18 17.03
32.26 32.23 32.36 32.04 31.33 28.56 28.71 29.30 28.33 28.85 29.64 28.37 26.08 26.67 28.98 31.87 31.53 30.95 27.63 26.52 28.79 29.66 29.84 29.30 28.90 28.14 28.24 27.49 27.16 26.84 26.62 26.42 25.75 25.75 23.86 22.54 22.72 22.27 21.26 17.53 18.75 20.06 19.10 17.86
30.04 30.90 29.26 27.96 27.76 27.46 25.22 26.20 25.53 26.71 28.96 27.26 23.76 25.91 30.05 31.71 32.24 29.88 25.83 27.42 30.27 28.37 29.33 29.53 29.19 28.25 28.32 28.22 27.48 27.92 26.93 27.07 27.12 25.95 24.41 23.14 21.72 22.92 21.71 20.56 20.02 20.02 19.98 18.88
30.96 29.35 27.09 26.33 26.17 27.24 28.48 28.09 28.42 26.22 25.74 25.89 26.18 29.05 30.82 30.60 31.74 28.64 26.66 28.14 30.79 26.70 29.99 30.44 29.34 28.40 29.16 28.15 27.64 27.58 27.53 27.69 27.59 26.71 25.00 22.91 22.27 22.01 22.27 21.22 19.87 20.56 20.21 19.29
30.05 29.26 28.84 26.66 25.34 28.89 28.47 27.66 26.46 25.98 25.87 27.20 28.30 29.83 29.06 31.11 32.47 29.34 28.17 30.41 29.58 27.88 29.90 30.36 25.43 28.59 28.58 29.59 28.29 28.02 27.50 27.46 27.25 27.12 25.51 24.26 23.40 22.00 21.61 21.46 21.22 19.82 19.73 19.36
29.75 29.33 29.04 28.79 26.08 25.46 26.43 30.15 29.65 29.29 28.39 28.46 29.97 29.87 29.70 31.46 31.87 29.65 30.49 26.89 25.45 25.18 29.70 28.88 27.57 25.54 22.91 29.58 28.58 28.41 28.10 28.11 27.95 28.02 26.05 18.88 22.96 21.85 21.21 20.75 19.46 21.06 18.70 16.10
28.44 27.84 27.32 25.70 27.37 29.21 29.17 29.90 29.10 30.29 30.78 30.96 32.41 32.45 31.63 31.86 29.59 31.63 29.64 29.17 24.42 23.41 28.85 22.86 24.49 24.16 27.89 29.27 28.41 27.79 27.00 26.72 27.09 27.92 26.29 24.81 23.99 23.24 23.13 22.39 19.97 20.04 19.71 18.32
29.54 29.66 29.42 28.25 27.89 28.69 29.54 29.81 29.59 30.42 30.44 30.07 31.56 33.47 32.63 28.98 29.69 29.29 28.39 27.44 26.72 25.06 29.56 29.69 29.45 28.72 28.80 27.58 26.99 26.59 26.35 26.32 25.67 25.66 24.91 25.50 25.16 23.90 23.55 23.20 22.35 21.08 20.56 19.63
28.11 24.18 27.25 28.72 29.91 30.67 29.93 29.66 30.35 29.93 30.52 30.78 30.62 33.14 31.10 29.81 31.32 30.58 29.29 28.73 28.18 28.52 28.57 28.55 29.00 28.92 28.94 28.14 26.85 25.83 25.10 25.36 23.62 23.78 24.38 23.88 23.83 24.06 23.37 23.86 23.97 23.58 21.81 19.17

GFSNGP_sfc_wetblb_006.txt.gz
Wetbulb
41.13 41.67 41.45 40.32 39.84 40.56 39.19 40.02 35.73 38.84 39.52 42.98 44.81 45.17 46.47 47.70 48.59 48.04 48.04 47.99 47.73 47.30 45.79 46.03 46.21 46.75 47.05 46.36 45.47 45.79 45.03 43.66 42.11 42.33 42.19 41.86 41.34 40.77 40.42 39.70 38.87 38.54 37.75 37.65
36.64 40.08 40.39 38.18 40.67 40.94 40.86 41.20 40.71 40.87 39.99 45.13 46.03 47.03 46.50 46.30 46.12 46.04 46.27 45.59 44.82 42.26 42.79 44.41 44.94 46.12 45.33 44.19 44.59 44.93 43.53 41.11 41.08 41.46 41.10 40.11 39.42 38.85 38.30 37.73 37.48 37.18 36.60 36.36
34.42 37.15 37.17 34.23 38.30 40.17 40.79 42.13 41.52 37.16 42.13 45.12 44.53 45.03 45.98 46.05 45.84 44.47 43.60 43.00 41.02 41.61 43.87 44.69 45.91 46.28 44.32 43.99 44.18 43.49 41.91 40.64 40.77 40.99 39.16 38.37 37.85 37.15 36.65 36.56 36.72 35.93 35.72 35.49
34.46 34.94 30.04 39.09 44.10 43.53 41.21 42.43 43.73 43.21 43.34 44.67 45.70 46.11 47.63 45.67 43.39 40.49 40.23 41.30 42.17 43.55 43.72 45.20 47.18 45.95 44.71 43.98 43.34 42.10 41.07 40.57 40.56 39.15 37.57 37.15 36.52 36.00 36.10 36.11 35.45 35.09 34.73 34.13
31.75 31.65 36.60 38.95 41.30 40.49 39.10 39.38 43.69 42.96 44.36 45.46 46.46 46.18 44.81 41.70 40.78 42.30 42.38 43.10 43.64 44.43 44.85 45.68 46.53 45.06 44.04 42.82 42.18 40.67 39.99 39.13 39.01 38.06 36.75 35.90 35.47 35.47 35.66 35.09 34.69 34.26 33.57 32.92
33.89 30.02 28.71 39.00 41.98 44.04 43.97 35.89 44.21 44.38 43.16 42.44 44.52 38.31 38.72 43.43 41.96 41.56 43.67 44.12 43.41 43.56 44.79 45.95 45.61 44.00 43.55 42.38 41.59 39.93 39.29 39.52 39.13 38.06 36.28 35.19 35.39 35.44 35.67 35.31 33.92 33.29 32.08 32.20
33.43 31.80 35.72 42.84 43.15 44.18 33.76 37.30 44.49 41.91 41.48 41.60 39.48 39.80 41.49 41.88 41.88 43.37 43.39 43.15 43.07 42.77 42.61 44.28 45.14 44.43 42.46 41.38 38.96 39.54 40.10 39.57 38.75 37.70 35.79 35.82 35.72 36.04 35.37 34.45 32.98 31.02 30.84 30.20
33.68 29.97 28.70 43.17 42.94 37.44 43.32 44.03 42.25 42.51 43.32 42.25 42.28 41.52 41.38 41.42 41.33 41.46 41.90 42.14 42.18 41.32 41.32 42.73 43.98 43.45 41.79 39.52 40.02 40.33 40.29 39.37 37.89 36.75 35.73 35.31 35.66 35.53 34.61 33.65 30.97 29.58 30.35 30.02
37.20 39.06 45.89 46.91 44.61 46.07 44.35 42.80 44.39 42.68 43.27 42.49 40.90 40.02 39.87 39.70 40.60 41.09 41.42 41.40 41.43 40.75 40.38 41.34 42.57 43.19 40.19 39.99 40.23 39.59 38.39 37.43 36.93 36.27 35.57 35.84 35.11 34.33 32.82 31.86 28.99 28.01 27.32 26.87
39.80 43.14 44.78 46.47 47.58 46.86 45.32 43.15 42.37 42.51 42.33 40.76 39.56 39.43 39.64 40.14 40.09 40.27 40.41 39.49 40.18 39.36 38.66 38.96 41.13 41.73 40.59 40.18 39.36 37.94 36.81 36.32 36.49 35.70 34.69 35.38 34.81 33.24 31.97 29.70 27.51 26.91 26.30 25.55
40.52 44.27 45.19 45.39 45.71 44.56 43.88 42.42 41.84 42.60 41.46 39.98 39.36 39.03 39.17 38.67 38.82 38.64 38.77 39.22 39.12 38.24 37.92 37.83 39.47 39.20 38.97 37.47 37.12 35.81 35.34 35.22 34.88 34.62 34.39 34.04 33.32 32.28 30.59 29.97 27.17 25.76 25.50 24.96
37.41 43.34 43.89 42.42 43.03 44.48 43.04 42.01 41.39 39.76 39.17 40.16 39.89 39.00 38.72 37.82 38.17 38.19 38.02 38.48 38.11 38.09 37.67 37.61 37.55 37.32 36.89 35.73 34.62 33.49 32.17 33.51 34.25 33.73 34.09 32.70 31.92 31.27 26.64 25.41 24.32 23.73 23.36 23.54
43.15 43.46 43.69 43.27 42.65 43.75 41.24 40.29 40.21 39.64 40.13 39.46 40.17 38.87 38.21 37.53 38.08 37.15 38.48 38.34 37.98 37.44 37.32 36.89 36.06 34.97 35.12 34.01 33.10 31.67 32.08 32.12 33.78 31.61 32.22 31.17 30.42 29.29 27.54 28.65 24.58 22.74 22.16 22.15
44.02 42.17 40.33 41.79 41.01 41.11 40.03 39.90 40.92 41.18 40.88 39.89 38.91 38.89 38.30 37.83 38.01 37.67 37.52 38.71 38.50 37.46 36.66 34.94 33.85 33.82 34.17 33.57 32.65 31.81 32.10 29.06 32.50 32.70 32.26 30.91 29.77 28.53 27.85 26.06 25.19 25.44 24.41 21.60
41.79 43.44 42.87 41.68 40.62 39.99 41.08 40.60 38.75 38.09 38.24 38.32 39.06 38.15 38.23 36.92 36.39 36.67 37.50 37.22 36.35 35.37 35.40 34.61 33.56 33.12 33.63 32.65 31.28 31.03 31.06 31.55 31.55 31.95 30.83 28.76 28.81 27.95 27.28 26.37 25.51 24.28 24.11 23.15
40.74 40.83 40.14 38.72 38.51 38.69 38.23 37.51 36.35 36.36 36.99 36.78 36.51 36.17 36.65 36.83 36.44 35.69 34.08 33.83 32.28 31.40 32.35 31.62 31.32 32.00 32.00 32.55 32.15 31.78 29.92 28.00 28.48 30.35 29.80 28.76 27.93 27.09 26.33 25.87 25.21 24.08 22.79 21.16
37.53 35.92 36.66 35.85 35.54 35.61 35.80 36.49 36.41 35.93 35.60 35.86 35.05 34.96 34.62 33.12 32.24 33.07 33.39 32.26 32.79 30.55 31.06 31.22 31.28 33.01 30.89 32.09 31.61 31.32 30.23 29.42 26.46 29.81 28.79 28.05 27.23 26.41 26.15 25.54 24.66 23.86 23.18 21.36
38.93 37.61 36.79 36.37 35.43 35.46 35.55 35.78 35.40 34.92 34.56 34.88 32.88 31.76 30.73 30.87 31.77 33.17 33.45 33.23 31.76 30.78 32.08 32.00 31.68 30.76 30.43 31.15 30.47 29.70 30.17 30.27 29.79 28.84 28.50 27.73 27.09 26.75 25.83 25.23 24.49 23.63 23.42 22.50
36.70 35.98 36.53 36.22 36.88 36.04 35.25 34.78 34.88 34.19 32.76 32.75 32.02 31.27 31.36 30.75 32.35 33.86 33.23 31.96 30.62 29.72 32.83 32.47 29.44 29.74 30.15 29.78 29.36 29.74 29.83 29.59 29.11 28.03 28.33 26.55 26.89 26.40 25.76 25.57 25.06 24.21 23.80 22.75
35.97 36.80 37.20 36.82 36.41 34.11 33.48 33.91 33.35 33.50 33.67 33.06 31.79 30.83 30.70 31.73 32.48 32.85 32.87 32.10 32.82 33.78 33.72 32.30 31.13 30.92 30.86 30.24 28.62 29.43 29.34 29.59 28.77 28.60 28.01 27.09 26.57 26.14 26.12 24.47 24.34 24.31 24.17 23.60
34.47 35.50 35.02 34.30 33.78 33.74 32.13 32.19 31.30 31.26 32.74 31.71 30.39 30.35 30.67 31.98 32.87 32.87 31.90 31.82 34.95 33.17 32.76 31.12 31.83 32.30 31.92 30.99 29.92 30.68 30.21 29.93 29.70 29.18 28.11 27.07 26.53 26.19 25.97 25.83 25.06 24.81 24.43 24.15
34.60 34.59 33.68 33.03 32.79 32.93 34.03 34.18 33.71 32.09 31.44 30.88 30.95 30.70 30.74 32.01 33.05 33.12 33.41 32.82 35.33 30.84 33.74 34.06 33.85 31.25 32.07 29.22 31.02 31.21 29.59 29.89 29.66 29.65 28.91 27.86 26.77 25.76 25.76 25.74 25.03 25.14 24.57 24.40
33.76 33.67 33.64 32.92 32.12 33.37 33.54 32.94 32.22 32.26 31.14 31.26 30.99 31.13 31.26 32.49 32.82 32.05 31.92 35.29 34.85 33.69 34.15 34.73 32.18 29.78 29.70 31.42 31.58 31.23 30.65 29.80 29.73 29.43 29.32 28.23 27.24 26.44 26.06 25.62 25.63 25.11 24.86 24.38
33.94 34.18 34.06 34.42 33.72 31.72 31.79 33.82 33.72 34.42 32.50 33.17 32.71 32.59 32.43 32.70 33.62 36.22 36.46 33.39 30.99 31.64 33.12 33.77 31.00 29.78 29.36 31.42 31.23 31.01 30.82 30.44 30.36 30.41 30.12 27.17 28.09 27.17 26.56 26.08 25.61 25.52 25.24 23.85
34.11 33.48 33.24 32.24 32.41 34.35 33.33 33.17 32.10 32.41 32.65 33.55 33.25 33.74 35.09 34.88 32.50 33.59 33.41 33.05 31.23 31.75 33.41 31.01 29.22 29.78 30.80 31.60 30.62 29.62 29.17 29.02 29.46 29.43 29.50 29.58 29.04 28.06 27.11 26.69 26.32 25.82 25.61 25.01
34.20 34.96 35.68 34.63 34.14 34.23 33.97 33.50 30.60 32.13 33.26 32.23 32.27 32.78 34.22 33.94 33.95 32.16 32.85 32.25 33.68 32.31 33.23 32.87 31.96 31.42 31.96 31.60 30.54 29.70 28.98 28.53 28.00 27.77 27.55 27.58 28.37 28.06 27.37 27.13 26.84 26.63 26.39 25.94
34.95 32.37 33.53 34.53 35.93 35.67 35.12 33.87 32.30 31.55 32.48 32.11 31.31 32.66 33.11 33.23 32.67 32.55 32.17 32.87 32.14 32.14 32.32 32.68 32.50 31.75 32.08 31.36 29.66 29.65 29.24 28.80 27.19 27.28 26.86 26.62 26.65 26.79 26.77 27.04 27.29 27.50 27.12 26.37

GFSNGP_sfc_wetblb_009.txt.gz
Wetbulb
43.20 43.29 43.06 42.01 41.69 42.31 40.85 41.48 37.49 40.31 41.16 44.20 46.42 46.56 47.79 49.07 49.14 48.34 47.75 48.17 47.67 47.77 47.81 46.72 46.09 47.01 47.42 48.39 47.75 47.34 46.18 45.38 44.34 43.99 43.56 42.66 41.68 41.27 40.73 40.05 39.36 39.06 38.52 38.24
38.75 42.77 42.14 39.91 42.03 42.58 42.50 42.58 42.34 42.51 41.65 47.69 48.11 48.70 47.97 46.84 47.22 47.17 47.12 46.48 46.28 46.17 45.58 45.46 45.85 45.96 46.99 47.22 46.69 46.77 45.43 44.17 43.89 43.32 41.86 41.28 40.18 39.93 39.13 38.54 38.35 38.30 37.64 37.19
35.56 40.98 39.03 35.63 41.01 41.63 42.34 43.77 43.07 38.88 43.33 46.78 46.50 45.98 44.79 45.10 47.21 45.97 44.78 44.08 45.39 45.13 45.15 45.60 45.75 46.43 46.30 47.00 46.73 45.48 44.64 43.87 43.13 41.81 41.21 40.00 39.33 38.45 37.77 37.41 37.71 36.96 36.63 36.43
35.56 36.05 31.04 42.01 46.42 45.60 42.96 44.06 45.27 45.03 45.55 46.61 45.26 46.49 46.51 46.91 45.63 44.06 43.64 44.44 44.70 45.19 45.37 45.49 45.83 46.13 46.87 47.00 45.87 44.93 43.86 42.65 42.12 41.33 40.29 38.99 38.64 37.48 37.24 37.43 36.75 36.00 35.70 35.49
33.66 34.04 38.16 41.34 42.98 42.26 40.88 40.75 46.03 45.22 46.26 46.50 47.17 46.84 44.39 46.20 45.63 44.15 44.58 45.40 45.50 45.42 44.62 44.41 44.50 45.24 45.37 45.07 44.54 43.68 42.73 41.51 40.85 40.80 38.95 38.08 37.39 36.90 36.98 36.57 36.16 35.51 35.13 34.14
36.26 30.99 29.92 40.59 45.37 46.62 46.01 36.85 46.46 46.05 44.80 43.05 44.62 38.82 42.05 45.33 45.49 44.76 45.48 45.04 44.33 44.75 44.54 43.92 43.94 44.15 43.28 42.83 43.11 41.95 42.00 40.85 40.71 39.89 38.91 37.43 37.17 36.61 36.99 36.56 35.65 35.16 33.85 33.00
34.80 33.11 37.07 44.35 45.08 46.81 35.01 38.46 46.90 45.71 43.90 43.83 41.01 42.66 44.50 44.70 44.55 44.59 44.00 43.98 44.54 43.89 42.66 42.74 43.22 42.89 41.75 41.68 41.22 42.13 42.05 41.20 40.72 40.39 39.01 37.95 37.03 37.10 36.51 36.02 35.28 33.87 33.14 32.66
35.85 32.44 29.99 45.98 44.70 39.08 44.95 47.47 46.41 44.38 44.07 43.05 43.87 43.64 43.44 42.86 42.42 42.78 42.69 42.95 43.04 41.61 41.35 41.96 42.08 41.31 40.23 39.85 42.01 41.81 41.46 40.71 39.45 39.40 38.35 37.21 36.77 36.46 36.16 35.07 33.57 32.46 31.87 31.80
40.13 40.17 47.00 47.45 46.48 49.04 47.95 45.89 45.25 43.21 43.25 44.05 42.62 41.99 41.86 41.42 41.83 42.03 41.84 41.40 41.49 40.70 40.28 40.81 41.15 40.62 38.86 40.66 41.89 40.64 39.51 38.83 38.33 38.09 37.39 37.09 36.12 35.32 34.08 33.88 31.90 30.08 28.81 28.83
42.02 44.62 45.55 46.31 48.03 48.08 47.48 45.56 44.02 43.44 45.19 43.59 41.70 41.36 40.87 41.34 41.25 40.41 40.45 39.88 40.24 39.72 39.12 39.07 40.46 40.21 39.81 40.04 39.62 39.08 37.08 36.89 36.78 35.86 35.50 36.23 35.86 34.88 33.47 31.84 29.56 28.39 27.04 25.96
43.41 46.06 46.14 47.64 46.63 46.68 45.50 45.49 44.90 45.60 43.75 42.63 41.55 40.89 41.19 40.26 39.74 39.69 39.74 39.85 39.84 39.39 38.89 39.03 39.95 39.44 39.54 39.33 37.72 35.89 35.18 35.20 35.07 35.56 35.47 35.13 34.74 34.21 32.72 32.03 28.68 26.59 25.83 24.89
41.20 46.25 45.00 45.05 46.54 46.70 45.51 44.49 44.19 42.32 41.87 42.45 42.14 40.78 40.64 39.34 39.65 39.38 39.07 39.39 39.25 39.37 39.24 39.21 38.85 38.05 37.81 37.92 36.79 34.78 33.34 33.90 34.87 34.64 34.67 33.36 33.14 32.50 27.73 26.83 25.57 24.44 23.11 23.70
46.42 47.91 46.26 45.30 44.81 46.03 44.56 43.22 42.85 41.97 42.29 40.83 41.16 40.64 40.06 39.28 39.60 38.29 39.48 39.06 38.76 38.75 38.88 38.41 37.07 35.03 35.94 36.23 35.19 33.32 32.56 33.15 33.72 33.18 32.75 32.04 31.10 29.41 28.28 29.82 26.34 25.25 23.43 22.74
47.77 45.78 40.50 42.77 42.50 44.00 43.20 42.37 42.62 42.51 41.64 40.77 40.21 40.32 39.45 38.70 38.71 38.18 38.06 38.87 39.22 38.51 37.62 36.81 35.83 34.99 35.98 36.02 34.61 33.42 32.84 31.25 32.54 32.44 32.13 31.27 30.13 29.02 28.85 27.50 26.76 27.58 26.64 23.20
43.62 43.88 43.11 44.20 43.98 42.59 42.66 41.69 39.37 38.81 39.17 38.80 39.18 38.19 38.21 37.16 37.15 37.52 38.73 38.94 37.44 35.51 36.70 35.97 34.72 34.95 35.88 34.99 33.13 33.07 31.68 30.51 31.70 31.35 31.07 29.65 29.91 29.69 29.16 28.12 27.36 26.60 26.98 26.53
42.86 43.85 43.36 41.24 40.41 39.85 39.14 38.72 37.70 37.60 37.77 37.13 37.41 36.93 37.56 37.51 37.52 37.41 37.61 38.01 33.75 31.91 33.44 31.80 31.29 33.60 34.76 34.33 33.91 33.86 33.91 29.68 29.62 30.14 29.93 29.91 29.16 28.51 27.78 27.20 26.90 26.50 25.83 24.88
41.11 39.53 39.41 37.82 37.48 37.53 37.70 38.43 37.99 37.06 36.79 36.70 35.99 36.24 35.46 34.21 33.40 34.89 35.18 35.61 34.56 32.96 33.13 31.80 31.87 34.52 33.55 33.47 33.14 33.44 32.31 30.76 29.12 29.47 29.62 28.69 28.17 28.29 27.41 27.08 26.40 26.04 26.25 24.62
42.71 40.80 38.78 37.80 37.40 37.26 37.41 37.65 36.80 36.47 35.77 36.39 34.56 33.07 32.56 32.09 32.09 32.64 32.79 33.55 33.51 32.96 33.58 32.14 32.82 33.24 32.40 33.06 32.33 31.33 29.61 29.92 29.78 29.50 29.09 29.39 28.33 27.58 27.84 26.67 26.65 25.94 26.18 25.62
38.95 37.88 38.10 37.96 38.35 37.96 37.36 36.40 36.35 36.04 34.49 34.55 33.61 32.68 32.99 32.54 32.88 33.51 33.94 32.66 32.60 32.21 33.82 35.28 31.19 29.92 31.35 30.99 29.56 30.30 30.34 29.50 29.38 29.82 30.00 28.16 28.56 28.27 28.16 27.93 27.01 26.84 26.25 25.21
37.23 38.00 38.21 38.02 37.98 36.43 35.76 36.41 35.42 35.47 36.05 35.27 33.51 32.30 32.38 32.43 32.84 32.83 33.33 32.36 33.38 34.00 35.65 34.83 32.38 31.71 31.95 31.28 29.18 30.46 30.37 29.91 29.05 30.00 30.32 28.99 28.39 28.46 27.62 27.35 27.28 27.05 26.53 26.20
35.74 36.57 36.68 36.88 36.39 36.42 34.41 34.49 33.45 33.41 34.97 34.17 32.24 31.82 31.52 31.86 31.66 32.08 32.39 32.87 35.39 34.96 35.93 33.42 32.93 33.44 34.04 32.44 31.02 32.81 31.76 30.99 30.30 29.98 30.14 29.71 28.54 27.99 27.82 28.05 28.44 27.69 27.24 26.20
36.57 35.97 35.41 35.50 35.28 35.13 36.54 36.39 36.09 34.23 33.67 33.14 32.65 32.34 31.24 31.85 32.04 33.08 33.93 33.63 36.82 33.36 35.20 34.48 34.34 32.97 33.51 29.87 32.56 33.20 30.79 30.24 30.45 30.91 30.23 30.34 29.68 27.90 27.23 27.97 27.60 27.97 27.41 27.16
35.66 35.43 35.44 35.35 34.01 35.37 36.42 35.04 33.87 33.33 32.60 32.96 32.54 32.27 33.01 33.47 33.36 31.83 31.70 36.10 35.98 34.52 35.66 35.15 33.57 30.89 30.00 32.22 32.57 32.42 31.85 30.64 30.19 30.51 30.56 30.51 29.66 28.58 27.49 27.10 27.31 27.13 26.52 26.99
35.64 35.62 36.04 36.49 36.22 34.97 33.30 36.02 36.54 35.82 33.87 33.76 33.33 33.51 33.92 32.19 33.45 36.43 35.72 35.05 33.04 32.36 33.66 34.56 32.71 30.50 30.29 31.51 31.88 31.33 32.06 31.88 31.76 31.85 31.31 30.42 31.50 30.09 28.54 27.63 27.09 27.41 27.47 26.90
36.02 35.61 35.46 35.11 34.60 35.65 36.34 36.72 36.28 36.07 35.14 35.03 35.03 35.59 35.44 34.96 32.96 33.42 33.69 33.33 32.41 32.39 33.14 32.41 31.44 30.57 31.42 31.33 31.69 31.88 31.69 31.28 30.73 31.05 30.41 30.98 30.97 31.11 30.09 28.72 27.95 27.49 27.58 27.81
35.54 36.17 36.69 36.82 36.99 37.44 37.28 36.89 36.11 36.01 34.67 34.13 35.38 35.21 35.32 35.32 34.81 33.45 33.85 33.04 33.30 33.36 32.60 32.60 32.24 31.69 31.69 32.06 31.88 31.88 31.30 30.64 30.03 28.68 28.57 28.36 28.61 28.70 28.75 28.45 28.34 27.98 28.01 28.21
36.79 34.12 36.89 36.99 37.63 37.78 38.03 36.99 35.32 34.13 33.22 32.96 32.62 34.55 34.86 34.41 33.45 33.32 32.96 32.96 32.78 32.96 33.14 32.78 32.96 32.16 32.22 32.06 32.42 31.76 31.61 31.41 29.78 28.40 28.14 27.49 27.49 27.20 27.10 27.33 27.73 28.19 28.37 28.32

GFSNGP_sfc_wetblb_012.txt.gz
Wetbulb
42.51 42.76 42.86 41.77 41.27 41.86 40.41 41.19 36.12 39.25 39.95 43.51 45.58 46.36 46.61 47.54 47.84 47.81 47.81 47.56 46.98 46.56 46.78 46.01 45.82 46.30 46.42 46.58 47.62 47.47 45.42 44.75 44.05 43.58 42.93 41.63 41.11 40.58 39.65 38.68 37.77 37.28 36.33 36.07
39.52 42.97 41.79 39.11 41.07 41.39 41.69 41.99 41.58 41.94 40.96 47.08 47.94 47.69 46.43 46.30 46.57 46.25 46.20 45.44 45.33 45.97 45.61 45.26 45.56 45.42 45.58 45.61 46.57 47.02 44.82 44.05 44.39 43.71 42.24 41.22 40.43 39.80 38.59 37.19 36.76 35.91 35.24 34.96
36.02 39.44 38.85 36.29 41.11 41.71 42.34 43.57 42.74 38.39 43.27 46.62 45.41 45.48 45.65 45.98 46.16 44.70 44.22 44.21 44.23 44.54 45.10 44.82 43.95 43.81 43.32 44.49 46.14 45.58 44.83 44.36 43.57 41.56 40.82 40.60 40.14 38.29 36.76 35.72 35.22 34.49 34.30 34.10
35.20 35.99 31.22 42.00 45.74 45.15 42.90 43.81 44.85 44.54 45.50 46.06 45.22 46.03 46.72 46.23 44.57 43.48 43.65 43.83 44.19 44.61 44.00 44.04 43.94 43.71 43.59 43.27 42.97 42.90 43.49 42.97 42.65 41.17 40.60 39.88 38.75 37.30 35.78 35.26 34.21 33.54 33.59 33.04
34.19 33.03 37.17 40.65 43.45 41.84 40.26 39.69 45.31 45.11 45.32 45.31 45.53 45.56 43.90 45.31 44.91 43.99 44.14 44.47 43.92 43.81 43.89 43.56 42.88 42.60 41.79 41.24 41.29 41.37 41.01 41.77 40.96 40.37 39.66 39.02 37.31 35.66 34.86 34.18 33.28 33.13 33.42 31.84
34.51 30.77 28.24 41.17 45.17 46.97 45.71 35.81 46.46 45.59 44.30 43.36 43.90 37.64 40.32 44.35 44.49 44.05 43.77 43.33 42.97 43.25 43.05 41.76 41.64 41.34 40.45 39.60 39.18 39.09 40.18 40.82 40.00 39.74 39.23 37.63 36.84 35.27 34.57 33.96 33.93 32.69 31.50 30.78
34.81 31.89 36.21 43.97 45.80 46.93 34.41 37.61 46.14 46.09 44.42 43.34 40.83 41.61 43.55 44.56 43.43 43.00 42.94 42.67 42.94 42.17 40.70 40.78 40.99 40.56 38.99 38.53 38.01 40.18 40.94 40.58 39.26 38.17 38.22 37.52 36.29 35.00 33.67 32.87 31.67 30.57 29.87 29.77
35.43 32.54 30.07 46.38 44.92 39.05 44.79 47.84 46.82 45.57 44.47 42.86 42.77 43.84 43.00 42.39 41.66 41.86 41.35 41.18 41.06 39.78 39.56 40.30 40.58 39.73 38.49 37.65 39.42 40.10 39.61 39.22 38.81 38.63 38.08 37.36 34.91 34.21 33.52 31.05 30.00 28.55 25.94 26.98
39.55 38.90 47.17 48.96 46.23 48.09 47.65 45.89 45.15 44.76 44.17 43.44 43.31 41.93 41.73 40.73 41.24 41.12 40.29 39.72 40.20 39.22 38.90 39.92 40.40 39.93 38.12 38.51 39.22 38.72 37.36 36.94 36.97 37.04 36.58 35.73 33.17 31.30 30.43 29.97 27.74 26.52 26.33 24.33
42.92 44.94 45.72 47.37 48.44 48.72 48.04 46.19 45.81 45.29 44.68 44.87 41.74 41.59 40.45 40.97 40.62 39.70 39.34 38.87 39.37 38.71 38.35 38.50 39.71 39.96 39.01 38.59 38.58 36.77 35.25 35.22 35.23 34.19 33.78 33.71 33.68 32.00 29.91 28.25 26.66 26.56 24.48 22.81
43.28 46.20 47.22 47.39 47.72 46.85 46.12 46.32 45.42 45.69 44.34 42.37 41.59 40.66 40.40 39.56 39.35 39.20 39.01 39.30 38.97 38.42 37.82 37.93 38.98 38.59 38.25 37.16 36.98 35.04 34.58 33.94 32.60 32.43 32.57 32.25 32.20 29.58 29.23 27.75 26.04 24.19 23.15 22.15
40.70 46.94 46.45 45.86 46.37 46.27 44.99 44.59 45.24 42.68 41.91 42.25 41.56 39.64 39.65 38.75 39.16 38.84 38.06 38.47 38.09 38.16 37.85 38.03 38.14 37.32 37.30 36.76 35.91 33.51 31.56 31.44 31.70 31.17 31.33 30.95 30.31 29.46 28.93 27.43 26.88 25.93 23.97 21.44
45.67 48.84 47.90 46.85 45.89 45.96 44.99 44.24 43.28 42.12 41.87 39.66 39.92 39.58 38.78 37.69 37.96 36.81 37.85 37.99 37.62 37.51 37.81 37.26 36.79 35.87 36.63 34.82 33.78 32.20 30.65 30.42 30.76 29.98 30.98 29.35 28.82 28.47 26.24 28.36 28.39 27.33 25.48 25.08
48.64 46.86 43.33 43.81 42.22 44.30 43.58 43.06 42.35 42.00 40.49 39.89 39.07 38.69 37.85 37.30 37.41 37.16 36.81 37.69 38.27 37.90 36.89 35.74 35.80 34.88 36.02 35.57 33.08 31.22 31.32 29.21 30.95 31.30 29.79 28.83 28.36 28.05 28.12 26.91 24.93 26.19 27.22 25.73
46.00 45.86 44.86 44.84 44.41 43.91 43.35 41.62 38.90 38.15 38.40 37.94 37.96 37.26 36.99 35.89 35.42 35.73 37.19 37.21 37.21 36.64 36.22 34.94 34.01 32.77 34.74 34.04 32.11 31.57 31.24 29.67 29.01 30.56 29.97 29.19 28.82 28.68 28.28 27.37 26.29 25.68 24.28 24.38
44.49 44.33 44.07 43.39 41.90 40.87 39.40 38.49 37.30 37.07 36.96 36.36 36.33 35.56 36.28 35.71 35.50 35.07 35.74 35.66 31.97 31.39 33.53 32.50 31.24 31.91 33.31 33.90 32.52 31.71 31.36 28.56 26.62 29.04 29.64 29.35 28.67 27.74 26.98 26.80 26.12 25.78 23.64 22.01
42.29 40.59 41.27 39.54 38.67 37.62 37.50 38.12 37.62 36.51 35.94 35.72 34.84 34.40 34.21 32.85 32.19 32.77 33.07 32.68 31.42 32.15 33.15 32.72 32.08 32.91 33.49 33.47 31.66 31.32 30.50 29.93 28.83 28.79 28.47 28.94 27.89 27.47 27.43 26.65 25.67 25.55 24.75 20.20
44.56 43.47 40.76 38.83 37.29 37.10 37.90 37.63 35.90 35.36 34.73 35.54 31.91 28.86 28.24 28.06 30.39 30.76 31.13 31.87 31.60 32.05 33.20 33.56 32.36 32.23 32.07 32.24 30.98 29.61 28.27 28.50 29.25 29.35 29.28 28.50 28.49 27.50 26.72 27.00 26.31 25.61 24.73 22.95
41.34 39.00 38.62 38.04 38.36 37.77 37.20 36.12 35.17 34.43 31.63 31.46 30.80 31.05 30.69 30.61 31.29 31.65 31.84 31.02 31.04 30.89 32.40 32.89 32.29 31.46 31.28 30.48 28.98 28.47 29.41 29.27 29.16 28.79 29.27 28.97 28.25 27.79 27.48 27.58 27.40 26.07 25.08 24.40
38.40 38.40 38.21 37.42 36.52 34.98 34.02 34.82 32.97 34.23 34.75 32.92 29.33 30.53 30.81 29.64 30.06 31.39 31.24 29.93 31.04 32.57 34.30 33.80 33.00 30.96 29.67 30.09 27.26 28.59 29.88 29.76 28.91 28.66 29.25 28.99 28.61 28.13 28.44 26.99 26.71 26.80 26.54 25.50
35.40 36.38 34.39 35.25 34.86 33.43 32.75 32.45 30.75 32.21 33.77 30.61 31.00 31.05 30.55 31.34 31.65 31.65 30.53 29.32 32.08 33.49 34.00 33.89 32.87 32.02 31.85 31.33 29.38 29.45 29.51 30.17 29.08 28.93 29.06 29.13 29.06 28.47 28.06 27.82 27.43 27.75 26.96 26.40
36.48 34.30 31.94 32.31 33.07 33.73 34.49 34.81 35.10 32.54 32.10 31.38 29.03 31.34 31.73 30.76 31.40 31.30 32.27 31.46 33.77 33.84 33.63 33.20 33.94 32.86 32.44 27.20 30.53 31.09 29.69 29.17 28.16 29.76 29.38 29.53 29.01 28.96 28.11 27.59 26.96 27.46 27.43 26.94
35.27 34.26 33.38 32.34 31.24 34.36 35.09 34.11 32.78 32.68 32.14 32.52 31.79 31.73 31.85 31.80 31.85 30.65 29.62 33.34 32.82 34.00 33.12 33.09 33.96 32.59 31.89 31.11 31.06 29.90 29.64 29.05 29.04 28.92 29.19 29.49 29.12 28.87 28.25 27.58 27.46 27.19 26.26 25.98
35.46 34.73 34.60 34.31 33.68 33.47 32.67 34.58 34.66 34.55 32.61 31.87 31.36 32.99 32.97 32.09 32.63 33.57 33.94 33.40 32.55 32.97 33.08 32.99 33.02 32.14 31.19 31.23 29.85 29.51 29.17 29.25 30.27 30.00 29.83 29.64 29.82 29.38 27.71 27.93 27.36 27.78 27.23 26.89
33.71 34.22 34.10 32.65 33.36 34.20 34.85 35.69 35.06 34.66 34.12 34.72 34.03 34.04 34.05 34.65 33.08 32.96 33.30 33.45 32.66 32.40 32.47 32.69 32.16 31.96 31.82 30.87 30.01 29.77 30.05 30.03 29.45 28.76 29.71 29.31 28.93 28.71 29.38 29.60 28.67 28.02 27.80 27.55
34.68 34.94 35.40 35.35 35.31 35.85 36.60 36.57 35.39 36.12 35.72 33.99 33.55 33.41 34.10 34.21 34.30 33.89 33.59 32.99 32.70 32.84 32.43 32.94 32.58 32.35 31.75 31.18 30.48 30.36 30.76 30.24 28.99 29.27 29.15 28.31 28.09 27.56 27.71 28.32 28.68 28.27 27.92 27.80
35.62 33.56 35.97 36.37 37.29 36.86 36.71 36.06 35.21 34.89 34.59 33.12 31.96 32.90 33.34 33.04 33.02 33.39 33.02 32.87 32.62 32.67 32.70 32.76 32.76 32.43 31.99 31.65 31.38 31.30 31.60 30.94 29.62 29.42 29.01 28.25 27.59 27.27 27.22 27.08 27.14 27.04 27.23 27.45

GFSNGP_sfc_wetblb_015.txt.gz
Wetbulb
39.36 39.97 40.13 38.72 38.12 38.16 36.44 36.33 29.65 33.25 36.96 40.92 40.67 41.64 42.91 44.18 44.60 44.13 43.20 43.37 42.88 42.02 41.02 40.96 41.17 41.71 41.73 41.66 41.92 43.45 43.07 41.81 41.41 41.78 40.61 39.49 40.69 39.68 39.22 36.96 35.13 34.91 33.84 33.57
32.64 39.83 38.84 35.67 38.17 38.27 38.23 38.82 37.87 38.01 37.00 43.78 43.36 43.52 42.93 43.14 42.98 41.83 42.19 42.06 42.04 42.23 41.66 41.71 41.15 39.71 40.14 39.78 41.12 42.78 41.53 41.81 41.83 40.65 40.40 40.45 39.92 40.16 38.14 34.38 34.18 33.49 32.29 32.45
28.89 35.28 34.06 27.42 35.20 38.90 39.60 40.42 38.64 31.88 38.34 42.13 41.06 41.57 40.71 40.67 41.63 40.98 40.69 40.87 41.28 41.47 41.80 40.40 39.01 39.56 37.51 37.85 38.82 38.23 38.32 41.03 41.22 41.16 40.00 39.51 40.64 39.69 35.80 31.96 32.10 32.58 31.05 30.93
24.25 26.29 18.73 37.90 42.70 41.83 39.74 40.55 41.00 41.89 41.42 41.32 40.90 41.16 41.48 41.32 39.75 39.75 40.31 40.92 41.28 41.26 38.83 38.83 37.85 37.17 37.08 37.26 37.15 36.69 37.78 38.83 39.40 39.37 38.53 38.98 38.75 37.46 33.14 32.49 32.01 29.87 29.32 29.45
26.39 24.79 30.98 38.11 40.89 38.80 36.45 35.63 42.93 41.27 41.60 41.81 42.47 41.75 38.85 41.45 40.37 39.12 40.10 40.67 39.38 38.05 38.04 36.35 36.21 36.40 36.07 35.86 35.44 35.66 37.40 37.37 37.63 37.81 37.53 37.45 37.53 33.85 33.31 32.66 29.50 29.35 29.83 29.14
24.63 19.24 16.37 33.56 41.92 44.32 42.53 28.61 43.32 42.62 40.78 40.03 39.72 29.79 35.62 39.66 40.73 40.38 39.07 38.54 37.69 37.14 36.46 35.43 35.56 35.95 35.46 34.65 34.42 36.01 37.36 37.71 37.94 37.11 36.62 36.25 35.12 34.79 32.22 30.81 30.28 29.62 29.27 28.73
30.09 18.21 28.11 40.04 43.52 44.46 29.12 30.40 42.69 42.14 40.90 40.04 36.80 37.29 40.01 40.78 39.00 38.89 38.39 37.55 37.38 36.16 34.60 34.82 35.75 35.87 34.74 34.12 34.21 36.63 37.53 37.26 36.82 36.93 36.64 36.26 35.94 33.34 30.59 27.97 28.46 26.24 25.65 26.44
30.95 26.33 22.19 43.48 42.09 33.77 37.98 42.89 42.99 41.64 41.22 41.16 40.83 41.50 42.32 38.93 38.49 38.46 36.16 35.61 36.30 34.52 34.38 35.43 36.12 35.26 34.31 33.60 35.64 36.40 35.39 35.20 34.86 34.87 34.79 35.76 31.78 29.31 27.85 26.75 25.88 23.83 16.16 19.49
32.42 30.59 39.78 43.33 42.02 44.05 44.28 42.73 41.79 41.41 43.45 41.45 40.62 41.85 39.08 37.92 37.60 36.72 34.34 34.22 35.20 33.95 34.60 35.44 35.57 35.59 33.82 34.24 35.62 34.84 33.38 32.75 32.62 33.08 33.17 32.24 28.21 26.33 26.02 25.70 22.08 22.15 23.13 16.86
36.05 41.12 42.47 43.02 45.24 45.73 44.77 43.19 43.56 44.50 44.89 44.04 41.93 38.24 37.18 36.47 35.48 34.87 34.03 33.27 34.24 34.46 33.74 33.90 35.25 36.08 34.61 34.30 34.65 33.30 31.83 31.35 31.05 30.25 30.92 29.70 28.66 27.38 25.75 21.26 19.94 23.52 20.88 18.70
35.82 41.29 42.49 44.17 43.95 43.59 43.58 44.46 44.89 44.19 44.53 40.29 38.28 36.78 35.85 34.65 34.39 34.08 33.10 34.07 34.23 33.50 33.46 34.02 34.85 34.72 34.52 33.59 33.73 32.15 31.21 30.61 28.82 28.44 28.20 28.34 27.16 25.56 25.57 23.50 22.52 19.80 18.54 18.25
32.79 41.83 41.63 41.88 43.55 44.85 44.87 44.19 44.59 43.96 40.15 39.93 37.65 35.27 35.05 33.69 33.86 33.17 32.85 33.87 33.98 34.34 34.42 34.12 34.10 34.11 35.17 35.18 32.56 30.25 28.67 28.19 26.88 26.21 25.16 27.10 26.18 25.70 28.88 27.48 27.86 26.85 25.27 16.39
41.13 45.94 44.51 43.87 43.70 45.82 43.70 44.16 44.08 40.65 39.25 35.82 35.95 34.90 34.17 32.74 33.54 33.52 33.82 33.86 33.99 34.10 34.65 33.57 32.44 32.42 33.64 31.72 30.56 29.15 28.25 28.51 25.98 26.23 25.48 24.12 23.03 22.92 19.42 25.13 29.88 29.53 27.21 26.26
45.55 43.52 40.48 42.55 41.75 43.91 42.92 41.88 41.46 39.76 37.13 36.10 34.46 34.43 33.71 33.14 33.43 33.04 32.60 33.42 34.37 34.00 33.36 32.98 32.69 32.99 33.54 32.69 30.89 27.20 27.36 26.42 24.66 22.94 22.01 22.14 26.11 26.49 26.41 24.19 16.86 22.40 26.41 27.13
43.43 43.71 43.05 43.15 43.68 42.37 41.88 38.35 35.73 34.53 34.17 33.45 33.95 33.36 33.04 32.06 31.37 31.66 32.95 33.54 32.83 31.78 31.30 31.69 32.55 33.14 33.46 30.60 31.49 29.59 28.28 25.37 22.61 19.42 19.53 26.80 26.46 26.08 25.80 25.04 24.72 20.74 19.78 21.74
42.93 43.51 43.40 42.14 42.15 38.71 36.29 35.05 33.72 32.81 32.87 32.69 32.41 31.35 33.01 32.54 32.00 31.71 31.80 32.13 28.92 29.48 29.70 27.19 30.86 32.35 32.40 31.87 32.12 29.83 27.21 24.51 22.31 20.62 21.63 26.49 26.28 25.10 25.37 24.71 23.95 22.26 18.51 14.75
40.60 39.91 41.35 37.61 34.87 34.26 34.10 34.45 33.92 32.66 32.58 32.34 30.51 30.84 31.37 30.42 28.51 29.24 29.15 28.51 26.43 28.32 30.02 30.00 31.61 34.20 32.25 32.35 31.53 29.67 24.55 23.88 21.92 22.44 23.42 26.10 25.76 24.94 24.94 24.31 24.18 22.14 17.44 12.78
41.99 39.35 38.05 36.26 34.28 34.02 33.60 32.20 31.22 30.84 30.44 30.73 26.73 21.66 20.87 19.85 26.28 27.19 26.39 29.41 30.67 30.30 31.14 31.01 32.24 33.01 31.63 31.89 30.96 25.59 21.56 21.04 20.86 20.39 25.90 26.29 26.38 25.78 24.69 22.92 23.82 22.75 18.77 15.81
38.45 37.22 36.80 36.18 35.29 32.50 31.59 31.04 31.50 31.01 26.82 24.82 23.11 24.97 23.76 24.25 27.04 28.26 30.01 29.69 29.34 28.93 29.74 31.58 31.88 32.23 32.18 29.32 26.37 21.84 18.59 16.97 22.26 26.23 26.69 24.13 25.05 25.21 25.18 23.28 22.94 23.44 22.44 14.93
35.82 35.91 34.95 34.29 33.83 30.78 29.38 30.91 27.22 30.36 31.19 27.36 20.31 21.00 23.95 21.31 26.73 30.01 30.13 29.30 29.98 30.84 31.35 30.96 32.92 32.66 31.16 29.40 25.14 23.32 18.31 15.91 20.54 25.37 17.70 17.76 24.02 26.46 24.95 25.48 23.17 17.59 19.75 21.26
31.93 32.44 31.07 30.60 29.86 28.49 27.27 27.46 23.50 27.89 29.85 24.24 25.31 26.22 28.48 25.94 24.35 28.54 29.15 28.79 29.16 26.47 29.48 33.12 32.06 32.49 31.85 28.97 23.98 21.53 19.14 17.42 16.65 17.86 17.37 20.15 19.15 23.26 26.56 25.58 24.95 15.74 14.68 17.60
31.88 30.75 27.22 27.11 28.19 29.78 29.67 29.73 30.37 26.25 29.24 31.10 24.93 24.34 22.22 25.03 25.12 25.28 30.82 29.41 30.19 32.09 30.19 32.40 31.18 32.27 32.33 29.36 29.78 27.60 22.73 21.48 21.63 24.98 17.18 20.92 19.16 22.53 22.72 24.87 25.20 24.55 18.23 16.62
32.01 31.66 30.56 27.23 25.27 30.30 30.26 28.94 28.09 29.30 28.08 27.42 27.07 30.13 26.97 27.69 27.50 27.71 28.31 28.40 30.28 31.59 31.46 32.13 32.29 32.33 32.38 32.03 30.16 28.72 27.32 21.72 19.88 20.99 25.50 26.43 26.59 25.12 25.68 25.71 25.76 25.72 25.28 24.34
32.11 31.20 30.84 30.71 27.39 27.68 28.62 31.46 30.63 30.82 28.14 28.10 31.67 30.36 25.33 26.14 28.57 28.67 31.64 32.32 31.59 31.63 32.15 32.47 32.56 32.17 31.76 32.12 30.51 29.27 27.22 24.23 26.95 21.94 21.79 26.64 27.35 27.36 24.21 23.67 26.57 26.19 25.90 25.75
29.16 30.57 30.56 27.08 29.44 30.19 31.08 31.98 30.86 30.00 29.45 29.62 29.22 28.27 26.55 25.74 27.29 31.14 32.54 32.73 32.26 31.44 31.85 32.48 32.33 32.14 31.85 31.82 30.54 29.34 28.43 27.24 27.18 27.25 25.50 25.20 27.91 27.72 25.63 23.25 26.29 27.42 26.97 26.24
31.09 29.83 30.23 31.52 30.85 30.90 30.87 30.24 29.88 29.97 26.65 22.81 23.21 21.32 21.26 22.52 29.02 27.71 30.60 32.24 32.61 32.40 31.91 32.41 32.57 32.44 32.04 31.79 31.15 29.53 29.38 29.05 29.31 28.75 28.75 27.13 26.82 26.45 26.42 26.38 26.85 26.54 27.03 26.79
30.62 27.72 29.10 30.23 30.03 29.57 29.04 26.79 24.89 26.55 26.05 22.62 26.33 23.33 24.39 31.34 26.61 27.22 30.87 31.83 31.74 32.18 32.36 32.35 32.41 32.35 32.38 32.20 31.93 30.70 29.86 29.85 30.12 29.85 28.62 27.11 25.91 25.37 25.77 26.47 26.42 26.00 25.48 25.51

GFSNGP_sfc_wetblb_018.txt.gz
Wetbulb
36.60 37.73 37.40 35.89 35.54 35.64 34.67 34.29 29.45 32.34 34.19 37.63 39.45 39.74 41.10 42.02 41.58 41.01 40.86 41.14 41.11 40.80 39.77 39.18 39.53 38.84 37.83 37.79 39.06 39.89 39.00 38.15 38.74 39.15 39.07 38.65 38.92 38.18 38.97 38.91 38.42 35.01 34.19 32.61
32.16 37.60 37.25 33.56 36.30 36.19 35.84 36.37 35.68 35.69 35.38 40.53 41.01 41.16 40.45 40.50 40.31 40.00 40.60 41.13 40.44 40.54 40.12 40.28 38.26 36.38 36.75 36.62 36.85 37.20 36.16 38.98 39.61 39.71 39.24 38.73 38.55 38.25 37.89 38.11 34.75 33.70 32.57 31.97
26.32 32.75 32.63 26.36 34.42 36.63 37.14 37.55 36.66 31.39 36.72 40.05 39.10 39.83 38.90 38.92 39.82 39.57 38.75 38.94 39.42 39.36 39.56 36.82 35.62 36.07 34.78 35.67 36.44 35.60 37.71 38.28 38.54 38.64 38.32 37.84 38.30 38.59 37.74 35.26 33.04 31.27 30.97 30.82
22.17 23.36 17.03 35.66 40.39 40.21 37.86 38.82 39.61 38.98 39.02 39.54 39.40 39.27 39.06 39.55 38.51 38.55 38.90 39.27 38.99 37.89 35.80 35.33 34.84 34.71 35.02 35.45 34.78 35.21 36.22 36.67 36.76 36.94 36.43 36.87 36.72 36.33 35.72 32.22 32.58 30.32 29.69 28.38
19.79 23.56 27.95 35.59 38.92 37.62 35.29 34.51 40.96 39.67 39.74 40.14 40.05 38.35 36.56 39.81 39.48 38.28 38.19 37.51 36.46 35.43 35.25 34.14 34.16 34.46 34.08 33.77 33.19 35.77 35.81 35.90 36.47 36.50 35.89 35.96 34.35 33.60 34.10 32.05 28.94 28.92 28.65 27.92
26.69 17.12 15.16 30.06 39.85 42.48 40.62 29.15 41.59 40.92 39.70 39.29 38.44 29.74 34.20 39.17 39.38 38.28 36.68 36.26 34.80 34.41 34.06 33.32 33.83 33.83 32.85 32.22 33.73 34.54 35.70 35.88 35.82 36.20 35.75 34.90 33.59 32.92 31.75 28.66 29.65 28.92 28.05 26.77
16.89 16.23 26.07 35.54 41.42 42.29 28.35 29.79 41.53 41.11 39.79 38.89 35.86 35.83 38.62 41.08 37.82 36.44 35.98 35.48 34.78 33.77 32.97 33.30 33.56 33.61 32.66 32.63 32.77 34.65 35.06 34.88 34.36 34.14 33.77 34.32 33.95 32.25 27.96 28.61 27.37 24.73 24.04 24.54
25.45 16.90 21.59 39.85 40.57 33.49 36.24 40.43 41.84 40.48 40.51 39.60 39.92 41.19 42.41 39.87 36.69 36.19 34.05 33.80 34.06 33.35 32.96 33.45 33.76 33.83 32.06 31.70 34.00 34.58 33.42 33.09 32.26 31.95 31.98 32.04 27.80 26.88 27.25 25.38 24.86 22.96 12.38 17.45
31.83 30.92 38.07 41.03 40.68 41.22 43.05 41.54 40.54 40.26 41.45 41.68 39.82 40.32 39.80 36.36 35.06 34.25 32.94 32.47 33.71 31.79 32.51 33.45 33.58 33.70 32.25 32.75 33.93 33.30 31.64 30.88 30.13 30.33 30.61 29.16 26.43 25.26 25.03 24.24 20.85 21.09 22.49 15.37
34.53 39.30 39.91 41.84 42.79 43.85 43.25 42.06 42.27 42.65 42.61 43.08 41.82 38.81 34.83 33.82 33.40 32.62 32.06 31.61 32.14 32.01 31.89 32.05 33.44 34.32 33.41 33.42 33.16 31.96 30.34 29.67 29.44 28.55 28.73 28.20 26.63 26.62 24.37 19.83 18.34 22.98 20.29 18.06
34.13 39.08 40.97 42.51 42.33 42.40 42.37 42.76 42.98 44.83 44.02 42.73 37.42 34.12 33.93 32.60 32.37 31.91 31.22 31.94 32.26 31.79 31.81 32.19 33.18 33.03 33.35 33.13 32.41 30.94 30.03 29.51 27.75 27.11 26.91 26.82 25.69 25.09 24.85 23.57 22.07 19.82 18.65 17.36
33.20 39.53 39.60 40.65 42.04 43.31 42.52 43.19 44.55 43.76 39.11 36.02 34.69 33.30 32.96 31.47 31.79 31.46 30.99 31.89 31.74 32.11 32.17 32.20 32.63 32.33 32.90 32.34 31.99 30.62 28.70 27.92 26.16 24.94 23.68 25.65 26.19 25.68 28.53 28.02 27.74 28.38 26.48 16.31
40.69 43.61 43.77 43.11 42.98 44.29 43.85 44.52 44.81 40.10 36.39 33.26 33.43 32.80 32.23 31.28 31.53 32.06 31.60 31.67 31.77 32.04 32.36 31.62 30.59 30.71 31.99 30.98 32.26 31.22 28.60 28.46 25.93 26.07 24.87 23.11 21.80 22.35 17.11 23.99 28.60 28.82 29.12 27.23
44.60 42.96 40.19 40.95 40.53 44.36 45.49 42.07 38.21 35.54 34.63 33.44 32.76 32.89 31.78 31.21 31.59 30.94 30.73 31.38 31.90 32.27 31.69 30.64 30.07 30.44 32.11 33.05 31.11 28.79 29.53 27.43 24.32 23.99 22.21 23.06 18.50 26.07 19.61 17.92 13.82 15.93 23.86 27.65
42.97 42.34 41.80 42.68 42.28 42.07 40.20 36.24 34.54 32.66 32.49 32.02 32.60 31.67 31.65 30.78 30.17 30.36 31.06 31.33 31.42 30.72 30.50 30.82 30.50 29.99 32.29 32.55 31.01 30.33 30.44 24.24 20.23 17.66 20.12 20.54 19.31 22.53 22.70 19.88 21.78 18.58 15.60 19.15
41.58 42.15 42.95 42.12 41.90 37.09 35.69 34.44 32.54 31.83 31.92 31.21 30.79 29.92 31.03 31.18 30.70 30.40 30.55 30.45 28.07 28.60 29.77 29.92 29.17 29.31 32.54 33.11 31.70 30.79 30.19 25.48 19.70 18.96 18.75 22.19 19.98 19.69 24.22 21.46 18.91 20.41 13.23 12.80
40.63 40.04 41.00 35.78 34.40 34.47 34.08 33.78 33.22 32.06 31.70 30.76 29.72 29.56 30.20 28.68 27.25 29.25 29.20 27.58 27.59 29.15 29.42 29.89 27.99 32.17 32.39 33.18 31.76 30.77 28.76 27.31 25.26 25.64 24.41 24.68 21.96 25.07 24.03 21.57 22.29 16.07 19.25 15.38
41.59 41.11 37.31 35.94 34.65 33.74 32.94 31.67 31.21 30.55 30.37 29.88 26.23 19.50 18.02 17.56 24.47 25.77 25.40 25.70 29.06 29.44 29.65 28.70 30.51 31.41 32.32 33.36 32.29 30.14 26.29 25.42 25.32 24.18 20.67 16.49 24.33 24.55 24.54 21.80 21.51 14.77 15.55 14.12
37.13 36.05 35.70 34.71 34.03 31.70 29.86 29.45 29.82 29.59 25.16 23.70 20.65 21.18 19.67 20.47 25.30 26.75 25.77 22.88 28.22 28.04 28.65 29.73 30.49 30.90 32.32 32.51 31.95 28.03 24.17 17.80 17.55 18.98 20.96 18.03 13.69 23.59 24.24 22.08 18.90 22.66 16.27 14.54
34.77 35.09 34.62 33.33 32.44 30.31 28.60 29.68 25.90 29.28 30.27 25.02 18.11 22.97 24.69 23.47 23.33 23.04 23.93 24.02 27.49 28.73 27.91 27.93 30.42 30.78 31.47 30.56 29.04 27.81 20.80 16.92 17.66 17.68 13.56 12.36 9.91 16.18 25.45 21.31 23.41 17.36 10.92 11.01
32.14 31.91 31.20 30.40 29.67 28.25 26.47 25.71 22.35 26.40 28.75 21.73 24.78 28.42 24.79 24.87 23.31 21.66 20.60 25.79 28.71 25.70 27.52 31.32 28.90 30.47 32.58 31.72 31.43 26.92 20.60 16.04 14.85 16.73 17.15 16.57 14.62 15.21 21.58 25.59 22.82 20.62 13.59 7.38
31.04 29.91 27.23 26.37 26.54 28.19 28.26 28.00 28.91 24.91 24.30 29.65 30.93 29.09 26.46 28.14 23.06 19.63 21.47 25.67 30.00 26.74 30.32 30.42 30.52 31.56 32.00 31.95 31.42 28.52 26.76 26.39 23.33 21.02 20.10 16.97 16.96 18.52 17.83 20.47 23.73 23.47 22.58 13.25
31.16 31.36 30.14 26.15 23.25 29.12 29.16 27.51 25.17 24.29 25.64 26.27 25.40 25.67 26.18 28.75 23.41 23.45 26.25 28.10 27.07 29.60 31.51 31.02 31.25 31.39 32.22 32.04 31.98 30.89 29.85 27.45 26.29 26.15 25.01 24.02 23.00 19.26 20.59 21.77 24.01 23.65 21.20 23.24
31.32 30.36 29.98 29.91 25.69 25.97 26.89 30.72 30.06 29.95 26.89 27.45 26.73 25.35 29.11 25.64 19.98 24.49 26.80 25.72 23.81 26.87 29.33 31.81 31.71 31.26 32.00 32.16 30.93 31.38 30.99 28.85 28.81 28.06 26.08 24.90 24.49 24.62 24.20 24.99 25.83 26.10 24.01 23.18
28.30 29.96 29.69 25.39 28.36 29.24 30.19 30.78 29.60 28.89 28.65 29.16 28.16 28.99 28.23 29.17 26.20 27.45 23.94 24.06 27.43 30.65 31.23 31.91 31.72 31.59 31.92 31.98 31.92 31.09 30.49 29.50 28.18 27.97 27.39 26.49 26.67 27.06 27.59 26.59 24.80 23.20 23.54 24.90
30.59 29.08 29.12 30.50 29.81 29.60 29.57 28.09 27.01 25.77 26.86 24.32 23.72 26.82 29.90 30.46 28.28 29.35 24.09 29.20 30.30 30.38 29.36 30.53 30.58 31.11 31.71 31.83 31.50 31.61 30.95 29.99 29.17 28.60 28.31 28.32 28.16 28.18 27.63 25.61 24.73 24.83 25.36 24.83
29.53 25.78 28.51 28.91 29.67 29.50 28.35 26.88 29.90 31.59 26.02 26.10 29.72 27.77 27.17 25.92 29.48 28.71 27.75 28.40 27.35 29.35 28.95 28.79 29.49 30.08 30.58 31.41 31.12 30.68 31.45 31.65 30.87 29.98 29.80 29.46 29.31 28.56 27.31 25.23 23.99 23.45 24.28 25.24

GFSNGP_sfc_wetblb_021.txt.gz
Wetbulb
34.42 35.57 35.28 33.98 34.14 34.73 33.66 33.04 29.04 30.80 32.19 35.53 38.46 38.19 38.94 39.88 39.65 39.40 39.23 39.22 39.55 39.31 39.75 39.02 37.17 35.59 35.48 35.48 35.94 36.83 36.18 37.18 37.39 37.88 38.01 37.57 37.41 37.12 37.10 38.35 38.80 36.89 34.08 32.40
31.69 35.37 35.38 31.88 33.87 34.18 33.83 34.04 34.28 33.40 33.81 38.97 39.64 39.72 39.33 39.44 39.07 38.35 39.22 39.57 39.80 39.50 38.67 37.43 35.33 34.41 35.03 35.14 35.14 35.25 35.99 37.03 38.17 38.24 37.97 37.41 37.16 37.02 37.14 37.80 35.36 34.05 32.35 30.93
24.22 30.67 30.88 24.27 32.09 35.59 35.48 36.17 35.56 30.24 35.47 38.76 38.11 39.10 38.66 38.14 38.82 38.43 38.98 38.67 38.35 38.22 37.42 35.07 34.01 34.32 33.64 34.16 34.66 34.06 35.99 36.79 37.03 36.49 35.81 35.56 36.32 36.12 35.26 34.85 35.01 29.83 29.58 29.39
21.11 22.91 16.66 32.35 37.87 38.17 36.23 36.89 37.94 37.13 37.93 38.71 38.57 38.59 38.97 39.01 37.98 37.84 37.92 37.98 37.36 35.70 34.69 34.11 33.36 33.26 33.49 33.47 33.14 33.29 35.09 35.49 35.56 35.37 34.97 35.03 34.87 34.15 32.34 32.00 30.15 27.80 27.74 28.05
19.65 21.43 27.32 33.11 37.17 35.69 34.58 33.78 39.05 37.89 37.76 38.20 38.38 37.02 35.93 39.05 38.37 37.61 37.86 36.97 35.09 34.60 33.83 33.00 32.67 33.04 32.35 31.94 31.99 34.48 34.42 34.52 34.58 34.59 34.62 34.46 33.48 32.71 31.40 31.64 27.61 27.73 27.87 26.90
24.38 15.97 15.22 29.55 37.45 40.70 38.80 28.85 39.93 39.49 38.03 37.76 36.80 29.80 34.27 38.50 38.91 38.68 36.60 34.56 33.40 32.99 32.87 31.96 32.49 31.84 31.56 31.45 32.46 32.77 33.86 34.27 33.89 33.44 32.82 32.76 32.56 32.10 31.53 28.42 28.92 27.74 26.75 25.71
14.83 16.16 25.57 33.83 39.79 40.43 28.86 28.88 39.85 40.46 39.79 37.88 35.94 36.08 37.88 39.51 38.37 36.76 34.05 34.09 33.63 32.61 31.94 31.76 31.98 32.57 31.63 31.51 31.53 33.22 33.63 33.04 32.84 32.01 30.86 30.62 30.38 29.33 27.85 27.64 26.46 24.39 23.74 24.08
24.88 17.69 22.02 38.20 38.23 33.18 36.75 37.28 41.49 40.47 40.26 39.82 39.36 39.74 40.44 38.70 35.70 34.21 33.45 32.01 32.42 31.68 31.29 31.97 32.42 32.23 31.20 30.44 32.67 33.11 32.63 31.79 30.85 30.20 30.11 29.38 26.57 26.59 26.82 25.27 24.96 22.59 11.03 16.64
30.42 30.14 37.00 38.72 38.34 39.97 40.64 40.52 40.62 40.39 40.65 40.97 40.97 40.04 40.44 35.21 34.18 32.96 31.63 31.02 31.71 30.47 31.25 32.15 32.20 32.24 30.97 31.59 32.32 31.98 31.36 30.21 29.69 29.63 28.83 27.97 25.66 24.60 24.36 23.64 20.52 20.32 22.02 15.48
33.00 37.06 37.80 39.09 40.63 41.85 42.01 41.27 40.81 41.62 42.11 41.45 39.78 41.20 35.73 32.80 31.95 30.89 30.16 29.85 30.42 30.81 30.49 30.58 31.89 32.52 32.04 32.23 32.27 31.22 30.29 29.81 29.27 28.21 28.18 27.78 26.65 26.35 24.17 19.94 17.78 22.16 19.73 18.15
32.81 37.28 39.39 41.87 41.93 42.25 42.12 41.98 42.43 43.22 42.96 42.32 41.55 33.97 33.48 31.57 30.80 30.47 30.04 30.62 30.84 30.20 30.20 30.53 31.40 31.64 31.72 31.62 31.75 30.13 31.07 30.74 29.04 27.39 26.99 25.79 25.76 25.40 25.56 24.66 22.72 20.45 18.75 17.37
32.64 38.44 39.16 38.88 41.96 42.45 41.42 41.14 42.57 42.69 39.63 37.54 34.91 32.92 31.78 30.34 30.63 30.27 29.83 30.29 30.05 30.47 30.24 30.46 31.03 29.91 30.55 31.76 30.98 30.60 30.40 30.32 29.03 27.51 25.58 25.54 25.39 25.59 28.39 27.87 28.03 29.27 28.39 16.51
38.74 40.88 40.75 41.26 41.34 42.58 42.11 43.19 43.20 38.11 36.14 34.04 33.40 31.90 30.85 30.24 30.73 31.51 30.41 29.99 30.00 30.01 30.19 30.16 29.15 28.79 30.61 30.28 29.68 30.09 30.43 30.77 29.76 28.03 26.41 24.32 22.69 23.31 22.38 23.19 28.02 28.54 28.89 28.24
43.21 42.04 38.64 40.33 40.29 43.63 44.02 40.54 37.68 35.71 34.77 33.92 32.92 32.34 31.17 30.82 30.82 30.13 29.72 30.11 30.38 30.33 29.98 29.13 29.01 30.17 30.81 30.35 30.44 30.50 30.27 28.85 28.92 27.35 27.51 25.37 21.88 20.97 17.62 17.75 14.35 16.14 22.92 26.61
42.22 41.87 41.30 41.80 42.67 40.75 37.10 35.58 33.80 33.08 32.73 31.63 32.43 31.59 31.17 30.06 29.39 29.76 29.67 29.98 29.91 29.09 28.78 29.24 29.80 29.22 30.08 31.17 31.68 31.22 30.55 29.57 27.11 25.64 19.66 20.12 20.72 16.94 18.47 16.17 15.92 16.34 13.76 18.13
41.09 41.10 41.21 39.76 35.83 35.73 35.25 34.93 33.04 31.76 31.96 31.45 30.80 30.37 30.90 30.99 29.89 29.40 29.76 29.58 26.99 26.65 27.89 29.34 28.61 29.23 30.45 31.84 32.30 32.25 31.15 29.77 25.91 24.51 21.99 23.95 24.63 21.13 21.59 22.68 16.01 16.75 11.90 11.97
38.30 37.87 35.65 34.56 34.99 35.37 35.38 35.06 33.81 32.73 31.65 31.00 30.29 29.78 30.16 27.70 26.01 28.65 28.62 26.51 21.75 22.56 25.86 28.92 27.12 31.01 31.20 31.80 32.49 32.19 31.45 29.85 27.03 25.90 25.53 26.10 22.77 22.91 23.53 20.55 22.39 16.79 13.86 10.68
39.47 37.41 36.96 35.96 34.05 32.94 31.71 32.17 31.79 30.95 30.43 30.44 25.57 20.26 19.64 19.82 24.06 24.40 23.80 22.85 21.32 23.14 26.40 27.87 28.96 30.39 30.61 32.07 32.60 31.68 30.09 28.61 27.01 26.53 26.46 18.88 17.88 21.27 18.81 19.70 20.99 15.77 14.67 12.00
35.97 35.09 34.88 33.76 33.24 31.76 30.70 29.57 29.62 29.31 25.68 24.26 22.07 22.84 19.84 20.08 23.71 24.67 22.62 19.23 21.03 23.26 27.74 26.38 27.59 28.57 30.87 29.16 30.02 30.50 30.00 28.49 25.56 21.86 18.90 15.83 11.80 14.75 15.13 17.80 23.01 18.54 18.59 16.05
35.30 34.99 34.18 32.68 32.03 30.47 29.62 30.31 27.84 29.78 30.18 25.60 18.69 23.38 27.21 27.02 19.66 20.62 19.81 22.00 26.38 28.32 28.09 27.63 27.59 29.86 29.50 28.13 30.64 30.53 29.99 27.01 22.98 19.40 13.07 13.52 10.44 11.95 11.61 16.93 19.81 20.14 18.62 12.37
32.43 31.14 30.15 29.62 29.29 28.14 27.51 27.03 25.51 27.95 29.13 20.19 20.66 27.39 28.74 27.84 21.48 20.49 22.46 24.25 27.62 25.09 27.09 25.78 29.60 30.92 30.60 30.54 31.24 31.44 30.05 25.96 21.93 19.36 16.92 16.46 15.10 14.31 14.87 16.14 23.58 22.96 16.75 18.74
30.05 29.35 26.78 25.72 26.40 28.11 28.29 27.77 28.13 22.41 22.62 21.94 21.57 29.62 29.74 27.82 25.80 21.48 21.89 24.44 27.94 23.24 25.68 27.07 28.57 28.57 30.59 30.40 31.28 31.42 30.56 27.19 25.68 25.86 23.82 21.94 21.04 20.49 20.68 20.93 20.06 21.64 22.69 20.63
30.90 31.10 29.68 25.77 24.32 28.99 27.88 26.36 22.65 21.88 22.24 23.64 23.72 24.63 24.31 27.00 26.70 24.04 27.62 26.50 25.32 23.80 24.83 26.18 25.87 26.14 29.23 30.78 31.43 30.83 30.63 30.17 28.82 27.10 25.98 25.58 24.40 24.14 24.26 23.30 22.59 23.79 23.70 22.66
30.07 29.68 29.64 29.24 24.77 25.22 26.26 29.98 29.53 28.93 23.86 25.23 24.78 24.31 24.39 27.63 29.98 23.88 27.20 26.38 22.72 20.51 21.79 24.61 26.50 29.43 29.17 30.85 30.96 31.05 30.06 29.52 29.57 29.52 28.68 27.36 27.62 27.10 25.98 24.67 24.23 24.48 25.50 22.22
28.89 29.62 29.45 25.14 28.18 28.74 29.77 30.21 28.56 27.99 27.37 28.13 26.93 27.17 25.14 30.13 28.96 23.12 25.64 23.49 19.55 26.72 24.95 24.64 26.59 28.96 29.03 29.19 29.68 30.70 29.37 30.18 30.52 30.33 29.29 28.61 27.37 27.38 27.02 27.23 27.24 27.27 26.18 25.74
29.88 28.32 28.37 29.52 28.60 28.49 29.01 27.91 26.58 26.84 30.64 29.55 26.61 22.89 25.19 26.65 29.60 29.99 27.64 22.06 23.94 26.55 25.18 27.95 28.49 28.27 28.20 27.99 27.81 28.30 28.65 29.76 30.35 30.66 30.11 29.34 28.86 28.16 27.92 28.16 28.38 26.97 25.68 25.18
27.48 24.50 27.43 27.24 28.41 28.42 27.88 27.49 27.88 28.83 30.63 26.86 27.83 27.93 26.62 27.37 29.88 28.70 27.13 26.03 19.35 21.54 22.19 23.25 19.23 16.69 17.92 16.78 16.77 17.77 20.02 24.53 27.73 29.76 30.82 30.65 29.57 29.08 29.17 28.92 28.25 26.65 24.84 23.72

GFSNGP_sfc_wetblb_024.txt.gz
Wetbulb
32.77 34.01 33.39 32.32 32.76 34.00 32.58 31.62 28.82 29.74 29.94 34.04 37.39 37.95 38.34 39.22 38.57 38.14 38.14 38.19 37.97 38.09 38.51 38.74 38.08 35.85 35.86 35.59 35.17 35.19 34.29 35.59 35.58 36.48 36.73 36.47 35.99 35.76 35.94 35.98 36.88 35.88 33.73 32.69
31.07 33.73 33.07 31.66 32.73 32.64 32.24 32.30 32.62 31.97 32.08 37.02 37.77 38.23 38.17 38.53 38.31 37.57 37.99 38.14 38.61 39.22 39.04 38.44 35.38 33.67 33.95 33.96 33.94 34.11 33.18 35.41 36.62 36.28 35.85 35.32 34.83 34.91 35.16 35.04 35.75 35.91 32.52 29.87
23.72 28.78 27.96 24.41 31.00 33.07 33.09 33.91 33.45 29.94 34.00 37.43 36.89 37.87 37.81 37.59 38.12 37.92 37.95 37.72 38.27 39.06 38.09 35.16 33.11 33.26 32.56 32.77 33.14 32.58 33.09 35.24 35.60 35.37 34.73 34.23 34.29 33.98 33.59 34.75 35.26 30.33 27.98 27.70
20.45 22.19 16.31 31.23 35.18 35.74 34.90 35.08 35.80 35.28 36.22 37.62 37.19 37.02 38.66 39.01 38.39 37.70 37.43 38.36 38.75 37.97 34.96 33.31 32.47 32.21 31.95 32.11 31.76 31.31 33.79 34.53 34.44 34.15 33.45 33.68 33.03 33.04 31.92 30.24 29.93 27.27 27.10 27.07
19.27 20.51 27.22 31.48 34.67 34.80 33.91 33.45 38.14 36.84 36.77 37.05 37.29 37.45 36.89 39.48 38.71 38.32 39.14 38.57 36.38 33.80 33.03 32.88 31.94 31.75 31.16 31.22 31.07 33.28 33.22 33.31 33.49 33.07 32.09 31.79 31.35 31.80 31.07 30.78 29.31 28.22 27.57 25.95
20.39 16.19 15.05 29.55 34.91 38.60 37.69 28.85 37.60 38.59 36.90 36.66 36.82 31.18 37.36 38.60 38.68 38.10 37.63 35.64 33.94 32.99 32.43 31.21 31.29 31.06 30.98 30.86 30.91 31.34 32.39 32.82 32.41 31.96 30.90 29.95 29.43 29.46 30.03 27.90 28.18 27.57 26.51 25.30
14.26 15.21 24.70 32.92 38.21 39.00 28.26 29.78 37.69 39.09 37.83 36.53 35.37 37.91 38.52 38.66 38.05 37.96 34.74 33.65 33.49 32.56 31.53 30.97 31.37 31.50 30.78 30.25 30.25 31.69 32.40 32.22 31.59 31.02 29.56 29.34 27.59 27.43 26.86 26.67 26.17 24.35 23.78 24.07
22.83 15.27 22.47 36.46 38.25 32.59 36.10 35.60 39.15 39.21 38.77 38.79 38.12 38.20 38.40 37.88 35.15 34.33 33.18 32.90 32.71 31.58 30.76 31.08 31.42 30.65 29.92 29.27 31.16 31.61 31.34 31.06 30.18 29.57 29.48 29.61 26.47 26.51 26.85 24.70 24.14 21.91 11.01 16.74
29.38 29.52 35.89 37.15 37.79 38.76 38.65 38.28 39.21 39.42 40.21 41.14 38.73 38.92 39.18 35.11 34.32 33.43 32.04 31.17 31.16 30.97 31.35 31.46 31.37 30.79 29.65 30.41 31.35 31.09 30.14 29.92 29.51 30.95 29.44 28.56 25.78 24.85 24.23 23.53 19.64 20.10 21.51 16.03
32.19 35.79 36.17 37.27 38.93 40.21 40.26 40.07 40.49 40.96 41.01 41.43 40.19 40.20 34.99 34.54 32.81 31.06 29.74 30.53 30.69 30.81 29.87 30.04 30.84 31.23 30.69 30.81 30.46 30.27 29.68 29.61 29.74 30.08 28.74 28.29 26.97 26.29 24.30 19.57 20.20 22.32 20.31 18.67
31.79 36.35 36.79 39.14 40.21 40.30 41.14 41.35 41.31 42.14 41.99 40.95 40.02 37.47 35.26 32.06 31.37 31.27 30.72 30.97 30.63 29.70 29.64 29.71 30.35 30.87 29.97 29.60 29.91 29.23 29.44 29.75 29.19 29.88 28.56 27.85 25.56 24.81 25.22 24.64 23.95 21.64 20.05 17.93
30.98 37.63 37.47 37.84 40.23 41.52 41.70 41.46 42.05 41.92 39.62 36.57 37.34 33.76 33.54 32.08 31.34 30.86 30.53 29.99 30.08 30.60 30.17 29.84 30.37 29.37 29.59 29.90 29.33 29.37 29.23 29.54 30.93 30.57 28.51 27.41 25.76 25.15 28.73 27.61 28.43 29.05 28.90 18.17
38.11 38.78 39.09 39.37 40.83 41.39 41.35 41.29 41.46 37.79 35.71 34.06 34.57 34.21 32.54 31.21 31.16 31.39 30.15 30.33 30.44 30.17 29.96 29.87 29.18 28.93 28.97 28.89 28.52 28.32 29.36 30.53 30.50 29.32 28.98 25.83 24.07 24.31 19.57 23.30 28.39 29.14 29.38 29.73
41.84 40.84 38.70 39.27 39.94 41.93 42.16 38.05 36.25 35.30 35.09 34.24 33.85 32.92 31.72 31.16 31.31 30.71 30.23 30.53 30.76 30.17 29.48 29.25 28.95 28.26 29.07 28.81 28.49 29.47 30.41 29.82 29.79 29.38 27.84 27.62 26.97 24.96 21.87 17.96 15.44 15.68 23.07 26.61
41.50 40.88 39.46 40.30 40.61 35.17 35.10 35.24 34.30 34.26 34.21 32.83 32.45 31.61 31.11 30.19 29.76 30.47 30.68 30.45 30.29 29.50 29.29 28.39 27.66 27.61 28.80 28.80 29.04 30.51 31.36 30.60 29.55 27.28 27.04 25.12 22.68 23.40 20.49 16.89 19.64 17.58 14.61 18.11
39.72 40.36 39.20 35.16 33.50 34.75 35.76 35.60 34.05 32.43 31.87 31.56 31.03 30.61 30.90 31.23 30.84 30.36 30.56 30.38 28.01 27.41 28.28 23.89 23.97 28.15 29.27 29.30 30.21 30.27 32.13 31.11 29.31 26.17 24.51 23.91 24.47 20.36 20.37 20.87 22.25 17.99 16.83 15.07
36.86 33.95 33.32 33.85 34.79 34.21 34.63 34.65 33.20 32.47 32.67 31.22 30.15 29.85 30.99 29.38 26.96 28.94 29.37 26.69 22.68 22.60 23.84 23.55 25.32 28.71 29.36 29.79 30.59 31.28 31.23 31.37 28.41 27.24 25.55 24.52 24.79 20.72 19.39 23.03 22.41 23.57 17.70 9.77
35.68 35.67 35.78 34.68 32.99 32.24 32.34 33.27 33.06 31.03 30.31 30.36 27.34 24.69 23.11 22.56 25.57 25.45 23.22 21.74 17.60 21.72 25.07 26.61 26.69 28.38 28.39 29.45 30.42 29.72 28.92 30.13 28.90 27.70 26.82 25.54 25.81 21.77 17.30 17.96 19.27 21.12 19.56 13.71
34.94 34.34 34.87 34.94 34.93 33.27 30.92 29.45 29.58 29.39 27.16 26.17 24.28 26.21 24.11 23.57 23.99 24.23 21.33 20.26 20.15 21.42 26.91 26.39 27.39 25.81 28.04 30.20 29.05 27.61 29.37 29.56 29.24 27.61 26.02 23.91 11.97 14.68 13.96 14.03 15.63 16.68 17.95 17.22
33.95 34.39 33.78 31.87 31.24 30.42 29.52 30.09 27.93 29.63 30.05 26.28 21.33 22.29 24.72 26.14 27.59 22.55 18.53 21.79 26.41 27.80 27.31 26.81 25.75 25.54 26.17 29.94 29.22 28.80 29.72 29.79 29.20 26.04 22.96 21.33 16.50 14.79 14.41 13.31 15.97 18.00 18.12 17.10
30.65 30.30 29.81 29.39 28.83 27.47 26.69 26.37 24.72 26.83 28.07 21.72 21.10 26.35 27.83 28.84 29.06 26.60 23.65 25.49 27.98 25.12 26.00 23.82 24.66 26.07 27.83 27.13 30.14 29.95 30.72 30.45 29.26 24.60 21.70 20.96 20.01 18.14 17.80 17.69 18.60 19.53 21.43 21.40
29.11 28.53 23.70 23.39 24.93 26.93 26.72 26.89 27.36 21.45 20.80 18.53 16.04 18.14 24.11 28.09 27.85 25.62 24.90 25.12 29.19 22.68 25.94 24.06 24.76 23.46 24.86 24.60 29.83 30.25 30.12 29.62 29.92 27.73 23.18 23.30 24.35 23.58 22.59 22.71 22.80 22.96 23.48 22.53
31.24 30.78 29.09 24.78 22.71 28.33 26.84 25.06 20.89 20.50 21.78 22.84 22.90 22.81 20.98 25.54 24.72 24.00 25.59 26.53 23.98 25.01 24.25 21.96 20.13 22.86 27.77 28.71 28.88 29.35 29.26 28.95 28.55 29.22 28.49 27.59 26.84 26.30 26.07 25.68 25.68 25.93 25.39 25.02
29.65 29.74 29.52 28.83 24.60 25.44 26.95 29.56 28.82 28.59 22.90 24.40 23.58 21.48 21.83 23.80 26.64 24.70 28.42 27.94 27.58 27.72 23.73 22.37 21.01 23.27 20.72 28.03 27.79 28.28 28.82 29.42 28.91 29.00 29.32 29.02 28.02 27.37 27.59 26.94 26.90 26.85 26.43 26.30
27.94 28.81 27.97 26.15 27.07 27.43 28.08 28.24 26.83 26.45 27.03 29.03 29.04 26.59 24.61 23.64 25.16 28.81 28.53 27.94 29.28 25.88 23.76 22.38 22.02 22.56 26.95 26.24 25.44 23.93 24.03 25.18 26.40 27.23 28.81 29.28 29.39 28.67 27.32 27.35 27.33 26.82 26.90 26.78
27.63 27.05 26.72 27.26 26.76 26.30 25.92 25.45 24.60 25.86 26.47 26.51 28.14 29.72 27.60 25.79 24.75 25.82 29.64 28.91 27.98 26.61 25.26 24.34 19.35 13.95 13.48 13.97 14.30 14.46 15.64 17.14 18.51 20.83 22.75 25.65 28.78 28.96 28.94 28.19 27.55 27.66 27.79 28.06
26.51 25.02 24.44 24.09 24.06 23.32 22.11 22.15 22.37 22.65 23.78 24.54 25.14 26.73 28.44 29.57 30.15 30.27 30.28 28.95 22.26 18.77 21.76 17.20 12.45 13.05 13.03 12.64 12.22 12.14 13.59 14.35 14.05 13.27 13.97 15.06 16.44 20.96 28.28 29.49 29.34 29.07 28.78 27.15

GFSNGP_sfc_wetblb_027.txt.gz
Wetbulb
36.03 36.62 37.11 36.50 36.51 36.94 36.28 36.36 35.18 35.82 34.89 39.43 41.43 43.90 43.84 43.31 42.95 42.31 42.06 42.11 42.33 42.89 42.77 43.04 42.82 41.86 40.16 40.86 41.13 40.88 40.48 39.73 41.09 41.84 41.85 41.11 40.53 40.32 40.55 40.69 40.83 39.05 36.08 35.47
34.38 35.73 35.25 35.21 36.37 36.36 36.73 36.44 36.34 35.91 36.27 41.77 42.52 42.87 42.04 41.95 42.16 41.67 41.83 42.13 42.15 42.42 42.37 42.59 42.01 40.20 39.19 39.55 39.64 39.64 39.31 38.73 40.63 41.17 40.41 40.09 39.81 39.68 39.56 39.48 39.44 38.79 35.77 35.06
29.57 31.31 31.89 29.84 34.80 36.50 36.45 37.31 38.97 35.00 40.59 41.65 40.95 40.88 42.61 42.41 42.31 42.02 42.07 42.21 41.72 41.95 42.34 42.57 40.45 39.22 38.92 38.84 38.83 37.95 37.48 38.55 39.42 39.33 38.89 38.68 38.53 38.04 37.73 38.39 37.92 36.72 34.83 33.83
29.90 27.49 26.43 36.63 39.39 39.00 37.63 38.27 39.06 38.77 40.01 41.64 42.24 42.41 42.74 43.61 42.77 42.03 42.44 42.21 41.82 42.13 41.59 40.00 39.15 38.72 38.12 37.96 37.12 36.65 37.34 38.42 38.42 38.38 37.54 37.76 37.21 36.62 36.83 37.75 36.84 36.26 33.80 32.70
30.06 27.75 31.20 35.91 35.48 36.87 36.70 38.05 40.96 39.87 40.66 40.58 40.72 41.97 42.69 43.24 44.07 44.26 43.69 43.13 42.71 42.24 39.51 38.61 38.18 37.75 36.86 36.54 36.42 37.18 37.27 37.43 37.94 37.63 36.48 36.37 35.52 35.54 36.06 36.46 36.74 34.56 33.16 31.42
26.67 27.56 25.72 34.61 37.46 41.64 41.72 34.54 41.19 41.61 40.44 39.86 41.23 39.06 42.89 43.61 43.55 43.43 43.39 42.18 39.23 37.64 37.30 37.55 37.05 36.30 35.93 36.37 35.87 36.12 36.77 36.93 37.36 36.95 36.02 35.08 35.09 34.65 34.54 35.69 34.44 33.45 31.22 30.52
23.25 29.73 31.05 36.80 39.60 42.01 33.58 36.02 39.85 42.30 42.15 40.01 41.08 44.83 43.44 43.75 42.79 42.51 40.46 37.33 36.23 36.71 36.91 36.49 36.20 36.30 35.69 35.55 35.31 36.22 36.38 36.68 36.70 36.27 35.21 35.08 34.72 33.98 33.32 33.56 32.58 31.08 29.65 29.77
25.67 26.87 28.25 38.65 41.00 37.89 41.95 41.75 41.91 42.61 42.56 42.15 44.11 41.63 41.35 40.91 39.96 37.64 35.17 35.13 36.00 35.65 35.52 35.76 36.22 35.71 35.06 34.77 35.90 35.97 36.41 35.96 35.53 35.28 34.62 33.97 33.78 33.48 32.73 32.13 30.82 29.17 27.62 28.50
34.02 35.34 40.22 40.46 42.63 43.35 42.39 42.10 43.09 43.04 43.77 43.62 41.58 41.37 40.34 38.24 36.37 35.41 35.40 34.76 35.43 35.59 35.17 35.31 35.33 35.24 34.06 35.17 35.16 34.70 34.28 34.52 34.88 34.72 34.42 34.21 32.99 32.49 31.47 30.98 29.85 29.45 28.59 28.81
36.00 39.87 38.19 40.14 42.23 42.27 43.23 43.77 44.03 44.74 45.16 43.89 42.77 42.18 36.52 34.87 34.82 32.34 32.84 34.16 34.21 34.82 33.85 33.57 34.47 34.30 34.85 34.24 33.82 33.65 33.39 34.32 34.57 34.00 33.88 34.21 33.27 32.28 31.03 30.33 29.51 28.96 28.85 28.13
35.55 38.77 39.57 41.24 41.94 44.46 44.28 43.52 43.96 44.54 44.43 43.88 43.26 39.66 35.92 33.83 33.02 32.75 34.20 34.40 34.62 33.72 33.18 32.95 33.53 34.18 34.29 33.59 33.33 32.52 32.86 33.72 33.88 33.89 33.51 32.98 33.00 31.73 30.80 31.42 30.88 30.49 29.87 28.90
36.86 41.52 41.69 41.90 43.24 44.39 44.00 44.05 44.53 43.79 40.90 41.18 39.41 35.85 34.48 33.29 33.43 34.23 33.78 32.81 32.74 33.02 32.87 32.82 33.38 33.15 32.91 32.98 32.34 32.01 31.40 32.62 33.37 33.39 32.90 32.54 32.05 31.45 30.14 29.58 28.61 29.42 29.22 28.33
41.25 42.76 42.33 43.47 43.22 44.74 44.27 43.64 43.42 41.09 38.88 35.91 36.80 37.66 36.25 33.46 32.73 32.59 32.96 32.50 32.27 32.82 32.70 32.91 32.27 31.78 32.54 32.46 31.65 31.21 31.27 31.83 33.05 32.12 32.70 31.78 31.15 30.53 29.63 31.30 28.66 29.85 30.48 30.30
43.65 43.14 42.49 42.85 41.94 41.93 38.47 36.83 36.95 36.63 37.38 36.71 35.84 34.23 32.57 32.49 33.05 32.90 32.32 32.96 33.08 32.70 32.45 32.19 31.60 31.24 32.49 32.59 32.01 31.36 31.83 31.46 32.78 33.29 33.29 32.45 32.03 31.40 30.68 29.48 28.82 29.49 28.52 28.25
41.88 42.90 41.97 37.44 36.49 35.58 37.18 37.68 35.62 34.40 34.32 33.00 33.06 32.55 32.57 32.32 32.22 32.43 33.27 32.69 32.32 32.10 32.37 31.71 30.76 31.54 33.05 32.92 31.52 31.84 32.01 32.22 31.83 32.89 32.61 31.74 31.71 30.90 29.83 29.26 28.97 28.08 28.87 25.81
36.84 35.85 36.65 35.88 36.20 36.28 35.53 33.94 32.25 31.86 32.32 32.46 32.95 32.55 32.97 32.80 32.86 33.14 33.03 32.73 30.60 30.79 31.36 29.87 27.85 30.92 32.62 32.73 32.12 32.58 32.97 31.87 31.86 31.67 31.38 31.00 30.43 29.41 29.33 29.16 28.71 28.26 28.01 27.81
36.95 33.66 34.29 33.54 33.42 34.01 34.07 34.67 34.23 34.08 33.84 34.17 32.75 31.60 32.37 32.07 29.93 30.52 31.48 30.71 29.58 29.11 29.00 28.33 28.84 32.52 31.89 32.35 32.17 32.81 32.72 31.84 30.71 31.24 31.48 30.81 30.13 29.90 29.42 28.77 28.65 28.27 28.58 30.28
35.49 35.16 35.04 35.23 34.00 33.40 33.95 34.34 34.75 34.17 32.69 32.17 30.06 29.35 28.79 28.48 28.96 29.02 29.18 28.37 26.37 26.53 28.99 30.15 30.42 31.05 30.79 32.01 32.68 32.49 31.73 31.41 30.91 30.52 31.36 31.15 30.11 29.73 29.96 29.15 28.19 27.84 28.11 29.03
35.94 35.38 35.37 35.47 35.37 35.19 34.10 31.96 31.13 30.94 30.03 29.45 29.14 29.93 28.78 27.90 27.86 28.22 27.34 25.09 25.64 27.75 31.09 31.59 30.15 30.17 30.89 31.42 31.01 32.42 31.94 31.72 31.16 29.99 30.66 30.70 29.72 29.53 29.03 28.59 28.17 27.85 27.77 27.62
34.19 34.52 34.03 32.68 32.20 31.84 31.27 31.40 30.51 31.21 31.30 29.46 27.52 27.38 27.93 28.88 27.32 29.32 28.79 27.05 28.59 31.24 32.55 31.23 30.56 29.88 30.40 30.76 29.15 32.21 31.58 31.26 31.03 30.13 30.57 30.43 29.19 28.57 28.34 26.07 26.81 27.38 27.54 27.65
30.91 31.15 30.12 29.76 29.62 28.55 27.00 26.87 26.29 29.55 29.37 23.53 26.15 27.77 27.12 28.19 30.59 30.56 29.08 27.68 31.66 31.44 30.60 28.91 29.67 30.22 30.76 30.25 30.00 29.78 29.60 29.68 30.04 31.65 31.68 30.76 29.38 27.79 27.51 27.90 28.06 27.49 27.30 27.62
31.61 30.70 26.86 26.50 27.77 29.13 29.78 30.02 29.48 27.33 27.04 25.82 25.28 22.89 22.72 26.74 27.91 28.16 28.53 29.00 32.57 27.22 29.19 31.03 30.38 29.67 29.07 28.92 29.40 29.80 29.45 29.95 30.64 30.41 31.06 30.90 29.55 28.85 29.07 29.21 28.50 28.81 29.06 29.24
31.44 30.56 29.46 27.56 27.22 29.21 28.91 28.99 27.14 26.99 25.42 26.78 26.79 27.63 28.30 28.92 28.90 26.95 28.59 31.62 30.27 30.39 29.92 31.07 30.38 25.96 27.99 30.29 31.29 30.30 28.83 28.78 28.97 29.66 30.49 30.36 30.39 30.38 30.41 30.18 30.49 30.51 30.35 30.09
30.86 30.27 29.54 29.10 27.49 27.60 26.49 27.46 26.87 27.44 26.24 26.55 27.47 25.98 27.63 28.35 28.42 30.17 30.81 29.98 29.80 29.57 30.53 31.45 29.97 27.61 25.42 29.96 29.50 28.49 27.49 26.20 25.27 25.79 25.85 26.95 29.01 30.69 31.03 30.87 30.00 30.41 30.57 30.38
28.15 28.07 27.36 26.15 25.19 24.27 24.09 23.73 24.27 24.95 25.37 25.28 25.99 27.71 28.48 29.30 28.32 28.97 30.02 30.06 30.16 30.30 31.05 29.69 27.48 23.74 24.39 23.02 21.71 20.27 19.92 20.10 19.90 20.06 21.20 22.24 23.51 25.40 27.80 30.33 30.83 30.28 30.83 30.89
26.21 25.27 25.07 24.65 23.47 22.82 21.34 20.93 20.04 21.55 20.62 20.81 22.06 23.68 24.69 25.39 27.59 28.38 29.26 29.95 30.38 30.52 30.81 27.62 22.58 20.53 19.42 18.47 17.84 16.92 17.41 17.18 15.95 15.38 15.11 15.81 16.51 17.00 17.67 18.82 21.99 28.41 31.17 31.33
23.15 22.23 22.05 21.61 20.99 19.55 17.99 16.83 16.13 15.95 17.31 18.41 17.53 19.92 20.81 21.64 22.92 24.65 25.61 26.92 27.80 27.84 23.54 20.20 18.34 16.62 15.88 15.55 15.02 14.86 14.12 13.80 11.45 11.11 11.91 11.97 12.28 13.73 14.29 16.00 18.39 24.11 29.46 31.34

GFSNGP_sfc_wetblb_030.txt.gz
Wetbulb
41.68 41.85 41.84 42.05 42.60 43.28 41.85 42.75 38.80 40.85 41.02 43.71 45.79 47.23 49.12 51.19 51.83 51.18 50.00 49.75 50.09 50.14 49.72 48.77 48.15 48.27 47.19 45.12 46.04 45.32 44.08 43.87 43.82 44.54 45.05 44.41 43.92 43.34 42.92 42.60 42.54 42.53 41.17 40.64
39.49 40.68 40.60 39.71 42.46 43.12 43.72 43.76 42.93 43.14 42.33 47.98 48.59 48.63 48.62 49.12 49.66 49.29 49.19 49.16 49.60 49.52 48.60 47.61 47.61 47.42 43.73 45.45 44.53 43.96 43.19 43.13 43.26 43.66 43.64 43.22 42.81 41.91 41.67 41.54 41.84 41.56 40.24 39.08
36.23 37.55 38.12 35.92 40.86 42.71 43.05 44.62 43.95 40.56 45.26 47.33 46.13 46.76 48.11 49.04 49.26 49.22 49.38 49.18 48.83 48.43 47.96 47.63 47.19 44.20 44.86 43.95 43.52 42.68 42.88 42.26 42.15 42.77 41.93 41.53 41.12 40.79 40.48 40.44 41.19 40.14 39.36 39.39
36.98 33.88 31.90 40.83 43.78 43.55 43.58 44.64 45.83 45.19 46.03 46.44 47.14 48.67 49.23 50.53 50.49 49.59 49.86 49.30 49.25 48.77 47.21 47.26 45.87 44.38 44.00 42.89 42.35 42.23 41.26 41.17 41.61 41.38 40.57 40.62 40.38 39.96 40.22 40.26 39.93 39.46 38.92 38.61
36.77 34.78 38.18 40.12 40.48 40.23 40.39 41.48 46.13 45.57 46.47 46.44 46.96 47.56 49.12 50.01 50.60 50.92 50.82 50.56 50.46 49.14 46.93 44.98 43.44 43.39 42.42 41.80 41.72 40.69 40.45 40.37 40.60 40.83 39.89 39.74 39.35 39.35 39.73 38.97 39.19 38.38 38.85 37.99
34.86 35.36 33.49 40.26 42.59 45.37 45.38 38.50 45.19 46.38 46.70 46.16 46.79 43.40 45.67 50.08 50.15 50.17 50.85 50.82 48.34 45.68 43.03 42.97 42.84 42.13 40.92 40.79 40.35 39.35 39.82 40.02 40.48 40.52 39.77 39.27 39.36 38.59 38.96 38.56 37.88 38.18 37.57 37.35
35.71 36.52 38.79 42.95 43.10 45.92 36.48 39.33 47.18 47.15 47.89 47.52 46.11 47.96 49.06 50.22 49.97 50.70 50.09 47.42 45.02 43.28 41.81 40.85 40.96 40.99 40.26 39.78 38.80 39.60 39.99 40.13 39.98 40.15 39.44 39.41 39.14 39.33 38.58 38.00 37.13 36.53 34.73 35.18
35.18 34.97 33.34 44.05 44.63 41.07 45.93 48.41 47.57 48.32 49.08 48.85 49.75 48.65 47.45 48.25 48.58 47.63 45.37 42.02 41.26 40.28 40.11 41.06 41.03 40.56 38.81 37.65 38.72 39.13 39.45 39.37 39.04 39.08 38.42 38.17 38.17 38.65 38.15 37.23 35.93 35.00 33.56 33.44
41.17 42.35 45.11 46.49 47.89 49.20 48.85 47.86 48.06 48.39 49.36 49.25 48.60 47.77 46.65 46.31 45.66 43.29 41.06 39.53 41.32 40.23 38.15 39.74 39.91 39.56 36.67 37.96 38.66 38.12 37.77 37.64 37.95 38.22 37.66 38.23 37.75 37.32 36.30 36.14 34.98 34.20 33.11 32.54
40.46 44.61 45.43 46.73 47.94 48.46 48.27 48.19 49.41 49.76 49.36 49.49 48.45 48.82 46.02 44.00 42.04 40.83 39.75 36.87 37.64 37.49 37.93 37.85 38.26 37.21 37.82 38.12 37.80 37.25 36.70 36.77 37.40 36.89 36.70 37.49 36.78 34.91 34.66 34.58 34.28 33.09 32.21 30.73
42.08 45.25 45.92 46.80 47.22 47.93 48.85 49.93 49.77 49.98 49.26 49.04 48.88 47.78 44.99 41.68 40.19 38.27 36.07 35.42 36.82 37.59 37.24 36.32 37.05 37.07 37.85 37.10 37.25 35.82 35.63 35.80 36.10 36.15 36.22 36.32 36.25 34.70 34.35 35.70 34.63 32.75 31.97 31.88
41.65 44.69 44.84 46.18 48.37 48.86 48.01 48.54 49.26 48.68 47.57 46.90 47.64 44.21 41.91 39.76 36.65 35.38 34.51 35.27 36.35 36.27 35.76 35.84 35.45 36.10 37.01 37.20 36.03 35.09 34.32 34.81 35.31 35.36 35.38 34.92 34.63 33.95 32.42 30.80 30.81 30.54 30.25 30.94
44.93 47.82 47.66 48.27 48.31 47.89 46.20 45.09 45.45 44.69 43.77 41.16 40.86 39.50 36.79 33.11 33.70 33.61 35.43 35.15 35.41 35.10 35.16 35.46 35.70 35.18 36.08 36.18 35.30 33.83 33.52 34.10 35.38 33.77 34.18 33.44 33.59 32.60 31.59 33.02 30.91 30.75 30.83 30.59
46.41 47.49 46.04 43.25 41.57 42.54 42.48 42.40 41.63 39.99 38.02 36.17 35.40 35.64 35.05 34.33 34.26 34.48 35.33 36.04 35.86 35.63 35.43 35.03 35.02 35.55 36.45 36.04 35.04 34.23 34.74 31.89 34.36 33.66 33.45 33.25 33.69 33.21 33.32 31.76 31.10 32.18 31.00 30.18
41.97 44.45 42.36 41.91 41.46 39.49 39.32 38.48 35.69 34.60 34.20 34.47 35.13 34.30 34.20 33.82 34.63 35.89 35.90 35.44 34.86 34.33 34.88 35.88 35.41 35.42 36.27 35.95 34.61 34.90 34.90 34.89 34.41 33.97 34.34 33.29 33.59 33.10 32.46 32.46 31.24 30.85 32.11 29.68
40.77 41.27 39.42 37.27 36.47 36.10 35.95 35.27 34.59 34.15 35.75 35.99 35.45 35.13 35.40 35.64 35.51 35.59 35.83 35.59 33.09 34.12 36.12 34.90 33.67 34.70 36.50 36.90 36.51 36.28 35.62 32.33 32.34 33.31 33.41 31.89 31.82 31.95 31.29 31.56 31.36 31.35 30.57 30.47
36.19 33.87 33.86 33.17 33.60 34.41 34.99 36.11 36.86 36.93 37.14 36.64 36.22 34.66 34.59 34.09 33.42 34.11 35.11 35.00 34.63 33.26 33.95 33.71 33.03 36.26 36.50 36.89 36.77 36.30 35.46 34.66 32.56 33.58 32.74 32.48 32.51 32.09 31.75 31.60 31.41 31.69 31.30 32.85
37.46 36.04 36.26 36.71 35.94 34.60 36.31 37.47 37.29 36.26 34.92 34.19 33.60 33.03 32.71 32.53 32.49 32.92 33.57 33.68 32.17 32.35 33.08 34.39 35.36 36.21 35.90 36.69 36.03 34.88 34.95 34.21 33.73 33.68 33.43 32.92 31.85 32.70 32.90 31.77 31.25 31.19 32.01 32.56
39.31 38.13 38.22 37.85 38.08 37.18 35.69 34.03 33.91 33.78 32.98 33.26 32.61 32.89 32.64 32.35 32.60 32.71 32.59 30.70 30.51 32.40 35.81 37.16 32.92 32.43 34.84 34.26 32.49 33.82 34.64 33.35 32.12 32.63 33.14 31.59 31.10 31.61 32.15 32.19 31.77 32.08 31.89 31.52
36.61 36.50 35.90 35.12 35.04 34.97 33.91 34.19 34.32 34.38 34.66 33.19 32.07 32.52 32.76 32.89 32.89 31.99 32.35 31.31 32.80 34.23 35.36 34.88 34.43 34.58 34.72 34.40 31.42 33.81 33.93 32.60 30.94 31.26 32.14 32.84 32.83 32.17 32.34 30.83 31.29 31.79 31.81 31.99
34.82 34.85 33.07 33.15 32.63 32.92 32.64 32.39 33.02 32.53 33.02 31.69 31.03 30.70 29.95 31.08 32.10 31.79 31.65 31.36 34.78 35.95 34.70 32.59 34.34 35.17 35.94 34.53 33.40 33.19 32.06 31.21 31.40 30.82 31.43 31.99 31.99 32.10 31.94 31.61 31.26 31.44 31.44 31.63
35.89 32.86 31.87 32.28 32.72 33.00 33.10 32.31 31.12 30.31 29.26 29.05 29.10 29.41 29.68 30.13 29.58 29.64 31.14 31.28 33.67 31.78 32.51 31.96 33.05 32.79 33.21 31.16 32.84 32.53 31.60 31.43 31.71 31.78 31.34 31.57 31.44 31.44 31.44 31.63 31.43 31.63 31.81 31.81
34.08 33.52 32.72 31.60 31.78 32.21 31.59 29.30 28.34 28.53 27.28 27.54 27.77 27.64 28.04 29.34 29.27 27.99 26.80 31.42 31.18 31.04 31.25 31.19 30.88 30.87 31.16 31.63 32.17 32.17 31.76 31.14 30.70 30.51 29.93 29.54 29.55 30.35 30.92 31.07 31.97 32.17 31.81 32.17
33.72 32.59 31.58 30.91 29.55 28.19 26.82 26.97 27.26 27.60 26.99 26.96 27.36 26.71 26.58 27.12 28.19 29.09 30.23 30.32 29.74 30.20 31.15 31.70 31.50 30.94 30.10 31.08 31.81 30.72 28.93 27.20 26.48 25.87 25.21 24.45 25.54 25.39 25.96 27.62 28.81 30.36 31.73 32.01
29.00 28.83 28.32 27.64 27.47 27.08 25.60 25.22 25.67 25.89 24.78 24.74 24.80 25.28 25.05 26.19 25.14 26.65 27.83 28.41 28.02 28.70 30.24 29.85 29.53 27.75 29.26 28.26 26.97 25.60 25.15 24.31 22.48 22.13 21.49 21.54 21.41 21.24 22.25 22.52 22.41 23.56 25.40 29.12
28.82 28.66 27.98 26.09 25.34 24.91 24.03 23.44 22.53 23.41 22.21 22.14 22.97 23.71 23.73 24.01 24.23 24.29 25.03 24.68 25.31 24.48 24.87 24.80 22.28 22.11 22.83 21.43 21.70 20.77 21.27 20.02 18.99 18.31 17.98 18.32 18.24 18.37 18.48 18.58 19.00 20.61 22.48 24.76
25.05 24.09 25.33 24.97 23.74 22.24 21.09 20.01 20.01 19.65 20.39 20.54 19.27 21.19 21.51 21.61 21.63 21.07 20.21 20.58 20.51 20.07 20.11 19.75 18.96 16.61 16.76 16.77 16.53 16.49 16.12 16.61 14.07 13.38 14.34 14.52 14.60 14.40 14.80 15.05 16.62 18.15 20.64 22.31

GFSNGP_sfc_wetblb_033.txt.gz
Wetbulb
46.26 45.63 45.33 44.84 44.58 45.27 43.79 44.05 41.25 42.95 42.53 44.68 46.85 47.69 49.43 50.80 52.06 52.82 54.12 54.70 55.06 54.99 54.93 54.26 52.99 52.21 51.06 50.10 49.57 47.46 47.30 45.96 45.93 46.25 46.08 45.68 45.26 45.07 44.48 43.62 43.31 43.35 42.73 42.13
42.73 45.87 44.73 43.12 45.20 44.99 44.98 44.81 44.40 44.50 44.04 49.01 49.77 50.13 49.45 49.97 50.93 51.26 52.94 53.60 54.15 54.48 54.31 53.47 52.24 51.22 50.01 48.24 47.17 47.50 45.93 45.12 45.39 44.92 44.33 44.53 44.31 43.83 43.07 42.61 42.63 42.47 42.00 41.07
37.77 41.47 41.68 37.26 42.97 44.81 45.32 46.26 45.81 42.54 46.55 48.75 48.27 48.23 48.92 49.70 50.56 50.88 52.15 53.37 53.70 53.77 53.67 53.11 51.91 50.86 48.17 47.41 47.56 45.57 44.62 44.67 44.24 43.59 43.49 43.09 42.86 42.32 41.71 41.76 42.10 41.53 41.28 40.39
38.58 36.18 30.57 42.46 46.17 45.53 44.61 46.14 47.26 46.67 47.23 48.02 48.00 50.09 51.00 51.73 51.13 51.10 51.83 52.64 53.68 53.78 53.41 52.90 51.96 49.40 47.97 47.40 44.95 43.84 43.96 43.59 42.92 42.90 41.84 42.20 41.64 41.20 41.31 41.54 41.13 40.37 40.17 39.94
37.69 36.46 40.29 41.93 43.40 42.75 42.09 42.45 46.81 45.75 46.85 48.05 49.38 49.77 49.98 52.10 51.24 51.17 52.28 53.43 53.90 54.07 53.16 52.28 49.88 47.62 45.99 44.04 43.43 43.46 42.48 42.01 41.84 41.77 41.03 41.08 40.31 40.52 41.13 40.57 40.11 39.71 39.87 39.62
37.64 34.83 32.03 42.44 44.99 47.27 46.88 39.36 46.86 47.22 46.96 47.18 48.31 44.30 47.77 51.15 51.24 51.49 52.79 53.68 53.30 53.55 52.17 49.98 47.46 46.05 43.64 42.47 42.81 42.11 41.43 40.79 41.19 41.42 40.72 40.19 40.46 40.29 40.74 40.02 39.23 39.17 38.47 38.96
38.33 37.51 40.93 46.02 45.88 47.74 38.28 41.22 48.39 48.36 48.31 48.71 47.16 49.32 51.66 52.35 51.72 52.79 53.12 53.07 53.21 51.25 48.71 46.63 45.95 44.42 43.06 41.98 40.59 41.02 40.91 40.92 40.74 40.93 40.52 40.56 40.41 40.07 39.48 39.05 38.84 38.14 36.89 37.31
40.47 35.75 33.52 46.92 46.66 41.80 47.65 49.37 49.34 49.69 49.72 49.85 51.04 51.41 51.44 51.14 51.44 51.66 51.32 50.28 48.71 46.57 44.89 44.05 43.30 41.93 40.69 40.62 40.46 40.31 39.67 39.56 39.68 40.02 39.92 39.83 38.86 38.78 39.20 38.63 37.36 36.32 36.01 35.16
43.65 43.77 47.94 48.71 47.68 49.67 50.20 49.13 49.49 49.62 50.50 50.47 50.16 50.51 51.11 50.21 50.28 49.87 48.90 45.84 44.73 43.50 41.06 41.33 40.74 40.57 38.75 38.95 38.89 39.01 38.70 38.29 38.97 39.79 39.57 38.92 38.20 38.22 37.46 37.52 36.22 35.47 34.14 34.22
43.36 45.95 46.82 48.01 49.35 49.91 50.55 50.20 51.08 51.44 51.19 51.18 50.14 51.03 51.01 49.07 47.84 45.93 44.56 42.92 41.84 41.26 38.57 37.99 39.90 38.87 38.74 39.07 39.13 37.74 37.04 37.80 38.63 37.95 37.48 38.71 38.12 37.90 36.82 35.23 35.42 34.07 33.45 33.28
44.73 47.09 47.64 48.61 49.77 50.26 50.42 51.54 51.54 52.03 51.88 50.44 50.27 50.48 49.88 46.34 44.20 42.23 39.78 37.24 37.73 37.11 36.95 37.12 38.50 37.93 38.98 38.38 38.14 37.12 37.21 36.98 36.75 36.98 37.26 37.06 37.35 37.54 36.45 36.85 35.62 34.28 34.26 34.25
43.58 46.98 46.99 48.20 50.26 50.17 49.72 48.70 48.76 49.08 48.57 47.67 48.61 46.58 44.05 40.66 38.81 36.54 35.19 35.94 36.39 36.93 36.81 37.42 37.29 36.90 37.49 38.53 37.91 36.03 34.85 35.28 36.46 36.24 36.37 36.52 35.60 35.65 34.58 32.37 32.67 31.98 31.70 32.30
46.86 49.43 49.34 48.95 47.21 47.33 45.36 45.74 45.51 44.51 43.98 41.12 40.63 39.14 37.41 35.39 35.85 35.57 36.03 36.36 36.17 36.42 37.11 36.66 36.36 36.89 38.11 37.42 36.80 35.39 34.75 34.83 35.45 34.86 35.86 35.08 35.07 34.71 32.97 35.18 32.68 31.97 31.55 31.19
47.44 48.66 45.96 44.99 43.58 45.23 42.22 40.51 39.56 38.37 37.43 36.98 36.21 36.17 35.70 34.87 35.38 35.47 36.25 37.69 37.93 37.28 37.11 37.27 36.67 36.26 38.28 38.66 37.34 35.80 35.57 32.92 35.49 36.55 36.08 34.45 34.00 33.84 34.18 33.34 32.87 34.19 32.71 31.32
45.03 46.05 45.00 44.32 43.13 41.11 40.23 38.20 36.22 35.03 35.29 34.89 35.28 35.18 35.80 35.61 36.37 37.40 38.51 37.77 37.11 36.54 36.73 37.55 37.54 37.82 39.14 38.89 36.82 36.47 36.24 36.68 37.61 37.52 36.32 34.68 34.48 33.03 33.86 33.10 32.70 32.98 34.22 32.18
41.87 41.55 40.73 39.10 37.28 36.69 36.53 35.77 35.61 35.98 37.40 38.19 37.84 37.63 38.14 38.40 38.11 38.05 38.14 38.29 35.53 35.30 36.76 34.47 34.72 37.15 38.87 38.23 37.95 38.23 38.19 34.32 33.84 36.04 35.89 34.74 34.18 32.53 32.73 32.92 32.75 32.67 32.40 32.77
36.13 34.25 35.41 35.14 36.93 38.12 38.97 39.60 39.08 38.85 39.04 38.04 36.57 35.92 36.51 35.89 35.75 36.28 36.73 36.84 35.80 33.34 34.95 34.89 35.12 38.53 38.61 38.82 38.23 38.32 37.94 37.26 33.91 35.50 35.19 34.91 33.92 33.64 33.17 32.83 32.58 32.37 32.95 33.73
39.39 39.77 40.34 39.91 37.57 37.42 37.91 38.21 37.88 36.39 35.66 35.59 33.70 32.78 31.89 31.71 33.19 34.43 35.31 35.80 33.16 33.16 35.12 37.05 37.92 38.19 37.54 38.19 38.06 38.00 37.27 36.27 35.81 35.29 35.32 35.16 33.92 33.74 33.61 32.62 32.34 31.95 32.92 33.94
40.52 39.67 39.71 39.21 38.84 37.71 36.17 35.92 35.64 35.68 34.08 33.35 31.65 31.35 32.77 32.25 34.29 34.09 33.96 32.33 31.93 33.35 36.24 37.34 33.38 34.11 36.08 36.05 34.80 36.69 34.86 34.24 34.32 34.32 33.50 33.18 33.62 33.64 32.99 33.05 32.86 32.79 32.63 32.89
38.37 38.17 37.72 36.69 36.83 36.35 34.87 35.39 37.08 35.40 35.84 33.11 32.25 32.07 31.63 32.20 31.83 31.91 31.45 30.27 32.59 34.72 35.36 33.98 32.91 33.70 34.65 35.39 33.64 35.23 34.39 34.27 33.29 32.62 32.52 32.12 32.32 32.00 32.78 32.39 32.93 32.75 32.43 32.55
36.77 36.15 34.92 34.71 33.97 33.83 33.29 33.02 32.95 32.43 32.49 30.86 29.64 29.02 29.22 30.48 32.22 30.65 30.13 29.08 31.99 33.48 31.92 30.98 31.78 31.69 32.37 32.67 33.66 34.38 33.70 32.98 32.24 32.09 32.05 32.36 31.87 32.01 32.07 32.07 32.07 32.25 32.07 32.07
37.15 34.13 34.03 34.87 34.31 34.07 33.55 32.57 31.13 29.53 29.13 28.62 29.02 28.40 27.59 28.27 29.06 30.05 30.83 29.83 32.02 29.97 31.38 31.96 32.26 31.73 32.21 30.81 32.49 32.58 32.11 32.74 32.80 32.42 32.35 31.77 31.48 30.64 30.64 30.91 30.95 31.35 31.89 32.25
36.12 34.98 33.89 32.91 34.11 33.64 31.26 29.61 30.51 28.92 27.21 27.07 27.10 26.09 25.67 26.69 27.62 26.11 25.87 28.46 28.48 28.75 29.23 30.45 29.81 28.67 28.50 30.94 31.76 32.25 31.66 31.26 31.89 30.77 28.91 28.10 27.82 27.99 27.74 27.19 27.16 28.20 29.42 30.14
35.92 35.15 33.76 32.54 31.03 29.79 28.62 28.72 28.75 28.89 28.17 27.68 27.89 26.66 25.41 24.95 26.02 27.60 27.75 26.80 25.93 25.60 27.04 27.52 25.85 23.02 25.13 28.92 28.18 28.33 27.84 28.37 27.65 26.58 25.87 24.69 24.77 24.60 24.44 24.29 23.07 23.86 24.44 25.32
32.16 32.06 30.78 29.89 29.87 29.68 28.21 27.67 27.59 27.52 26.43 26.01 25.97 26.27 25.29 26.36 24.36 24.81 24.91 24.36 22.68 23.03 23.24 22.82 21.38 19.27 22.81 23.19 23.12 22.55 23.47 21.96 21.65 21.44 21.01 21.44 21.28 20.48 21.14 20.80 20.09 20.77 21.77 23.44
32.39 32.04 30.35 28.30 27.73 27.54 26.77 25.65 24.54 25.49 24.19 24.20 24.42 24.59 25.15 24.98 24.19 22.83 22.48 21.69 21.22 20.47 20.61 20.91 20.04 18.75 18.02 18.15 18.21 17.79 17.93 18.29 16.12 15.81 16.46 17.10 17.23 17.25 16.66 16.63 16.94 17.79 19.10 20.81
27.63 27.63 28.97 28.67 26.85 25.17 23.94 22.92 22.90 22.04 23.11 22.68 20.57 23.30 23.61 22.99 21.67 20.93 20.15 20.59 19.55 19.36 18.84 18.84 18.51 16.73 15.33 15.25 15.31 15.12 14.89 14.63 13.83 12.85 13.48 13.28 14.00 13.56 13.47 13.29 14.50 15.87 16.99 18.69

GFSNGP_sfc_wetblb_036.txt.gz
Wetbulb
44.62 46.02 45.78 45.21 44.76 44.92 43.03 44.03 39.80 42.79 42.41 45.28 47.21 48.18 49.41 50.99 52.13 51.65 51.96 54.51 55.08 55.59 55.21 55.60 54.91 54.11 53.42 51.01 50.31 49.56 48.17 45.83 45.20 45.89 46.03 45.19 44.14 43.71 43.31 42.80 41.98 42.03 41.54 41.13
43.10 46.18 45.73 43.00 44.58 45.25 44.96 44.40 44.04 43.96 43.34 48.47 49.71 50.04 49.27 49.55 49.53 49.86 50.93 52.52 54.75 55.28 55.80 55.39 54.57 53.15 52.14 50.35 49.16 47.06 46.66 45.41 45.48 45.38 44.36 43.98 43.18 42.98 42.36 41.97 41.55 41.29 40.19 40.22
38.84 42.46 41.04 35.36 42.54 44.04 44.75 45.86 45.32 41.46 46.38 48.96 47.75 47.91 48.88 49.87 50.04 50.71 50.81 51.52 53.48 54.09 54.69 54.92 54.30 52.17 50.82 48.77 47.08 46.89 45.12 44.95 44.46 43.91 43.15 42.67 42.32 41.79 40.98 40.35 40.11 39.57 39.44 39.05
39.56 35.95 31.04 42.10 46.83 45.51 44.04 44.89 46.03 45.84 46.14 46.91 48.01 49.31 49.80 50.69 50.73 50.62 51.88 51.94 52.36 53.55 54.31 54.43 54.06 51.26 49.11 47.29 47.12 44.59 43.26 43.59 44.13 42.92 42.21 41.27 41.14 40.53 40.14 40.06 39.29 38.31 37.59 38.02
36.48 35.93 40.02 42.03 43.96 43.21 42.18 41.98 46.05 44.99 46.00 46.79 48.02 49.05 49.12 52.11 51.59 50.49 50.76 51.41 52.21 53.32 53.85 53.59 51.48 48.83 47.32 46.00 43.27 42.68 42.56 42.70 42.21 41.55 40.32 40.33 39.96 39.33 39.39 38.89 38.33 37.65 37.55 37.14
38.63 35.74 31.86 42.86 45.05 47.43 46.64 38.92 47.13 46.93 46.57 46.84 47.41 42.57 46.61 51.32 51.89 51.85 52.01 52.22 52.15 53.15 53.17 51.24 48.03 47.42 43.89 42.61 41.80 40.92 40.07 39.99 40.71 40.62 39.79 39.03 39.27 38.89 38.78 38.53 38.15 37.68 36.76 36.40
37.59 37.44 40.05 46.22 46.61 47.78 38.22 40.75 48.14 48.27 48.05 47.87 46.42 48.87 51.39 51.86 51.09 52.19 52.19 51.45 51.54 50.58 47.61 45.36 44.58 43.55 41.41 40.55 39.43 40.27 40.94 40.17 39.59 39.77 39.47 39.50 39.14 38.54 37.12 36.67 36.16 34.72 33.51 33.71
41.13 34.34 32.43 47.51 46.49 41.54 47.51 49.80 49.16 49.10 49.44 49.43 50.13 50.64 51.16 51.51 50.60 50.91 49.88 48.58 47.52 42.83 41.41 42.12 41.90 41.19 39.25 38.03 39.51 39.49 38.91 38.64 38.99 38.66 38.78 38.71 37.60 36.86 36.79 36.10 34.31 33.45 32.53 32.41
42.85 42.48 48.87 49.43 48.06 49.98 50.68 49.03 49.51 49.92 50.30 50.40 49.83 49.72 50.49 50.54 49.68 48.82 45.92 43.36 42.66 41.41 39.81 40.02 39.64 38.81 37.18 37.96 39.11 39.15 38.30 37.37 37.39 38.08 38.19 37.93 36.38 35.65 34.77 34.33 32.40 32.00 31.55 32.14
44.95 46.28 47.29 48.62 49.56 50.55 50.56 49.87 50.61 51.17 51.06 50.99 49.19 49.92 49.99 47.92 45.22 42.15 41.57 40.54 40.04 38.80 37.59 37.18 38.19 38.30 38.33 38.85 38.65 37.55 36.32 36.30 37.06 36.37 36.04 36.36 36.23 35.31 34.41 32.95 31.83 31.23 31.81 31.91
45.16 47.10 48.17 49.13 49.63 49.65 50.28 50.73 50.02 50.61 47.80 46.85 48.18 44.99 41.04 39.20 37.81 37.41 36.91 37.13 37.31 36.59 36.62 36.69 38.17 37.92 38.63 38.45 38.10 36.30 36.34 36.13 35.74 35.61 35.57 35.38 35.72 35.16 32.21 33.10 32.67 31.02 31.46 31.50
44.59 47.34 47.45 46.42 47.34 48.81 46.98 45.88 46.36 45.28 41.71 41.76 40.91 38.48 37.37 35.92 35.86 35.65 35.69 36.88 36.77 36.96 37.03 37.48 37.68 37.56 37.70 38.19 37.80 36.01 34.56 34.24 33.69 33.82 33.84 34.35 34.21 34.10 34.93 32.28 33.06 32.80 32.73 30.04
47.15 48.97 48.90 46.75 45.70 44.62 42.90 42.56 42.37 41.24 40.39 37.81 37.73 37.09 36.37 35.48 35.86 35.72 36.64 36.67 36.81 36.98 37.42 37.45 36.83 36.90 38.00 37.93 36.48 34.34 33.20 33.17 32.99 32.30 33.08 32.90 31.67 31.04 29.93 32.51 34.05 32.78 32.81 32.48
47.75 48.21 44.01 46.05 41.08 41.68 40.17 39.31 39.46 38.77 38.35 37.65 37.08 37.28 36.56 35.89 36.36 36.82 37.03 37.92 37.78 37.08 36.87 36.89 36.61 36.50 38.20 38.44 37.02 34.35 34.36 32.74 33.00 33.33 33.54 33.32 33.17 32.45 31.44 30.52 29.53 30.25 32.58 31.85
45.02 46.02 44.41 43.43 41.81 39.86 39.81 39.04 37.23 36.24 36.36 36.16 37.39 36.86 37.12 36.67 36.92 37.54 38.17 37.95 37.49 36.85 36.71 36.81 35.14 34.75 37.52 37.82 36.42 35.01 34.90 34.49 34.35 34.71 34.01 32.76 31.71 31.92 31.23 30.51 30.21 30.21 30.74 29.85
42.81 42.82 42.25 39.73 38.22 38.21 38.16 38.00 36.24 36.20 37.27 37.82 37.08 36.69 37.05 37.12 36.40 36.60 37.34 36.27 33.63 32.96 33.79 30.88 31.81 34.50 37.10 38.15 37.38 36.94 36.50 34.07 32.91 34.28 33.46 33.45 32.36 31.87 31.27 31.02 30.58 30.02 30.05 30.38
37.00 35.64 36.59 36.37 36.85 37.53 38.06 38.54 37.96 36.09 36.11 34.94 34.15 33.58 34.23 33.42 33.99 34.05 34.97 34.67 32.80 31.39 31.96 32.90 33.50 37.49 36.22 37.15 36.17 35.23 35.15 35.12 33.59 33.67 33.24 33.30 33.29 32.68 32.32 31.92 31.16 30.34 30.42 30.83
40.24 39.88 40.20 39.12 37.28 36.95 36.71 36.98 35.67 35.18 33.76 33.52 31.21 31.40 30.32 30.00 31.85 32.15 31.56 31.43 31.44 31.81 32.97 34.32 31.56 32.60 33.55 34.97 34.16 33.21 33.20 33.51 33.11 32.58 32.60 32.55 32.10 31.90 31.01 30.78 30.85 30.23 29.67 30.18
40.51 39.21 39.34 39.21 38.68 37.17 35.98 35.08 34.99 34.13 31.80 31.04 30.16 29.88 30.53 30.56 29.52 29.88 30.02 27.75 27.40 29.15 31.60 32.74 30.29 30.47 30.61 31.14 30.78 31.04 31.07 31.38 32.05 32.07 31.88 31.83 31.34 30.10 29.68 29.37 29.77 31.10 31.26 30.66
38.70 38.20 37.58 36.41 36.70 35.38 33.92 34.73 33.95 34.35 32.60 29.74 26.67 26.41 27.27 25.59 26.33 26.19 27.47 28.14 29.93 28.41 28.75 29.14 29.25 29.18 29.59 30.43 29.40 29.43 29.12 29.11 29.72 30.35 31.17 31.09 30.36 29.79 29.47 27.94 29.34 30.96 31.89 30.73
36.09 35.56 34.09 33.33 32.53 32.18 31.28 31.61 29.82 29.90 29.68 25.84 25.96 24.39 23.56 25.92 26.77 25.17 26.26 26.00 28.01 26.88 27.16 26.49 27.23 27.80 26.70 24.74 24.88 27.26 28.08 28.53 28.99 29.67 29.93 30.66 30.73 29.40 28.62 28.74 29.36 29.86 30.02 30.73
35.14 33.27 32.22 32.37 33.09 32.46 31.66 30.99 29.49 26.93 26.60 23.82 22.06 21.05 21.42 24.46 24.08 25.23 24.04 24.88 25.93 24.22 23.96 25.15 25.76 20.98 20.14 19.74 25.47 26.59 26.33 26.47 29.02 29.41 29.49 30.25 28.96 27.12 26.24 26.33 25.30 25.15 25.61 26.11
34.73 33.95 33.56 32.49 32.01 31.60 29.88 28.28 27.19 26.14 23.59 22.51 22.79 23.54 23.85 24.47 25.54 23.31 22.04 24.55 24.58 22.15 23.04 23.24 20.71 16.91 16.38 21.28 21.72 21.95 21.31 22.18 21.37 22.58 23.31 23.94 24.55 23.82 22.97 23.16 22.22 21.67 21.34 21.73
35.19 34.50 33.14 32.54 30.97 29.99 28.77 27.88 28.58 28.37 24.39 25.59 23.75 22.05 23.87 23.50 24.02 25.41 24.45 21.84 19.88 19.85 20.61 21.52 19.31 16.30 15.73 18.30 18.20 17.42 17.45 17.87 15.84 16.93 17.90 19.19 19.69 19.62 19.62 18.89 17.82 18.22 18.51 19.36
32.90 32.42 31.55 30.26 30.18 28.98 28.06 26.68 27.41 26.79 25.59 25.39 25.46 25.09 24.50 25.27 23.04 22.39 22.23 21.77 20.49 19.86 19.85 19.73 18.64 15.23 16.13 15.81 15.59 14.96 14.66 15.27 13.87 13.24 13.75 14.16 14.38 14.93 14.89 14.50 13.95 14.64 15.49 15.93
32.70 31.57 28.64 28.01 26.90 26.64 25.53 24.77 23.82 24.58 23.18 23.46 23.50 23.33 24.56 24.34 23.27 21.75 21.23 19.90 20.29 18.51 18.62 18.11 17.53 16.68 15.20 14.25 13.97 13.31 12.64 12.27 11.87 11.10 11.16 10.87 11.63 11.43 11.47 11.43 11.46 12.41 12.71 13.05
28.00 28.77 28.96 27.56 25.68 24.51 23.12 22.81 22.22 20.70 22.22 21.16 19.66 21.27 22.94 22.61 21.66 19.68 17.73 18.32 17.85 17.44 16.69 16.21 16.11 15.26 14.02 13.32 12.68 11.86 11.62 10.59 10.25 9.89 9.18 8.34 9.04 8.23 9.13 9.43 10.55 11.14 11.60 12.90

GFSNGP_sfc_wetblb_039.txt.gz
Wetbulb
40.82 42.95 44.39 43.19 42.19 42.33 39.26 39.67 33.45 36.95 38.95 42.38 41.83 42.64 43.61 45.51 46.46 46.81 48.03 49.79 50.69 50.81 50.53 51.39 51.30 51.30 51.50 50.61 48.17 46.87 46.06 44.40 44.04 44.39 44.13 43.75 43.45 42.26 41.96 41.08 40.57 40.01 39.62 39.39
37.21 43.29 41.93 39.02 41.62 41.57 41.02 41.68 39.88 39.93 39.39 43.08 44.02 44.11 44.19 44.87 45.58 45.94 46.59 47.35 50.66 51.58 51.64 51.84 51.54 50.85 50.17 48.66 47.06 45.56 44.34 43.77 44.92 44.60 44.70 41.51 41.24 41.34 40.77 40.04 39.66 39.16 39.10 38.95
31.43 37.00 36.61 29.12 37.22 39.88 41.24 42.21 40.68 35.60 39.39 43.37 42.79 43.71 43.66 44.12 45.91 46.02 46.56 47.14 48.46 50.12 50.78 51.21 51.00 50.24 46.58 45.85 45.93 45.66 44.31 44.45 44.07 42.62 40.85 41.40 40.90 39.60 39.04 38.37 38.67 38.09 37.84 38.24
28.94 29.52 20.94 37.36 43.31 42.71 40.74 41.02 40.94 41.02 40.81 42.73 42.95 44.14 45.10 44.85 44.25 44.65 45.56 46.40 47.12 47.23 49.52 48.77 47.68 45.73 45.33 45.40 45.17 42.78 42.03 42.18 42.31 41.38 40.26 39.45 38.89 38.66 38.69 38.35 37.50 37.16 36.56 36.65
26.96 27.16 34.35 38.56 41.25 40.58 38.30 37.49 42.11 40.94 42.04 42.99 43.88 43.06 44.07 47.33 46.77 45.95 46.35 46.55 46.56 47.41 45.36 44.54 44.04 44.23 42.29 41.88 41.74 41.27 40.05 39.49 39.62 39.64 38.52 38.48 38.35 37.77 37.55 37.73 36.71 36.34 36.62 35.73
29.40 25.29 20.43 35.86 41.74 45.02 43.26 31.74 43.31 43.50 42.43 42.92 43.04 34.94 40.29 46.16 47.48 46.75 43.94 42.76 42.17 41.54 40.72 40.74 39.80 40.02 39.03 38.12 38.00 37.59 38.09 38.53 39.06 39.16 38.33 38.06 37.85 37.53 37.50 36.53 36.52 36.12 35.39 34.80
25.14 23.56 31.34 43.05 44.15 45.19 30.47 33.05 43.53 44.07 43.45 43.03 40.27 42.75 45.76 47.06 46.73 44.60 41.65 40.62 40.20 39.08 38.44 38.73 38.97 38.67 37.96 37.57 36.58 38.29 39.53 39.51 39.24 39.02 38.17 38.27 37.43 36.50 35.48 34.62 33.74 32.40 31.89 32.11
31.74 27.97 26.38 44.41 43.21 36.51 41.41 43.20 44.01 43.87 44.04 43.79 44.74 46.28 46.65 45.56 40.44 40.16 38.97 38.39 38.23 37.10 36.58 37.99 38.31 37.23 35.94 35.93 38.20 38.69 38.58 38.37 37.96 38.00 37.50 37.45 35.43 34.61 34.73 33.71 32.04 31.93 29.97 30.13
36.00 34.16 43.05 43.68 43.36 45.50 45.73 44.23 44.39 44.88 46.38 46.69 45.70 45.82 41.92 39.08 38.80 38.07 37.20 36.95 37.55 36.78 36.50 37.03 37.01 37.49 36.17 37.23 37.85 37.44 36.27 35.37 35.14 36.01 36.16 35.91 33.98 33.11 32.26 31.42 29.92 29.80 29.28 26.80
38.04 42.32 42.97 45.41 46.88 47.35 47.31 45.90 43.69 42.95 43.83 43.72 39.03 38.63 37.67 36.57 35.72 35.41 35.71 36.22 37.17 36.39 35.36 35.40 36.59 37.02 36.57 37.10 36.75 35.24 34.20 34.11 34.02 33.56 33.48 33.81 33.71 33.12 31.31 28.21 26.81 28.73 28.28 28.46
39.31 43.32 44.67 44.47 45.34 45.41 45.01 43.80 41.23 41.05 40.53 38.93 37.58 36.44 35.68 34.84 34.81 35.64 35.60 35.97 36.52 35.92 35.17 35.10 36.24 35.98 35.93 35.27 35.51 34.27 33.90 33.58 32.38 32.34 32.04 32.40 32.89 31.65 30.25 29.74 29.28 27.64 27.35 28.07
34.26 43.18 42.22 41.01 43.05 43.58 41.57 40.80 40.15 38.51 37.25 37.58 36.77 34.98 34.85 34.25 35.53 35.61 35.58 36.21 35.23 34.84 35.06 34.88 34.32 34.16 34.81 35.32 34.58 32.62 31.35 30.84 29.02 29.02 29.18 30.45 30.54 31.24 32.81 32.09 32.91 33.03 32.91 29.14
43.13 44.14 41.74 41.03 40.79 41.23 39.51 39.32 39.31 37.95 37.17 35.39 35.75 35.22 34.58 33.41 34.46 34.43 34.26 34.30 34.55 33.88 33.65 33.21 32.97 33.17 34.10 34.20 33.35 31.42 29.77 29.82 29.39 29.59 29.13 29.46 29.42 28.90 30.68 30.20 32.79 32.67 33.33 33.03
45.45 42.75 39.26 40.49 37.17 38.93 38.25 37.75 37.57 36.06 35.64 35.12 34.59 34.33 33.22 33.06 33.98 34.39 34.02 34.17 34.44 34.02 33.46 32.35 32.18 31.81 33.48 34.18 33.59 31.27 30.25 30.34 30.35 30.12 29.80 30.28 29.93 30.53 30.39 28.51 28.04 27.63 29.77 31.62
41.72 42.69 39.97 38.89 38.29 37.38 36.89 35.94 34.51 33.74 33.74 33.54 34.06 33.65 33.87 33.28 33.07 33.14 33.73 33.48 32.70 32.08 32.32 32.18 30.79 31.26 34.16 33.89 33.63 32.43 32.40 29.65 30.16 30.62 30.79 31.02 31.83 32.18 31.87 31.61 27.71 27.83 27.79 26.07
40.49 39.46 38.24 36.97 37.22 36.16 35.62 34.78 33.14 31.94 33.35 33.09 32.41 32.27 33.07 33.58 32.81 33.36 32.95 31.94 29.04 28.32 29.72 29.52 30.94 32.54 33.63 34.35 33.30 32.43 31.85 29.35 29.11 31.03 31.03 30.71 30.26 32.66 31.87 30.60 30.07 29.33 28.93 26.66
35.21 33.33 34.56 34.93 35.29 36.21 34.96 35.20 34.84 34.09 33.23 31.06 28.67 29.44 30.47 30.29 30.23 29.38 28.71 28.72 27.95 26.14 26.77 30.59 29.15 30.45 29.32 30.44 29.48 28.69 27.79 28.23 27.21 28.87 29.33 30.21 29.96 29.42 31.26 30.79 30.35 30.25 29.86 27.62
37.99 37.88 38.05 37.43 35.44 34.33 34.12 34.27 32.89 30.82 29.32 29.24 29.63 29.35 28.42 25.66 26.04 26.47 26.22 25.57 21.96 23.41 26.54 27.64 26.70 27.33 27.91 28.77 27.64 27.16 26.80 26.44 26.34 26.00 26.98 27.37 28.92 30.19 30.32 29.35 26.79 25.44 26.06 24.37
39.81 38.60 38.33 38.17 36.60 34.84 33.62 31.97 30.40 29.43 27.72 29.12 25.53 24.14 23.27 21.31 26.82 27.32 25.50 20.53 20.55 21.95 24.31 25.42 25.44 25.45 24.29 24.02 21.88 21.38 21.86 22.69 23.95 25.00 25.71 25.95 27.83 29.60 29.05 26.28 22.77 23.52 23.47 26.57
36.92 35.88 35.32 33.99 33.81 32.93 31.55 31.55 29.87 27.68 27.79 24.67 20.35 18.40 19.61 17.05 15.69 16.26 18.95 20.64 23.36 22.78 23.08 23.55 23.74 20.69 19.57 19.33 18.20 21.08 22.45 23.39 22.75 22.97 24.40 26.45 26.73 26.80 27.71 25.66 26.11 25.22 25.48 25.30
33.84 32.66 31.16 31.01 29.93 29.59 28.03 27.10 26.95 26.37 26.34 19.82 18.18 12.26 12.42 16.48 16.47 13.30 18.57 20.66 22.71 20.62 21.43 20.95 20.12 17.27 17.45 16.42 19.84 19.42 18.40 18.40 17.27 17.99 19.69 20.82 22.59 22.66 24.11 24.06 22.30 22.10 20.78 20.26
33.25 31.14 30.34 30.07 29.14 28.14 27.80 27.28 26.05 22.52 21.01 15.06 9.64 9.78 10.86 20.31 16.11 18.00 13.96 19.17 21.45 13.39 17.99 20.44 19.00 11.48 14.73 13.52 16.68 15.34 14.48 15.37 12.60 13.46 14.05 16.07 17.23 17.68 18.86 18.32 18.00 17.47 17.10 16.09
31.87 31.63 30.66 29.18 27.58 26.70 27.00 25.29 20.90 19.58 15.08 13.60 11.88 14.19 16.88 20.39 20.27 16.26 15.57 20.79 20.14 15.60 18.54 17.02 11.18 8.63 7.90 11.40 12.32 11.95 10.76 12.32 9.53 9.60 10.93 12.20 12.84 14.13 13.90 13.26 13.64 14.18 14.52 14.50
31.73 31.12 29.80 29.25 27.03 25.83 24.32 25.19 25.31 23.70 15.97 19.82 14.96 11.37 18.87 12.97 10.17 19.83 19.53 14.55 10.01 8.02 9.03 13.29 12.13 9.19 4.22 3.15 6.97 9.46 8.47 9.49 8.80 7.56 8.56 9.31 10.22 10.77 10.62 10.84 10.49 11.79 12.14 12.13
30.60 30.25 29.06 27.01 25.87 24.22 24.02 24.56 24.11 23.38 22.67 23.04 21.35 21.84 21.06 20.38 11.87 13.33 9.21 10.04 12.37 10.17 6.89 7.72 8.24 7.88 1.60 -1.09 -0.01 2.10 3.03 4.81 6.70 6.06 6.28 6.22 7.21 6.65 7.56 8.11 8.49 9.81 10.31 10.62
28.53 25.21 24.48 24.53 23.56 22.27 22.13 22.27 20.58 20.03 19.39 14.81 15.01 9.22 12.25 14.81 14.88 12.18 8.99 8.25 9.81 9.04 6.71 2.81 1.92 1.24 3.67 -0.35 -0.71 -1.19 2.67 5.23 4.07 6.05 2.85 2.82 4.43 3.87 4.67 5.73 6.85 7.74 7.93 9.63
26.53 24.56 23.51 21.81 22.24 21.57 20.38 19.34 15.44 14.01 13.12 6.54 7.80 8.04 15.34 12.39 6.59 9.38 3.64 1.19 1.22 3.90 0.68 2.00 0.31 1.10 3.30 3.78 -1.98 0.94 -2.31 -1.89 -0.89 4.12 -4.74 -1.80 0.02 0.23 2.01 3.38 4.99 5.52 6.26 6.36

GFSNGP_sfc_wetblb_042.txt.gz
Wetbulb
39.35 40.88 41.67 40.34 40.38 40.59 37.91 37.29 32.34 35.91 36.39 40.35 40.49 40.21 41.57 43.24 44.14 46.37 47.24 48.72 49.24 48.32 47.86 49.20 50.49 51.86 50.74 48.99 47.35 46.82 45.49 45.38 45.53 44.74 42.91 42.90 41.55 40.51 40.56 39.42 39.63 38.61 38.12 39.08
34.35 39.50 38.85 36.85 39.05 38.62 39.37 39.20 38.51 38.41 36.54 40.38 41.37 41.81 42.49 42.93 43.98 43.91 44.48 47.42 49.14 48.86 49.82 50.17 50.21 50.36 49.95 48.10 46.32 45.71 44.35 43.52 44.29 44.50 42.30 41.58 40.38 40.90 40.36 39.91 39.45 38.36 38.70 38.70
30.74 34.60 34.55 28.93 35.55 38.42 39.25 39.91 39.95 33.90 38.26 40.27 40.82 41.65 41.08 41.51 43.09 43.08 43.52 44.41 47.14 49.27 49.59 50.14 50.38 49.88 46.94 44.49 45.15 43.86 44.16 44.10 42.48 41.16 39.97 39.53 39.98 39.21 38.31 37.49 37.94 37.62 37.27 37.16
27.46 27.82 21.37 36.89 41.35 41.14 38.07 38.28 38.95 39.01 39.37 40.48 41.64 41.96 42.58 42.50 42.28 42.82 43.54 44.11 44.42 44.62 44.45 44.31 43.57 43.70 44.38 43.93 41.96 41.65 41.50 41.37 39.55 38.64 38.68 38.80 38.73 38.32 38.33 37.99 37.17 36.47 36.46 36.62
26.12 26.36 32.57 37.30 39.22 37.80 36.58 35.47 39.85 39.03 40.55 40.97 42.70 42.69 42.41 44.62 43.00 41.83 41.24 40.40 39.80 39.87 39.36 40.20 41.02 41.44 39.54 38.48 38.17 37.91 37.32 37.95 38.71 38.46 38.31 38.94 38.97 38.81 38.12 36.81 35.56 34.80 35.50 35.02
27.92 23.70 20.78 34.06 39.83 42.79 41.52 30.68 41.49 41.36 40.92 41.41 40.95 34.79 38.70 42.38 40.11 38.90 38.70 38.79 37.93 38.32 38.41 37.90 37.61 38.08 37.28 36.44 36.25 36.30 37.53 38.71 39.63 39.93 39.63 38.68 37.13 35.93 35.46 34.36 34.57 34.25 33.92 33.99
22.87 22.72 28.45 38.83 42.20 42.88 30.02 31.21 41.80 42.23 41.59 40.87 39.25 40.62 40.04 38.94 38.17 38.22 37.75 37.34 37.99 36.95 35.70 36.33 37.34 37.27 35.72 36.15 35.96 38.25 39.24 39.50 39.64 38.20 37.08 36.55 35.24 34.13 33.38 32.86 32.07 30.49 30.57 30.56
28.70 23.11 25.12 42.85 41.34 36.15 38.02 41.28 42.32 42.57 42.58 42.80 40.93 38.84 38.41 38.15 37.06 36.76 36.03 36.21 36.50 36.17 36.62 37.32 37.76 37.48 36.48 36.40 38.49 38.96 39.02 36.83 36.10 35.64 35.18 35.35 32.96 31.90 31.91 30.93 29.54 29.44 26.11 29.02
33.78 32.40 40.71 42.21 42.04 43.14 43.99 42.90 43.01 43.92 44.43 43.79 38.38 37.71 37.32 36.27 36.03 36.04 35.38 34.89 36.62 35.73 35.57 36.48 36.31 36.28 34.69 35.71 35.82 35.34 34.68 33.74 33.38 33.74 33.81 33.33 31.10 30.27 29.48 29.20 26.71 27.68 27.89 26.78
36.98 40.83 42.23 43.61 44.70 44.72 43.33 40.62 40.78 41.99 40.81 39.66 37.21 36.23 35.04 34.85 34.77 34.82 36.32 35.89 36.27 35.73 34.73 34.07 35.04 35.34 34.73 35.25 34.77 33.86 32.38 32.14 32.42 31.65 31.25 31.08 31.05 30.44 29.66 26.39 26.41 28.53 27.70 27.50
38.37 40.80 42.38 42.09 42.14 40.23 39.73 39.56 38.77 38.86 38.28 36.95 35.99 34.91 34.70 34.41 34.77 35.31 35.46 35.76 35.96 34.96 33.90 33.17 33.74 33.30 33.81 33.50 33.59 32.34 32.07 31.96 31.00 30.30 29.98 29.75 30.45 30.71 30.00 29.87 29.29 28.42 26.95 27.03
33.47 42.37 40.05 39.28 40.24 41.40 38.96 37.98 37.96 36.78 35.67 36.00 35.58 33.88 34.03 33.40 34.08 34.58 34.90 35.06 33.73 32.62 32.14 31.87 32.44 32.28 32.74 33.35 32.70 31.15 30.44 29.89 29.13 28.77 28.31 28.96 29.45 30.13 32.41 31.82 32.21 32.38 32.33 28.57
41.08 42.00 40.24 39.06 39.05 39.42 37.69 37.12 36.98 35.73 35.33 33.86 34.58 34.43 33.74 32.47 32.23 33.24 32.54 31.74 31.52 31.39 31.44 31.18 30.55 30.71 32.22 32.22 31.98 30.95 29.53 29.64 29.62 28.99 29.32 29.18 29.48 29.03 28.43 31.71 32.71 32.86 33.08 33.07
41.01 40.29 37.34 38.60 35.69 37.47 36.62 35.83 36.10 35.07 34.84 34.34 33.47 32.85 31.76 31.86 31.71 31.05 30.66 31.29 31.41 31.24 31.13 30.79 30.47 30.82 32.47 33.04 31.87 30.41 29.75 29.34 28.29 28.30 28.49 29.26 30.51 30.70 30.92 30.28 29.43 30.53 32.39 32.17
40.03 40.53 38.62 37.49 35.92 34.78 35.27 35.15 33.73 32.60 32.21 31.32 31.83 31.42 31.44 31.14 30.88 30.75 30.90 30.60 29.73 28.97 29.98 30.99 30.48 28.82 29.68 29.72 28.26 27.42 27.95 27.48 27.23 26.94 27.26 27.20 28.04 28.84 29.84 30.60 30.85 30.40 31.26 27.95
37.35 37.03 36.62 34.59 33.91 34.00 34.06 32.75 31.19 30.13 30.58 30.79 30.59 30.92 31.59 31.69 30.19 28.62 28.60 28.08 27.17 26.71 29.67 27.35 25.79 26.11 27.61 28.14 26.84 26.79 26.60 25.50 24.99 26.00 25.24 24.91 25.23 25.41 26.01 27.24 29.13 30.08 29.65 26.90
33.92 32.37 33.43 32.82 33.76 34.06 33.29 33.49 32.43 30.57 29.47 28.35 28.44 29.67 28.93 27.44 26.94 26.99 27.18 27.03 24.07 25.36 25.90 23.84 23.26 26.01 26.68 24.24 21.88 21.08 20.91 21.68 21.44 23.27 23.61 24.22 23.37 23.95 24.70 25.61 26.56 28.36 29.88 27.25
36.65 36.69 36.16 35.79 34.48 33.38 32.81 31.99 30.88 29.47 28.77 29.51 28.24 24.04 22.72 23.28 25.74 26.02 24.51 22.13 19.64 20.96 23.06 23.61 23.50 22.06 21.40 20.87 20.71 20.66 20.39 20.95 21.73 22.42 22.80 21.80 22.11 24.60 25.60 26.22 27.93 27.82 27.97 22.15
37.61 37.19 37.07 36.31 35.39 33.46 31.43 29.64 28.84 29.22 28.41 26.19 24.66 23.52 22.75 21.38 24.37 23.43 22.61 18.23 17.51 18.82 20.30 23.27 21.72 19.16 18.58 18.81 19.23 19.95 18.40 17.53 17.14 17.24 17.30 17.26 18.95 21.32 21.41 20.69 23.22 25.37 25.67 24.53
36.54 36.69 35.59 34.36 33.31 31.11 28.73 28.06 28.39 27.63 25.99 22.59 19.65 19.96 21.22 17.03 14.33 17.33 20.14 18.87 18.86 19.35 21.77 20.83 18.94 17.07 17.19 16.75 15.18 16.55 13.68 14.75 12.53 12.05 12.40 13.09 14.24 14.99 16.79 16.97 17.30 17.82 17.90 18.27
33.11 32.46 31.20 30.83 30.31 30.38 28.32 26.97 26.03 25.01 23.07 19.14 19.00 16.40 15.67 18.23 16.64 15.02 17.58 18.89 19.76 19.34 19.88 18.49 16.97 15.42 15.55 12.43 14.15 11.58 9.24 10.16 7.99 8.33 8.91 9.38 9.98 11.32 11.62 12.00 12.81 13.55 14.29 15.02
31.70 30.13 29.20 28.99 28.32 27.32 27.61 26.89 25.78 23.17 20.69 16.40 13.55 12.43 14.78 19.77 16.22 16.84 13.01 18.02 19.58 10.53 16.60 17.77 16.12 6.51 10.82 6.69 12.33 6.65 9.20 9.21 6.97 6.02 6.58 6.68 6.87 7.72 7.65 8.51 8.68 10.32 11.68 12.30
30.89 30.09 28.89 27.62 26.27 26.23 25.77 24.07 21.39 20.57 17.50 15.83 14.67 14.74 18.24 20.39 18.85 13.26 13.22 19.30 18.99 12.47 16.71 11.48 6.29 2.91 2.04 -0.62 -0.91 -2.70 -1.80 -0.76 2.58 1.53 4.03 3.39 4.48 5.29 5.25 5.77 6.77 7.69 8.77 9.67
31.10 30.28 28.77 27.76 26.63 25.28 23.40 23.46 24.07 22.47 18.09 19.07 13.66 9.94 18.83 14.09 8.98 18.58 17.80 10.41 4.90 3.22 2.72 4.46 2.20 2.92 -0.58 -5.78 -6.32 -6.68 -4.87 -6.87 -5.60 0.17 -0.10 -2.06 1.82 1.41 1.70 3.08 4.10 5.97 6.63 6.81
30.22 29.32 27.11 25.95 25.01 23.90 25.02 24.68 23.14 23.43 22.08 20.71 19.63 19.60 20.11 19.03 10.91 12.30 6.32 6.03 8.34 5.88 2.08 0.74 1.29 0.57 -5.05 -8.13 -8.68 -9.22 -8.32 -9.22 -9.95 -1.99 -9.58 -6.22 -1.95 -1.77 -1.25 0.79 1.11 3.57 4.35 4.74
28.11 25.93 24.89 24.28 22.72 22.90 22.64 21.69 19.28 19.86 18.04 12.78 12.99 4.06 8.42 13.76 12.52 10.13 4.54 2.78 4.93 4.11 0.48 -4.69 -6.87 -6.32 -7.23 -2.88 -7.59 -9.04 -8.50 -5.21 -8.51 -3.06 -11.40 -9.95 -6.98 -4.72 -4.13 -2.30 -1.49 0.39 1.23 2.96
23.32 22.24 21.89 21.24 21.80 21.25 20.07 18.07 15.12 13.65 11.04 5.16 6.74 3.95 12.47 7.83 2.97 4.74 -3.25 -5.23 -5.23 -4.33 -6.68 -5.41 -7.59 -5.78 -5.78 -5.60 -1.29 -3.96 -8.68 -10.13 -11.03 -8.68 -16.47 -16.47 -12.50 -11.07 -5.74 -2.99 -2.50 -0.83 0.16 0.86

GFSNGP_sfc_wetblb_045.txt.gz
Wetbulb
37.22 38.18 39.20 38.59 38.77 38.84 36.36 35.93 31.85 34.99 34.71 38.39 39.71 39.37 39.74 41.46 42.67 45.56 47.20 48.54 48.56 47.81 47.61 48.99 49.58 50.07 49.06 48.12 47.18 46.10 45.48 46.03 43.83 43.18 43.34 42.66 41.52 39.44 39.92 40.16 39.47 39.46 39.19 38.97
33.92 37.79 37.84 36.26 38.57 38.02 37.90 37.49 36.76 36.19 35.83 38.90 39.55 39.64 40.10 41.25 42.24 42.53 44.03 47.18 47.09 48.54 47.90 48.45 49.65 49.24 48.18 45.86 46.37 46.20 45.46 43.50 43.95 43.76 42.10 40.46 40.41 39.73 39.22 38.83 38.88 38.99 38.94 38.51
29.51 33.14 32.99 28.64 34.42 37.33 37.70 38.54 38.63 33.57 37.45 38.92 38.42 39.45 38.43 39.77 41.50 41.50 41.94 42.74 43.89 46.70 47.54 48.09 48.18 47.40 44.37 43.43 43.74 43.49 43.21 43.24 41.45 40.53 39.25 39.24 39.63 39.35 39.17 39.42 39.65 38.70 37.64 37.01
26.80 28.00 21.43 35.87 39.50 39.20 37.12 36.22 36.81 37.63 38.27 38.85 39.19 39.76 40.66 40.72 40.38 41.07 40.90 39.86 39.23 39.89 40.81 41.44 42.66 42.46 42.17 41.96 41.20 40.62 39.85 39.23 38.81 38.62 37.86 38.69 39.05 39.51 39.38 39.36 36.92 34.65 34.14 33.79
26.85 26.64 31.29 35.46 36.81 36.96 35.32 33.40 38.11 37.12 38.62 40.13 40.74 40.62 39.87 39.32 38.93 37.78 36.93 36.91 36.72 37.11 37.14 37.33 38.00 38.89 37.99 37.67 37.14 37.79 37.91 38.19 39.03 39.58 39.45 40.07 39.61 39.62 38.55 36.15 34.11 32.58 33.18 32.76
26.21 24.19 22.21 34.29 38.53 40.82 40.02 29.49 39.81 39.55 39.17 39.83 38.97 33.73 37.02 37.96 37.52 36.38 36.65 36.63 36.31 36.55 36.19 35.89 35.87 36.85 36.17 35.80 36.42 36.16 37.93 38.69 39.64 40.19 40.46 39.55 38.25 36.22 34.21 33.26 33.05 32.53 31.87 31.64
23.00 22.84 29.14 36.91 40.55 41.12 30.29 31.33 40.33 40.85 40.30 39.40 37.64 37.98 37.32 36.90 35.86 36.17 35.94 35.26 35.86 35.61 35.01 34.98 36.49 37.23 36.20 37.63 37.43 39.00 40.49 41.52 40.86 38.76 37.38 36.27 34.03 32.83 31.71 30.75 29.97 29.03 29.46 29.50
25.14 20.95 25.68 40.10 39.26 34.49 36.78 38.95 40.88 40.57 40.92 38.08 36.99 36.83 36.23 36.03 35.26 34.85 34.05 34.80 35.52 35.04 34.82 35.96 37.41 37.41 36.35 35.87 38.78 38.75 37.95 36.56 34.75 34.00 33.85 33.92 31.73 30.68 30.24 29.26 28.28 28.29 25.58 27.92
33.41 31.98 38.81 40.70 39.70 40.74 41.56 41.53 41.29 42.12 41.12 38.49 36.67 35.77 35.64 34.74 34.74 34.19 33.07 32.69 34.66 34.90 35.15 35.97 36.15 36.05 33.31 33.93 34.59 33.99 33.20 32.57 32.40 32.46 32.35 31.52 29.93 29.49 28.70 28.33 26.75 27.60 27.72 27.87
36.21 38.88 40.33 41.58 40.97 41.38 42.31 41.63 42.49 43.00 39.48 38.60 35.89 35.67 34.57 34.40 33.72 33.45 33.27 34.17 35.17 35.00 34.45 34.06 34.79 34.18 32.96 33.68 33.35 32.40 31.26 31.12 31.06 30.55 30.34 29.87 29.55 29.28 28.39 26.75 27.29 28.76 28.54 28.32
36.16 39.05 40.47 40.37 38.33 38.35 38.24 38.58 38.06 38.26 38.25 36.55 35.37 34.44 34.15 33.13 33.20 33.69 34.01 34.83 35.33 34.35 33.18 32.40 32.47 31.41 31.52 31.90 31.77 30.84 30.40 30.08 30.08 29.44 28.98 29.35 29.34 29.15 29.58 30.13 29.71 30.07 29.72 29.15
33.09 40.83 39.60 39.31 38.45 39.26 37.95 36.72 36.82 35.89 34.99 35.58 35.15 33.47 33.63 33.02 33.52 33.56 33.77 33.75 32.40 31.81 30.70 29.34 30.44 31.12 31.77 32.11 30.98 29.84 29.62 29.20 27.96 28.04 28.02 28.53 28.67 28.82 31.77 31.52 32.40 32.59 32.60 31.30
40.35 43.51 39.45 38.63 37.82 38.03 36.53 36.05 35.86 34.90 34.39 33.20 34.14 34.31 33.55 31.80 30.84 31.51 31.38 30.35 29.44 29.50 30.13 29.43 28.97 28.34 29.30 29.98 29.42 27.84 27.05 28.13 27.22 26.77 26.61 26.30 26.60 26.32 24.92 27.96 31.30 32.14 32.72 32.99
39.64 38.87 35.74 36.66 34.85 36.15 35.60 35.33 35.53 34.19 34.25 34.01 32.76 32.44 31.16 29.52 29.65 28.94 28.92 29.55 29.85 29.63 29.73 29.30 27.08 25.54 26.94 27.59 26.99 26.09 25.98 26.16 24.38 24.60 24.63 24.83 23.62 23.59 23.97 23.64 23.45 24.94 29.40 31.77
38.30 39.26 37.92 35.80 34.98 34.15 34.54 34.07 32.73 31.80 31.70 31.15 31.47 30.30 30.16 28.94 28.03 27.59 28.32 28.32 28.90 28.74 27.55 24.99 23.64 24.02 26.62 25.48 23.79 23.62 22.83 21.89 21.96 21.79 22.31 21.85 22.83 22.82 22.49 22.81 23.32 23.84 25.14 27.31
35.98 35.14 34.89 33.59 32.97 33.13 32.82 31.94 30.15 29.24 29.97 30.27 30.23 30.72 29.81 28.01 26.87 27.01 27.63 27.84 26.70 23.76 21.88 17.51 23.64 23.98 24.21 21.88 20.95 20.77 20.86 20.43 19.66 21.13 21.23 21.68 21.91 21.28 21.54 21.78 21.74 23.77 23.78 24.84
32.86 31.13 31.68 31.37 32.02 32.02 31.50 32.40 31.94 31.04 30.42 29.84 29.39 27.83 26.61 26.53 26.81 26.06 25.16 24.45 22.15 21.28 22.38 22.49 20.45 21.02 21.00 20.14 20.00 19.82 19.46 19.49 17.77 19.23 19.08 17.93 17.59 17.68 19.47 20.34 18.42 17.83 18.85 23.57
36.80 36.10 35.65 34.44 32.78 32.82 32.31 31.41 29.78 29.35 28.66 27.96 25.76 23.06 22.39 23.28 24.99 23.29 21.42 21.15 19.17 19.52 22.31 21.11 19.63 19.49 19.05 18.92 18.69 19.05 16.83 16.43 15.67 13.81 14.98 13.79 13.49 15.68 15.52 15.10 15.47 15.57 16.29 17.52
37.95 36.52 36.18 35.46 35.00 33.24 31.09 29.38 29.13 28.88 26.14 24.77 24.82 23.86 23.29 22.21 24.28 21.89 20.46 16.05 14.69 17.22 20.36 19.69 19.67 17.55 16.69 16.93 16.48 15.00 12.57 12.08 10.10 11.28 10.57 9.48 10.18 10.25 12.04 10.81 11.09 12.12 13.47 14.85
36.83 36.68 35.55 33.53 32.34 30.80 28.88 29.10 28.38 27.14 26.67 24.80 22.64 21.77 19.89 17.34 18.69 17.30 17.21 16.18 17.88 18.71 20.91 18.50 17.18 15.72 14.85 14.45 10.72 12.59 9.66 7.68 7.75 6.20 6.21 6.74 5.38 5.89 7.53 6.94 7.43 7.78 9.23 11.32
33.53 32.14 30.71 29.46 28.30 28.56 28.59 27.35 25.62 24.11 23.68 22.11 21.42 18.93 18.86 18.75 17.61 14.60 13.97 17.49 18.49 18.59 19.50 16.38 15.36 13.97 13.56 10.24 11.53 5.08 0.85 -0.74 -1.47 2.59 1.24 1.62 1.54 3.55 3.11 3.80 3.82 4.52 6.10 7.30
31.62 30.23 28.84 28.00 27.19 26.48 26.81 26.42 24.04 21.98 20.63 17.91 16.01 16.58 16.36 17.66 15.17 15.50 12.34 17.36 18.98 11.45 16.68 16.08 14.49 4.63 8.46 4.15 9.04 -1.09 4.31 2.19 0.60 -1.81 -1.65 -1.05 -1.13 0.48 -0.51 0.69 1.26 2.43 3.79 4.78
30.57 30.33 29.72 28.29 26.72 25.95 25.85 23.96 21.59 20.40 18.87 17.38 16.52 17.15 18.78 19.92 18.36 14.56 14.69 18.31 17.90 10.62 14.83 9.17 4.31 0.91 -0.91 -4.89 -5.80 -8.70 -8.16 -8.70 -8.88 -4.53 -8.88 -8.70 -6.39 -2.28 -2.72 -2.21 -0.66 -0.18 1.51 2.50
29.77 29.31 28.22 27.59 25.34 23.96 22.45 23.08 23.10 21.27 19.02 19.13 16.23 15.23 19.29 15.12 11.36 17.91 16.29 8.51 3.97 0.36 1.05 0.32 -1.45 -0.91 -4.89 -9.61 -10.51 -12.15 -11.24 -13.60 -14.68 -9.97 -9.62 -10.16 -11.60 -9.28 -5.98 -5.76 -3.45 -2.89 -0.84 -0.17
29.33 27.78 26.74 25.22 24.59 23.80 23.83 23.94 22.37 21.65 21.14 20.59 19.98 20.30 19.44 17.73 11.12 11.81 6.16 4.83 6.89 4.07 -0.19 -3.44 -3.08 -3.99 -9.61 -12.33 -12.69 -13.78 -13.41 -14.68 -16.32 -12.87 -17.22 -18.49 -13.07 -12.73 -11.50 -9.18 -6.82 -5.06 -3.90 -2.58
27.67 26.37 25.27 24.78 24.08 24.02 22.46 21.97 20.41 19.71 16.82 12.16 12.66 6.16 9.73 10.95 10.96 9.49 4.00 1.39 3.14 1.05 -1.63 -8.88 -10.70 -11.42 -12.15 -8.52 -9.43 -9.97 -12.33 -9.32 -14.86 -13.41 -17.77 -18.13 -16.14 -14.00 -13.48 -10.49 -8.45 -6.90 -5.68 -3.77
23.72 23.30 22.24 20.84 20.73 19.84 19.14 18.42 17.28 15.75 13.61 9.14 8.07 6.19 8.96 7.05 4.55 4.70 -5.09 -7.98 -8.34 -9.06 -9.06 -10.88 -11.78 -9.06 -9.43 -12.87 -11.06 -7.07 -10.33 -14.32 -16.32 -15.05 -21.03 -21.57 -18.69 -18.86 -16.89 -13.66 -10.84 -8.75 -7.17 -5.39

GFSNGP_sfc_wetblb_048.txt.gz
Wetbulb
35.35 36.43 37.99 37.35 37.27 36.45 35.18 34.97 31.94 34.82 33.46 37.83 38.33 37.87 38.74 39.78 41.72 43.20 45.27 47.53 48.25 48.35 48.34 49.28 50.21 49.25 48.66 47.68 46.96 47.10 45.86 44.56 44.49 45.14 43.61 41.79 40.54 40.85 40.71 40.16 39.08 39.44 39.51 40.51
33.08 35.92 35.81 34.85 36.41 36.95 35.94 35.17 34.81 34.42 34.45 38.98 37.80 37.50 38.79 39.85 41.60 42.14 43.11 43.82 45.17 46.55 46.94 47.94 48.72 47.75 46.94 45.39 45.03 45.48 43.99 42.87 42.54 42.76 41.62 40.38 39.03 39.08 39.40 39.14 39.87 41.25 40.46 40.07
29.97 32.27 32.71 28.36 34.50 36.30 36.22 36.86 37.32 32.62 37.33 38.17 36.69 38.22 37.44 38.35 39.92 40.44 40.30 39.82 40.89 41.21 42.63 44.51 44.95 44.00 42.53 42.45 43.16 42.56 41.55 41.32 40.38 40.09 39.14 39.39 39.83 39.60 39.59 40.38 40.74 39.99 39.89 38.34
26.14 27.38 21.49 34.86 37.75 37.84 36.80 36.70 36.57 35.87 36.18 37.30 37.51 37.60 37.39 37.75 39.13 37.56 36.97 36.71 36.54 37.45 38.56 39.48 40.06 40.18 40.25 39.87 39.03 38.47 37.96 38.64 39.31 39.50 39.23 39.75 40.03 40.45 40.23 40.20 39.53 38.57 35.72 34.27
27.04 26.31 30.90 33.88 35.95 35.84 34.94 34.31 37.21 35.65 36.91 37.91 39.13 38.58 36.57 37.01 36.44 35.58 35.41 35.41 34.86 35.19 35.45 35.73 36.27 37.05 37.25 36.99 37.15 37.49 38.16 39.18 39.80 40.21 39.79 40.19 39.83 40.01 40.11 38.90 36.06 33.67 32.72 32.25
25.40 23.50 21.66 33.16 37.93 39.29 38.48 29.66 38.06 38.35 38.05 38.48 38.31 31.70 35.12 35.67 35.85 34.37 34.37 34.82 33.99 34.27 34.89 35.18 35.36 36.62 35.90 35.78 37.13 37.65 38.41 39.17 39.98 40.55 40.89 40.38 38.23 37.13 34.69 33.10 32.36 31.95 30.91 30.95
21.49 22.72 29.41 37.28 38.78 39.48 29.67 31.37 38.53 40.25 39.64 38.24 36.72 35.66 35.07 34.98 34.19 34.29 33.83 33.98 34.79 34.56 33.94 34.01 35.64 37.56 36.52 37.05 37.59 39.91 40.69 40.33 39.16 38.01 36.42 35.11 33.55 32.41 31.28 30.28 29.49 29.11 29.42 29.31
24.72 21.98 27.33 38.80 37.89 34.24 36.84 37.41 39.11 39.42 39.42 38.14 35.19 34.94 34.49 34.25 33.40 33.43 32.80 33.35 33.93 33.80 33.79 34.88 35.32 36.22 35.04 35.22 36.54 36.61 36.11 35.24 33.86 33.27 32.81 32.49 30.54 30.04 29.88 28.78 27.96 28.14 26.10 28.15
33.99 33.58 39.01 39.10 37.82 39.12 39.59 39.38 39.47 40.31 39.27 37.85 35.20 34.34 34.27 32.86 32.34 31.82 31.76 31.67 33.53 33.29 33.05 33.53 33.75 34.04 33.19 33.51 33.50 32.50 31.80 30.70 30.40 30.80 30.42 29.80 29.07 28.73 28.32 27.71 26.80 27.27 27.92 28.09
35.23 38.13 38.98 40.73 40.74 40.64 41.13 40.58 41.58 40.30 38.92 37.88 35.01 34.63 33.24 32.29 31.81 31.55 31.69 32.02 32.81 32.64 31.42 31.16 33.01 33.08 32.57 32.25 31.41 30.56 29.80 29.46 29.18 28.78 28.84 28.67 28.58 28.38 27.27 25.65 26.36 28.18 28.37 28.41
35.12 38.37 38.69 40.14 38.60 38.71 38.40 39.19 38.26 37.89 37.46 36.36 35.28 33.68 32.75 31.99 31.95 32.07 31.95 32.43 32.71 31.78 31.00 31.22 31.96 31.25 31.03 30.17 29.72 29.03 28.53 28.66 28.04 27.68 27.04 26.94 27.02 26.98 27.44 27.10 26.95 27.48 27.66 28.28
35.34 39.73 39.04 39.18 37.94 38.44 38.17 36.66 37.07 35.64 34.47 35.05 34.74 32.97 32.72 31.83 32.04 31.89 30.82 31.54 30.89 30.55 30.78 29.33 27.78 27.18 27.91 28.19 27.22 26.49 27.07 26.87 25.51 24.92 24.11 24.80 24.56 24.05 27.49 27.57 28.51 28.84 29.25 27.68
41.00 42.20 38.20 37.67 36.85 37.16 35.80 35.43 35.83 34.86 34.46 32.74 33.13 33.36 32.57 30.51 29.27 30.92 29.91 30.50 30.34 29.50 28.07 26.20 24.96 25.06 25.93 26.64 26.44 25.75 24.32 24.22 23.32 23.14 22.99 22.90 22.33 21.85 20.27 22.90 25.84 26.45 26.93 27.83
39.71 38.90 35.57 36.69 34.80 35.44 34.82 34.58 34.90 33.53 33.57 33.15 32.09 31.66 30.23 28.83 29.02 29.02 29.43 29.56 29.62 28.67 26.78 24.15 24.26 24.56 24.26 23.73 23.92 22.71 21.85 21.54 20.24 20.56 19.91 20.40 18.98 21.42 20.35 20.12 19.78 19.69 23.05 24.95
37.80 38.18 38.22 35.81 34.75 33.49 33.58 33.46 31.89 30.89 30.98 30.61 30.54 29.40 29.08 27.94 27.33 27.31 28.06 28.87 26.70 23.62 23.55 23.71 23.09 21.88 22.06 22.15 21.16 20.88 20.55 19.31 19.68 18.62 19.25 19.42 18.87 17.74 17.99 18.09 19.26 18.10 17.99 18.94
34.95 35.06 35.07 33.60 32.29 32.40 32.41 31.68 30.48 30.10 30.15 29.74 29.59 29.61 28.40 27.46 26.86 27.05 27.79 27.36 23.40 21.26 21.97 18.27 19.84 20.19 21.01 20.63 20.25 20.06 19.46 19.22 17.21 17.54 16.77 15.85 15.60 14.45 16.07 15.54 15.18 14.88 14.53 14.94
32.55 31.03 31.91 31.79 31.72 31.38 31.30 31.57 31.30 31.44 31.21 30.94 29.15 27.44 27.38 26.78 25.99 24.49 22.79 22.27 21.14 21.50 20.72 19.60 18.76 19.69 19.88 19.36 19.04 18.05 16.48 16.95 13.81 14.41 13.88 13.48 12.27 12.88 11.97 12.89 10.58 11.33 11.55 12.80
36.14 35.43 35.07 33.48 31.63 30.63 30.72 31.85 31.42 31.36 30.38 28.68 26.94 26.13 24.84 23.86 23.90 22.46 20.88 20.34 20.17 19.68 19.62 18.87 18.70 18.80 17.91 17.56 16.97 14.98 13.42 12.23 11.94 11.08 11.02 9.30 8.88 9.81 9.46 8.38 7.91 7.54 7.96 10.31
36.51 35.07 34.50 34.03 33.40 32.64 30.82 30.32 29.88 28.91 27.07 25.68 25.14 23.61 23.84 23.02 23.06 21.60 19.76 17.08 16.17 18.71 18.49 18.57 19.11 16.42 15.44 15.88 14.00 12.40 10.10 6.76 6.70 8.21 5.99 4.13 3.02 4.25 5.50 4.18 4.87 4.27 4.91 6.31
35.82 35.81 35.17 33.24 32.23 30.66 29.10 28.99 28.17 27.05 26.24 24.20 22.61 22.42 22.15 20.97 19.80 18.02 17.95 17.15 18.03 19.24 19.65 17.56 16.23 14.81 13.53 13.37 9.86 10.37 6.40 0.38 5.21 1.57 -1.43 1.47 -5.69 -6.05 -2.83 -0.59 2.00 1.50 0.99 2.91
32.90 31.91 30.92 30.18 29.21 29.28 28.61 27.98 26.65 25.29 24.11 23.63 22.57 21.15 21.30 19.81 18.42 16.70 17.13 16.92 17.93 19.13 18.69 16.10 14.73 13.22 12.75 10.24 9.83 1.82 -3.54 -6.05 -5.88 -3.51 -5.87 -10.04 -12.03 -7.88 -8.95 -9.69 -4.04 -2.30 -1.10 0.42
30.90 29.09 28.31 28.38 27.75 26.88 26.82 26.32 25.04 23.65 22.28 20.59 19.86 19.45 18.72 18.42 16.43 16.15 15.42 18.04 18.44 14.49 16.54 15.47 13.81 6.36 7.84 4.26 7.15 -2.81 2.46 -1.79 -5.34 -7.68 -10.22 -12.76 -14.93 -13.67 -11.67 -12.40 -7.61 -4.77 -3.27 -2.43
29.33 28.64 28.17 27.27 26.28 25.02 23.98 23.00 22.21 21.45 19.68 19.33 18.90 18.98 19.38 18.95 18.28 15.79 14.97 18.12 17.22 12.35 14.65 10.71 6.50 0.61 -1.70 -5.51 -6.96 -10.40 -10.04 -11.67 -13.12 -11.67 -15.48 -19.10 -18.92 -19.10 -15.12 -10.47 -8.58 -7.96 -6.94 -5.23
29.59 28.97 27.24 26.55 25.31 23.65 21.39 21.94 22.60 21.27 20.22 20.42 18.55 18.07 18.87 15.47 12.57 17.46 16.47 10.75 6.52 4.60 2.74 0.93 -0.79 0.84 -4.24 -9.68 -12.03 -14.03 -14.39 -16.38 -17.29 -18.02 -14.21 -16.02 -22.55 -22.19 -17.48 -16.77 -12.33 -9.55 -8.63 -7.74
28.11 27.33 26.63 25.74 24.93 23.78 23.15 22.58 21.38 21.08 20.87 20.77 20.24 19.84 19.32 17.66 12.16 12.71 9.45 8.92 8.48 5.43 1.34 -1.16 -2.43 -4.42 -11.13 -14.03 -15.12 -14.57 -15.12 -17.29 -18.56 -19.47 -20.74 -22.73 -21.46 -20.55 -19.11 -17.69 -16.45 -13.40 -10.05 -8.87
26.95 25.39 25.21 25.69 24.26 23.50 22.99 22.12 20.26 19.25 17.11 14.92 15.55 12.83 11.83 12.09 11.34 9.97 6.10 4.71 4.45 2.57 0.48 -7.68 -9.68 -12.03 -14.21 -12.76 -14.03 -14.75 -10.40 -8.83 -16.75 -17.29 -20.92 -22.19 -24.00 -19.32 -20.21 -17.20 -16.67 -14.19 -12.23 -10.84
22.98 22.55 21.38 19.86 19.97 19.95 19.97 19.98 18.82 17.09 15.72 14.16 13.74 12.32 10.30 8.85 6.44 5.75 -1.92 -4.24 -6.59 -8.23 -8.59 -9.68 -11.85 -10.95 -12.40 -15.66 -14.93 -12.76 -11.31 -14.03 -18.56 -16.75 -23.46 -26.17 -26.36 -25.99 -22.20 -20.59 -17.91 -15.98 -13.33 -11.74

GFSNGP_sfc_wetblb_051.txt.gz
Wetbulb
38.54 39.19 40.40 40.83 40.66 39.71 39.31 40.23 37.73 40.08 37.78 43.22 44.86 45.25 44.82 43.92 46.36 47.64 48.56 49.54 51.02 52.53 53.53 54.84 55.48 55.06 53.76 52.56 52.07 51.38 49.20 48.25 47.63 47.77 46.24 45.08 44.72 42.74 43.16 42.82 44.42 41.37 42.23 41.58
36.67 38.82 39.34 38.54 39.96 40.27 39.97 39.59 38.98 39.50 38.70 44.58 44.22 43.65 43.35 44.20 46.21 45.79 46.14 46.51 47.37 48.60 50.09 51.87 51.88 51.27 49.92 49.25 48.89 49.30 48.13 45.54 44.14 42.85 42.75 41.15 40.91 41.45 42.61 41.11 43.43 42.77 42.02 42.22
34.13 35.84 36.93 33.27 37.99 39.75 40.35 41.24 42.17 37.88 43.05 42.92 42.07 42.57 42.68 43.27 44.46 43.45 42.85 43.32 43.99 44.80 45.40 46.64 47.19 47.29 46.33 45.89 46.21 45.17 43.96 43.00 41.55 40.66 39.92 40.66 41.33 41.92 43.28 42.38 42.88 41.70 41.48 41.27
32.37 31.86 28.87 40.25 41.33 42.04 41.17 41.19 41.87 40.89 42.13 42.69 42.70 40.86 41.18 42.23 42.93 40.79 40.57 40.60 40.59 41.85 42.40 43.14 43.92 43.59 43.58 43.46 42.73 42.27 41.74 40.85 41.27 41.23 40.53 42.48 42.72 41.53 41.26 41.28 41.36 41.28 41.65 42.27
32.47 32.40 35.65 38.04 39.56 40.21 39.59 41.05 42.48 42.08 41.65 41.00 40.80 41.88 39.30 38.62 39.66 39.30 38.89 38.47 38.75 39.78 40.31 41.11 41.56 42.01 41.90 41.59 41.77 41.57 40.99 41.25 41.48 41.78 41.51 41.24 40.56 40.65 41.41 41.84 41.70 40.80 39.58 38.75
30.38 30.79 29.47 39.08 41.88 42.40 42.94 35.93 42.52 42.13 41.16 40.59 41.37 40.13 41.87 38.56 38.27 37.85 38.17 38.37 38.44 39.27 39.99 40.11 40.47 41.77 41.07 40.94 41.46 41.01 41.23 41.91 42.35 42.42 40.95 39.45 39.37 39.65 39.80 39.08 37.56 37.40 36.83 37.49
29.87 33.37 35.41 40.27 41.71 43.27 35.99 39.47 42.65 42.78 42.84 42.79 41.53 42.14 40.83 38.14 37.21 37.78 37.74 37.57 38.64 39.21 38.83 39.65 41.28 41.69 40.70 41.27 41.10 41.86 40.77 39.40 37.75 36.94 37.03 37.42 37.36 37.06 36.77 36.47 35.86 35.76 34.83 36.20
31.90 32.43 32.21 42.04 40.10 39.01 44.44 42.53 43.40 43.62 43.78 43.38 38.96 37.23 37.42 36.82 36.02 36.47 36.47 37.24 38.63 38.35 38.44 39.70 41.15 40.04 38.16 36.90 38.05 38.15 37.35 36.04 35.50 35.71 35.48 35.53 35.74 35.66 35.58 35.14 34.11 33.78 33.71 33.57
38.59 39.03 44.56 42.71 45.37 44.54 44.06 44.67 43.16 44.30 43.16 40.35 37.50 36.85 36.40 35.39 35.53 35.74 36.53 36.99 37.72 36.80 35.84 36.43 37.41 37.65 35.46 35.26 36.05 35.75 35.23 34.14 33.62 33.30 32.71 32.52 32.18 31.78 31.41 31.26 30.39 30.02 29.80 29.92
40.44 42.46 42.22 43.04 44.35 44.64 44.75 44.58 44.14 45.40 42.91 40.56 38.13 36.84 35.45 34.96 34.77 35.17 36.03 35.58 35.76 35.05 33.97 33.72 34.76 34.37 34.03 34.00 34.98 33.78 32.32 31.41 30.95 30.37 30.04 30.16 30.30 30.07 29.25 28.82 28.15 27.72 27.20 27.18
39.08 41.22 42.18 43.65 43.99 44.41 42.86 43.30 42.03 42.63 41.67 40.27 37.95 35.82 35.18 34.37 34.57 35.15 34.87 34.73 34.71 33.89 32.97 31.54 31.16 29.59 30.32 31.38 32.32 30.97 30.01 28.82 28.21 28.11 27.65 27.71 28.07 27.60 27.29 28.24 27.22 26.09 26.45 26.36
38.70 44.39 44.85 45.24 45.63 42.49 41.48 41.15 41.24 39.38 37.94 38.88 37.96 35.53 35.41 34.46 34.90 34.60 33.56 33.64 33.40 32.17 30.04 28.20 27.85 28.03 28.99 29.70 29.37 28.61 26.89 26.54 25.48 26.09 26.11 26.19 25.72 25.72 26.13 25.42 25.45 25.99 25.89 25.12
43.44 44.38 39.93 38.81 39.80 41.17 39.81 39.38 39.15 39.17 37.54 35.84 36.09 35.89 35.09 33.89 33.75 32.60 32.71 32.82 31.33 28.44 27.02 26.99 27.14 25.91 26.82 27.31 26.89 25.42 24.37 24.10 24.56 24.10 24.25 24.04 23.38 23.13 21.65 24.37 24.06 24.41 23.87 23.31
40.98 41.32 38.79 38.92 38.44 38.18 37.55 37.11 37.15 36.23 36.03 35.57 34.64 34.53 33.50 32.11 31.94 31.59 31.23 30.44 28.98 26.60 26.90 27.20 25.03 23.57 24.64 25.42 24.77 23.90 23.43 21.57 22.69 23.01 22.98 22.17 21.58 20.93 21.28 20.35 19.68 20.66 21.81 20.75
40.19 39.50 40.61 37.25 36.36 35.22 35.39 35.27 33.90 33.02 32.77 32.66 33.38 32.49 32.31 31.11 30.29 29.69 30.15 28.72 27.03 26.54 26.23 25.07 22.95 21.83 23.62 24.26 23.32 22.61 22.64 21.59 21.24 21.25 20.65 19.56 19.64 19.20 19.39 18.77 18.06 17.64 18.44 18.75
36.97 36.97 36.52 35.79 34.33 34.11 34.31 34.03 32.48 31.80 31.97 31.62 31.35 31.58 31.23 30.12 29.30 28.23 26.81 27.02 25.60 23.92 23.16 20.13 20.37 21.79 22.71 22.58 22.25 21.49 21.20 18.81 18.05 19.04 18.43 17.55 17.20 16.74 16.10 16.49 15.39 15.23 14.84 14.44
34.39 32.83 33.26 33.15 33.39 33.45 33.71 33.84 33.39 32.12 31.78 31.57 30.16 29.21 28.43 27.78 26.63 25.79 24.43 23.71 22.18 21.10 20.79 20.39 19.93 21.36 21.19 21.06 19.90 19.36 19.19 17.88 14.62 16.90 15.92 14.99 14.37 14.14 13.97 13.69 12.72 12.70 12.69 13.01
37.34 36.38 36.75 35.53 33.55 32.50 32.63 33.13 32.78 32.67 30.85 29.09 28.69 27.50 26.55 26.29 24.43 22.70 22.22 22.05 20.98 20.08 19.83 19.76 20.14 19.71 18.94 18.82 17.78 16.60 15.75 14.66 14.71 13.88 13.46 12.04 10.78 11.77 11.58 10.74 10.39 10.31 10.56 11.27
36.97 35.49 35.12 34.47 34.34 33.78 33.05 32.68 32.19 29.73 28.16 27.90 27.45 26.61 26.03 24.59 23.39 22.07 22.01 20.94 19.72 18.82 18.67 19.59 18.91 17.59 16.89 16.31 15.60 14.28 13.46 11.77 11.84 11.18 10.31 8.16 8.61 8.46 8.61 8.57 8.07 8.36 8.21 8.10
34.83 34.86 34.42 33.18 33.33 32.31 30.20 29.61 28.98 28.07 28.20 27.14 25.76 24.60 23.14 22.54 21.50 20.28 20.84 20.23 21.08 21.32 20.26 18.43 17.41 15.76 15.11 13.71 12.98 12.96 11.02 9.97 9.56 8.72 8.03 6.98 6.12 5.55 6.09 4.75 4.52 5.73 6.11 6.42
32.23 31.57 30.66 30.13 29.52 29.45 29.07 29.21 27.69 26.07 26.03 26.31 25.08 23.33 22.83 21.12 20.44 19.57 18.68 18.12 19.39 20.31 18.90 17.10 16.39 15.33 14.60 13.78 13.13 11.56 9.79 8.75 7.84 7.68 5.78 4.67 3.76 3.84 3.57 3.48 3.50 3.54 3.95 4.59
31.05 29.64 28.75 28.49 27.91 27.82 28.42 27.71 26.11 24.95 24.03 23.21 22.87 22.11 20.68 19.55 19.31 19.73 20.26 19.80 20.04 18.62 18.37 17.15 15.68 11.50 12.47 11.54 12.31 10.82 10.01 8.05 7.29 6.93 5.79 4.14 3.24 1.66 1.49 1.47 1.01 1.72 2.38 2.56
29.29 28.83 28.25 27.40 26.07 25.43 25.90 25.27 24.69 24.07 22.65 22.01 21.57 21.76 21.53 20.82 20.37 18.58 17.02 18.70 19.04 16.87 17.39 16.21 11.34 8.34 6.68 11.71 10.87 9.32 8.11 6.03 5.51 5.00 4.26 2.74 1.59 0.51 -0.42 -0.60 -1.24 -0.34 0.03 0.45
28.03 27.48 26.48 26.13 25.73 24.79 22.77 23.38 23.64 22.34 21.92 21.84 20.99 21.53 20.78 19.01 18.63 19.64 19.57 16.11 14.74 15.93 14.92 12.52 11.08 7.46 5.47 9.34 8.43 7.75 7.04 6.23 4.86 3.98 3.81 -4.02 1.15 -0.87 -1.06 -2.68 -2.99 -1.80 -1.95 -1.80
27.90 27.70 27.22 26.23 24.41 23.12 22.70 22.38 21.89 21.76 21.67 21.07 20.83 20.72 20.25 19.42 20.07 17.62 17.18 15.41 13.35 13.60 13.01 7.66 6.34 3.27 8.54 8.03 7.10 6.22 5.67 5.68 4.96 3.09 2.48 0.95 -0.40 -2.02 -2.18 -2.95 -4.53 -3.95 -4.12 -2.97
24.15 23.28 23.62 24.41 24.32 23.55 23.08 22.41 20.25 20.18 19.66 18.66 18.03 18.02 17.44 17.29 16.03 15.49 14.27 13.24 12.86 9.98 11.84 8.86 7.47 6.72 6.72 6.44 5.73 4.53 4.38 5.00 4.10 2.68 -0.09 -0.44 -1.63 -2.64 -4.06 -5.34 -6.14 -5.58 -4.96 -4.31
21.03 21.49 20.82 19.77 20.21 20.48 21.18 20.97 19.59 17.85 18.44 18.47 17.09 16.55 15.47 14.89 13.59 12.94 10.51 11.02 10.49 9.16 8.39 7.47 6.87 5.45 6.11 5.57 4.77 4.89 3.96 4.13 1.02 1.36 0.34 -1.57 -3.12 -3.74 -6.06 -6.96 -6.96 -6.79 -6.58 -6.05

GFSNGP_sfc_wetblb_057.txt.gz
Wetbulb
45.07 46.03 46.03 45.14 44.98 45.52 44.51 45.11 41.81 44.02 44.58 47.52 49.32 50.67 51.56 53.11 53.64 53.32 53.48 56.17 57.76 58.69 60.16 61.55 62.20 62.69 60.11 57.92 56.97 55.88 53.56 52.28 51.08 50.91 50.76 50.73 50.05 48.60 47.86 47.27 45.76 45.98 45.42 44.81
42.84 45.63 45.34 43.18 44.79 45.01 45.39 45.49 45.26 45.56 44.84 50.43 51.02 52.31 52.28 52.41 52.53 52.93 53.20 54.73 57.88 59.77 61.18 61.26 60.74 60.33 58.70 55.80 54.19 53.30 51.15 49.77 49.99 50.62 51.70 51.31 50.62 49.61 48.57 47.28 46.77 45.54 44.12 43.18
39.44 44.60 44.24 40.47 43.95 44.83 45.53 46.90 46.54 43.20 47.48 50.71 50.29 50.49 51.81 52.41 53.18 53.58 54.30 55.24 56.44 58.79 59.46 58.90 58.17 57.92 56.96 55.07 53.94 52.05 50.81 50.96 51.07 50.67 49.19 48.99 48.85 48.49 47.45 46.41 46.39 45.56 43.21 44.43
40.46 39.22 33.85 44.10 48.95 48.40 46.39 47.36 48.52 48.28 49.25 50.51 50.60 51.61 53.22 53.99 54.03 54.14 54.15 54.57 55.59 56.65 56.45 56.37 56.54 55.57 55.07 54.27 52.67 51.30 50.17 49.11 48.98 48.94 48.31 48.17 47.64 47.32 46.88 47.19 46.59 46.11 45.50 45.38
38.88 38.24 42.09 44.36 46.63 46.88 45.76 45.43 49.55 49.13 50.15 50.95 51.61 51.82 50.61 52.55 54.93 54.40 53.95 54.28 54.74 55.14 54.59 54.38 53.93 53.86 52.78 51.45 50.65 49.58 48.81 48.87 48.77 48.19 46.83 47.15 46.22 45.90 46.21 45.19 45.26 45.04 44.85 43.76
40.89 36.08 33.35 43.59 48.42 51.30 50.75 43.01 50.76 50.83 50.37 50.07 50.77 46.22 49.15 51.75 53.67 53.14 52.89 52.92 52.54 52.94 53.13 52.58 52.56 52.42 50.99 49.74 49.39 48.44 48.14 47.69 47.52 47.78 47.23 46.17 45.61 45.10 44.80 44.06 42.63 42.89 41.52 41.49
40.45 38.70 42.37 48.06 49.62 51.77 41.45 43.79 51.78 51.52 51.42 51.00 49.61 50.94 52.91 52.07 51.03 51.40 51.11 51.20 51.76 52.01 51.28 51.41 51.84 51.45 49.66 48.98 46.97 47.43 47.80 47.15 45.80 45.49 44.92 44.72 43.69 43.18 42.30 41.90 41.71 40.87 39.17 39.11
41.46 39.06 36.65 50.24 49.24 45.62 50.56 54.03 53.09 53.30 53.05 52.78 53.13 51.86 50.65 50.05 49.35 49.57 49.54 49.48 50.60 49.95 49.87 50.75 51.17 50.19 48.14 46.82 47.46 46.61 45.21 44.30 43.78 42.89 41.75 42.09 41.79 40.87 40.01 38.97 37.72 36.80 35.56 35.68
44.21 44.36 51.08 51.59 51.48 53.38 54.44 53.58 54.26 54.17 54.28 54.00 52.40 50.31 49.68 48.91 48.58 48.71 48.73 49.35 49.80 49.26 48.59 49.29 49.97 49.15 46.34 45.31 45.35 44.43 43.11 41.64 40.60 39.99 39.29 38.96 38.29 37.36 37.38 36.76 35.10 33.95 32.96 32.82
45.92 49.02 50.39 52.02 53.24 53.64 54.07 54.49 55.22 55.30 54.68 54.26 51.86 50.34 48.81 48.29 48.05 47.97 48.86 48.60 48.93 47.96 46.81 46.17 46.98 46.18 44.90 44.20 43.67 41.99 40.18 39.02 38.27 37.69 36.35 36.48 36.49 35.54 34.88 33.60 32.08 31.65 31.43 30.64
45.96 48.01 49.85 51.32 52.19 52.89 54.13 54.26 53.78 53.54 54.25 53.66 52.06 49.69 48.46 47.45 47.68 48.21 48.21 47.77 47.25 45.93 44.66 43.65 43.78 43.02 42.95 42.37 41.70 39.34 37.65 36.53 35.92 35.08 35.27 34.62 34.01 33.24 32.10 30.18 28.30 29.12 29.77 28.23
43.06 47.88 49.67 50.05 53.26 54.01 54.43 53.90 53.26 52.56 52.56 53.32 51.97 49.31 48.78 47.53 47.93 47.57 46.61 45.95 45.21 44.23 42.50 41.23 40.61 39.81 40.32 40.44 39.20 36.73 34.83 34.51 34.00 33.87 33.59 34.07 33.31 30.95 25.99 26.34 25.22 25.37 24.31 24.15
48.65 51.39 51.77 53.44 52.01 52.22 53.40 54.73 54.19 52.54 52.76 51.30 50.90 49.72 48.35 47.08 47.19 43.96 45.38 45.16 43.85 41.82 39.93 38.24 36.75 35.73 36.27 36.39 36.60 35.38 33.71 32.14 30.82 31.66 32.14 31.29 30.98 30.40 30.35 26.16 25.64 25.48 23.98 22.41
52.02 51.16 48.15 50.00 49.88 50.57 50.94 53.67 51.50 52.38 52.11 51.72 50.40 49.38 47.84 46.41 44.85 43.87 42.97 42.91 41.11 37.71 35.68 35.04 33.65 32.18 32.76 33.48 32.92 31.86 30.73 27.49 31.77 31.47 30.86 30.16 30.53 29.40 29.39 27.98 26.60 27.60 25.26 23.51
51.28 52.14 50.57 48.96 47.94 48.27 48.76 48.88 48.41 48.92 49.39 48.81 48.93 47.10 46.09 43.78 41.99 42.09 41.51 38.82 36.93 35.49 34.27 33.63 31.08 29.93 32.46 32.55 31.62 31.00 30.58 30.22 30.21 29.66 28.49 27.05 27.62 27.60 27.26 26.27 25.80 25.22 25.87 25.91
51.61 51.61 50.18 47.77 48.24 46.79 46.05 45.41 46.18 45.51 46.87 46.64 45.75 45.13 44.30 42.61 41.43 38.92 36.92 36.59 34.04 32.08 30.77 27.23 27.00 28.94 30.79 30.87 30.20 28.66 26.34 23.25 25.89 27.58 26.64 26.51 26.20 25.48 25.36 24.71 24.12 23.93 23.50 23.45
46.64 46.44 46.98 45.94 46.86 45.79 44.83 45.23 45.43 44.36 44.34 43.74 43.28 42.47 40.68 39.44 35.69 34.58 31.98 28.68 26.24 25.83 26.16 26.61 25.77 27.73 27.97 28.69 28.82 29.12 27.95 24.73 21.55 26.11 25.41 24.35 24.02 23.49 23.05 22.50 21.89 21.81 21.89 22.01
48.10 47.42 47.16 47.85 47.83 45.45 44.31 44.14 43.91 42.41 41.42 41.86 39.70 35.45 33.04 31.85 28.97 26.01 25.43 24.91 24.30 23.82 24.07 23.98 24.16 24.66 24.85 25.51 25.55 25.15 24.37 23.57 23.51 23.34 22.92 22.29 21.06 21.29 20.81 20.68 20.41 19.89 20.01 20.32
45.09 44.84 43.89 44.11 45.12 44.57 42.99 41.25 39.94 37.06 32.99 32.28 31.18 29.03 27.24 26.13 25.43 24.34 24.11 23.07 21.99 20.70 21.46 22.58 22.16 22.59 21.42 20.84 22.78 22.79 21.97 21.53 21.54 21.23 20.82 16.77 19.53 20.17 19.24 19.69 18.69 18.24 18.14 18.10
36.68 37.77 36.34 35.06 35.67 34.41 31.82 31.94 32.02 31.20 30.45 28.39 26.94 25.94 24.41 24.09 24.25 23.72 24.93 23.89 24.16 22.53 22.69 21.48 21.55 20.44 19.65 18.58 19.84 21.55 20.83 20.89 19.92 19.96 19.75 17.28 18.65 17.81 18.20 16.27 15.77 16.44 16.93 17.26
30.43 30.22 29.70 29.29 29.07 29.78 29.63 29.41 28.64 27.61 27.92 27.41 25.44 24.08 23.89 25.09 25.21 24.61 22.79 19.99 21.52 22.17 21.30 21.00 21.23 20.90 20.73 19.49 20.65 20.61 20.22 19.75 18.66 18.00 17.78 17.36 16.83 17.03 16.24 16.10 16.08 15.76 15.69 15.49
30.39 29.93 29.67 29.23 28.98 28.94 29.76 29.67 28.78 27.39 26.27 25.35 25.01 24.62 24.39 24.04 24.03 24.48 25.30 21.29 20.81 21.62 21.89 21.53 20.80 18.57 18.07 15.94 20.19 20.02 18.87 17.72 16.88 17.00 16.63 16.41 15.63 14.83 14.79 14.67 13.94 14.31 13.79 13.65
29.89 29.07 28.74 27.93 27.41 27.46 27.95 27.94 27.41 26.96 25.91 25.71 25.37 25.15 24.55 24.24 24.35 21.92 19.89 22.14 22.41 22.30 22.34 21.20 16.44 15.65 14.86 19.53 19.97 18.90 17.64 16.55 15.68 15.59 15.28 15.13 14.62 13.78 13.31 12.76 12.52 11.59 11.42 11.52
29.29 29.17 28.70 29.04 28.40 26.60 24.82 25.48 25.61 25.37 25.29 25.33 25.61 25.68 24.64 23.57 23.30 24.07 23.82 22.92 20.76 22.01 21.50 18.01 16.72 14.71 12.03 19.14 18.15 17.23 16.13 16.05 15.65 15.36 14.99 12.90 13.00 13.40 12.85 11.90 10.62 11.42 10.08 9.55
28.56 28.41 27.98 27.39 26.11 25.76 25.81 25.86 25.32 24.97 24.66 24.19 24.56 24.88 24.89 26.45 24.94 23.76 23.61 21.50 19.39 21.07 19.61 15.15 14.66 12.23 16.74 17.67 16.93 15.69 14.92 14.88 14.93 13.95 12.79 12.72 12.49 11.96 11.81 11.33 10.13 9.46 8.13 7.17
25.01 24.69 24.98 25.96 26.55 26.66 26.42 25.93 24.82 25.75 25.08 23.75 24.03 24.54 24.25 23.99 23.38 22.87 22.27 20.78 20.06 17.80 20.07 18.27 18.15 16.97 16.92 16.08 15.27 14.16 13.96 13.53 13.53 13.29 12.34 11.38 11.22 10.92 10.51 9.66 8.88 7.90 7.50 7.17
22.81 23.36 23.38 22.48 23.33 23.02 23.27 23.17 22.17 21.11 23.29 24.42 21.84 22.74 22.48 22.13 21.45 20.83 20.27 20.44 19.40 18.09 18.15 17.68 17.14 15.79 14.47 13.93 13.54 13.78 13.49 13.11 12.41 11.23 10.17 9.64 9.43 9.57 8.83 8.48 7.84 6.51 5.50 4.53

GFSNGP_sfc_wetblb_060.txt.gz
Wetbulb
44.31 44.82 45.76 44.88 44.28 44.37 43.27 45.39 40.20 43.77 43.58 46.78 49.30 50.24 51.28 53.05 53.21 53.21 53.41 55.21 55.94 57.59 59.25 60.50 61.04 60.63 59.42 57.72 56.76 55.92 54.13 52.25 50.64 50.08 50.52 49.30 48.03 47.86 47.02 46.09 45.58 44.94 44.37 43.97
41.10 44.56 44.57 42.83 45.08 45.16 44.74 45.19 44.82 45.43 44.88 49.95 50.94 51.55 50.91 52.59 52.82 52.43 52.55 53.50 56.16 57.75 59.36 59.98 60.39 58.55 56.24 54.29 53.33 52.75 51.24 50.45 50.75 50.63 50.18 49.50 47.70 46.54 45.84 45.53 45.39 45.11 43.12 42.53
36.79 43.11 43.10 37.52 43.33 44.61 45.41 46.95 46.29 42.55 47.09 49.88 49.24 50.02 51.31 51.78 52.87 52.48 53.44 54.30 55.92 58.05 59.68 60.21 58.76 56.26 54.11 52.95 52.40 50.90 50.08 50.12 50.94 51.02 49.65 48.89 48.48 47.39 46.45 45.04 44.61 42.92 42.06 42.20
37.28 37.31 31.22 43.57 48.91 47.70 45.67 46.57 47.40 47.16 48.12 49.22 49.74 51.41 53.01 53.85 53.58 53.55 54.73 55.08 56.16 58.83 58.61 58.27 57.89 55.52 53.86 53.28 52.03 51.24 50.77 50.14 49.36 48.67 47.68 47.28 46.25 45.54 45.69 45.54 44.57 44.28 43.46 43.21
36.09 35.70 40.74 43.62 46.24 45.99 44.81 44.44 48.83 47.66 48.64 49.59 50.97 52.72 51.65 53.96 55.40 55.39 55.13 55.68 56.89 57.63 57.04 56.69 55.40 54.66 53.09 51.60 50.71 49.33 48.23 48.17 48.30 47.66 46.23 46.32 45.64 45.37 45.03 44.43 44.05 44.07 43.98 42.25
38.06 32.87 31.41 42.72 48.26 50.24 49.71 40.08 49.70 50.00 50.22 50.31 50.91 45.91 49.17 52.68 54.79 54.70 54.91 54.98 55.07 55.32 54.50 53.53 53.15 52.53 50.62 49.26 48.58 47.99 48.15 47.72 47.53 47.56 46.90 45.23 44.77 44.59 44.62 44.06 41.69 40.62 39.91 39.73
36.93 35.05 40.79 47.59 49.07 50.15 39.22 41.33 52.00 51.93 51.53 51.51 50.25 51.50 52.98 53.33 53.90 54.23 53.99 53.65 53.88 53.10 52.03 51.87 51.82 50.95 49.01 48.47 47.32 47.99 47.99 47.56 47.22 46.69 45.66 45.03 43.38 41.88 40.71 39.62 39.89 36.41 34.60 34.51
38.40 35.14 33.87 49.96 48.74 43.28 48.17 51.59 54.49 53.01 53.64 54.75 53.15 52.47 51.86 52.49 52.17 51.86 51.27 51.51 52.01 51.02 50.56 50.95 51.03 49.93 48.11 46.54 47.40 47.48 46.41 45.17 44.26 43.92 43.00 41.88 40.11 39.01 38.46 36.61 34.24 32.58 31.11 30.98
40.42 41.02 50.61 50.87 50.02 52.30 53.32 52.85 53.58 53.41 54.48 55.14 52.01 51.00 51.06 50.32 50.28 50.11 50.18 49.94 51.09 50.08 49.53 49.97 50.32 49.03 46.75 46.46 46.10 44.66 43.55 42.22 40.94 40.47 40.39 39.82 37.12 35.39 34.33 34.01 31.12 29.68 28.89 29.11
43.15 46.57 48.24 50.32 52.27 52.81 53.92 53.56 54.06 55.05 54.86 55.28 52.18 51.47 50.11 49.84 49.44 49.22 49.35 49.11 49.78 49.02 48.13 47.90 48.97 48.63 46.50 45.39 44.67 43.05 40.53 39.25 38.31 36.35 35.43 35.13 34.86 34.22 33.01 30.16 28.96 28.68 28.60 27.19
45.13 48.16 48.07 49.24 51.03 51.98 52.86 54.26 54.39 54.20 54.44 53.53 53.49 51.42 50.32 49.27 48.76 48.98 48.69 48.85 48.79 47.72 47.39 46.98 47.11 45.03 44.52 43.96 43.09 40.44 38.60 36.85 34.86 33.92 33.94 33.24 30.38 30.06 28.39 25.81 26.47 26.92 26.31 25.80
41.93 47.95 47.13 48.13 50.10 51.98 51.79 51.71 53.83 53.60 52.96 53.20 53.58 51.23 50.67 49.15 48.94 48.61 48.30 48.26 47.46 46.70 45.61 44.50 43.27 42.32 42.16 42.16 40.90 37.68 34.87 33.83 32.38 31.75 31.22 32.19 29.37 27.09 28.08 25.96 26.40 25.84 24.96 23.76
44.51 47.98 50.45 51.95 52.43 53.14 51.32 51.90 52.73 54.40 53.61 51.93 53.20 52.26 50.67 48.69 48.56 45.89 47.94 46.65 45.53 44.03 42.57 41.06 39.91 38.63 39.57 38.58 37.15 35.03 31.31 31.90 30.40 30.60 30.21 29.14 28.32 28.19 23.58 24.73 25.97 25.92 24.94 23.74
48.92 49.17 48.60 50.31 49.24 50.65 50.04 50.67 51.79 53.14 53.45 52.60 52.32 51.62 49.60 48.35 47.11 47.00 45.39 44.98 43.88 41.22 38.38 36.55 34.86 32.89 34.43 34.70 33.04 30.63 29.72 30.54 30.34 29.69 28.97 28.60 27.80 27.02 26.67 26.16 24.19 23.27 24.81 24.14
48.31 51.42 51.81 52.38 50.19 49.22 49.50 48.92 48.79 48.71 50.14 49.91 50.79 49.14 48.15 46.36 45.07 44.21 43.82 41.06 38.49 36.26 34.66 33.84 31.61 30.90 32.16 31.65 30.27 29.43 29.72 29.25 29.16 27.83 26.19 25.68 26.56 26.47 26.01 24.88 24.54 23.96 24.62 23.37
49.28 50.46 51.13 50.51 49.45 48.49 47.75 46.49 45.59 45.96 47.23 48.00 47.63 46.65 46.39 45.12 43.00 38.91 37.45 36.61 33.39 31.75 30.98 27.42 28.04 29.30 30.79 30.66 27.87 25.68 24.97 25.79 27.46 26.52 24.85 25.69 25.53 24.84 24.71 24.27 23.80 23.31 22.16 21.52
44.91 45.53 45.48 46.21 47.55 47.93 47.09 46.38 45.84 45.77 45.42 44.87 43.99 42.52 42.61 37.13 33.72 27.72 26.77 27.37 26.53 25.95 26.13 26.44 25.92 27.34 28.05 28.21 28.06 25.76 23.33 22.54 22.22 24.83 24.56 23.59 23.45 23.12 22.85 22.36 21.61 21.01 20.02 15.82
45.88 46.09 46.08 44.93 45.45 46.31 45.51 45.40 44.87 43.32 41.38 36.61 34.75 33.45 30.98 26.98 24.51 23.81 23.51 23.09 22.73 22.73 23.43 23.69 24.69 24.46 24.26 24.80 24.69 24.20 23.79 22.99 23.22 22.68 22.57 21.96 20.98 20.79 21.02 20.20 20.16 19.40 18.98 18.77
39.00 38.65 39.23 39.44 40.98 39.35 36.09 34.02 32.96 32.46 31.45 29.70 27.57 25.47 24.89 24.28 23.76 22.96 23.16 22.32 21.48 20.07 21.49 23.07 22.83 21.68 21.22 22.69 23.05 22.90 22.01 21.13 21.01 20.38 20.41 16.10 18.42 20.00 19.45 19.07 18.57 17.24 16.88 16.62
31.30 32.12 32.07 31.63 32.31 31.89 29.63 29.21 28.67 27.88 27.19 25.58 24.61 23.57 22.68 22.98 23.86 23.90 23.84 21.91 22.18 21.35 22.90 22.38 21.55 19.74 19.02 19.38 21.47 21.07 20.89 20.45 19.50 19.76 19.61 16.66 17.85 18.57 17.46 16.58 16.38 15.58 15.77 15.13
29.04 28.96 28.60 28.44 28.28 28.65 28.31 27.93 26.71 25.31 25.65 25.64 23.86 23.27 23.47 23.55 23.46 22.55 20.50 18.49 20.91 22.23 21.70 21.32 20.40 19.54 18.66 18.80 20.31 20.54 20.29 19.68 18.89 18.38 18.01 17.80 17.25 16.91 16.69 15.79 15.60 15.14 14.40 14.27
29.18 28.06 27.78 27.71 27.04 26.83 27.41 27.17 26.27 25.22 24.86 24.72 24.58 24.00 23.23 23.15 22.22 21.50 21.76 19.85 21.10 21.71 21.43 20.74 18.93 18.28 17.12 18.07 19.74 20.10 18.84 17.80 17.19 17.32 16.75 16.57 15.97 14.81 14.07 14.21 13.58 13.03 13.03 11.19
27.95 27.52 26.97 25.71 25.01 24.95 25.74 25.91 25.83 25.48 24.52 24.34 24.01 23.70 23.43 23.20 22.94 19.99 17.89 22.25 23.02 22.96 21.00 17.83 16.44 16.26 15.71 19.59 19.37 18.82 18.15 17.20 16.47 16.24 15.70 15.44 14.95 14.21 13.00 12.58 12.12 11.22 9.94 10.10
27.49 26.94 26.54 26.88 26.33 24.98 23.64 24.88 25.20 25.14 24.92 25.31 25.40 25.61 24.37 21.94 22.06 23.76 23.44 22.17 22.25 20.80 18.48 17.60 16.00 15.13 12.90 18.76 18.49 17.43 16.57 16.01 15.59 14.98 15.32 14.01 14.08 13.19 13.28 11.65 10.11 9.93 8.24 7.12
26.56 27.00 27.16 26.35 25.35 25.02 25.50 25.67 25.09 25.04 24.41 23.99 24.27 24.26 24.26 25.59 23.36 22.81 21.67 20.25 20.98 20.07 16.75 14.66 13.47 12.45 16.52 16.97 16.47 15.22 14.85 14.29 14.15 12.34 10.91 10.01 10.38 10.54 10.37 10.31 9.15 7.93 5.47 2.57
23.57 23.08 22.85 23.54 24.32 24.90 24.66 24.43 23.77 24.52 23.43 22.14 22.55 23.49 23.44 23.64 22.98 21.95 21.16 19.99 19.55 18.37 18.29 17.51 15.97 15.51 15.82 15.54 14.14 13.59 13.77 13.71 12.80 12.52 11.05 10.10 9.47 8.82 8.86 9.14 7.72 7.09 5.46 4.71
20.62 21.18 21.14 20.58 21.30 20.66 20.92 21.13 19.88 19.01 21.55 21.92 19.93 21.28 21.79 21.71 20.63 20.51 20.05 18.98 18.62 17.59 17.37 16.83 16.65 14.40 13.53 11.79 12.08 12.37 12.00 11.91 11.05 10.42 9.19 8.56 8.25 7.65 7.34 7.09 6.36 5.12 3.37 1.97

GFSNGP_sfc_wetblb_063.txt.gz
Wetbulb
41.00 43.08 44.27 43.25 42.53 42.61 41.54 42.34 38.85 40.89 41.08 44.44 46.66 47.32 47.20 48.79 49.29 48.70 49.88 52.28 54.12 53.95 54.22 56.55 55.77 54.53 54.47 53.98 53.94 53.95 52.96 51.21 49.58 49.35 49.36 48.77 47.62 47.03 46.43 45.79 45.37 45.24 44.84 44.37
37.96 42.29 43.07 41.56 43.91 42.33 42.74 42.52 43.52 43.07 42.33 47.88 47.99 47.19 47.60 49.17 48.88 48.66 48.82 51.00 53.54 55.82 56.88 57.18 55.02 52.81 52.12 51.46 50.94 51.77 50.72 49.35 49.01 48.14 47.44 46.96 46.13 45.67 45.30 44.65 44.46 44.18 43.27 42.43
33.57 40.68 40.82 33.95 39.77 42.15 43.54 44.88 42.91 39.62 44.49 46.27 46.33 46.42 47.25 46.70 49.06 48.64 48.76 49.14 51.91 55.49 57.54 56.76 53.98 52.47 50.39 49.80 50.15 49.75 49.93 49.85 49.51 48.79 47.16 46.25 45.76 45.12 44.54 43.79 43.13 40.94 39.82 40.04
31.19 35.09 28.59 39.53 45.45 45.32 44.11 44.94 45.18 44.63 44.69 45.74 46.42 45.83 46.65 47.72 48.34 48.24 49.62 50.61 54.98 55.97 56.67 54.78 52.99 51.19 50.78 49.99 50.13 49.80 49.73 49.86 49.22 48.31 46.83 45.98 45.58 43.71 42.22 41.42 40.19 39.54 39.41 40.04
31.79 32.63 36.73 40.86 43.48 43.65 42.45 41.64 45.50 43.86 44.61 45.34 45.50 46.09 44.87 49.70 49.85 49.69 50.22 51.16 54.06 54.83 54.70 52.56 51.34 50.99 50.21 49.37 49.96 49.47 48.03 47.36 47.32 46.14 43.98 43.75 43.25 43.66 44.08 42.99 41.79 41.10 41.75 37.51
32.20 28.53 28.00 37.73 45.32 48.81 47.21 36.69 46.42 46.35 45.85 45.89 45.31 39.61 42.23 48.66 50.79 50.35 51.01 53.43 53.20 53.50 52.62 51.99 51.28 50.82 49.29 48.24 47.00 46.26 46.18 45.78 45.40 45.36 44.72 44.86 43.99 43.78 42.94 41.57 41.23 38.65 36.12 33.46
32.90 31.85 34.36 43.92 47.22 48.94 36.51 36.48 47.76 47.38 46.90 46.55 44.02 45.05 46.72 49.44 49.40 50.29 50.31 51.03 51.11 51.07 50.59 50.40 50.24 49.20 46.62 46.01 45.00 46.17 45.84 45.71 45.21 45.16 44.85 44.50 42.21 39.92 38.22 36.79 34.55 31.18 31.88 31.38
34.06 29.91 28.91 46.47 46.40 40.93 43.83 47.21 48.28 47.51 47.08 46.25 47.61 47.36 48.66 49.32 49.20 49.44 48.95 49.36 49.75 48.61 47.97 48.36 48.53 47.63 45.76 44.82 45.88 46.15 45.45 44.63 43.62 43.67 43.01 40.71 36.87 35.73 35.91 33.27 30.36 28.68 28.85 27.71
36.21 35.23 44.99 47.67 46.42 48.66 49.76 49.05 49.21 48.54 49.74 49.78 47.65 47.22 48.61 48.02 47.62 47.72 47.41 47.30 47.80 47.01 46.23 46.65 47.44 47.18 44.46 44.30 45.10 44.14 42.83 41.40 40.25 39.44 38.55 36.91 33.94 32.20 31.83 31.01 28.15 27.65 27.81 26.62
39.24 42.13 44.29 46.37 49.26 49.85 49.21 49.38 50.31 51.25 49.91 50.25 49.75 48.68 46.82 46.68 46.21 46.04 45.89 46.02 45.89 45.81 44.96 44.37 45.34 45.69 44.66 43.77 43.20 41.83 38.84 37.03 35.12 33.90 33.01 31.86 32.72 32.01 29.70 27.32 25.61 27.02 26.50 24.86
39.81 43.70 45.97 46.37 47.73 49.18 48.12 49.42 50.54 50.90 49.76 49.72 48.70 47.66 47.57 46.68 45.43 45.76 45.65 45.77 45.98 45.04 44.24 43.74 44.40 43.09 42.83 42.29 41.24 37.99 36.39 34.32 32.80 31.67 29.87 27.68 28.20 27.81 25.36 24.77 26.41 25.28 23.80 24.44
36.63 44.03 44.32 45.19 47.77 50.28 49.28 49.61 50.38 49.29 49.48 49.22 49.22 47.67 46.80 45.12 45.07 44.84 45.25 44.25 44.33 43.70 43.23 40.74 41.00 39.92 40.07 40.33 38.55 36.00 32.24 31.32 29.40 29.18 28.15 27.17 26.32 24.59 26.77 26.69 27.80 27.36 26.40 23.81
40.84 43.87 44.45 45.81 48.50 49.67 48.72 48.63 48.75 48.47 48.72 49.17 49.37 48.38 46.76 44.84 44.70 42.40 44.03 43.63 43.60 41.59 38.97 37.87 36.81 35.40 35.82 35.06 33.98 32.13 29.96 30.51 28.51 27.80 27.31 26.60 24.84 23.59 21.83 25.31 26.73 26.05 25.54 24.81
46.37 46.54 42.82 43.28 45.12 47.40 47.41 46.86 47.40 48.06 48.00 48.44 48.26 47.19 45.18 44.53 43.38 42.80 42.13 40.93 38.70 35.68 32.70 30.99 29.82 28.60 30.60 31.61 30.62 28.95 28.70 29.39 28.49 27.73 27.61 27.13 26.11 26.30 24.21 23.10 22.00 22.89 25.27 24.29
45.41 47.07 46.37 47.43 46.80 46.28 45.70 45.03 44.02 44.08 45.20 45.78 46.25 44.74 43.81 42.61 40.03 37.87 36.82 35.26 33.69 31.00 30.35 29.41 28.39 28.28 29.60 29.49 29.03 28.52 28.10 26.95 25.92 25.16 25.65 25.61 25.77 25.00 25.20 24.75 24.38 23.66 23.41 23.51
43.83 45.41 45.31 44.57 45.03 45.40 44.05 43.15 41.94 41.50 42.76 43.10 42.55 39.13 36.56 35.39 33.62 32.38 32.21 32.16 28.02 25.94 26.64 26.18 26.49 26.85 27.58 26.83 26.08 26.00 26.07 26.55 25.30 25.08 25.18 24.86 24.96 24.44 24.36 23.69 23.17 22.51 21.64 20.09
39.80 39.37 41.10 41.27 42.67 43.07 42.10 41.77 41.26 39.67 37.14 35.76 31.86 29.53 28.66 26.53 24.81 23.63 23.54 24.26 23.72 22.85 23.45 23.40 23.59 26.04 27.53 26.03 24.47 23.78 23.41 24.35 24.64 25.14 24.02 23.27 22.70 22.62 22.21 21.44 20.87 20.33 18.47 15.72
38.84 37.72 37.35 36.73 37.35 36.42 34.66 34.48 33.69 32.58 30.04 28.19 27.10 25.94 24.43 22.93 21.91 21.97 22.15 22.41 21.55 21.18 21.91 22.84 24.06 24.69 24.99 25.21 25.11 24.55 23.80 23.85 23.63 22.58 22.36 21.21 19.91 19.97 20.09 19.20 19.10 18.45 17.44 16.11
33.95 33.56 33.54 33.66 33.34 32.00 30.61 28.90 28.04 27.35 26.68 25.05 23.87 22.10 21.90 21.67 22.31 22.48 23.15 22.44 20.87 19.06 20.01 22.02 22.88 21.97 22.75 23.55 23.39 22.72 21.71 21.19 20.92 20.20 19.55 17.58 17.68 18.74 18.20 17.32 16.28 15.76 15.70 15.47
29.09 29.52 29.01 28.14 28.21 27.87 26.40 26.37 26.11 25.29 25.49 24.67 23.89 22.92 22.35 22.82 22.41 20.76 20.13 18.59 19.87 19.81 21.14 20.77 20.47 19.92 20.29 21.75 21.97 21.51 20.57 19.34 19.10 18.68 17.56 16.24 15.47 15.21 15.19 15.76 15.55 13.60 11.95 12.53
26.76 26.74 26.04 25.58 24.91 25.27 25.15 25.52 24.63 23.66 23.94 23.80 21.96 21.07 20.57 21.17 20.91 20.15 18.20 16.75 19.80 21.48 21.38 21.05 20.11 19.02 19.57 20.05 20.70 19.80 18.72 17.66 16.78 16.76 16.13 15.35 14.13 14.05 12.94 11.95 11.09 10.79 9.18 9.94
25.31 24.73 24.43 24.52 23.75 23.45 24.58 24.55 24.09 23.58 23.04 22.48 22.31 21.56 20.22 19.13 18.91 18.89 19.71 18.47 21.02 21.16 19.63 18.16 17.57 17.20 17.55 19.00 20.07 18.53 18.26 17.22 16.18 15.47 14.08 12.33 10.71 8.56 8.02 7.85 7.55 7.76 6.48 4.38
25.29 24.87 24.46 23.53 22.94 23.13 23.89 23.68 23.41 23.12 22.06 22.07 21.77 21.80 21.03 21.07 20.69 18.00 16.64 22.02 20.19 17.80 16.81 15.95 15.62 15.21 15.73 18.36 17.23 16.10 14.95 13.50 12.80 12.87 11.81 9.68 9.68 8.81 7.12 5.48 5.20 3.77 -0.18 0.11
25.43 24.95 24.35 24.82 24.41 23.16 21.68 23.12 23.80 23.50 22.80 23.58 23.12 22.62 21.35 19.14 19.34 21.13 20.16 18.47 17.63 16.46 15.45 14.51 13.10 12.58 12.87 15.45 14.16 11.72 8.71 6.03 5.64 7.02 7.81 5.25 3.15 5.35 8.24 5.04 3.63 2.38 1.28 -1.03
21.89 22.33 23.49 23.45 22.87 23.08 23.53 23.46 22.52 21.98 21.28 21.19 21.34 21.46 20.99 21.14 18.27 18.98 18.97 18.74 16.80 14.29 11.74 10.05 10.21 10.18 13.30 12.52 11.31 7.38 5.33 6.14 7.17 1.89 4.37 3.99 4.15 -0.14 -3.68 1.87 4.45 2.67 -1.58 -3.52
20.31 19.39 19.05 19.29 19.52 20.52 19.91 20.45 20.11 20.61 19.49 18.17 18.79 19.05 19.60 20.10 19.32 18.04 17.05 16.07 15.97 15.53 13.67 8.62 8.71 7.14 5.10 4.79 1.95 2.98 3.34 5.63 6.94 6.57 3.42 2.35 -2.59 -4.94 -2.41 2.81 0.91 -0.15 -2.96 -6.57
17.50 18.35 17.91 16.69 17.21 16.35 16.67 17.00 15.28 15.24 16.85 15.43 14.19 15.77 15.51 15.45 15.96 15.73 13.53 13.89 12.22 11.39 10.44 11.14 10.98 10.01 8.84 7.83 5.52 -0.01 -1.95 -4.23 -4.40 -0.61 -1.69 -6.76 -9.29 -10.56 -4.59 -2.08 -2.98 -5.86 -11.47 -13.64

GFSNGP_sfc_wetblb_066.txt.gz
Wetbulb
39.63 40.98 41.66 41.23 40.67 40.84 38.90 39.22 35.18 38.06 39.34 42.83 44.87 46.30 47.20 48.23 46.62 47.60 47.93 50.36 51.29 51.13 54.68 53.91 54.19 55.14 57.84 58.76 58.86 57.26 55.87 56.49 53.24 52.53 53.00 52.18 50.97 50.19 49.27 48.62 48.01 47.11 45.72 45.07
37.03 40.47 41.58 39.81 41.42 41.28 40.69 40.30 40.10 41.40 40.54 46.83 47.61 47.50 46.50 46.92 48.83 46.99 48.18 50.31 51.90 53.01 55.16 54.01 53.26 54.45 54.65 56.49 55.43 54.86 52.60 50.72 50.46 50.12 49.90 49.45 48.69 47.54 46.80 45.93 45.61 45.03 44.23 43.78
32.89 38.19 39.25 33.52 38.83 40.28 40.81 41.93 42.10 38.06 42.61 47.50 46.96 46.67 46.30 47.72 47.98 46.94 47.69 48.72 51.31 54.12 55.36 53.76 52.66 52.60 52.53 52.85 52.93 52.07 50.93 50.02 49.43 48.91 47.63 47.13 46.59 46.73 44.80 44.14 44.07 43.01 42.81 42.50
30.71 31.99 27.84 38.75 43.99 42.99 41.67 43.07 44.39 44.05 44.93 47.39 47.74 48.70 47.21 48.02 47.82 47.47 47.21 47.15 51.24 54.58 55.79 53.75 51.89 50.72 50.37 51.48 51.50 50.67 49.83 49.20 48.70 47.53 46.95 46.18 45.58 44.20 43.88 42.99 42.14 41.53 40.49 39.94
30.59 29.81 35.33 38.74 41.49 41.44 40.82 39.22 44.31 44.06 44.13 45.11 45.46 44.44 43.83 48.49 48.07 48.97 46.99 48.57 51.55 55.29 54.05 51.61 50.59 50.10 49.88 49.36 49.79 49.97 48.97 48.08 47.90 46.80 45.64 44.76 43.82 42.85 42.14 40.87 39.69 39.19 38.87 36.06
31.67 28.62 26.87 36.02 42.68 46.39 46.09 34.67 44.47 45.93 45.56 45.59 44.68 37.41 41.15 47.36 48.81 49.48 51.04 52.90 52.82 52.01 50.97 50.06 49.95 49.56 48.79 47.87 48.13 48.11 48.16 48.21 47.16 45.81 44.27 43.71 43.12 41.50 41.03 40.74 40.29 39.47 35.01 33.80
31.72 31.33 33.15 41.17 44.93 47.15 36.07 35.98 45.31 47.26 46.67 46.39 42.17 44.15 45.93 48.18 48.71 50.40 52.26 51.93 51.76 52.04 51.11 50.13 49.61 49.10 47.40 46.76 46.08 46.80 46.38 45.74 44.43 44.23 43.52 43.20 42.83 41.66 39.43 36.58 35.41 31.91 29.94 29.81
32.23 30.35 27.01 45.28 45.52 39.81 41.66 44.79 47.50 47.33 46.92 45.27 45.81 45.69 46.92 48.77 48.80 49.24 50.08 49.62 50.72 49.88 48.90 49.00 48.85 47.68 45.17 44.59 44.88 45.00 44.60 44.01 43.59 43.85 43.90 43.84 39.28 36.60 34.75 32.48 30.57 28.60 27.58 26.17
35.37 34.44 43.45 45.89 46.79 47.49 48.18 46.53 47.46 46.91 47.73 47.59 45.85 45.50 47.10 46.96 47.65 48.81 49.46 48.50 48.75 47.44 45.85 46.35 46.27 46.23 44.09 43.48 44.50 44.08 43.36 41.96 40.91 39.52 38.51 37.28 35.54 33.50 31.81 30.52 28.96 27.85 26.77 24.47
37.67 40.98 42.44 44.55 47.97 48.52 49.08 47.67 48.78 49.72 48.20 47.54 47.24 46.68 46.16 46.46 46.57 46.41 46.51 46.65 45.71 45.80 44.81 43.58 44.30 44.26 43.94 43.92 43.71 42.10 38.85 36.73 36.09 34.52 31.78 31.71 31.90 31.75 30.03 27.46 27.91 27.88 26.65 24.60
38.13 41.59 44.16 45.24 45.71 46.86 48.19 48.94 48.99 49.80 47.87 48.21 47.74 48.26 46.36 46.50 46.41 46.76 46.21 45.50 46.34 45.22 44.43 42.73 43.26 42.57 42.68 42.16 40.91 37.79 34.78 33.26 31.68 30.20 29.83 27.53 25.66 26.26 26.76 26.95 27.62 26.68 25.92 25.52
34.29 42.11 42.73 43.80 45.21 48.22 47.19 46.84 47.84 48.42 48.22 47.56 47.95 48.05 47.09 45.73 46.07 45.51 44.92 44.09 43.72 43.26 42.19 41.22 40.81 39.79 39.22 39.18 37.83 33.92 30.62 29.80 27.56 26.85 27.24 25.84 24.24 24.00 28.70 28.42 28.86 28.28 27.30 25.37
39.87 43.80 45.19 45.50 46.27 47.17 46.94 47.39 47.95 47.64 47.51 46.85 47.50 47.34 45.68 44.41 43.30 40.99 43.00 43.05 42.67 39.33 38.13 36.46 34.51 33.89 35.06 35.34 34.47 32.22 29.40 28.42 27.67 27.10 26.21 25.35 25.02 24.76 22.90 25.47 26.96 26.73 26.30 25.90
42.27 44.28 41.88 43.39 42.15 44.59 45.71 45.48 45.80 46.23 46.18 46.10 45.17 46.70 43.65 42.88 42.58 42.45 40.47 38.04 34.70 32.00 30.99 30.36 30.18 29.64 32.82 32.99 31.45 29.86 29.04 28.82 28.00 27.67 27.42 26.64 25.70 24.98 24.70 23.66 22.47 23.22 25.26 25.00
39.35 43.24 43.19 44.30 44.23 43.61 43.84 43.58 42.83 42.46 42.67 41.20 41.01 41.65 41.50 37.94 34.88 33.11 32.16 31.16 30.16 29.11 28.69 28.07 26.93 27.69 30.39 30.06 28.74 27.30 26.33 25.96 26.19 26.10 26.16 26.08 26.17 25.83 25.55 25.06 24.88 24.12 24.17 24.27
39.46 39.80 41.44 41.21 42.05 41.34 41.40 41.39 39.99 37.09 35.79 33.01 31.53 30.49 30.37 29.88 28.65 27.70 28.43 29.64 27.04 24.53 24.90 24.06 24.61 26.37 28.01 28.05 27.67 27.10 26.27 26.44 26.58 26.12 25.37 24.94 24.88 24.60 24.34 24.01 23.42 22.56 21.97 19.83
36.25 34.93 35.74 36.85 37.84 35.73 34.96 34.96 34.23 31.84 30.04 28.33 27.22 26.90 26.06 24.65 23.78 22.86 22.74 23.94 24.54 24.46 25.26 25.42 25.29 26.59 26.90 27.17 26.61 25.85 25.68 25.43 24.94 24.89 24.01 23.53 23.42 22.88 22.31 21.64 21.11 20.57 19.17 17.78
34.93 35.07 35.24 35.01 34.08 33.03 31.17 29.63 28.41 27.75 25.97 25.34 25.20 24.14 22.65 21.69 21.03 21.30 22.10 23.08 22.18 21.64 22.94 24.30 24.86 25.02 24.84 24.87 24.65 24.44 24.10 23.71 23.16 22.48 22.26 20.90 20.48 20.74 20.16 19.63 19.43 18.17 17.09 16.82
31.41 30.51 30.58 30.62 29.76 28.46 27.29 26.01 25.47 24.98 24.19 23.73 22.76 22.26 22.88 23.03 22.90 22.12 21.52 19.79 18.59 17.64 18.99 22.12 23.73 22.76 22.61 23.24 22.89 22.19 21.51 20.98 20.76 20.17 19.68 18.88 18.43 19.09 18.05 17.39 16.25 16.05 15.86 15.85
26.26 26.48 25.95 25.45 26.10 26.01 24.81 25.37 25.29 24.41 24.71 23.50 21.62 20.29 19.02 19.19 19.36 18.59 18.44 16.83 17.97 18.49 20.11 20.10 20.52 20.53 20.92 21.27 21.60 20.55 19.81 19.02 18.94 17.99 16.98 16.37 15.79 14.73 15.25 16.01 15.50 14.86 13.47 13.46
24.02 24.20 23.85 23.61 23.16 23.53 23.76 23.97 22.91 21.51 21.80 21.68 20.28 19.13 18.81 19.60 19.71 19.27 17.38 15.84 18.78 20.07 19.63 19.25 19.02 18.58 19.96 20.49 19.66 18.40 17.42 16.76 16.22 15.86 14.97 14.32 13.96 13.38 12.37 11.51 11.53 10.50 9.25 8.68
23.35 22.64 22.49 22.64 22.19 22.08 23.02 23.37 23.10 22.19 21.31 20.56 20.04 19.45 18.42 17.90 18.18 18.37 18.83 16.63 17.78 17.48 17.20 16.83 16.96 17.44 18.96 19.01 18.45 16.78 16.12 15.29 14.49 14.18 12.80 11.94 10.56 9.01 8.30 8.11 6.74 6.58 5.30 3.50
23.52 23.35 22.97 22.38 21.84 21.76 22.52 22.70 22.41 21.53 20.53 20.35 19.85 19.67 19.24 19.48 19.68 16.70 13.57 17.06 16.85 16.13 15.32 14.92 15.86 16.73 16.34 15.46 14.13 12.86 12.05 11.40 10.38 9.55 7.85 6.42 5.31 5.31 5.74 5.92 4.56 1.21 -0.41 -1.63
23.94 24.29 23.78 23.92 23.26 21.45 19.58 21.00 21.49 21.03 20.53 20.67 19.69 20.10 19.23 16.71 16.79 17.72 17.04 15.73 14.48 13.92 13.91 14.42 14.04 13.09 11.97 10.93 9.65 8.65 7.31 7.01 5.61 2.51 2.62 -2.17 -7.24 -7.97 -7.24 -8.15 -5.61 -4.17 -1.53 -1.36
19.44 19.42 20.25 19.70 19.78 20.19 20.65 20.81 19.96 19.58 19.10 18.91 19.20 19.84 19.28 18.88 16.35 16.02 15.27 14.35 14.58 12.54 11.39 10.19 9.39 8.17 7.38 6.31 5.60 4.83 2.71 0.92 -0.90 -2.71 -4.34 -7.97 -11.05 -13.59 -13.59 -11.05 -8.51 -4.70 -4.70 -5.07
17.95 16.99 16.80 16.88 17.45 17.70 18.29 18.20 15.85 16.41 15.93 13.63 13.68 14.76 16.42 16.82 16.30 14.51 13.89 13.16 12.41 11.52 10.63 9.24 7.27 5.81 4.72 3.74 -0.50 -3.29 -5.07 -2.56 -3.07 -3.25 -11.96 -13.23 -14.31 -13.04 -13.77 -12.32 -12.50 -11.96 -11.96 -13.77
15.98 16.64 15.35 14.17 14.96 14.74 14.78 14.04 12.27 10.86 10.68 8.83 7.53 9.84 11.30 11.89 11.44 10.26 7.85 6.79 5.75 4.43 2.85 0.30 -1.43 -1.37 -2.35 -7.79 -7.79 -8.15 -9.06 -9.60 -9.24 -10.51 -16.31 -18.12 -16.49 -16.67 -16.49 -17.58 -18.85 -20.30 -20.66 -17.21

GFSNGP_sfc_wetblb_069.txt.gz
Wetbulb
38.46 39.81 40.09 39.49 39.27 39.60 38.23 38.14 33.77 37.04 36.09 39.76 42.67 44.24 45.40 45.96 45.89 45.13 45.52 47.14 48.60 49.28 49.99 53.15 55.16 55.80 56.15 56.17 56.21 56.25 56.03 56.19 56.20 56.95 57.76 58.20 57.25 55.65 52.29 51.55 50.79 50.34 48.57 47.19
34.68 39.01 39.13 37.42 39.89 40.04 39.07 39.26 39.07 39.09 37.25 44.36 45.98 44.96 45.02 46.23 47.02 45.52 46.18 46.81 49.48 50.35 53.32 53.32 53.72 54.32 54.75 55.75 56.35 56.91 56.86 56.69 56.86 55.07 55.11 54.91 53.10 50.63 50.55 49.35 47.85 46.96 46.42 45.28
30.08 36.00 36.42 32.30 37.04 38.99 40.26 40.92 40.07 35.86 40.24 44.59 43.78 44.53 44.90 46.71 46.85 46.93 45.97 47.90 48.09 51.28 54.24 54.18 53.68 54.11 55.07 55.80 55.83 56.33 55.77 53.25 53.21 52.90 51.33 50.09 49.63 48.73 47.63 46.82 46.02 45.14 44.99 43.62
31.40 32.81 27.04 37.36 42.34 42.77 40.29 41.82 42.39 41.88 43.18 45.02 45.18 46.45 47.31 45.95 46.31 46.11 46.16 46.38 47.56 51.88 54.01 52.91 51.16 54.30 53.85 53.96 54.16 53.12 51.87 51.43 50.60 50.32 49.22 48.22 47.84 46.44 44.94 44.87 44.02 43.12 42.56 43.08
27.70 29.06 34.11 35.75 40.38 39.30 38.54 39.16 43.29 41.87 43.14 44.11 43.95 41.45 42.41 45.84 45.40 47.58 47.46 48.48 48.54 52.66 53.51 50.57 51.60 52.19 53.03 52.56 52.22 51.50 50.22 49.81 49.10 48.67 47.16 45.98 45.33 44.21 43.94 44.15 43.75 42.61 42.50 41.15
31.17 26.94 24.09 33.38 40.54 43.37 44.07 34.46 43.36 46.08 44.69 41.85 42.37 36.31 39.64 45.40 46.07 45.74 45.99 48.22 50.85 51.19 50.72 49.97 49.53 51.34 51.27 50.80 50.80 50.42 49.60 48.91 48.15 47.48 46.20 45.07 44.42 42.99 42.93 42.79 41.43 39.41 36.01 36.35
30.69 29.67 30.87 38.84 42.14 45.22 34.00 34.30 44.77 46.06 44.08 44.22 41.57 42.55 45.35 44.97 47.33 47.51 48.47 51.03 50.94 50.64 50.25 49.60 49.42 49.62 49.16 49.66 49.43 49.74 49.57 48.46 47.05 46.52 45.49 44.63 43.13 41.90 41.54 40.69 35.79 32.55 29.98 31.16
31.97 29.26 23.55 43.42 43.06 39.25 41.40 44.20 44.72 46.05 45.04 44.97 45.50 45.74 45.91 46.44 46.30 49.01 50.22 50.66 50.70 49.80 48.42 48.47 48.77 48.87 46.75 46.91 46.45 47.25 46.65 45.31 44.92 44.55 44.06 43.16 40.51 38.97 37.85 35.25 30.99 29.45 27.38 27.79
31.84 32.40 40.64 42.31 43.01 45.10 46.35 46.23 46.58 46.74 46.80 45.58 46.24 46.03 45.32 45.75 46.48 48.31 48.28 49.11 49.92 48.29 47.00 47.34 48.05 47.90 45.62 42.95 44.26 43.96 44.02 43.69 43.36 43.10 42.08 40.35 37.81 34.65 33.00 31.79 31.47 28.88 27.69 26.10
35.06 38.38 40.78 42.70 44.74 47.72 48.56 47.55 48.38 48.55 47.57 46.00 44.57 45.51 45.87 45.95 46.81 46.97 46.90 46.27 45.89 46.57 45.64 43.77 44.45 44.65 43.89 43.81 43.67 42.64 41.58 40.66 39.01 36.19 34.37 35.31 34.58 33.35 30.41 29.77 29.40 27.90 26.03 23.84
35.90 39.87 42.08 43.98 45.08 45.57 46.54 47.67 48.04 48.33 48.40 47.63 45.57 45.93 46.14 46.40 46.74 46.53 46.17 45.62 46.21 45.30 44.38 42.56 43.18 42.89 43.20 43.02 41.73 38.72 37.73 35.54 33.44 32.25 29.83 28.10 28.32 29.42 28.39 28.96 30.52 27.93 26.43 24.85
31.23 39.97 39.64 42.57 45.66 45.48 45.47 46.28 46.46 47.09 47.01 48.08 46.61 46.26 46.23 46.67 45.84 45.67 44.96 45.08 43.37 42.66 41.89 41.25 41.29 40.98 41.32 41.45 38.78 35.55 31.61 31.74 30.98 29.20 28.38 27.87 26.68 25.78 29.45 29.37 29.86 29.31 28.18 25.83
38.14 40.28 40.62 44.12 44.25 44.40 44.93 45.57 46.39 46.36 45.69 45.62 46.59 47.76 49.10 45.65 44.68 41.62 43.34 42.65 41.21 39.26 38.32 37.21 35.86 34.58 35.45 35.80 35.25 33.30 29.59 29.17 28.59 27.51 26.62 25.81 25.72 24.68 22.40 25.76 27.77 27.75 27.48 26.91
39.65 40.71 41.02 41.44 41.45 43.26 43.12 43.61 44.48 44.05 42.70 40.32 41.27 44.27 43.68 42.40 39.68 36.98 34.37 33.85 33.07 31.63 30.67 30.32 30.09 30.02 32.02 32.27 31.27 29.95 29.27 28.96 27.84 27.03 26.51 25.95 25.33 25.11 24.80 23.64 22.22 22.97 26.06 25.45
37.44 39.97 40.06 41.99 39.75 39.21 41.28 41.70 39.67 36.21 34.73 32.55 32.80 34.40 34.03 30.81 29.05 28.91 29.38 29.12 28.24 27.81 27.77 27.95 27.44 27.67 29.25 29.21 28.47 27.94 27.41 26.97 27.12 27.04 27.03 26.52 26.52 26.00 25.34 24.58 23.95 23.48 24.09 24.31
36.35 38.56 37.55 38.30 37.46 35.91 35.14 34.10 32.75 30.30 29.43 28.18 27.28 26.35 25.76 25.08 25.16 25.18 25.31 26.46 26.86 24.26 25.82 26.06 27.03 28.26 29.07 28.71 28.31 28.13 27.50 27.21 27.00 26.34 25.88 25.53 25.39 24.84 24.65 24.29 23.95 23.45 22.91 21.20
32.56 33.89 33.95 34.19 34.36 32.27 30.11 30.17 29.05 27.46 27.02 25.95 25.55 25.04 24.54 24.16 24.08 23.70 24.05 25.02 24.95 24.73 25.49 25.18 24.95 26.58 27.05 27.17 26.44 25.76 25.21 25.03 24.80 24.30 23.57 22.90 22.58 22.21 22.23 21.59 21.06 20.52 18.76 19.15
32.27 31.74 31.65 31.50 30.91 29.15 27.43 26.93 26.45 25.91 24.74 24.19 23.71 22.93 22.07 21.74 21.03 21.28 21.47 21.64 21.23 20.92 21.97 22.99 23.87 24.03 24.21 24.43 24.37 23.76 23.12 22.81 21.88 20.85 20.39 19.59 19.93 20.22 19.49 19.00 18.82 17.53 17.25 17.15
27.63 26.98 26.95 26.87 26.84 26.30 25.75 25.12 24.83 24.69 23.90 22.91 21.00 19.88 20.13 19.90 19.82 19.61 19.90 18.59 17.75 16.91 18.54 21.48 23.09 22.15 21.99 22.40 22.18 21.65 20.82 19.93 19.35 18.96 18.61 17.77 17.86 17.63 16.82 16.54 16.18 16.04 15.96 15.82
24.16 24.82 24.49 23.98 24.58 24.07 22.74 23.27 23.30 22.45 22.57 21.27 20.07 18.80 17.43 17.69 18.00 17.42 16.99 15.31 16.65 17.91 19.49 20.02 20.42 19.91 19.76 19.91 20.20 19.15 18.23 17.59 17.06 16.16 16.03 15.79 15.22 14.55 14.89 14.45 14.13 13.13 12.66 11.91
22.00 22.31 22.23 22.13 21.79 22.31 21.63 21.48 20.24 18.70 19.18 19.58 18.20 17.26 17.11 18.06 18.18 17.20 14.92 13.01 15.99 18.02 18.51 19.19 19.45 18.93 19.19 18.82 18.14 16.95 16.07 15.22 14.70 13.67 13.16 12.37 12.19 11.62 10.58 10.28 9.67 7.77 6.55 6.74
22.18 21.61 20.94 21.16 20.38 20.32 21.29 21.44 21.01 20.11 19.40 19.03 18.69 18.10 16.53 15.30 14.84 14.12 15.13 13.93 15.92 16.70 17.38 17.24 16.50 15.92 15.64 15.65 14.87 13.75 13.27 12.29 11.22 10.51 8.87 8.03 6.10 4.21 2.35 1.66 1.88 3.83 1.90 -0.99
22.41 22.02 21.38 20.27 19.25 19.43 20.14 19.83 19.40 19.16 18.13 17.78 16.72 16.16 16.26 16.48 16.24 12.97 10.98 15.42 15.90 15.50 15.04 14.04 13.14 12.45 11.96 11.38 10.56 9.51 8.25 6.91 6.13 4.50 3.44 1.91 0.68 -0.88 -0.85 -1.54 -2.44 -4.58 -8.21 -4.77
20.56 21.61 21.11 21.39 20.66 19.25 17.30 18.75 19.28 19.21 18.52 18.28 17.44 17.82 16.05 13.26 13.48 14.96 14.63 13.58 12.11 11.16 10.45 9.54 9.13 9.07 8.18 7.24 6.20 5.37 4.33 2.44 -0.18 -1.24 -1.61 -4.77 -7.48 -8.21 -7.84 -12.56 -12.56 -16.00 -13.10 -8.93
17.96 18.35 18.80 18.60 18.22 17.53 18.15 18.02 16.70 15.88 15.55 16.00 16.34 16.78 16.53 16.03 12.77 13.48 12.83 11.62 11.55 8.64 6.72 5.92 5.64 4.35 2.83 1.47 -0.41 -1.71 -2.77 -3.67 -5.49 -6.39 -10.56 -16.18 -18.36 -19.63 -19.08 -17.63 -18.00 -16.18 -16.36 -16.73
16.17 15.01 14.82 15.51 15.67 16.25 15.52 14.40 11.83 12.68 12.35 10.45 10.84 11.69 11.69 11.72 10.77 9.44 7.77 6.80 6.33 4.41 2.87 0.93 -0.11 -0.68 -2.69 -4.08 -6.57 -8.02 -7.30 -6.31 -11.29 -14.55 -18.72 -19.26 -19.08 -18.72 -20.17 -19.26 -21.26 -21.26 -22.89 -23.80
13.99 14.34 13.58 12.65 12.95 12.28 11.37 9.96 7.95 6.64 6.39 5.20 4.68 8.21 8.04 6.35 4.34 3.58 0.50 -0.55 -2.39 -3.97 -6.46 -8.64 -8.88 -7.57 -8.58 -12.56 -11.83 -14.91 -15.10 -16.00 -17.27 -17.45 -22.71 -21.80 -21.80 -23.62 -23.43 -23.98 -25.25 -26.34 -26.52 -24.34

GFSNGP_sfc_wetblb_072.txt.gz
Wetbulb
38.43 39.64 38.63 38.13 37.69 37.82 35.46 36.61 33.06 33.87 36.14 39.00 41.53 42.94 44.15 45.23 44.40 44.69 45.19 44.90 46.40 48.99 50.81 52.76 53.41 53.00 53.07 52.78 52.77 53.13 52.91 52.92 52.58 52.85 53.19 52.29 53.12 55.44 56.09 56.61 56.82 56.15 53.77 52.33
34.05 38.04 38.06 35.62 38.12 37.91 37.23 37.01 37.14 36.76 36.94 42.19 43.43 42.75 42.83 44.22 44.99 44.79 45.53 46.16 45.86 47.59 48.46 51.48 52.79 53.49 53.61 53.26 53.02 53.10 52.83 53.06 53.59 53.68 54.03 54.23 54.79 55.68 57.09 55.97 55.03 52.22 50.11 48.80
28.66 36.37 35.22 29.46 34.55 36.04 37.55 38.85 38.39 34.92 38.66 43.01 42.52 43.65 44.42 45.10 45.39 45.12 45.70 46.45 46.14 48.29 49.90 50.31 51.67 53.18 53.44 54.10 54.36 53.57 53.12 53.47 53.91 54.15 54.29 55.18 55.34 53.82 52.58 51.49 49.91 48.30 46.53 46.09
28.60 31.26 23.76 33.63 40.81 39.62 37.83 39.45 40.76 40.30 41.28 43.71 44.00 45.27 45.12 45.33 45.68 45.64 45.60 46.84 46.59 48.71 49.46 51.48 51.54 51.62 51.83 53.10 54.24 54.28 53.81 54.06 54.94 54.98 53.96 50.69 49.74 49.54 49.38 48.46 47.74 46.80 45.21 44.79
23.97 27.43 31.03 33.01 37.02 39.36 35.37 35.80 40.23 40.41 42.30 43.05 44.21 40.89 41.53 44.42 45.38 46.12 46.43 47.07 46.71 47.24 49.63 51.61 51.95 52.43 53.41 53.46 53.21 53.96 54.59 53.58 53.28 53.13 50.03 48.78 47.56 46.47 45.89 45.84 45.01 43.71 43.42 43.30
30.76 24.37 21.51 29.96 39.30 43.07 41.68 31.00 41.89 43.01 42.32 42.10 41.90 37.21 39.64 45.42 43.26 44.72 44.47 44.17 44.87 46.41 49.50 50.68 51.47 53.02 52.90 53.10 53.25 52.95 52.08 51.57 50.35 49.48 48.01 47.32 46.24 44.54 45.00 44.01 42.33 40.77 39.57 40.24
30.39 28.31 30.25 36.44 42.19 44.34 30.68 31.07 41.75 44.20 43.30 42.87 39.92 42.10 43.59 44.62 45.62 45.10 46.70 47.62 48.68 49.76 49.62 50.25 52.30 52.93 51.93 51.57 51.44 51.52 50.41 49.30 48.71 48.34 47.25 46.44 44.50 43.30 42.23 39.26 36.43 34.31 33.10 33.85
31.15 28.62 25.47 39.93 42.08 37.61 40.29 41.50 42.70 45.11 44.31 42.99 43.35 44.01 44.75 45.02 45.24 46.71 48.03 49.97 49.90 48.04 47.52 49.78 51.02 51.82 50.75 50.14 49.24 49.43 48.50 47.28 47.16 46.96 44.91 43.03 41.43 40.00 37.75 35.34 32.80 31.97 30.59 29.20
30.78 30.35 37.94 39.77 39.46 43.75 44.58 43.78 43.20 45.13 46.88 45.72 43.74 42.73 43.64 44.03 45.34 46.61 48.28 47.75 49.18 47.68 47.48 48.44 48.89 49.42 48.81 46.17 47.35 46.21 44.94 44.32 43.32 42.84 41.25 40.22 38.36 36.23 34.91 33.77 31.80 31.04 29.44 26.91
32.91 34.25 37.37 39.25 41.23 43.95 45.30 45.01 45.86 47.19 48.00 48.32 45.80 44.89 43.92 44.22 44.88 45.62 46.77 47.32 47.14 46.20 45.98 45.29 45.85 45.40 44.62 44.15 45.13 44.85 42.67 40.97 39.75 38.46 36.88 36.57 36.56 35.63 34.17 32.25 30.53 29.35 28.04 25.98
33.50 36.12 38.78 39.27 40.60 43.91 44.63 46.27 47.42 48.91 48.37 45.95 45.05 45.03 45.53 44.99 45.41 46.15 46.49 46.25 45.91 44.77 43.79 42.66 43.12 43.18 43.74 43.87 43.46 40.48 38.53 36.39 34.71 33.28 31.68 29.54 29.52 31.38 31.75 31.70 32.21 29.92 28.32 26.40
29.61 37.31 37.17 38.49 41.27 42.57 42.79 43.15 45.26 45.99 46.23 46.61 44.76 44.52 45.73 46.04 44.93 45.40 45.08 44.64 44.57 42.86 41.98 41.84 41.48 41.56 41.36 41.43 39.80 36.17 33.34 33.11 31.89 31.07 30.21 29.63 28.78 27.93 30.61 30.51 30.56 29.88 28.70 26.66
37.35 38.02 38.12 39.41 41.61 41.00 41.07 42.88 42.32 40.44 38.11 38.16 39.65 41.64 42.93 42.47 40.85 38.39 38.55 37.03 36.23 35.82 34.97 34.99 34.03 33.34 35.26 35.79 35.66 33.81 31.81 31.05 30.14 29.69 28.60 27.53 27.28 26.55 24.27 27.28 29.51 29.32 28.96 28.37
39.81 38.02 37.39 38.78 39.13 38.74 38.40 40.50 38.38 35.30 33.99 31.77 31.73 32.96 31.85 30.22 29.73 29.16 29.52 31.30 31.40 30.60 29.59 28.93 28.25 28.24 30.62 31.47 30.78 29.84 29.42 29.33 28.45 27.79 27.16 26.24 25.33 25.19 25.36 23.93 22.22 22.99 26.53 26.54
34.78 36.53 38.67 39.21 37.97 34.83 34.98 34.83 32.39 30.80 29.93 27.67 28.29 26.39 26.39 25.19 25.18 26.02 27.53 27.97 28.12 28.10 28.07 27.82 27.37 27.47 29.55 29.69 29.19 28.43 27.93 27.35 27.22 27.05 26.80 26.79 26.42 25.71 25.09 23.95 23.05 22.88 24.08 24.84
33.50 35.36 36.38 35.92 35.29 31.89 30.69 29.59 27.82 26.34 26.85 25.38 25.95 25.08 24.99 25.00 24.90 24.99 25.48 26.43 25.57 25.45 26.04 26.24 26.83 28.37 29.30 29.06 28.40 27.79 27.09 26.97 26.90 26.39 25.92 25.72 25.74 24.97 24.76 24.59 23.89 23.19 22.31 21.58
30.36 31.43 31.13 31.30 31.50 29.18 27.77 27.63 27.02 25.62 24.19 24.05 24.03 24.31 23.68 23.56 22.88 22.27 22.13 22.73 22.45 22.36 23.41 23.79 24.05 26.10 26.68 26.70 25.87 25.03 24.28 23.53 23.26 22.94 22.26 22.13 21.99 21.26 21.26 20.95 19.87 18.43 17.43 18.95
29.42 28.95 28.76 28.54 27.94 26.91 25.82 25.77 25.45 24.88 23.71 22.94 22.49 21.38 20.19 19.64 19.23 19.52 20.07 20.40 19.75 19.53 20.83 21.69 22.37 22.71 22.71 23.09 22.81 22.03 21.26 20.58 20.20 19.56 19.89 19.25 18.88 19.00 18.19 17.64 17.28 16.54 16.50 16.81
26.40 25.76 26.02 25.74 25.44 24.65 23.62 23.08 22.67 22.52 21.91 20.69 19.00 17.72 17.78 17.29 17.74 17.65 18.09 17.11 16.93 16.25 17.45 19.97 21.58 20.27 20.33 21.27 20.69 19.94 18.91 18.20 17.77 17.77 17.43 16.56 15.96 16.06 15.28 14.97 14.45 14.32 14.46 13.75
23.56 24.13 23.30 22.46 23.03 22.52 21.20 21.88 21.70 20.91 20.81 19.44 18.09 16.59 15.38 15.51 16.04 15.60 15.68 14.21 15.94 17.56 19.12 18.94 18.78 18.09 18.11 18.22 18.79 17.61 16.89 16.11 15.25 14.44 14.30 13.35 12.24 11.46 12.13 12.00 11.76 10.61 9.80 9.13
21.44 21.09 20.59 20.44 19.92 20.26 19.80 19.64 18.66 17.25 17.34 16.86 14.87 13.78 13.48 14.59 15.31 15.58 13.60 12.28 15.64 17.30 16.88 16.58 16.30 15.76 16.24 16.03 15.55 14.79 13.64 12.47 11.63 10.42 9.57 8.41 7.27 6.19 5.20 4.39 4.30 3.14 -0.41 -1.86
20.19 19.40 19.13 18.92 18.13 17.85 18.96 19.29 18.68 17.96 17.58 16.44 15.88 15.13 14.11 13.31 13.11 13.09 14.26 13.25 14.67 14.78 14.39 13.67 13.05 12.64 12.62 12.97 12.11 10.86 10.03 8.74 7.33 6.30 4.79 3.90 1.65 -1.29 -3.36 -3.91 -5.31 -4.58 -7.30 -6.39
20.22 20.02 19.61 18.51 17.81 17.69 18.22 17.69 17.26 17.03 15.62 14.55 13.83 13.47 13.04 13.63 13.96 11.53 9.14 13.00 12.65 11.65 11.23 10.19 9.77 9.26 8.66 7.76 6.74 5.37 4.48 3.44 2.12 0.40 -1.49 -4.99 -7.31 -10.74 -10.93 -11.11 -12.92 -13.46 -12.74 -10.02
19.47 19.97 19.12 19.47 18.85 17.02 14.59 16.24 17.33 17.05 16.17 15.79 14.77 14.79 13.85 11.33 11.31 12.37 10.87 8.88 7.48 7.58 7.35 6.32 5.62 5.27 4.41 4.05 3.01 1.08 -0.69 -3.63 -5.36 -8.21 -7.87 -13.10 -18.36 -16.91 -15.82 -18.72 -16.91 -19.81 -18.90 -17.81
16.93 17.08 17.35 16.78 15.63 15.31 15.77 15.68 14.55 14.09 13.63 13.14 13.05 13.60 13.30 13.27 9.52 9.40 8.22 6.73 7.53 4.70 2.98 1.39 0.83 -1.34 -2.58 -4.12 -4.46 -6.39 -8.57 -11.29 -15.46 -16.91 -20.17 -21.26 -22.53 -23.25 -23.62 -22.71 -23.62 -23.25 -23.43 -23.43
15.01 13.90 13.58 14.02 13.78 13.77 13.24 12.05 9.75 10.79 10.41 7.99 7.51 6.95 6.62 6.81 5.77 4.67 2.82 1.48 1.15 -1.45 -4.17 -8.11 -10.04 -10.60 -10.21 -10.02 -13.46 -15.10 -15.64 -12.80 -16.18 -17.27 -21.80 -22.17 -22.71 -21.98 -24.16 -22.89 -25.43 -25.97 -27.42 -25.61
13.08 13.36 12.32 10.74 10.02 8.82 8.15 7.34 5.33 4.02 3.59 2.37 3.09 4.32 1.67 -0.58 -2.11 -1.81 -7.00 -8.00 -9.39 -10.97 -14.37 -15.10 -14.91 -12.19 -13.83 -18.00 -16.18 -19.08 -18.54 -19.99 -21.44 -21.26 -26.15 -25.61 -25.61 -27.24 -27.60 -28.15 -29.42 -30.14 -29.96 -29.78

GFSNGP_sfc_wetblb_075.txt.gz
Wetbulb
36.26 37.40 38.06 37.59 37.74 38.53 37.34 38.00 33.95 37.24 38.33 41.95 45.42 46.65 48.59 50.40 49.03 49.07 49.36 49.57 50.16 52.00 54.26 55.99 55.79 55.83 55.49 55.82 56.06 56.30 55.53 55.08 54.97 55.25 55.60 56.06 56.20 56.37 56.64 57.15 57.32 57.73 57.77 55.70
34.47 38.10 38.03 36.03 38.56 38.55 39.30 39.67 38.82 39.18 38.57 45.01 47.41 47.45 45.21 46.96 48.01 48.12 48.79 49.57 51.23 50.83 52.65 53.90 55.48 55.44 55.63 55.22 55.50 56.14 55.61 54.95 55.72 55.66 55.66 55.17 55.28 55.67 56.10 56.56 57.29 58.00 58.04 56.43
30.18 36.78 36.72 31.05 35.66 38.70 39.18 40.91 40.43 36.87 41.66 45.53 45.68 46.27 46.37 47.15 49.01 48.33 49.19 49.98 50.55 51.39 51.61 53.44 55.14 56.24 55.75 56.14 55.85 55.26 55.16 55.53 55.59 55.82 55.20 55.44 55.62 55.87 56.30 56.95 57.69 56.45 56.39 54.69
30.36 32.15 24.98 35.83 42.11 41.92 39.08 41.11 42.59 42.07 42.68 44.35 45.42 47.74 49.07 49.74 49.56 49.94 50.06 50.35 51.13 51.88 52.59 53.84 54.93 56.61 57.64 56.73 55.66 55.07 55.10 55.03 55.39 55.70 55.64 55.80 55.86 56.43 57.13 56.98 55.92 52.99 50.56 49.96
29.77 29.04 32.93 35.88 38.61 38.17 38.13 38.00 43.06 42.52 44.53 45.56 46.39 46.19 46.29 47.23 48.42 49.90 51.29 50.86 50.69 51.90 52.37 53.35 54.58 55.26 55.84 56.05 55.95 55.30 54.98 55.12 55.35 55.80 55.58 54.62 54.66 53.83 51.24 49.87 48.68 47.34 46.42 45.01
30.27 26.64 24.41 34.36 40.32 44.65 43.17 33.85 43.48 44.65 44.93 44.90 46.51 40.88 44.07 48.23 47.44 47.71 49.01 49.39 49.39 49.77 49.82 51.73 54.54 55.41 55.27 55.54 55.95 55.52 55.94 55.94 56.46 56.22 51.50 50.25 48.46 47.76 46.95 46.77 44.65 43.22 41.66 41.66
29.89 28.03 32.53 39.02 41.94 45.89 32.50 35.64 44.00 44.25 45.62 45.65 44.35 46.08 47.83 48.40 48.54 49.05 49.41 51.75 52.73 52.09 51.69 52.95 54.75 55.70 55.31 55.15 54.72 56.08 54.30 52.16 51.70 51.69 50.58 49.57 47.18 45.20 43.92 40.92 38.23 36.24 34.95 35.61
30.79 28.27 26.20 41.44 42.95 37.94 42.37 45.47 44.51 45.57 46.00 46.71 47.75 47.41 47.95 48.26 48.15 48.91 49.83 51.44 51.94 50.86 49.91 52.10 54.61 55.05 54.06 52.81 51.62 51.67 51.23 50.15 49.16 48.80 47.49 46.46 44.36 40.95 38.84 36.87 33.76 32.00 30.92 30.16
34.70 34.37 40.81 43.40 42.88 44.80 46.41 45.02 45.59 45.69 46.68 47.40 47.65 47.97 47.68 48.03 48.28 48.62 49.59 50.68 50.29 49.44 47.80 49.13 51.76 52.82 49.73 48.96 50.11 48.97 47.60 46.01 44.34 43.21 42.36 41.80 39.43 36.97 35.35 34.97 33.16 31.54 30.32 28.96
35.11 38.76 40.19 41.10 43.06 44.15 44.38 43.91 45.13 46.02 46.69 47.68 47.67 48.84 48.76 48.38 48.85 48.71 49.28 49.47 49.98 48.53 47.32 46.91 48.44 49.04 48.99 47.97 46.81 45.32 43.60 41.93 40.98 38.89 37.32 37.23 37.01 36.15 34.41 33.20 32.02 30.51 29.11 27.15
35.70 38.74 40.12 42.30 42.31 42.45 42.21 44.21 43.96 44.21 46.62 47.60 47.64 47.61 47.04 46.82 47.09 48.09 47.97 48.28 48.42 47.11 45.74 44.95 45.30 45.31 46.22 45.97 44.61 41.34 39.46 37.75 35.79 34.51 33.04 31.21 31.34 32.86 32.31 32.63 32.99 31.12 29.44 27.60
33.69 36.86 36.53 38.37 41.86 41.89 39.80 41.06 41.09 38.53 37.85 39.12 38.28 40.38 42.53 39.39 40.32 41.82 43.92 45.11 44.33 42.95 41.58 39.69 40.14 40.72 42.03 43.09 41.51 38.68 35.80 34.75 33.65 32.75 31.87 31.09 30.00 28.71 30.65 30.15 30.24 30.07 29.10 27.38
36.38 39.41 39.26 40.31 41.86 39.37 37.73 37.67 38.45 35.69 33.71 33.03 33.82 34.21 33.87 32.42 32.44 33.03 34.53 34.26 34.18 35.76 33.90 34.01 32.66 31.78 34.00 36.47 37.48 36.23 34.06 32.57 31.54 31.10 30.33 29.29 28.42 27.13 25.17 28.49 30.17 29.96 29.53 28.91
37.92 37.12 38.30 39.36 38.24 36.94 35.76 35.40 35.66 33.32 31.89 30.27 30.53 30.93 30.50 30.39 30.69 29.98 29.41 30.13 30.90 30.67 31.17 31.43 30.87 30.60 31.88 32.09 31.16 30.08 29.64 29.36 28.50 27.56 27.10 26.76 26.59 26.40 25.85 24.35 23.55 25.12 28.01 27.82
32.22 34.59 35.41 38.30 37.74 34.39 33.18 32.76 31.06 27.86 27.94 27.88 28.14 27.92 28.48 26.75 26.13 26.44 28.12 28.47 28.23 28.03 28.21 28.75 28.42 28.74 30.91 31.56 30.83 29.45 28.71 28.00 27.95 27.88 27.68 27.28 26.87 26.08 25.71 25.50 25.55 24.97 25.71 26.26
31.47 33.40 34.82 34.17 33.51 30.95 30.65 28.93 28.39 26.25 26.86 26.53 25.76 25.55 25.16 24.46 23.41 23.21 23.54 24.17 23.09 22.68 24.21 24.34 24.86 27.00 28.78 28.44 27.57 26.87 26.48 27.10 27.00 26.45 26.35 26.48 26.85 26.87 26.44 25.85 25.33 25.06 24.00 22.52
27.28 28.26 27.99 28.46 29.61 28.11 27.08 27.32 26.62 25.64 24.75 24.59 24.30 24.50 23.47 22.13 21.44 20.61 20.70 21.35 21.00 20.85 22.24 22.30 22.21 24.41 24.81 25.05 24.28 23.67 23.30 23.29 23.68 24.04 24.36 24.17 24.49 23.87 23.67 22.98 21.79 21.18 21.07 20.94
27.54 27.89 27.46 27.06 26.25 26.06 24.85 24.85 24.15 23.47 21.90 21.65 20.98 20.30 19.20 18.71 17.70 18.64 19.40 19.72 18.90 18.10 19.48 20.94 21.63 21.97 21.97 22.53 22.80 22.50 22.45 22.40 21.74 21.11 21.48 21.27 21.02 21.19 20.84 20.09 19.75 18.99 18.93 18.07
25.34 24.78 24.95 24.91 24.71 23.67 23.06 21.95 21.46 21.20 20.45 19.34 17.70 16.35 16.91 17.10 17.54 17.64 18.10 17.10 16.59 15.75 16.87 19.59 20.78 20.18 20.46 21.06 21.61 21.61 20.96 20.11 19.45 18.98 18.58 17.96 18.16 17.70 17.21 17.04 16.43 16.29 16.01 15.39
22.34 23.09 22.37 21.39 21.72 21.13 19.82 20.40 19.85 18.61 18.97 17.93 16.87 16.01 15.38 15.66 16.51 15.76 15.17 13.47 14.99 16.38 17.69 18.07 18.12 17.82 17.85 17.90 18.29 18.40 17.87 17.16 15.94 14.89 14.89 14.06 13.89 13.98 13.53 12.69 13.16 13.05 13.28 13.04
19.81 19.77 19.12 18.81 18.84 19.24 18.86 18.33 16.93 15.59 16.19 15.97 14.44 13.27 13.13 14.04 15.07 15.58 13.63 11.65 14.14 15.59 15.74 14.97 15.44 15.13 15.22 15.37 15.38 15.15 14.43 13.26 12.33 11.53 10.97 10.59 10.41 10.04 9.67 9.85 9.49 9.55 9.68 9.95
19.45 18.61 18.20 17.95 17.49 17.26 17.83 17.77 17.42 16.42 15.87 15.50 15.39 15.03 14.17 13.46 12.35 11.43 11.89 11.20 12.59 12.92 12.75 12.50 11.60 10.90 11.38 11.96 11.55 11.36 10.45 9.81 9.15 9.29 8.39 7.71 7.03 6.22 5.77 5.77 5.51 5.81 5.99 5.99
19.60 19.15 18.59 17.60 16.87 16.76 17.36 16.78 15.96 15.30 13.94 13.61 12.74 12.21 11.21 11.16 11.75 9.73 7.29 10.68 11.39 10.31 10.40 9.30 8.60 8.37 8.48 9.40 8.59 7.79 7.16 6.31 5.68 5.02 4.88 4.60 4.37 4.17 3.96 3.46 3.17 3.22 3.03 3.06
19.00 18.77 18.06 18.39 17.70 16.28 14.35 15.53 15.90 15.50 14.53 14.14 13.46 13.83 12.31 9.82 9.57 11.16 10.45 8.47 6.87 7.05 7.40 6.72 6.14 5.33 6.04 6.52 5.48 4.83 4.24 3.77 3.43 3.26 1.71 0.47 2.05 1.74 1.31 0.64 0.51 1.21 0.18 -0.83
16.39 16.43 16.70 15.97 14.88 14.76 14.85 14.59 13.65 12.97 11.81 10.85 10.83 10.80 10.74 11.11 8.86 8.21 7.90 6.42 5.80 5.23 4.59 1.00 1.05 1.49 4.00 3.64 2.86 2.15 1.84 1.89 1.61 1.72 1.01 0.13 -0.40 -0.79 -0.05 -0.98 -2.65 -2.48 -3.01 -3.35
14.60 13.29 12.74 12.94 13.18 13.64 13.12 12.56 10.86 11.32 10.35 7.99 6.98 6.79 6.36 6.62 5.69 5.18 3.13 1.85 1.59 0.56 1.06 1.21 0.99 2.04 1.72 1.15 0.85 0.49 1.24 1.09 0.88 -0.26 -0.96 -1.02 -1.48 -1.74 -3.73 -4.62 -5.42 -5.55 -6.03 -6.38
12.96 13.36 12.21 10.60 10.04 9.25 9.14 8.99 8.25 6.58 6.49 6.01 4.39 4.91 3.88 3.51 2.11 2.14 -0.68 0.67 -0.09 -0.83 -0.73 -0.37 0.74 -0.21 0.85 1.06 0.53 -0.13 -0.04 -0.70 -4.63 -1.68 -2.54 -2.77 -3.86 -4.65 -6.54 -6.88 -6.88 -7.23 -7.25 -7.78

GFSNGP_sfc_wetblb_078.txt.gz
Wetbulb
39.19 40.24 39.77 39.36 39.39 40.44 39.15 40.62 37.41 40.16 40.94 44.47 46.98 48.30 49.63 50.94 52.07 52.80 53.26 54.11 54.99 56.11 59.39 60.43 60.47 60.58 60.42 60.48 60.10 60.26 59.59 59.15 59.59 59.28 59.64 59.71 59.30 59.39 59.75 59.75 58.93 59.01 58.75 59.62
35.07 39.15 39.19 37.27 40.19 41.05 41.28 41.48 41.77 42.67 42.05 48.40 49.62 50.45 49.79 50.13 50.38 50.69 51.74 53.44 54.50 55.35 56.22 58.53 60.08 60.68 60.43 60.38 60.18 60.11 59.40 59.55 59.87 59.73 59.21 58.90 59.32 59.49 59.58 59.63 59.29 59.58 59.32 59.67
31.99 37.51 37.66 33.55 38.60 40.44 41.89 44.66 44.10 40.33 43.29 47.24 46.96 47.50 49.32 50.68 51.34 51.34 51.76 53.40 54.30 54.91 55.00 56.40 58.61 60.54 60.62 60.64 60.97 59.89 59.56 59.71 59.75 59.83 59.11 59.21 59.07 58.76 58.24 58.54 59.13 58.66 59.31 59.04
33.04 34.66 26.18 38.56 43.66 44.49 43.39 43.56 45.69 45.17 45.79 48.29 48.99 50.63 51.97 51.90 51.95 51.73 52.39 53.21 54.67 56.02 55.89 56.66 57.90 59.65 61.00 61.40 60.23 59.76 59.52 59.51 59.71 59.28 59.04 59.23 58.95 58.47 58.68 58.69 58.46 58.93 58.71 59.09
30.77 30.86 35.17 37.89 40.68 41.06 40.30 39.94 45.77 45.03 47.03 49.10 50.68 51.62 50.88 52.40 53.04 52.52 53.12 53.80 53.64 55.30 55.68 55.83 56.14 57.72 59.84 60.77 60.36 59.53 58.91 59.03 59.14 59.16 58.54 58.52 58.29 58.26 58.72 58.48 58.39 58.33 57.68 56.80
32.69 27.47 25.86 37.04 43.47 46.80 45.20 36.34 45.86 46.82 46.18 46.33 48.86 45.15 48.63 52.23 53.28 53.60 54.53 55.35 55.26 55.55 56.16 55.96 56.00 56.51 57.41 58.90 59.45 58.72 59.07 59.31 59.87 59.71 58.83 58.44 58.45 58.17 55.97 56.85 54.12 47.74 44.11 44.96
31.22 30.60 34.75 41.68 44.01 46.99 34.62 37.16 45.54 46.70 46.23 45.82 45.28 46.99 50.70 52.39 52.93 54.21 54.59 55.19 56.15 56.41 54.89 55.86 56.83 57.29 56.62 57.30 57.86 59.68 60.38 60.15 59.48 59.10 58.06 57.25 55.95 52.57 48.91 44.08 40.96 37.83 36.02 36.89
32.03 29.09 27.33 44.67 43.82 38.44 42.82 46.17 46.94 47.65 48.08 48.09 49.07 49.75 49.73 51.69 52.51 53.11 53.10 54.88 55.77 55.22 53.73 53.48 55.37 56.58 56.82 57.21 58.36 57.73 57.35 56.63 56.74 56.64 52.68 50.95 47.65 44.80 42.04 39.58 36.24 34.48 33.03 31.88
36.44 36.32 44.00 45.64 44.62 47.08 47.57 46.36 47.14 47.75 48.68 48.85 49.08 49.45 50.75 51.24 52.21 52.72 53.35 54.62 54.78 53.88 51.31 50.54 51.67 53.67 54.49 52.63 54.49 54.77 53.70 51.13 48.42 47.27 45.55 44.94 43.53 40.76 37.93 38.01 35.85 32.95 31.92 30.15
37.59 41.59 42.99 44.44 46.34 46.97 46.74 46.10 47.61 47.23 46.78 48.79 47.90 50.17 50.84 51.56 51.56 51.19 52.50 52.99 54.11 53.05 50.25 47.08 48.06 47.94 49.95 49.18 49.88 47.18 44.40 42.28 41.38 40.27 39.29 38.19 37.79 37.79 36.54 34.74 32.95 31.28 29.99 27.90
38.50 41.53 43.02 44.46 45.06 45.31 45.12 46.50 45.79 45.16 44.19 43.53 43.07 45.02 45.49 46.75 45.98 46.23 48.14 49.44 50.74 50.10 46.61 44.82 44.12 43.14 43.97 45.16 45.18 42.12 40.04 39.13 37.15 35.50 33.64 31.76 31.59 33.98 33.58 34.13 33.84 31.52 29.76 28.32
36.18 41.19 40.32 41.63 44.42 43.05 43.16 43.51 43.43 42.00 40.85 41.08 40.16 40.13 40.65 40.37 40.78 40.61 41.60 40.90 39.50 38.35 38.56 38.62 37.34 36.76 37.49 39.76 40.34 38.17 35.79 34.99 33.83 33.16 32.63 30.99 29.56 29.03 30.90 31.07 31.22 30.93 29.79 27.88
38.76 40.69 41.25 43.45 44.65 42.75 41.37 41.22 40.98 40.10 38.39 36.93 38.08 37.74 37.56 36.27 34.14 35.37 36.56 35.62 34.16 33.11 32.75 33.25 33.70 35.85 34.07 34.18 35.11 34.77 33.08 32.80 32.46 31.69 30.26 29.27 28.56 27.86 25.91 28.72 30.09 29.44 29.34 29.39
35.78 36.44 38.69 38.17 36.43 38.84 39.02 38.51 38.24 36.71 35.97 34.50 34.95 35.29 34.41 32.72 32.24 30.38 29.65 30.38 30.96 30.51 30.23 30.38 30.02 29.24 32.03 33.46 33.03 32.06 31.42 30.55 30.14 29.90 28.64 27.77 27.56 27.26 26.87 25.43 24.19 25.24 28.56 28.78
32.90 34.35 34.46 36.92 36.74 33.59 33.76 33.02 32.31 30.09 29.64 30.01 31.11 29.21 29.82 27.41 25.74 25.18 26.77 27.32 26.99 26.30 25.93 26.23 26.56 27.38 30.10 30.16 30.19 30.31 30.40 29.09 28.81 28.38 28.18 27.85 27.17 26.62 26.25 25.87 25.40 25.26 25.97 26.94
31.51 34.59 34.19 32.56 31.76 30.97 30.27 28.97 28.22 27.47 27.78 27.77 26.91 26.00 24.89 24.31 23.15 22.50 22.61 22.91 21.89 21.40 22.67 23.32 23.85 25.37 27.11 27.22 26.89 26.42 26.46 26.91 27.18 27.16 27.44 27.62 27.40 27.43 27.00 26.74 26.62 26.03 25.19 25.03
27.03 28.88 28.85 30.02 29.69 29.47 28.28 28.23 27.86 26.20 25.33 24.44 24.21 24.10 22.77 21.66 21.14 20.26 20.19 20.33 20.47 20.48 21.61 22.17 22.08 24.40 25.24 25.52 26.58 25.89 25.32 25.68 26.28 26.83 26.41 26.09 25.73 26.34 25.83 24.99 23.60 22.11 21.69 23.65
27.93 28.37 28.07 27.57 27.59 26.59 25.89 25.68 24.70 23.34 21.81 21.59 21.34 20.19 19.53 19.13 18.12 18.66 19.37 19.90 19.34 17.92 19.06 20.66 22.10 22.91 23.60 25.13 26.25 26.03 25.37 23.95 23.35 23.04 23.44 23.21 22.96 23.56 23.22 23.11 22.16 20.59 20.09 20.19
26.22 25.47 25.56 25.63 25.56 25.07 23.99 22.62 21.64 20.76 20.19 19.90 18.89 17.91 18.54 18.37 18.79 18.47 19.01 18.70 18.19 17.23 17.78 20.59 21.34 21.09 21.53 23.05 24.51 23.76 22.52 21.54 21.29 20.73 20.87 20.87 21.04 21.04 20.82 20.44 19.65 19.53 19.15 18.69
23.70 24.26 23.66 22.90 23.66 22.88 20.83 21.09 20.84 19.89 20.10 19.39 18.81 18.10 17.28 17.45 17.80 17.05 16.55 15.03 15.55 16.17 17.82 19.37 19.54 19.00 19.32 20.03 20.39 20.44 19.87 19.15 18.31 17.71 17.65 17.84 18.15 17.40 16.88 16.36 17.45 17.64 17.28 16.42
21.18 21.03 20.10 20.04 19.58 19.60 19.39 19.66 18.13 17.20 17.71 17.64 15.75 14.30 13.58 14.11 16.36 17.94 16.42 14.35 14.86 16.18 16.41 15.29 16.53 17.12 17.16 17.98 17.98 17.55 17.77 17.19 16.40 15.61 15.42 15.58 15.53 15.01 14.63 14.63 14.42 14.42 14.13 14.20
20.62 19.59 19.08 19.02 18.23 17.64 18.41 18.59 17.94 17.21 16.70 16.36 16.76 16.37 15.17 14.56 13.77 12.86 13.24 13.82 14.48 13.80 14.60 14.49 13.93 12.60 14.65 14.81 15.23 14.88 14.63 14.40 13.82 13.86 13.32 13.17 12.69 12.07 12.27 12.16 11.70 12.04 12.16 11.99
20.46 20.04 19.36 18.14 17.41 17.33 17.46 16.89 16.65 16.30 14.74 13.88 13.18 12.99 12.82 13.42 14.51 13.33 9.88 12.64 13.87 12.48 13.28 11.96 10.46 10.57 11.42 13.85 13.35 12.51 11.70 11.01 10.44 10.63 10.67 10.75 10.73 10.04 9.61 9.06 9.40 9.55 8.91 8.62
19.87 19.55 18.90 19.41 19.13 17.37 14.87 15.88 16.04 15.74 14.60 14.36 14.23 14.58 14.91 13.61 13.18 14.47 13.38 10.61 9.18 9.61 9.44 9.24 9.08 9.08 10.21 11.43 10.90 10.57 10.68 10.53 10.16 9.83 8.81 7.26 8.84 8.02 7.81 6.82 6.75 7.80 6.44 5.52
18.99 19.01 18.97 18.27 17.25 16.09 16.25 16.11 15.23 14.74 14.10 13.39 13.20 13.22 13.04 13.67 12.00 11.63 11.23 9.67 8.65 9.88 9.22 6.15 6.64 7.32 9.65 9.35 8.99 8.47 7.83 7.90 8.34 8.26 7.56 7.26 7.05 6.52 6.86 5.97 4.65 4.18 4.49 4.65
17.67 15.88 15.24 15.63 16.40 16.65 16.59 16.91 14.97 14.82 13.64 11.57 11.36 11.76 11.63 11.49 10.75 10.36 8.81 7.63 8.17 7.83 8.80 8.22 7.93 9.05 8.77 8.15 7.54 7.17 7.95 7.89 7.08 6.06 5.87 5.91 5.57 5.02 3.75 2.87 2.77 2.97 2.70 2.36
17.00 17.21 16.45 15.12 14.86 14.63 15.30 15.18 13.77 12.32 12.79 11.83 9.78 10.65 10.36 10.01 8.64 8.71 7.33 8.54 8.11 7.75 7.80 7.83 7.46 5.95 6.88 7.62 7.21 7.17 7.64 6.75 1.50 4.83 5.28 4.99 4.28 4.02 1.99 1.67 2.04 1.89 1.35 0.66

GFSNGP_sfc_wetblb_081.txt.gz
Wetbulb
40.86 42.06 41.25 41.17 41.58 43.00 41.76 42.30 38.48 41.58 42.54 46.00 48.25 49.02 50.33 51.43 51.94 51.95 52.47 54.06 55.29 55.96 58.18 61.08 61.60 61.94 62.30 62.75 62.86 62.54 61.38 60.84 61.21 62.78 62.28 61.51 61.72 62.09 62.43 62.37 61.96 61.81 61.66 61.47
36.20 39.85 40.90 38.86 41.02 42.02 42.25 42.51 42.57 42.80 42.42 48.77 50.60 51.49 50.41 50.71 50.89 50.93 52.08 53.58 54.60 55.62 56.35 57.63 61.19 61.96 62.04 62.28 62.74 63.03 62.20 61.94 61.65 62.02 61.74 61.35 61.98 61.71 61.48 61.38 61.53 61.43 60.87 60.76
32.32 38.40 38.52 34.93 39.77 40.78 41.63 43.51 43.21 39.89 44.64 47.49 47.01 48.20 49.56 50.00 50.55 50.97 52.69 53.80 54.28 55.50 56.88 57.35 58.20 61.67 62.25 62.48 62.95 62.50 62.23 61.82 61.90 62.12 61.36 61.39 61.40 61.03 60.94 60.89 61.15 60.41 60.45 60.30
33.34 35.53 27.00 39.74 44.92 44.49 43.37 44.51 46.30 46.51 47.07 48.10 48.51 50.36 51.42 53.05 52.53 52.45 53.15 53.73 54.54 55.43 55.88 57.51 58.52 59.27 61.43 62.73 62.59 62.15 61.55 61.37 61.88 62.35 61.89 61.94 61.36 60.62 60.70 61.16 60.83 60.71 60.55 60.78
30.70 31.33 35.88 38.86 41.75 41.56 41.13 42.27 47.31 45.98 47.35 48.55 49.42 50.91 51.31 53.61 53.81 53.86 54.56 55.37 56.17 57.45 58.07 58.17 57.59 57.64 58.76 60.35 61.49 61.60 61.19 61.37 61.75 62.22 61.75 61.89 61.37 61.07 61.32 60.73 60.24 59.81 60.29 59.81
33.81 28.31 26.02 37.77 44.19 46.95 45.93 37.42 47.43 47.07 46.49 46.54 47.43 43.86 48.21 52.29 53.22 54.10 55.30 55.81 56.21 57.64 58.66 58.73 58.69 58.89 57.41 57.29 59.28 60.65 61.17 61.50 62.00 62.17 61.82 61.20 61.36 61.46 61.64 60.53 59.35 58.09 55.95 51.31
31.91 30.72 35.43 43.03 45.13 46.83 35.36 37.55 45.69 47.07 47.26 47.43 46.17 48.22 50.73 52.09 52.50 54.67 55.31 55.27 56.47 57.31 57.31 57.06 57.34 57.89 57.31 57.27 56.85 59.12 61.67 62.11 61.53 61.58 60.49 61.06 61.14 61.51 60.43 55.73 47.94 42.63 39.02 37.40
32.81 29.67 27.60 44.77 44.24 39.56 44.06 46.65 47.78 47.96 48.16 47.35 49.07 50.34 51.08 51.43 52.48 54.01 54.57 54.77 55.89 56.09 55.56 54.04 54.31 55.21 56.43 57.27 57.84 58.33 59.47 60.55 60.54 60.91 60.04 58.63 59.97 54.83 49.93 45.23 39.09 34.70 33.24 32.65
36.33 36.72 45.15 47.80 44.45 47.58 48.40 47.07 47.90 47.88 47.86 48.08 47.96 48.91 51.03 51.78 53.03 53.56 53.98 54.58 55.04 55.39 54.30 50.56 49.18 48.56 50.22 51.08 54.22 55.44 55.20 51.73 49.15 47.02 46.35 46.67 46.74 43.95 41.35 40.07 37.15 33.71 32.04 30.55
38.45 42.97 43.88 44.19 46.40 47.70 47.82 47.45 47.82 48.14 47.59 47.45 45.78 47.19 47.62 50.16 49.94 49.70 51.08 50.56 50.68 48.38 45.08 42.83 42.60 42.26 42.49 44.83 46.58 45.20 43.55 42.25 41.21 39.99 38.70 38.72 38.64 39.07 38.84 37.11 34.82 32.75 30.45 28.50
39.65 41.95 44.05 45.82 46.06 45.65 46.30 47.28 46.60 47.01 46.58 45.48 44.85 44.54 44.45 46.14 44.86 45.41 46.37 45.32 44.30 40.62 38.07 36.92 37.71 37.60 38.58 41.30 42.18 40.46 38.33 36.53 35.24 33.72 32.65 31.55 31.17 32.73 33.05 33.39 33.60 31.49 29.37 28.07
37.22 42.00 42.73 43.80 44.69 45.01 44.60 43.88 44.16 44.05 43.39 44.11 43.55 42.41 42.73 42.59 40.86 39.97 40.32 38.49 38.89 35.48 33.70 32.77 33.10 33.64 34.50 37.63 37.67 35.86 33.65 33.11 32.34 31.59 31.15 30.46 29.34 28.26 30.91 30.86 31.11 30.80 30.01 28.21
37.52 40.15 42.10 43.79 41.65 40.47 39.96 42.14 42.27 41.86 41.38 40.02 40.93 40.57 40.20 38.83 36.40 35.13 34.51 32.77 32.21 30.66 31.01 30.77 30.26 30.33 31.87 34.86 35.41 33.99 32.29 31.78 30.85 30.58 30.06 28.88 28.15 27.20 25.31 28.38 30.38 30.04 30.01 29.91
38.89 39.12 39.42 39.68 36.74 37.12 37.00 37.55 38.08 36.01 34.58 33.66 33.35 34.95 36.27 34.28 32.01 30.73 28.69 28.22 28.13 27.42 27.04 26.92 26.89 27.15 29.68 31.64 31.62 32.46 32.17 31.54 30.14 29.08 28.57 27.88 27.33 26.86 26.27 24.93 24.02 25.41 29.31 29.34
35.67 36.40 36.72 37.35 37.49 37.20 37.16 36.16 35.01 31.73 31.14 30.07 29.38 28.19 27.78 27.36 25.05 24.62 25.18 25.79 25.27 24.33 24.15 24.62 24.92 25.44 28.03 28.50 28.14 28.83 29.45 28.84 28.75 28.29 27.96 27.71 27.22 26.97 26.05 26.03 24.73 24.68 25.91 26.68
34.37 36.41 35.58 34.17 34.29 34.79 34.89 34.02 32.77 30.67 30.24 29.19 26.31 25.36 24.98 23.74 22.36 21.89 22.13 22.22 21.18 20.76 22.18 22.84 23.71 26.16 27.46 27.75 27.53 27.21 27.51 27.96 28.28 28.26 28.58 28.36 28.14 27.60 26.81 26.05 25.18 24.79 24.22 24.41
30.11 30.08 30.34 30.24 30.30 30.80 30.07 29.73 28.76 27.98 27.40 26.60 25.74 26.11 24.47 22.96 21.58 20.81 20.58 20.58 20.57 20.72 21.43 21.95 22.38 25.17 26.92 27.73 26.74 26.58 27.13 27.30 27.03 27.37 26.94 26.98 26.92 25.26 24.66 23.71 22.34 22.03 22.54 23.92
30.21 29.68 28.93 28.43 28.01 28.36 27.80 27.06 25.88 25.04 23.15 23.00 22.97 21.89 20.71 20.55 19.74 20.72 22.07 22.70 21.98 20.80 21.64 22.40 23.29 24.22 25.47 26.23 26.23 25.77 24.82 25.17 25.53 25.11 24.94 24.98 24.73 24.63 23.67 22.76 21.55 20.52 20.66 21.63
27.79 26.74 26.78 26.58 27.14 26.63 25.67 24.08 23.27 22.72 22.08 21.24 19.73 18.42 18.63 18.24 18.46 18.41 20.10 19.61 19.06 18.23 20.09 22.40 23.05 22.91 23.26 24.66 25.30 24.71 23.44 22.65 22.13 21.85 21.32 21.05 21.39 21.70 21.06 20.59 20.12 19.70 19.24 18.48
24.96 25.10 24.59 24.08 24.77 24.37 22.85 23.52 23.22 22.07 22.11 21.31 19.70 18.63 17.64 18.48 19.17 18.13 16.95 15.28 16.35 17.68 18.49 20.52 21.07 20.90 21.03 22.01 23.05 23.12 22.08 21.00 19.68 19.62 19.90 19.58 19.06 18.86 18.53 17.78 18.08 17.60 17.20 16.49
21.88 21.70 20.95 20.83 20.50 20.84 20.76 21.09 20.04 18.63 18.84 18.77 16.70 15.15 14.59 14.77 14.93 18.63 17.14 14.43 15.15 17.14 17.29 16.48 17.75 19.14 19.41 20.34 20.72 20.27 19.28 18.89 18.63 17.87 17.24 16.89 16.85 16.56 16.36 16.33 16.18 16.43 16.02 15.72
21.51 20.31 19.73 19.40 18.64 18.37 19.54 19.58 18.63 17.95 17.75 17.38 18.19 18.73 18.17 17.10 15.48 13.68 13.84 13.97 15.47 15.08 15.66 15.14 15.33 14.59 16.87 17.29 17.77 17.22 16.82 16.60 16.39 16.36 15.82 16.07 15.27 14.62 14.30 14.35 14.24 14.28 14.11 13.59
21.52 20.83 19.94 18.69 17.99 17.91 18.03 17.30 17.03 16.57 15.53 15.36 15.01 14.78 14.21 14.32 14.93 13.13 10.00 12.92 14.04 13.27 14.14 12.83 12.55 13.36 14.29 16.64 16.48 15.61 14.80 14.12 14.09 13.83 13.73 13.66 13.63 12.76 11.84 11.63 12.15 11.80 10.69 11.01
21.11 21.00 20.52 20.69 20.06 18.21 15.95 17.17 17.13 16.68 15.93 15.40 14.55 15.55 16.71 14.93 13.61 14.80 14.37 12.46 10.78 10.27 9.90 10.63 11.34 11.86 12.82 14.45 13.93 13.78 13.88 13.73 13.40 13.06 12.28 11.10 12.22 11.57 10.89 9.59 9.48 10.52 9.49 8.49
21.19 21.26 21.29 20.47 19.04 18.03 17.92 18.14 17.44 16.90 16.13 15.57 14.93 14.46 13.81 14.21 12.65 12.48 13.28 12.40 11.89 12.95 12.31 10.23 10.47 10.99 12.65 12.71 12.52 11.84 10.75 9.82 10.61 11.33 11.26 10.63 10.12 9.24 9.24 8.68 7.41 6.72 7.67 7.80
21.01 19.54 19.17 19.33 19.59 19.73 19.87 19.36 17.19 17.04 16.03 14.13 14.14 14.32 14.01 14.26 13.72 13.56 12.02 11.13 11.66 11.28 11.87 10.95 9.91 12.06 11.91 10.94 10.64 10.45 10.78 10.47 10.06 9.18 9.21 9.07 8.70 8.35 6.94 6.21 6.60 6.81 6.56 5.91
20.50 20.41 19.79 18.49 18.65 18.75 19.05 18.45 17.40 15.63 15.54 14.84 13.01 14.02 13.81 13.43 12.09 12.19 11.58 12.50 12.20 12.03 11.96 11.82 11.02 9.16 10.13 11.08 10.49 10.77 10.88 10.19 4.11 6.89 8.44 7.99 7.60 7.51 5.68 5.36 5.55 5.37 5.18 4.34

GFSNGP_sfc_wetblb_084.txt.gz
Wetbulb
37.87 39.39 39.50 39.81 38.77 39.64 39.34 40.45 36.60 39.61 40.64 44.19 47.24 48.87 50.21 51.40 51.62 51.46 51.79 52.78 53.83 54.45 55.57 59.85 60.17 61.08 61.69 61.72 61.51 60.73 59.15 58.95 59.42 60.09 60.37 60.67 60.30 59.75 59.75 59.93 60.12 59.88 58.99 58.33
34.18 39.66 39.45 37.36 39.61 40.26 40.85 41.26 42.09 42.23 41.72 48.21 50.08 49.98 50.14 50.22 50.47 50.38 51.58 52.95 53.98 54.64 55.01 55.52 56.80 60.29 60.99 61.51 61.70 61.47 60.01 59.03 59.59 60.08 60.31 59.94 59.62 59.62 59.52 59.47 59.44 59.17 58.67 58.49
30.12 37.06 37.56 33.74 38.65 40.39 40.98 42.53 42.14 38.36 43.73 48.06 47.38 47.82 48.65 49.52 51.16 50.95 51.96 52.74 53.70 54.37 54.96 55.52 55.71 57.23 60.60 61.36 62.03 61.81 60.79 60.85 60.38 59.87 59.55 59.97 59.71 59.06 59.04 59.07 59.29 58.44 58.03 58.10
30.97 33.53 26.21 38.43 44.40 44.09 42.27 43.26 44.33 44.89 45.79 47.22 47.83 49.31 51.09 52.01 51.08 51.33 52.29 53.12 53.89 55.05 55.82 56.91 57.35 57.45 57.76 58.75 61.42 61.22 60.93 61.00 61.27 60.68 59.69 59.71 59.65 58.81 58.32 58.54 58.25 58.27 58.36 58.42
29.78 29.69 34.24 37.43 41.00 40.42 39.63 39.67 46.36 45.51 45.82 46.80 47.95 48.81 49.28 51.25 51.61 51.67 52.71 53.52 53.71 55.38 56.38 56.68 56.55 56.94 57.20 57.44 56.56 60.60 60.71 60.79 61.14 60.95 60.23 59.88 58.93 58.60 58.80 58.36 57.93 57.72 57.78 57.36
32.88 26.56 24.68 36.15 41.76 46.28 45.16 35.14 45.73 46.07 45.00 45.53 46.63 41.53 45.26 50.08 50.91 51.27 53.23 54.57 54.24 55.90 56.09 54.48 54.27 55.13 55.67 56.88 57.28 57.02 58.40 60.81 61.36 61.14 60.33 59.72 59.68 59.09 58.82 59.01 58.26 58.05 56.60 50.85
30.79 29.26 34.06 41.28 44.82 46.40 34.48 36.41 45.94 46.70 46.01 45.98 44.11 46.07 49.29 51.38 51.34 52.68 53.71 54.19 55.13 55.65 52.74 50.82 49.81 50.67 53.62 53.77 52.41 55.36 57.76 58.05 58.96 60.88 60.22 60.15 59.58 59.45 59.00 58.29 52.01 43.90 38.11 37.40
31.93 28.96 26.80 44.65 43.33 38.61 43.33 46.30 46.12 46.53 46.09 45.65 46.39 47.48 49.00 50.18 50.97 51.64 51.84 52.41 52.83 52.50 49.04 45.56 44.52 44.18 45.56 45.24 47.81 50.42 52.77 50.68 49.54 50.07 52.78 55.81 56.42 49.67 47.85 44.79 39.67 35.58 33.74 32.47
34.56 34.33 43.31 46.60 45.68 47.23 47.42 46.09 45.88 45.63 45.98 45.99 45.56 46.05 46.91 47.69 48.22 48.33 48.24 47.32 47.15 45.85 44.51 42.09 40.63 39.72 38.89 40.73 44.63 44.54 42.85 41.61 41.03 41.94 41.89 42.59 46.41 44.98 42.07 40.25 36.99 33.82 32.62 30.56
37.66 40.43 42.24 44.20 45.34 46.22 46.65 45.28 45.86 46.15 45.75 45.35 43.78 44.58 44.12 45.79 44.22 44.55 44.44 42.06 42.21 40.21 37.84 35.93 36.63 36.17 35.80 37.86 41.53 39.15 37.14 36.02 34.89 33.91 33.63 34.15 35.55 36.19 36.31 35.58 34.13 32.96 31.41 29.13
39.02 40.86 42.18 41.98 43.24 43.88 44.44 44.46 43.76 44.99 44.16 42.98 42.79 42.19 42.32 42.23 39.86 39.64 39.20 37.65 37.57 35.32 33.97 32.68 33.36 33.15 34.46 36.18 38.02 36.69 34.76 33.60 32.52 31.81 30.81 29.34 29.09 30.05 31.57 31.86 33.83 31.82 30.18 28.73
35.96 38.83 39.28 38.70 41.45 43.07 42.30 41.83 41.98 41.59 41.18 41.90 40.39 39.77 40.26 39.20 36.16 35.27 33.64 32.97 31.48 30.63 30.09 29.73 30.06 30.17 31.71 34.93 35.57 34.55 32.79 31.85 31.30 30.86 30.14 29.28 27.68 27.37 30.62 30.31 30.43 30.31 29.87 28.63
35.77 38.91 41.73 41.16 39.33 39.63 38.97 39.13 39.38 38.23 36.66 34.96 35.32 35.59 35.87 34.47 31.70 31.39 30.09 28.33 27.49 27.18 27.15 27.39 27.34 27.59 29.41 31.70 32.75 32.10 31.36 31.33 30.39 29.76 29.14 28.60 27.76 26.79 25.00 28.31 30.53 30.51 30.54 30.54
37.69 38.41 37.68 37.46 35.19 38.30 38.25 38.18 38.92 36.86 34.84 32.98 32.04 31.78 30.46 28.29 26.69 25.19 25.13 25.66 25.58 25.54 25.17 25.72 26.02 26.30 28.40 29.92 30.41 29.52 28.58 28.30 27.96 27.65 27.28 26.82 25.99 25.64 25.67 24.46 23.76 25.13 28.49 28.58
34.80 37.71 37.15 37.61 37.44 36.74 37.25 36.39 35.54 32.84 31.41 29.77 29.40 27.21 26.16 23.53 22.08 21.21 22.13 23.63 23.51 23.24 23.60 24.46 25.45 25.94 28.47 28.86 28.34 28.44 28.51 28.16 27.78 27.24 27.03 26.77 26.32 26.03 25.16 24.40 23.91 23.56 24.77 25.94
33.71 36.32 34.09 33.20 32.91 33.09 32.63 31.05 29.82 28.85 28.55 27.98 26.43 25.10 24.13 23.33 21.90 21.52 21.61 21.57 20.01 19.75 21.71 22.80 24.27 26.30 28.11 28.18 27.30 26.90 27.07 27.95 28.33 28.01 27.94 27.07 26.09 24.58 23.92 23.58 23.58 23.62 23.80 23.46
28.61 27.73 28.41 28.00 28.33 29.15 28.11 27.87 27.07 25.85 25.21 24.29 24.33 24.81 23.68 22.83 22.38 21.68 21.35 21.52 21.30 21.04 21.58 21.81 22.75 25.55 26.87 26.50 25.82 25.79 25.55 25.38 26.05 25.52 24.82 24.04 22.84 21.44 21.04 20.43 19.61 19.64 20.15 21.43
29.12 28.30 27.69 27.35 27.18 27.61 26.26 25.32 24.32 23.40 22.31 22.36 21.90 21.27 19.34 19.26 18.68 18.75 19.08 19.62 18.97 18.09 20.14 21.59 22.32 23.56 24.79 24.99 25.34 24.55 23.55 22.73 22.48 21.82 22.52 22.24 21.99 21.96 21.12 20.00 19.26 18.31 18.45 19.13
26.62 25.72 25.69 25.82 26.66 25.13 23.84 22.86 22.39 22.16 21.29 20.23 18.93 17.52 17.31 16.92 16.56 15.90 16.36 15.23 14.37 13.03 14.72 20.28 21.83 21.37 22.17 23.63 23.48 22.94 21.95 21.39 20.98 20.41 19.89 19.52 19.51 19.48 18.82 17.96 17.24 16.84 16.40 15.70
23.12 23.46 22.85 21.85 22.72 22.68 21.05 21.48 20.68 19.75 20.29 19.20 16.96 15.36 13.73 15.65 17.91 15.69 14.63 13.04 14.04 14.78 15.72 16.23 18.72 18.60 19.84 20.52 20.93 20.72 20.80 19.86 18.27 17.75 17.69 17.95 17.52 17.13 17.02 16.69 16.34 15.66 14.95 14.61
20.37 20.26 19.06 19.07 19.26 19.68 19.58 19.28 18.03 16.90 17.56 17.55 15.98 14.60 13.58 13.76 13.44 15.28 13.86 11.27 13.39 15.26 15.40 15.35 15.56 17.08 17.81 18.34 18.61 18.51 18.15 17.23 16.65 16.21 15.88 15.12 14.62 14.38 14.13 13.97 13.89 13.66 13.16 12.97
20.15 19.07 18.36 18.09 17.34 17.21 18.12 18.12 17.38 16.56 16.01 15.28 15.17 16.08 16.27 15.21 13.56 11.58 11.74 12.15 13.75 13.64 13.74 13.97 14.81 15.37 16.82 16.72 16.42 15.88 15.46 14.92 14.53 14.32 13.60 13.50 12.87 12.18 11.84 11.82 11.25 11.25 11.05 10.73
20.28 19.42 18.64 17.64 16.61 16.16 16.70 16.62 16.42 15.92 14.92 14.98 15.57 14.86 13.49 13.33 13.25 10.17 7.56 11.28 12.00 11.89 12.46 12.22 12.57 13.83 14.31 15.37 15.37 14.56 13.38 12.40 12.04 12.19 11.71 11.28 11.16 10.04 9.31 9.56 9.40 8.86 6.10 8.60
20.58 20.20 19.58 19.63 19.20 17.78 15.58 16.51 16.69 16.06 15.33 14.21 13.51 12.89 15.23 13.21 12.69 13.62 13.47 11.93 10.62 10.54 10.83 11.50 11.62 12.61 13.03 12.97 11.75 10.61 11.30 11.85 11.22 11.22 10.82 9.28 9.99 9.39 8.01 6.77 6.59 7.26 5.55 5.25
21.50 21.38 20.58 19.78 18.40 17.20 17.43 17.72 17.59 16.91 15.79 14.78 14.45 14.01 13.45 13.10 11.42 11.66 13.20 12.22 12.57 11.96 10.86 9.72 11.22 10.97 11.63 11.00 10.97 11.07 9.47 7.88 8.26 9.58 8.88 8.39 7.95 6.71 6.49 6.08 2.56 2.72 4.24 4.51
21.07 19.55 19.51 20.32 20.32 20.47 20.25 19.70 17.13 16.92 15.91 13.77 13.50 13.77 13.76 14.27 13.95 13.50 12.31 12.06 11.95 11.55 11.66 10.30 8.86 10.60 11.43 10.38 10.39 10.32 8.49 6.70 8.03 7.82 7.48 7.12 7.05 6.22 3.63 3.00 3.62 3.65 2.80 1.77
21.12 20.71 19.73 18.67 18.72 18.27 18.31 17.94 16.86 15.33 15.52 14.47 12.52 14.19 13.87 13.47 12.63 12.60 11.95 12.97 12.33 12.43 12.16 12.07 10.51 7.85 9.24 9.53 9.43 9.57 9.68 7.15 2.25 5.13 6.82 6.14 5.85 4.93 2.70 2.34 2.50 1.83 1.55 0.67

GFSNGP_sfc_wetblb_087.txt.gz
Wetbulb
35.90 37.62 37.30 36.12 36.82 37.97 37.24 37.87 35.36 37.85 38.48 42.43 44.48 46.66 48.23 49.81 49.73 50.18 50.67 51.42 51.93 52.01 50.91 51.69 54.01 56.26 58.41 58.38 57.84 57.51 56.89 57.67 56.62 56.78 57.11 57.13 56.84 57.53 58.27 58.32 57.30 56.00 54.82 54.34
31.54 36.68 37.86 36.11 38.21 38.12 37.52 39.41 39.87 39.94 39.29 46.58 47.57 48.64 47.94 48.93 48.87 48.83 49.84 50.84 52.54 53.00 54.20 53.52 53.87 53.91 56.20 58.18 58.43 58.25 57.03 56.66 57.94 58.02 57.82 57.41 57.42 57.46 57.55 57.84 58.53 57.84 56.84 55.79
28.52 35.00 34.29 31.13 37.16 38.44 39.00 40.74 40.34 36.30 41.19 46.45 46.15 46.61 46.76 46.20 48.46 48.67 49.48 50.20 51.35 52.08 53.49 53.42 53.48 54.61 54.37 55.32 57.72 58.75 57.70 57.46 57.27 57.81 58.06 58.27 58.50 58.14 57.55 57.09 57.40 57.88 58.01 57.94
26.73 29.78 23.54 37.35 43.26 43.15 40.76 42.15 43.59 43.43 43.55 44.94 46.75 46.82 46.63 47.48 46.95 48.50 50.00 50.43 50.61 52.51 52.18 51.79 51.34 51.91 54.11 55.60 55.99 56.62 58.61 58.40 58.04 57.46 57.48 58.08 58.21 57.93 57.81 57.77 57.38 56.95 57.30 57.67
25.45 26.83 31.86 35.34 39.32 39.34 38.11 39.04 44.20 42.89 43.99 45.18 46.50 46.25 44.82 48.15 48.36 47.96 49.47 50.37 51.55 51.15 49.73 48.61 47.98 48.83 53.13 51.18 51.36 52.50 54.78 54.98 56.25 58.48 57.74 57.29 57.08 57.61 57.85 57.22 57.09 57.22 57.41 57.53
26.92 25.14 20.82 33.81 41.55 44.95 44.59 34.23 44.27 44.53 43.58 44.02 44.77 38.14 41.70 48.23 48.88 49.48 49.36 50.25 48.99 47.11 45.48 44.08 44.37 46.51 47.44 46.75 47.78 48.69 51.43 51.30 51.01 49.60 56.48 58.21 57.46 57.27 57.74 57.39 56.97 57.32 56.91 56.98
26.97 26.21 30.93 40.04 43.30 45.48 32.96 34.05 43.01 43.72 43.19 42.79 41.04 43.06 45.41 47.87 46.96 46.32 45.47 44.58 46.88 44.03 40.98 40.51 41.31 42.91 43.17 43.27 42.30 45.80 47.45 45.55 44.64 44.33 46.41 48.60 53.80 57.22 56.42 56.59 56.16 51.98 43.40 37.33
28.14 24.76 23.27 43.01 43.13 37.37 41.13 44.10 43.53 42.70 42.77 42.91 43.72 43.89 44.62 43.98 43.79 42.08 40.75 40.59 40.88 39.82 38.70 38.12 38.34 38.20 38.69 38.12 40.50 42.97 41.87 40.24 39.27 38.17 38.68 41.43 42.44 45.33 46.21 47.60 43.57 37.02 34.63 33.01
30.95 30.25 40.52 43.25 42.49 44.27 44.99 42.29 42.70 41.81 42.51 43.02 41.91 41.58 42.61 40.57 39.97 39.11 37.33 36.93 37.40 36.90 36.20 35.30 35.25 35.33 34.55 36.16 38.97 39.43 37.93 36.18 35.03 33.97 32.70 33.91 35.28 36.04 38.57 40.06 39.63 38.12 36.81 33.29
34.22 39.07 39.65 40.60 42.90 43.14 42.90 41.34 42.31 42.08 41.50 41.27 40.05 40.09 39.70 37.84 36.73 35.06 33.98 33.31 34.06 33.97 32.51 31.38 32.25 32.43 32.63 35.17 37.74 36.78 34.90 33.44 32.90 30.95 30.21 30.21 31.28 31.68 30.48 32.41 34.69 33.83 31.51 28.85
37.23 38.29 38.88 39.99 40.55 42.42 41.82 41.81 41.22 41.51 39.84 37.70 38.39 38.01 36.88 34.36 33.34 32.44 31.02 31.48 31.26 30.01 29.37 28.68 29.83 30.13 31.19 33.00 35.66 34.55 33.23 32.76 31.11 29.58 29.40 28.74 28.85 29.13 29.42 30.08 31.58 30.11 28.59 28.69
31.03 35.91 37.63 36.62 37.95 40.23 38.55 38.07 37.63 35.95 34.84 34.43 33.71 33.93 35.77 31.92 31.62 30.00 28.46 28.28 27.55 27.02 26.96 26.72 27.63 28.17 29.52 32.05 32.89 32.63 31.06 30.36 30.19 29.38 28.82 28.38 27.65 27.47 30.75 30.57 31.14 31.24 30.85 29.54
33.43 37.46 38.16 37.13 37.58 37.91 36.65 37.04 35.54 33.54 32.06 30.79 30.58 29.98 28.95 26.49 26.49 27.35 26.13 25.60 25.06 24.81 25.58 26.22 26.55 27.09 28.65 30.73 30.43 29.62 28.66 28.61 28.17 28.00 27.55 26.99 26.64 25.87 24.05 27.38 30.16 30.35 30.83 31.12
35.73 37.85 34.27 35.18 33.91 36.08 35.43 36.29 35.05 32.98 31.32 28.91 27.54 26.79 24.50 22.58 22.18 22.23 23.07 23.48 23.61 23.81 24.27 25.35 25.86 26.10 28.42 29.42 29.74 28.75 28.01 27.40 26.78 26.55 26.15 25.98 25.27 24.93 24.89 23.88 23.04 23.84 27.69 29.51
33.37 33.28 32.61 33.26 33.21 32.43 32.04 31.74 29.94 28.70 28.01 26.45 25.73 23.38 22.37 20.71 20.26 20.58 22.13 22.65 22.62 22.44 22.68 23.60 24.28 24.85 27.12 28.42 27.39 27.79 27.84 27.38 27.14 26.78 26.44 25.64 25.16 24.70 24.34 23.85 23.29 22.46 22.15 22.02
30.88 29.92 29.74 28.66 29.08 29.66 28.77 27.56 26.07 25.33 25.44 25.11 23.42 22.53 21.63 21.20 20.24 20.11 20.53 20.75 19.06 18.36 20.14 20.56 21.86 24.35 26.06 25.70 25.78 25.53 25.61 25.58 24.81 24.10 23.26 22.80 22.31 21.03 20.44 20.45 20.04 19.57 19.00 18.64
24.74 23.73 24.96 25.04 27.00 25.55 24.37 24.20 23.70 22.83 22.44 21.59 21.56 23.26 22.87 20.15 18.86 17.92 17.45 18.00 17.58 17.82 19.14 19.63 20.88 23.29 23.39 24.06 22.95 22.36 22.38 22.53 22.73 22.63 21.74 21.04 20.47 19.63 19.40 18.83 17.88 17.59 17.17 17.92
25.70 25.11 24.84 25.87 24.61 23.15 21.82 21.87 20.98 20.16 18.75 18.63 17.87 16.22 14.31 13.84 13.41 14.18 14.77 15.16 15.07 14.59 15.58 18.23 20.56 21.08 22.55 22.11 21.82 21.94 21.23 20.53 20.12 19.77 19.72 18.92 18.47 18.27 17.43 16.68 15.99 15.27 15.49 16.01
22.98 21.85 21.77 22.74 22.99 21.96 21.07 20.16 19.46 19.46 18.77 17.32 15.70 14.40 13.86 13.15 13.32 13.05 13.42 12.33 11.70 11.08 12.86 17.31 20.32 19.58 19.45 21.50 21.39 20.18 19.12 18.64 18.80 18.58 18.24 17.68 17.03 16.94 15.75 15.04 14.31 13.90 12.85 11.87
20.09 20.48 20.15 19.60 20.44 19.62 18.24 18.08 17.58 16.52 16.76 15.21 13.60 12.14 10.51 13.09 13.23 11.91 11.59 10.31 11.67 12.96 15.04 15.70 17.59 17.31 18.04 18.94 19.92 18.49 17.88 17.36 16.54 15.52 15.19 14.19 13.58 13.34 13.22 12.16 11.71 10.22 9.02 10.03
16.85 15.96 15.56 15.45 14.56 14.99 15.07 15.01 14.39 14.25 15.25 14.37 12.12 10.33 9.81 10.18 10.08 12.32 10.02 8.30 10.74 13.18 13.91 14.68 15.26 15.83 16.17 16.32 16.20 15.83 14.97 14.23 13.64 13.21 12.50 11.35 10.63 10.45 9.80 9.26 8.03 7.73 8.24 7.67
13.22 12.88 10.74 10.45 12.49 12.97 13.66 13.94 14.53 14.03 13.89 13.18 12.82 12.51 12.33 10.93 9.82 8.86 9.84 9.28 11.42 11.64 12.31 12.63 13.66 13.47 14.35 14.44 13.69 12.38 12.32 11.57 10.57 10.45 9.28 7.69 6.92 6.66 5.13 4.25 1.72 4.21 5.08 -3.02
15.61 15.36 14.80 12.83 11.87 12.65 13.54 13.52 12.50 11.66 10.63 10.37 12.17 11.75 10.58 10.85 10.60 7.38 5.71 9.88 11.24 10.85 11.28 11.10 12.23 11.86 10.79 10.23 10.36 10.04 9.89 8.29 7.35 6.95 4.90 2.80 2.86 1.48 3.32 4.43 -1.70 -3.66 -2.57 -3.84
14.39 13.95 13.33 15.18 15.53 15.37 12.53 12.46 13.69 13.04 11.16 11.99 11.14 10.90 13.17 10.05 10.23 12.55 11.84 10.34 9.45 9.27 8.78 10.90 10.09 9.78 9.18 8.66 6.45 4.71 4.58 6.61 4.16 1.20 1.90 -0.20 3.16 -0.19 -3.62 -6.67 -4.48 -3.82 -3.67 -0.89
16.53 16.86 15.96 15.66 15.53 14.55 14.89 15.40 15.55 15.11 14.10 13.23 13.10 12.85 12.08 12.38 8.70 10.78 10.79 10.89 12.06 8.66 7.43 7.25 8.91 7.19 5.34 4.43 3.85 3.22 1.60 -2.32 -0.81 -1.43 -2.17 -4.56 -6.92 -7.54 -8.00 -8.18 -10.89 -4.91 -3.66 -8.72
19.07 18.27 18.56 19.31 19.45 19.59 19.39 18.47 15.32 14.89 13.44 10.81 10.77 7.58 8.19 10.61 11.57 10.61 7.48 7.92 7.93 7.86 5.90 2.53 3.04 3.36 5.43 3.92 3.68 2.85 -0.38 -1.35 -3.75 -1.97 -5.29 -6.54 -0.49 -7.16 -11.08 -6.18 -6.00 -8.72 -11.62 -13.25
19.08 19.00 17.96 17.03 16.96 16.64 15.66 15.23 13.19 11.68 11.47 7.14 7.08 9.67 8.72 6.83 6.72 7.89 5.06 2.39 0.92 2.70 2.92 1.45 -3.85 -3.00 -3.49 -4.17 -3.60 -3.05 -0.11 -3.20 -5.33 -6.37 -8.90 -10.35 -8.36 -8.54 -13.25 -13.61 -13.80 -13.43 -11.08 -12.34

GFSNGP_sfc_wetblb_090.txt.gz
Wetbulb
34.66 35.53 36.90 36.61 35.59 36.51 35.94 36.79 34.85 36.79 37.76 41.74 44.27 45.48 48.06 49.20 49.17 49.32 49.86 51.10 52.06 51.56 51.88 52.76 53.74 55.54 57.20 56.42 56.11 56.30 55.93 55.57 55.16 55.75 56.14 56.75 57.26 56.92 56.63 55.28 54.19 53.81 52.78 52.70
30.24 35.37 35.22 33.17 37.27 37.44 37.18 38.32 38.87 38.94 38.64 44.78 46.51 48.72 47.09 48.16 48.61 48.32 49.76 51.16 52.01 52.12 51.86 51.31 51.87 52.66 53.81 56.58 56.95 56.83 56.21 55.66 56.27 55.93 56.06 55.84 55.98 56.80 56.73 56.47 56.31 55.14 53.76 52.93
26.55 33.45 31.74 29.07 35.78 37.50 37.39 39.78 37.76 34.33 39.80 45.51 45.32 45.98 46.53 46.55 47.09 47.73 49.11 50.70 50.46 49.80 49.13 48.97 49.22 51.52 51.68 53.03 54.80 56.94 56.61 56.70 57.05 56.88 56.11 56.02 56.34 56.26 56.17 56.68 56.80 56.39 55.27 54.11
25.73 28.72 20.34 34.47 40.12 41.30 39.34 41.52 41.46 42.50 44.01 45.23 44.38 45.58 46.38 47.45 48.02 48.22 49.13 47.99 46.66 46.00 45.41 45.60 46.77 48.43 48.79 49.56 50.13 51.94 52.99 54.55 55.01 56.40 57.19 57.32 56.82 56.23 56.13 56.22 56.06 56.17 56.66 56.58
23.62 24.77 29.89 33.42 37.80 38.40 37.33 38.01 43.30 42.36 43.90 43.95 45.41 45.36 43.50 45.13 45.42 46.14 45.62 44.60 43.19 42.92 42.44 42.18 42.27 45.42 46.71 45.73 46.47 47.27 47.55 47.66 48.73 49.62 51.47 54.69 56.73 57.00 57.23 56.83 56.57 56.35 56.67 56.86
24.91 23.15 19.18 32.06 40.21 43.71 43.46 33.48 43.74 43.26 42.68 43.07 43.98 37.55 40.16 42.54 42.58 41.55 42.04 42.44 40.31 40.20 39.50 38.59 38.93 42.21 42.66 42.09 42.85 43.32 44.00 43.95 44.25 44.40 46.81 47.14 48.76 53.05 57.73 57.90 57.26 57.40 56.82 56.80
25.17 23.25 28.77 38.44 41.53 44.24 31.77 33.55 42.30 42.48 42.22 42.05 39.90 41.49 41.69 41.41 39.71 39.70 38.66 38.54 39.41 38.27 36.63 36.34 37.15 39.49 38.96 39.05 38.54 41.15 41.50 40.66 39.83 39.24 41.20 41.53 43.48 44.50 45.30 49.14 56.51 55.82 52.81 39.79
26.03 25.43 22.49 40.92 42.14 35.98 39.16 41.62 41.64 41.73 41.45 40.14 41.06 40.32 39.51 38.21 36.26 35.57 34.44 35.34 36.58 35.95 34.68 34.34 34.79 34.99 35.44 35.03 37.68 39.61 38.27 36.55 35.19 34.60 35.55 36.55 37.93 38.57 39.21 40.99 40.91 39.32 35.93 33.75
29.76 28.80 39.58 41.08 39.76 41.87 42.22 40.45 40.60 40.26 41.11 39.99 38.96 37.20 36.44 34.81 33.63 32.19 32.15 32.46 34.07 33.57 32.98 32.10 32.28 32.39 31.78 33.01 36.31 37.27 35.53 33.11 31.70 30.74 31.09 31.79 32.11 32.86 35.78 37.53 36.33 33.34 31.87 30.39
35.04 37.95 37.76 40.52 40.54 41.16 41.40 39.89 39.21 38.38 38.10 38.84 37.11 36.11 34.25 33.22 31.73 30.44 30.27 30.26 31.10 30.77 29.22 28.71 30.14 30.50 30.86 32.57 35.37 34.85 33.26 31.32 30.08 29.56 29.01 29.71 30.24 30.23 29.79 32.10 32.31 32.34 31.80 29.85
36.31 37.96 38.07 38.48 39.21 39.76 38.90 37.77 36.61 35.10 33.28 32.58 33.62 33.04 31.46 29.68 29.22 28.49 28.20 28.88 28.38 27.45 27.09 26.86 28.41 28.92 30.44 31.40 33.14 32.71 31.54 31.19 29.51 29.26 28.62 28.08 28.73 29.23 29.29 29.91 30.04 28.63 28.63 28.73
29.11 34.14 35.84 34.94 36.69 38.05 36.08 34.59 33.45 32.36 30.27 29.42 29.44 28.42 28.02 26.21 26.72 26.06 25.87 26.21 25.54 25.60 25.94 26.44 27.13 27.72 29.07 30.81 30.71 30.56 29.18 28.83 28.69 28.33 27.42 27.13 26.95 27.06 30.51 30.59 31.29 31.17 30.66 28.78
32.83 34.86 35.25 35.72 35.45 35.74 35.25 33.47 32.01 29.82 28.49 26.60 26.29 25.95 24.97 22.98 23.44 24.53 23.73 23.71 23.64 24.37 25.03 25.64 25.92 26.42 27.93 29.84 29.59 28.55 27.78 27.69 27.40 27.46 27.07 26.22 25.92 24.87 23.62 26.18 28.01 30.02 30.54 30.81
32.51 36.15 31.23 31.89 30.06 32.98 33.62 32.44 31.41 28.73 27.47 25.87 23.86 23.26 22.58 21.65 21.91 21.50 21.33 22.16 22.69 22.98 23.29 24.37 24.79 24.83 27.09 28.06 28.63 28.00 27.28 26.87 26.36 25.94 25.51 24.81 24.33 23.61 21.38 19.84 18.47 19.14 24.56 26.11
29.79 31.01 30.30 31.42 31.10 29.63 30.59 30.14 27.82 26.15 25.12 23.62 23.10 21.93 21.85 19.84 19.03 19.13 20.32 21.08 20.79 20.04 20.37 21.68 22.00 22.90 25.15 25.72 25.72 24.97 25.09 25.03 24.75 24.52 24.10 23.53 23.04 22.09 21.15 19.26 18.17 18.13 19.01 19.65
27.61 27.50 27.70 27.64 27.24 26.52 25.65 25.11 24.16 23.95 24.35 22.91 21.19 20.14 19.73 18.95 17.28 16.62 16.94 17.18 16.33 15.68 18.16 17.96 19.91 21.76 23.66 22.89 22.93 22.55 22.64 23.04 22.22 21.67 20.91 20.45 20.19 19.32 18.05 16.89 15.72 15.06 14.93 15.34
23.78 22.20 23.78 25.05 23.97 22.76 22.03 22.58 22.52 21.53 20.71 19.18 21.64 19.96 18.38 17.13 15.85 15.03 14.69 16.03 15.12 14.50 16.72 18.05 17.73 21.17 21.24 20.41 19.75 19.39 19.79 19.94 20.65 20.40 19.58 19.12 18.44 17.38 16.94 15.67 14.45 13.80 13.85 15.10
22.69 22.15 23.86 23.81 22.56 21.20 20.59 20.27 19.77 19.25 17.76 17.49 16.29 14.22 12.69 12.14 11.76 12.34 12.46 13.35 13.02 13.08 13.76 16.21 18.44 18.50 19.97 20.00 19.69 20.12 19.67 18.94 19.20 18.25 18.26 17.38 16.67 16.60 15.62 14.68 14.12 12.82 12.21 11.88
21.03 20.22 21.10 21.21 20.93 20.12 19.27 18.20 17.40 16.92 15.49 14.85 12.53 11.36 11.54 11.02 11.35 10.89 11.28 10.18 9.86 9.65 11.54 15.44 19.18 17.19 16.95 19.55 18.97 18.83 17.64 16.76 16.85 16.52 16.60 15.96 15.08 14.66 13.45 12.53 11.12 10.04 9.55 8.56
18.65 19.37 19.16 18.64 19.41 18.89 17.07 17.00 16.28 14.42 13.83 11.56 10.40 9.62 8.92 9.69 9.85 8.88 9.21 7.85 9.35 10.98 13.52 14.70 15.67 15.43 15.62 16.22 17.28 16.76 16.12 15.30 14.53 13.48 13.17 12.58 11.66 10.68 10.77 10.59 9.78 8.16 7.63 6.80
13.69 13.88 13.28 13.10 12.22 12.01 11.66 11.81 11.51 11.41 10.97 10.38 9.05 7.48 7.31 8.03 8.69 9.50 7.83 6.71 9.22 11.95 13.21 13.57 13.65 13.81 13.90 13.66 13.79 13.12 12.36 11.52 10.71 9.72 9.38 8.57 8.18 7.41 5.93 5.54 5.57 4.87 3.52 4.86
8.47 9.31 6.71 7.17 9.92 10.79 11.65 11.64 11.04 10.56 10.20 9.01 9.03 7.47 7.67 6.70 6.30 7.35 8.78 8.58 10.76 11.07 12.24 12.39 11.86 10.46 11.26 11.96 11.80 10.70 10.38 9.42 8.71 7.99 6.34 5.70 5.17 2.99 1.33 2.23 1.57 0.60 -1.79 -4.08
10.18 10.12 9.50 6.52 5.98 6.22 6.81 7.79 5.57 7.67 6.87 7.44 7.58 7.37 7.72 8.96 8.85 6.38 5.05 10.22 11.26 10.88 11.07 10.61 10.56 9.84 8.60 7.96 7.74 7.90 6.78 5.94 5.67 4.27 2.13 0.40 -3.06 -4.09 -4.80 -5.71 -6.43 -5.72 -7.70 -7.52
8.23 9.19 7.35 8.32 9.00 11.81 8.73 7.49 10.75 10.17 9.10 10.67 9.59 9.71 10.91 7.89 8.99 11.47 10.67 8.91 7.41 7.17 8.18 9.46 9.16 8.96 7.89 6.19 4.65 3.63 2.53 1.82 -0.27 -0.95 -0.47 -4.27 -8.07 -12.05 -12.06 -12.60 -7.34 -10.06 -11.69 -11.51
10.32 9.95 10.42 9.31 11.17 9.32 11.69 14.00 14.04 13.61 12.69 12.12 11.89 11.90 11.45 12.08 6.67 9.20 8.84 8.22 9.09 5.92 4.40 5.06 6.43 5.14 1.74 1.12 0.78 0.24 -0.09 -0.77 -2.88 -3.57 -5.16 -8.64 -10.24 -12.41 -13.32 -9.51 -11.33 -14.59 -17.13 -17.67
15.73 16.34 15.95 16.92 15.93 16.19 16.14 16.55 14.46 12.83 11.31 8.32 8.00 3.55 4.47 7.68 9.10 8.81 7.40 7.73 6.85 4.97 2.11 -2.12 -2.32 -0.58 -1.03 -1.29 -4.50 -6.01 -5.12 -3.88 -5.03 -5.54 -7.88 -7.88 -11.69 -13.14 -13.50 -13.87 -14.77 -14.05 -17.67 -19.49
15.34 17.74 16.90 16.28 16.62 15.49 14.53 13.40 10.88 9.33 7.15 2.31 4.28 5.18 5.31 3.71 5.09 6.22 0.47 -2.72 -1.03 1.62 1.26 -2.21 -5.06 -4.90 -7.04 -10.06 -9.70 -8.43 -8.25 -11.15 -10.96 -11.69 -16.77 -14.77 -13.87 -17.13 -18.04 -18.22 -19.12 -19.49 -19.67 -19.49

GFSNGP_sfc_wetblb_093.txt.gz
Wetbulb
32.68 34.85 34.64 34.92 35.10 36.39 34.82 35.98 32.69 35.01 36.65 40.74 43.89 44.90 45.91 47.23 48.29 49.31 50.31 50.07 50.08 50.27 51.04 51.95 52.37 54.30 55.55 55.92 55.98 56.10 55.23 54.72 55.25 55.63 55.47 55.13 54.24 53.99 53.48 52.90 52.25 51.50 51.02 51.31
27.92 32.78 33.60 31.42 32.78 33.33 36.38 37.30 36.92 37.83 37.19 43.88 47.01 47.31 46.58 46.53 47.87 47.42 48.90 47.71 47.46 47.64 47.64 48.23 50.02 49.45 50.71 52.27 54.07 56.29 55.74 55.33 55.68 55.23 55.67 55.03 55.63 54.86 54.66 53.70 53.52 52.75 51.93 51.32
24.81 30.17 29.67 25.57 32.31 34.11 37.65 38.59 38.16 35.13 39.88 44.41 45.11 45.79 44.92 46.97 46.49 47.52 45.48 44.99 44.28 44.09 43.90 44.62 46.49 47.21 46.64 48.30 50.80 53.17 55.18 55.96 56.25 56.14 55.39 55.68 55.99 55.86 56.44 55.73 55.33 53.81 53.05 52.55
24.42 26.61 17.41 30.74 37.13 40.42 38.69 39.09 40.34 40.80 42.80 43.43 43.28 43.08 43.90 46.60 45.48 43.71 42.65 41.85 41.54 41.39 40.98 40.85 44.12 45.99 46.06 46.43 47.13 47.24 47.22 47.50 48.02 49.12 51.45 55.19 56.29 55.84 55.80 56.18 56.62 56.00 55.92 55.31
21.89 22.24 26.52 30.66 36.03 35.92 34.36 35.97 42.86 42.81 42.99 43.28 43.02 42.55 40.33 41.64 41.96 41.09 40.35 40.10 39.45 39.25 38.70 38.80 40.52 43.55 43.55 43.13 43.73 43.60 43.14 43.21 43.40 43.77 46.35 47.41 49.16 51.84 56.35 56.23 56.04 56.28 56.87 56.74
23.72 20.99 16.04 29.77 38.62 42.18 41.74 32.59 42.21 43.82 43.64 43.51 43.85 36.65 36.60 39.80 39.45 38.03 38.19 38.75 37.45 37.39 35.91 35.36 36.10 39.58 40.43 39.98 40.58 40.00 39.75 39.28 39.26 39.28 41.19 40.96 42.29 44.52 46.73 48.95 54.77 56.49 56.11 55.86
24.53 23.92 26.41 35.40 39.34 42.75 29.73 30.81 41.18 42.79 43.24 42.69 38.64 39.72 38.47 38.27 36.34 36.42 36.13 35.86 37.15 35.49 33.20 32.92 33.74 36.42 36.63 37.30 37.63 38.70 37.88 36.41 35.32 35.02 36.77 36.02 37.09 38.87 40.72 43.23 43.86 40.00 37.07 34.45
25.41 24.50 20.55 38.63 39.45 33.96 38.20 39.64 40.54 40.23 40.61 38.80 38.44 37.80 36.42 34.68 33.23 33.01 32.51 33.65 34.60 33.94 32.26 32.00 32.74 33.84 33.74 33.53 36.93 37.37 35.06 32.27 31.52 31.90 32.55 33.15 33.13 33.73 35.82 37.30 36.29 34.82 33.15 31.26
27.88 26.82 38.27 39.59 38.47 40.16 39.56 36.52 36.32 37.82 39.12 38.51 36.17 34.34 33.74 31.70 30.85 30.85 31.20 31.10 32.28 31.22 30.89 30.43 30.87 31.12 30.90 32.06 35.74 35.56 32.97 30.45 30.27 30.16 30.79 31.30 30.72 30.70 31.31 32.87 32.82 32.29 32.05 31.17
33.66 37.41 38.00 38.81 38.92 38.46 38.49 36.23 35.00 34.38 34.29 36.16 33.70 32.66 31.03 30.15 28.81 28.38 29.19 28.75 29.64 29.28 28.19 27.81 29.29 29.83 30.64 31.50 34.43 33.52 31.17 30.03 29.68 28.96 29.10 29.81 30.15 29.89 28.95 29.10 29.08 29.37 28.86 27.78
33.49 35.40 36.73 36.53 38.06 37.14 34.99 35.27 33.45 31.95 30.68 30.23 30.74 28.88 28.09 26.73 26.13 26.13 25.85 27.20 27.43 27.01 26.69 26.60 28.09 28.59 30.00 30.64 32.00 31.25 30.45 29.70 28.77 28.30 28.16 28.07 28.34 28.90 29.15 29.63 29.30 27.42 26.75 26.01
27.59 31.71 34.34 33.66 35.64 36.66 33.64 31.37 30.45 29.71 27.64 26.97 27.17 25.68 25.47 24.59 24.88 23.99 23.69 24.48 24.77 25.23 25.71 25.85 26.43 27.22 28.55 29.91 29.99 29.65 28.32 28.32 28.00 27.38 27.41 27.45 26.23 24.96 28.57 29.10 30.30 30.98 30.94 29.46
31.65 34.07 32.82 33.46 34.27 33.58 31.41 30.12 29.22 27.73 26.47 24.54 23.82 23.50 23.12 22.23 22.85 23.43 22.84 22.39 22.29 22.90 23.92 24.80 24.90 25.00 26.95 28.69 28.79 27.79 27.04 27.20 26.90 27.03 26.57 25.78 24.74 23.09 20.44 22.18 25.59 27.16 28.08 28.08
31.55 34.17 30.64 30.40 28.74 31.32 31.26 30.08 29.10 26.22 24.75 23.53 22.79 22.83 22.03 21.32 21.15 20.54 19.90 20.60 20.68 20.52 21.22 21.39 21.67 21.51 23.57 25.59 25.54 26.08 25.48 25.33 25.08 24.67 24.28 23.63 22.25 20.83 19.17 16.82 15.78 16.28 21.53 24.46
28.83 29.38 29.44 29.68 28.34 27.10 27.39 27.65 25.91 24.46 23.30 21.22 21.50 20.53 20.06 17.92 16.88 16.92 17.81 19.02 18.75 18.50 18.36 18.99 19.62 19.83 21.98 22.64 21.86 21.58 21.84 21.66 21.84 21.83 21.49 20.55 18.95 17.83 16.91 15.85 14.72 14.62 15.66 16.57
26.21 26.08 26.27 25.91 23.77 23.31 23.39 23.18 22.69 21.89 22.40 20.86 20.04 18.95 17.82 17.02 16.15 15.50 15.98 15.54 14.19 13.63 16.28 15.78 17.51 20.06 21.16 20.70 20.07 19.90 20.05 20.33 19.81 19.57 19.20 18.84 17.92 16.38 15.44 14.90 13.88 13.27 12.35 12.70
23.28 21.26 22.73 23.28 21.71 21.29 20.71 21.30 20.44 20.15 19.46 19.00 18.95 18.32 16.96 15.39 14.44 13.58 13.25 14.60 14.19 13.34 14.84 15.96 15.47 18.56 19.59 18.26 17.61 17.35 18.36 18.33 17.90 17.79 17.05 16.52 16.10 15.41 14.86 13.75 12.36 10.98 9.67 12.02
21.73 22.57 22.79 22.63 21.44 20.33 19.38 19.59 18.64 17.58 16.14 15.40 14.28 12.16 10.26 9.46 9.85 10.37 10.79 12.09 11.16 10.97 12.10 14.16 16.78 16.22 17.66 17.16 15.95 16.37 16.31 16.07 16.31 15.99 16.22 15.25 14.97 14.74 13.53 12.54 11.64 10.20 9.27 8.72
20.67 20.65 20.78 20.64 20.47 19.43 17.92 16.19 15.36 15.20 14.18 13.02 10.85 9.04 9.02 8.65 8.99 8.85 9.43 7.29 7.01 7.47 9.84 13.57 17.82 14.49 14.25 17.47 16.44 16.27 15.40 14.34 13.77 14.15 14.23 13.31 12.40 12.52 11.34 10.46 9.19 8.14 7.26 5.90
17.98 18.62 18.18 16.92 18.19 18.09 16.18 15.89 14.71 12.46 12.31 10.62 9.24 6.99 6.87 7.13 7.47 7.08 7.89 6.91 8.05 9.49 12.16 12.08 13.50 12.93 13.09 13.54 14.45 13.47 12.70 12.07 12.04 10.51 10.16 9.60 8.30 8.00 8.77 8.55 7.88 6.25 3.78 2.16
12.01 12.46 11.76 11.78 10.63 10.05 8.15 5.51 5.65 5.51 4.46 3.02 3.99 3.30 4.70 5.05 6.19 6.19 5.88 6.22 8.33 10.16 11.67 11.47 10.96 11.62 12.07 11.69 11.56 10.43 9.60 8.91 7.91 6.59 6.53 5.33 4.55 4.56 4.60 4.20 3.15 2.12 2.27 1.29
7.00 7.42 2.72 4.20 6.70 6.78 6.03 4.93 5.85 3.24 2.55 1.20 -0.54 -1.12 -0.38 1.26 1.72 4.42 6.16 7.73 10.24 9.60 10.77 10.45 10.01 7.84 8.77 9.95 9.61 8.28 8.28 6.96 5.71 5.36 3.84 2.95 1.19 -0.91 -1.23 -0.72 -1.72 -3.32 -4.25 -6.75
5.06 6.09 6.27 3.57 4.03 3.62 5.64 5.04 2.40 3.23 2.59 2.04 0.09 0.59 3.29 6.02 5.59 2.47 3.73 8.85 10.33 9.56 9.92 8.83 7.90 6.78 6.21 6.06 5.73 5.02 4.11 3.39 2.72 1.17 -0.56 -3.18 -3.87 -4.73 -4.73 -5.98 -7.61 -7.67 -10.88 -10.71
5.08 6.42 4.59 5.61 6.79 10.69 8.76 9.19 9.95 9.08 4.14 8.04 6.92 5.06 8.76 4.61 5.88 10.66 10.57 6.64 4.38 4.97 6.16 6.85 5.99 5.75 3.49 2.95 2.24 1.03 -0.55 -2.12 -2.64 -3.67 -3.18 -6.23 -10.89 -9.06 -7.97 -10.15 -8.70 -12.87 -13.78 -13.41
7.82 6.63 7.78 7.23 9.57 9.14 11.92 12.41 13.01 12.61 11.25 11.26 10.54 11.11 11.24 11.16 3.18 6.74 6.22 6.06 7.00 3.76 2.21 2.25 2.33 0.52 -1.36 -2.23 -3.22 -4.38 -5.27 -7.61 -8.34 -8.37 -9.99 -11.60 -12.69 -12.87 -14.32 -13.05 -14.32 -15.04 -15.95 -16.31
14.26 13.41 13.54 14.15 14.66 14.12 13.91 14.52 13.19 12.02 9.89 5.09 5.14 -1.08 0.83 4.05 7.09 6.49 5.30 4.52 4.39 2.01 0.02 -5.32 -5.81 -5.63 -5.64 -4.67 -7.36 -8.54 -7.79 -5.02 -8.89 -11.06 -13.78 -15.23 -16.68 -16.68 -17.76 -17.04 -17.40 -17.58 -20.30 -22.11
14.61 16.02 15.61 14.85 15.28 14.04 14.33 13.60 11.24 10.33 7.19 -1.54 -2.25 -3.80 -0.72 -3.08 -2.00 0.43 -5.98 -8.34 -8.52 -7.07 -5.80 -8.88 -10.69 -8.89 -10.33 -13.59 -11.96 -12.69 -13.59 -15.04 -15.95 -15.41 -20.12 -19.58 -19.76 -20.66 -21.39 -21.75 -22.66 -22.48 -20.30 -17.94

GFSNGP_sfc_wetblb_096.txt.gz
Wetbulb
31.21 32.73 33.74 32.69 32.97 34.16 33.61 34.45 31.22 32.11 34.25 38.28 42.45 44.54 45.50 46.94 48.62 47.37 44.97 45.19 45.66 46.57 47.96 49.34 50.83 52.45 56.04 56.06 55.82 55.58 55.66 55.46 55.09 54.99 55.30 53.80 52.37 51.75 51.24 50.37 50.22 50.17 50.49 50.79
27.60 31.48 32.45 30.16 31.32 31.15 31.78 32.47 33.41 35.93 35.82 43.07 45.12 46.90 46.10 47.07 47.46 44.46 42.88 42.57 42.54 42.52 43.91 45.60 46.22 47.21 48.96 49.92 51.25 55.86 55.26 54.86 55.12 55.64 55.76 55.44 54.71 52.95 52.17 51.46 50.97 50.31 49.58 49.97
24.41 28.51 28.12 23.02 28.18 34.15 35.23 37.08 36.40 33.27 38.08 42.36 43.74 44.86 45.36 46.45 44.80 42.87 41.53 40.72 40.17 40.14 40.12 42.09 44.35 45.05 45.00 46.27 48.02 48.56 48.93 49.61 50.80 53.55 55.44 55.42 55.66 54.95 53.73 52.73 52.36 51.64 51.01 50.74
24.32 26.36 15.55 27.13 34.03 38.05 35.81 38.80 39.71 39.27 40.04 42.73 41.40 40.83 41.13 42.60 41.60 39.80 39.69 39.06 38.26 37.75 38.17 38.44 41.24 43.09 43.60 44.03 43.94 43.83 43.52 43.37 43.66 45.47 47.10 48.63 51.51 54.11 55.58 55.98 54.77 54.09 53.34 53.27
21.83 22.41 25.43 28.63 34.24 34.63 33.91 34.62 42.23 42.02 42.01 41.70 41.65 41.30 38.16 39.72 39.33 38.73 38.30 38.02 36.96 36.60 36.19 36.40 36.80 41.31 41.52 41.20 40.71 39.89 39.11 38.79 39.02 40.87 41.54 41.99 42.83 43.78 46.13 46.80 53.02 55.66 56.16 55.44
23.94 20.16 14.08 26.75 36.65 39.57 39.62 30.26 39.88 43.37 42.55 42.83 41.63 36.16 35.06 36.95 36.97 36.69 37.02 36.89 35.02 34.59 34.24 33.90 34.77 38.51 38.72 38.50 38.17 36.54 35.85 35.30 36.09 36.76 37.12 36.74 37.96 38.77 41.10 43.59 44.14 45.06 39.59 35.15
23.93 23.96 26.29 33.72 37.15 39.98 27.83 30.27 38.99 41.53 43.09 41.99 35.59 35.65 34.99 34.60 33.75 34.39 34.45 34.62 35.71 33.79 31.74 31.94 33.51 36.00 35.05 36.01 35.82 35.17 33.45 33.04 33.20 33.45 34.17 34.09 35.44 36.64 37.49 38.29 37.57 34.83 32.61 32.01
26.05 23.37 19.87 37.57 36.91 31.07 35.82 35.93 37.38 38.36 38.62 37.10 35.96 33.95 33.64 32.60 31.72 31.86 31.29 32.01 32.60 31.94 30.68 31.00 31.71 32.92 32.30 32.07 35.90 34.80 32.80 31.46 31.06 31.83 32.37 32.48 32.45 32.96 33.63 34.94 33.70 32.73 31.70 30.28
28.41 27.17 37.26 38.51 37.31 37.88 36.54 33.69 33.76 35.61 35.77 34.90 33.24 32.05 31.10 29.62 29.35 29.49 29.39 29.55 30.74 30.21 29.78 29.66 30.30 30.60 29.63 31.05 34.51 33.30 31.52 30.04 29.93 30.31 30.55 30.72 29.79 29.76 30.34 30.75 30.35 29.73 29.26 28.08
31.40 35.58 36.37 36.87 36.43 36.74 35.83 33.91 32.97 33.81 33.10 32.70 30.04 29.53 27.76 27.23 26.52 25.99 26.95 26.99 28.43 28.36 27.19 27.01 28.81 29.30 29.91 30.71 33.47 32.30 30.29 29.08 29.10 28.56 27.85 28.59 29.82 29.47 28.30 28.05 27.45 26.62 26.11 25.59
32.19 32.74 34.75 34.47 35.42 34.91 33.96 33.46 30.25 29.22 29.11 29.25 28.50 26.67 26.64 24.75 24.19 24.07 24.07 25.36 25.89 25.70 25.43 25.68 27.01 27.55 29.12 29.77 31.24 30.04 29.50 28.72 28.37 28.33 27.04 25.77 25.95 26.96 27.75 28.86 29.21 27.53 27.62 27.90
25.97 30.74 32.19 31.27 33.90 33.90 30.63 29.21 28.58 27.62 25.05 24.81 25.22 24.35 24.48 23.20 23.03 22.71 22.28 22.94 23.10 23.30 23.55 23.62 24.24 24.34 26.26 28.89 29.38 29.07 28.05 27.84 27.74 27.49 27.26 25.68 23.71 22.46 26.14 27.65 28.72 29.29 29.05 27.11
28.25 32.95 31.86 32.04 32.21 32.24 29.14 27.39 26.12 24.37 23.39 22.27 22.81 22.98 22.80 21.36 21.69 22.09 21.05 20.35 20.29 20.98 21.58 21.83 21.90 21.92 23.07 25.33 27.03 26.73 26.42 26.53 26.11 25.78 24.89 23.58 21.97 20.62 17.39 20.34 23.89 25.81 26.79 27.17
30.28 32.12 30.58 28.12 25.95 28.17 28.90 27.28 26.41 23.59 22.61 22.31 21.57 21.44 20.42 19.38 18.82 18.11 17.78 19.18 19.65 19.06 19.17 20.00 20.06 19.75 22.00 23.31 23.24 22.11 21.17 22.32 22.24 21.91 21.49 19.94 18.30 16.60 15.83 14.44 13.47 14.35 19.94 22.42
27.19 28.16 28.88 26.98 25.13 24.14 24.82 25.27 23.68 22.49 21.35 20.29 20.10 18.38 17.96 16.20 15.48 15.73 16.35 18.07 17.95 17.17 16.85 17.14 17.68 18.31 20.70 21.60 20.86 20.22 20.76 19.88 19.55 19.18 18.79 17.82 17.05 15.96 15.42 14.49 13.48 13.18 14.50 14.94
25.64 25.04 25.66 23.46 21.87 21.49 21.52 21.19 20.85 20.09 21.39 19.36 18.02 17.21 16.77 16.13 14.95 14.48 15.01 14.88 13.37 12.26 14.57 14.65 15.62 17.80 19.89 19.66 19.37 19.19 18.65 19.21 18.48 17.69 16.98 16.04 15.50 14.37 12.91 11.32 9.74 8.92 9.23 9.69
21.70 20.44 21.71 22.32 20.81 19.54 19.14 19.76 19.00 18.26 17.44 16.59 16.33 16.75 15.72 14.59 13.44 12.69 12.50 13.30 13.17 12.75 13.75 14.67 14.15 16.02 18.16 16.97 16.86 16.52 16.58 16.96 16.77 16.53 15.69 15.53 14.96 13.17 11.69 9.73 7.65 6.48 5.67 8.58
21.60 21.97 21.76 21.38 20.12 18.85 17.51 17.36 16.61 15.89 14.15 13.87 12.52 10.21 8.69 9.03 8.83 9.19 9.28 10.59 10.80 10.96 11.32 12.69 15.69 14.06 15.49 15.74 15.41 15.40 15.37 15.51 15.42 14.24 14.21 13.34 12.61 11.63 9.43 8.00 7.27 6.22 5.86 6.43
20.37 19.50 19.81 19.96 18.71 17.13 15.85 14.57 13.90 13.53 12.34 10.46 7.41 4.91 4.69 4.35 5.70 4.35 5.52 5.79 6.68 7.34 8.85 10.72 16.30 12.74 12.58 15.95 14.75 14.61 13.89 13.17 13.07 12.71 12.51 11.26 10.28 10.21 8.00 5.89 4.32 3.60 3.83 2.96
17.30 17.66 16.77 15.61 16.02 16.10 14.07 13.55 12.24 9.93 8.52 5.65 0.80 -0.08 -0.14 -1.13 -1.31 -1.50 -0.17 4.02 5.95 5.27 7.16 9.34 10.75 10.80 11.28 11.96 12.19 11.71 10.19 9.79 10.38 8.66 8.00 7.06 5.25 4.12 5.41 4.22 2.95 -0.13 -1.34 -0.96
11.54 11.70 10.84 10.24 8.35 7.70 4.93 2.16 3.44 2.42 -1.52 -0.31 0.90 -2.05 -2.76 0.05 1.03 0.67 2.69 4.18 6.12 7.36 9.80 10.11 8.94 9.66 10.42 9.87 9.74 7.53 6.30 6.10 5.56 4.85 4.28 2.61 2.16 1.82 0.97 -0.61 -0.47 -2.17 -2.37 -2.37
5.50 5.23 1.21 2.44 4.87 4.58 3.65 0.64 1.91 -1.70 -0.77 -3.13 -6.57 -7.48 -5.48 -2.82 -3.04 -0.17 0.29 5.13 8.43 5.35 7.49 8.42 8.16 5.23 6.81 7.85 7.59 6.15 6.30 5.02 3.90 3.72 2.38 1.34 -0.61 -2.36 -3.75 -3.42 -4.84 -5.92 -7.18 -8.97
2.67 4.27 4.29 1.39 2.35 1.22 1.54 0.93 -2.95 -2.30 -3.15 -5.85 -5.85 -4.76 -0.59 2.13 1.80 -0.94 -0.29 6.52 8.82 7.41 8.32 6.15 4.85 4.55 4.49 4.41 3.22 2.33 1.91 1.22 0.24 -0.98 -2.19 -3.59 -4.82 -6.44 -5.92 -7.16 -8.60 -7.60 -10.45 -9.23
3.58 4.77 2.76 3.47 4.85 8.62 5.40 2.25 4.80 2.84 -1.51 2.83 -0.23 -3.67 5.08 -1.31 -0.05 9.32 7.76 4.14 2.50 3.35 2.93 4.41 3.27 2.75 0.82 -0.22 -1.29 -2.18 -3.26 -5.18 -6.26 -6.43 -5.22 -8.24 -12.92 -10.93 -10.74 -12.19 -11.83 -13.47 -13.47 -12.39
5.98 4.46 4.69 4.12 6.81 5.02 7.09 7.65 8.78 8.40 9.42 9.52 8.26 9.47 9.17 8.88 -0.80 2.21 -0.03 1.02 4.92 2.15 -0.04 -0.43 -0.21 -2.72 -4.75 -5.72 -6.25 -7.14 -8.03 -10.20 -10.74 -9.50 -11.66 -12.92 -14.55 -15.27 -15.45 -13.46 -15.45 -16.54 -18.54 -18.17
9.32 9.71 9.55 10.28 12.35 12.69 12.66 13.05 11.21 10.33 8.19 2.27 1.87 -7.11 -5.30 -2.40 1.49 0.95 -0.78 -1.01 -0.58 -2.00 -5.36 -10.38 -10.56 -8.95 -8.97 -7.56 -9.84 -10.02 -9.65 -7.94 -12.38 -13.10 -15.64 -16.18 -17.27 -16.36 -18.17 -18.17 -19.99 -20.17 -21.44 -21.98
13.35 13.28 13.89 13.92 14.25 14.22 13.15 13.24 11.28 8.44 7.10 -2.28 -3.38 -6.57 -3.67 -6.75 -8.38 -3.87 -10.74 -13.46 -13.64 -11.10 -12.73 -14.55 -14.73 -12.55 -13.10 -16.54 -15.09 -15.64 -16.36 -17.09 -18.17 -16.90 -22.16 -22.34 -22.52 -22.89 -23.61 -23.43 -23.79 -23.43 -23.43 -23.79

GFSNGP_sfc_wetblb_099.txt.gz
Wetbulb
32.87 33.63 34.48 33.17 32.96 33.80 31.92 33.43 30.34 33.36 33.88 37.74 40.42 43.18 46.49 47.91 45.75 43.46 42.68 42.05 41.68 41.57 43.74 45.09 46.63 48.40 50.49 54.75 56.94 57.13 56.27 56.16 55.63 56.46 56.24 55.61 55.93 55.79 55.32 54.67 55.11 55.83 55.67 55.80
29.27 32.76 33.39 30.45 32.59 32.23 32.84 34.05 34.09 34.37 33.76 41.91 44.69 45.25 46.56 46.70 43.56 41.79 40.37 39.98 39.90 39.85 39.88 42.54 43.78 44.78 45.90 46.66 52.50 56.35 56.63 56.06 56.33 55.80 55.79 55.32 55.51 56.44 55.33 54.89 55.01 54.74 54.39 54.85
24.38 30.42 30.18 25.42 29.88 32.04 35.82 38.55 37.80 34.22 39.32 43.02 42.67 40.89 42.86 41.55 40.83 39.58 39.26 38.13 37.85 38.26 37.76 38.70 41.89 43.48 42.98 42.97 44.19 44.47 45.17 45.76 47.26 49.60 50.73 52.34 55.62 55.24 54.79 55.52 55.43 54.72 54.49 54.57
26.00 27.92 17.53 29.76 35.87 36.54 35.04 37.43 40.70 41.57 42.17 41.74 39.56 37.77 37.42 38.45 38.03 37.12 37.12 36.72 36.06 35.90 36.64 37.37 40.88 41.83 41.80 41.10 40.99 40.26 39.91 40.31 41.91 43.70 43.99 44.97 46.26 46.61 47.25 50.39 54.51 54.33 54.14 53.93
24.32 23.84 27.54 30.97 35.53 34.15 33.72 32.88 40.29 41.26 41.76 40.03 40.92 39.96 34.14 34.83 34.72 35.54 35.94 35.23 34.37 34.96 35.25 36.38 38.26 40.26 40.52 39.49 37.94 36.34 36.23 36.71 37.58 38.99 39.44 40.45 40.71 41.34 42.77 45.81 44.81 40.25 39.64 41.57
26.63 20.86 18.07 29.09 35.88 39.91 39.35 30.27 38.47 40.24 41.87 39.52 40.81 33.57 32.47 33.44 33.33 33.63 34.35 34.70 33.52 33.52 33.60 33.92 35.68 38.13 37.95 36.68 35.82 34.14 34.92 35.11 35.76 37.08 36.66 37.40 38.24 38.87 40.61 40.85 38.37 37.06 34.72 34.12
26.52 24.17 28.07 34.79 37.70 39.80 26.47 29.06 37.65 37.85 38.83 38.46 34.38 33.21 32.06 32.42 32.21 32.65 32.42 32.73 34.04 33.13 31.36 31.48 33.60 35.58 34.34 35.84 33.52 34.14 34.65 34.32 34.40 34.81 34.88 35.33 36.17 36.89 37.90 36.82 35.19 33.47 31.61 31.11
27.22 24.00 21.25 37.58 37.44 32.23 34.34 35.27 36.04 35.39 34.78 32.78 32.91 32.22 31.36 30.92 30.18 30.02 29.91 30.78 32.05 31.37 30.16 31.06 31.68 32.96 32.33 32.70 33.98 33.97 33.55 32.88 32.30 32.67 32.97 33.24 33.88 34.41 34.89 34.98 33.15 31.62 30.54 29.87
30.10 30.23 36.50 37.11 35.40 35.93 35.66 33.21 33.76 34.76 35.03 33.85 30.81 29.79 29.51 27.94 27.39 27.31 27.74 28.74 30.30 29.85 29.44 29.62 30.59 30.76 29.76 31.46 33.71 32.65 32.03 30.80 30.43 30.44 31.16 31.38 30.96 31.13 31.27 31.85 31.32 30.57 29.97 29.70
30.69 32.42 31.67 34.73 34.70 35.00 33.80 30.62 30.34 31.91 32.10 31.68 29.42 28.69 27.20 26.22 25.69 25.33 25.96 26.09 27.92 27.85 27.07 26.77 28.10 28.72 29.69 31.00 32.68 31.77 30.42 29.73 29.53 28.63 28.71 29.85 30.11 29.91 29.89 29.74 29.57 29.69 29.31 28.75
30.53 31.24 33.65 31.95 33.12 32.50 30.88 31.65 29.25 28.04 27.80 28.30 27.78 26.34 25.56 24.27 24.11 24.23 24.60 25.52 26.00 25.44 24.71 24.44 26.07 26.45 27.96 30.28 32.02 30.47 29.99 29.65 29.01 28.18 27.16 26.67 27.12 28.39 28.77 29.05 29.74 28.56 28.38 28.42
25.43 29.71 29.88 29.66 31.96 31.30 28.62 27.01 26.70 26.23 24.77 25.05 25.49 24.56 24.33 22.84 23.04 22.54 22.26 23.25 23.39 23.72 23.84 23.92 24.54 24.83 26.26 27.94 29.64 30.16 29.27 28.88 28.89 28.14 27.35 26.51 25.71 24.59 26.84 27.77 28.12 28.35 28.15 28.25
28.13 32.61 30.47 29.81 30.75 30.83 28.05 26.10 25.24 24.17 23.99 22.63 23.01 23.11 22.28 21.22 21.20 21.17 21.72 21.50 21.02 21.16 22.06 22.74 22.87 22.98 24.46 26.37 26.95 26.28 26.73 27.58 27.52 26.75 25.87 24.77 24.40 23.57 21.32 21.92 24.17 25.61 26.28 26.67
29.66 32.11 28.29 26.61 24.68 27.07 27.84 25.80 25.19 23.43 22.90 21.95 21.56 21.26 20.46 19.63 19.19 18.86 18.81 19.91 20.31 20.33 20.09 20.72 21.02 20.74 22.91 24.48 24.45 23.78 23.74 22.69 24.07 23.66 23.38 22.52 22.35 21.52 21.77 20.96 19.54 19.50 20.67 23.71
27.51 29.32 27.14 25.87 24.77 23.81 25.36 25.15 23.67 22.16 21.52 20.14 20.20 19.15 18.83 17.23 16.40 16.46 17.55 18.79 18.85 18.59 18.26 18.86 18.58 19.40 21.99 22.76 22.51 22.56 24.33 23.26 23.30 22.85 22.25 21.56 21.58 20.73 20.28 19.43 18.34 17.99 19.33 18.67
25.73 26.46 24.96 23.05 21.60 21.58 21.60 21.88 20.85 20.23 20.23 19.56 18.59 17.86 17.35 16.95 16.31 15.84 16.30 16.11 14.97 14.04 15.49 15.20 16.55 18.17 20.50 21.17 21.93 22.23 21.70 20.07 21.01 21.86 21.27 20.51 19.94 18.68 17.40 16.25 15.44 15.01 14.61 14.54
23.96 20.92 22.64 21.78 20.64 19.69 18.88 19.40 18.86 18.07 17.62 16.69 16.20 17.28 16.82 15.61 14.61 13.90 13.90 14.77 13.95 13.64 14.74 15.29 15.18 16.16 18.43 18.37 20.04 21.02 21.22 20.36 18.82 20.38 19.49 18.80 18.11 16.91 16.15 14.79 13.63 12.77 11.64 11.67
22.44 22.37 22.34 21.64 20.25 18.36 17.39 17.42 16.80 16.05 14.47 13.80 12.51 11.12 9.56 9.94 10.33 10.18 10.42 12.14 12.01 11.73 12.13 12.70 16.04 15.03 15.49 17.54 18.68 19.88 19.97 19.65 18.93 18.07 18.15 17.28 16.32 15.77 14.74 13.69 12.75 11.91 11.55 9.60
21.07 20.31 20.79 19.51 18.93 17.50 16.20 15.07 14.44 13.74 12.18 10.60 8.46 7.06 7.30 7.36 8.51 8.52 9.46 8.54 8.94 9.80 10.22 12.06 15.21 14.02 14.51 16.68 17.69 18.62 18.27 17.66 16.84 16.27 15.81 14.46 14.70 13.75 12.54 11.74 10.45 10.12 9.97 9.26
17.64 18.07 17.42 16.29 17.59 16.63 14.56 14.09 12.97 11.02 10.41 8.33 6.08 5.58 5.85 4.76 5.34 6.60 7.83 7.60 8.30 9.86 11.38 11.65 12.69 13.42 13.53 13.07 14.07 15.42 15.40 15.47 14.42 13.70 13.41 12.56 12.35 11.08 9.94 8.20 8.76 8.59 8.59 8.04
13.34 13.42 12.46 11.45 9.53 8.26 6.66 7.34 7.21 5.89 3.47 3.58 5.15 3.27 3.57 4.27 4.62 5.01 8.61 9.17 9.61 10.26 11.25 11.01 10.96 12.54 13.23 12.99 13.42 13.57 13.25 12.64 11.80 11.17 10.96 10.46 10.07 9.47 8.91 8.33 7.78 7.47 6.87 6.82
10.81 9.24 7.24 7.71 8.24 7.39 6.40 7.80 7.37 5.54 5.67 4.08 0.69 1.42 4.49 6.40 5.96 7.24 6.53 8.82 11.38 8.80 10.98 11.42 10.99 7.47 9.39 10.50 11.59 11.38 11.00 10.29 10.04 10.06 9.69 9.38 8.89 8.05 7.36 6.89 5.86 5.17 5.12 4.75
9.87 9.94 9.13 7.81 8.68 8.82 7.80 7.91 5.53 6.64 5.65 4.48 5.05 7.23 8.51 9.40 10.18 8.55 7.80 10.44 11.54 10.05 10.69 9.69 7.16 6.37 6.86 9.43 9.22 8.54 8.14 7.50 7.23 6.76 6.82 6.88 6.84 6.81 6.38 5.66 5.15 4.54 4.34 4.18
10.05 10.65 9.47 9.11 9.10 11.48 10.47 10.08 10.58 9.48 7.13 7.83 7.54 5.05 10.39 10.36 9.78 11.23 11.24 7.59 6.50 7.64 8.39 7.97 6.37 4.62 5.56 7.90 7.52 6.81 6.55 6.21 5.83 5.84 5.22 2.21 5.04 4.62 4.88 4.37 3.92 4.45 3.19 2.24
11.43 10.38 10.16 9.97 11.98 13.04 11.57 11.56 11.44 11.56 11.58 11.17 10.66 11.33 11.26 12.20 11.00 10.30 9.96 8.99 7.13 7.27 8.14 2.84 2.69 2.64 6.60 6.66 5.98 5.32 5.51 5.78 5.26 5.34 4.80 4.48 3.89 3.40 3.91 3.50 2.34 2.94 2.24 2.20
13.39 14.44 14.44 13.48 15.23 15.79 15.01 14.15 13.73 13.70 11.81 10.20 10.21 9.25 10.16 10.20 10.74 10.70 9.53 6.18 7.42 4.52 7.93 7.14 5.89 6.20 6.21 6.01 5.43 4.77 5.48 5.56 5.43 4.89 3.02 3.59 3.05 3.27 2.33 1.77 1.61 1.81 1.85 2.32
16.04 14.91 15.78 15.83 16.45 15.85 15.20 15.12 15.13 13.82 12.24 10.94 9.87 9.15 9.43 8.97 8.38 7.97 2.06 7.68 6.84 6.01 6.20 6.52 6.58 4.58 5.51 5.33 5.26 5.04 4.49 5.08 0.25 4.25 3.33 3.37 2.51 3.30 1.74 1.51 1.42 0.99 -0.17 -1.16

GFSNGP_sfc_wetblb_102.txt.gz
Wetbulb
35.52 36.70 36.76 36.20 35.39 35.68 34.08 35.41 32.42 36.13 37.15 41.17 44.47 46.10 47.38 46.74 44.10 43.16 43.31 39.59 38.76 39.52 40.92 43.30 44.73 46.13 47.92 54.87 56.25 57.15 57.09 57.22 57.26 57.78 58.00 57.78 57.60 58.05 58.77 58.68 58.28 58.51 58.28 58.76
31.53 35.70 35.43 32.66 34.48 34.42 34.77 36.69 37.80 38.94 38.95 45.08 42.67 43.50 41.41 40.72 40.35 39.46 38.70 38.05 37.19 37.71 38.35 41.11 42.58 43.03 43.60 45.15 46.34 48.82 49.52 50.96 56.35 57.22 56.64 56.52 57.69 57.05 56.97 57.50 58.03 57.96 57.52 57.97
27.33 32.42 31.99 28.77 33.24 34.77 36.33 38.82 39.59 35.04 41.02 42.76 34.40 32.98 32.69 35.09 36.42 35.50 36.33 35.55 34.87 35.15 36.73 39.01 40.83 41.97 41.01 41.13 42.41 42.92 43.33 44.20 45.39 47.89 49.66 50.89 55.04 55.77 56.77 57.37 57.78 56.89 57.32 57.59
28.69 30.42 21.16 32.36 39.73 38.78 36.51 39.41 40.80 41.15 39.20 36.83 34.49 33.45 32.73 33.81 33.50 33.47 33.89 34.27 33.36 33.50 34.62 37.21 40.08 40.15 39.92 39.92 40.48 38.80 38.48 39.83 40.46 42.32 42.93 44.30 45.37 46.04 47.68 49.47 47.81 50.36 48.44 53.92
27.88 27.48 30.54 34.84 36.69 36.19 35.31 35.46 38.28 37.90 39.99 40.16 38.64 38.18 32.73 33.29 32.75 32.56 33.62 34.51 33.86 33.89 33.06 35.49 37.82 39.38 38.86 38.43 37.58 36.84 36.26 37.09 38.13 39.16 39.75 40.29 40.47 41.82 43.33 42.51 39.70 37.93 37.84 38.88
30.55 24.09 21.44 32.56 38.48 41.89 40.94 32.42 37.79 37.75 37.10 39.62 38.26 36.70 31.60 32.93 32.02 32.20 33.36 33.80 33.08 34.14 33.59 33.28 35.57 38.36 37.23 35.80 36.16 35.86 35.39 35.42 36.96 37.75 38.38 38.38 39.44 39.64 39.14 37.88 35.85 35.00 32.93 33.52
29.80 27.44 31.08 36.96 40.21 42.16 30.30 29.78 36.40 36.03 33.83 32.56 29.45 31.62 31.84 31.84 30.87 31.66 32.49 32.24 33.58 32.93 32.30 32.67 34.73 35.75 34.87 35.22 34.37 36.17 35.66 35.65 35.80 37.39 36.80 37.60 38.41 38.63 37.34 35.62 33.95 32.65 31.40 31.73
30.83 26.36 23.56 36.21 39.54 33.56 34.47 34.74 35.20 34.67 34.92 33.40 32.79 32.37 31.09 30.36 29.98 29.95 30.40 31.32 32.53 32.11 30.94 31.95 32.94 33.82 32.93 33.19 34.48 34.78 34.96 34.04 34.56 35.02 35.73 36.38 36.82 36.57 37.07 35.60 33.56 32.39 31.75 31.11
29.31 28.18 33.29 34.27 32.61 33.35 33.61 31.64 33.20 34.34 34.31 33.45 32.17 30.86 29.79 28.49 28.53 28.32 28.65 29.71 31.63 30.74 30.42 30.48 31.18 31.41 30.92 32.34 34.31 33.91 32.90 33.22 33.10 33.48 34.01 33.99 34.70 35.22 34.94 36.03 35.40 33.98 33.36 32.98
32.70 30.96 31.31 33.41 33.38 32.85 32.21 31.59 31.88 32.00 32.43 33.55 31.57 30.07 28.40 27.73 27.18 26.91 27.52 28.48 30.25 31.45 30.60 29.40 29.94 29.92 30.38 32.21 33.64 33.34 32.35 31.38 30.27 29.46 31.02 32.69 32.39 32.02 32.05 32.93 32.50 31.93 31.69 31.16
31.96 32.77 32.07 31.63 32.40 32.64 31.41 32.42 32.03 31.50 30.89 30.99 31.16 29.15 28.49 26.73 26.29 25.85 26.19 27.79 28.81 29.22 29.57 29.25 30.05 29.82 30.57 31.29 33.06 32.26 31.98 31.42 30.96 29.81 29.18 27.70 27.22 28.74 28.87 29.67 30.50 30.29 29.98 30.47
27.95 30.74 31.21 30.24 31.85 32.07 29.73 28.46 28.91 29.52 29.19 29.44 30.00 28.42 28.03 26.37 26.42 26.38 25.98 26.39 26.63 27.24 27.71 28.18 28.50 28.36 29.26 31.00 31.52 31.78 30.46 30.33 30.41 30.54 30.72 30.55 28.13 25.28 26.50 27.27 27.83 28.26 28.57 28.92
30.42 32.36 31.17 31.21 31.79 31.27 29.04 27.91 28.82 28.50 28.49 27.27 27.31 27.59 26.54 25.03 24.72 24.54 25.42 25.44 25.27 25.26 26.43 26.93 26.82 26.22 26.93 28.64 29.81 28.80 28.73 29.23 29.75 29.25 29.21 28.57 28.41 27.19 24.16 24.29 24.45 25.79 26.47 26.85
32.41 32.36 29.47 29.75 27.74 29.71 28.93 28.60 28.04 27.42 26.99 26.72 26.36 26.42 25.45 24.63 23.97 23.48 22.89 23.78 24.58 24.85 24.69 25.00 24.97 23.69 25.38 27.06 27.44 27.16 27.62 26.68 27.90 27.87 27.78 27.41 26.98 26.65 26.85 25.55 23.93 22.90 22.32 23.38
29.98 30.16 28.62 27.95 27.62 27.30 28.67 28.10 26.76 25.39 24.95 24.40 24.88 23.99 24.06 22.64 21.10 20.63 21.81 23.15 23.47 22.84 22.52 22.34 21.75 22.13 24.62 26.22 26.04 25.64 27.19 26.89 26.94 26.49 26.50 26.35 26.47 25.87 25.66 24.91 24.01 23.81 24.37 23.16
28.66 27.98 27.07 24.87 25.06 25.42 25.21 25.45 24.17 22.73 23.04 22.87 22.23 21.60 21.76 22.02 21.41 20.58 20.65 19.69 18.95 18.15 19.15 18.67 19.51 20.39 22.97 24.30 25.97 26.33 25.51 24.12 25.28 25.92 25.73 25.62 25.34 24.84 23.93 23.45 22.49 21.30 19.90 20.37
26.62 25.19 25.57 23.80 23.20 22.64 22.09 22.56 22.24 21.22 21.03 20.42 19.74 20.67 20.65 19.60 19.08 18.10 18.11 18.51 17.24 17.07 18.06 18.01 18.50 19.43 21.15 22.24 24.88 25.48 25.52 25.12 24.01 25.06 24.48 24.32 24.03 23.18 22.68 22.27 21.15 19.37 17.07 16.71
27.32 26.17 25.46 24.92 23.54 22.03 21.08 21.06 20.79 19.89 18.13 17.28 16.06 14.63 13.18 13.67 14.29 13.97 14.50 15.29 15.47 15.14 15.56 16.13 17.83 18.87 19.33 21.18 23.31 24.56 24.71 24.32 24.19 23.39 23.39 22.91 22.48 21.90 21.35 20.57 20.04 19.21 18.04 15.69
25.59 24.21 23.36 22.81 22.69 21.64 20.39 19.06 18.36 17.03 15.53 14.25 12.99 11.60 11.84 11.98 12.98 12.84 13.96 13.53 14.30 14.55 14.06 15.67 17.29 18.24 18.97 18.29 21.92 23.55 23.25 22.86 22.25 21.71 21.30 20.32 20.50 19.92 19.48 19.20 17.93 17.35 16.90 16.07
22.46 22.32 22.17 21.45 21.67 20.55 18.26 17.93 17.40 14.85 14.19 12.83 11.76 11.56 11.39 9.97 10.56 11.36 13.35 12.02 12.48 13.73 15.52 15.30 17.35 18.33 18.11 17.52 18.82 21.99 21.33 21.10 20.29 19.80 20.03 19.51 19.08 17.30 15.57 14.00 15.84 16.14 15.91 15.13
19.18 18.68 17.02 15.84 13.85 13.13 13.14 13.32 12.56 11.32 10.05 10.37 10.76 8.95 9.26 10.50 10.74 11.65 15.08 16.35 13.99 13.49 15.23 15.32 15.51 16.86 18.04 17.63 19.77 19.96 19.80 19.27 18.80 18.42 18.06 17.66 17.40 16.59 16.15 15.65 15.27 15.18 14.56 14.14
16.50 14.48 13.37 13.30 13.27 12.61 12.96 14.14 12.60 11.06 10.72 9.07 7.02 7.83 9.56 11.77 11.17 11.87 11.02 13.42 16.27 12.07 15.55 16.03 15.25 11.00 13.89 14.87 17.60 17.58 16.93 16.59 16.90 17.30 16.63 16.52 16.23 15.60 14.76 14.32 13.34 13.02 12.67 12.49
16.26 15.98 15.20 14.26 14.98 14.96 14.29 13.56 12.45 12.51 11.26 10.90 11.03 12.24 13.44 14.92 15.85 14.92 14.58 14.31 15.95 12.92 15.60 13.58 9.98 9.55 11.42 15.54 15.36 15.03 14.06 13.56 13.66 13.56 13.99 14.08 14.18 14.17 13.73 12.84 12.20 12.19 11.72 11.24
17.20 17.18 16.22 16.00 15.54 16.91 16.34 15.58 16.15 14.59 12.55 13.75 12.21 11.13 14.14 16.70 16.65 16.59 16.13 12.15 10.54 11.48 12.05 11.34 10.05 8.79 10.54 13.75 13.24 12.73 12.79 12.67 12.16 12.40 11.48 9.14 12.33 11.90 11.80 11.20 11.07 11.47 9.96 9.18
17.12 16.76 16.12 15.61 17.47 20.30 17.41 17.47 16.41 16.21 15.60 16.38 14.88 15.61 14.90 16.30 15.54 15.41 15.32 14.61 10.51 12.90 13.80 7.50 7.85 8.92 12.61 12.67 11.65 11.28 11.82 11.87 10.90 11.63 11.24 10.99 10.97 10.67 11.87 11.12 9.48 10.46 9.80 9.57
19.02 20.61 20.75 19.03 20.27 20.50 20.31 19.48 17.91 18.83 17.67 16.83 17.53 17.82 17.53 16.98 16.19 15.98 15.41 11.11 12.89 11.39 13.43 13.82 11.87 11.95 12.46 11.94 11.35 10.53 11.27 11.80 11.90 10.85 8.89 10.80 10.10 10.55 9.47 8.50 8.46 8.98 9.04 9.03
20.62 19.14 20.70 20.27 21.39 21.00 20.39 19.15 18.27 18.21 18.34 17.70 16.18 17.11 16.57 16.38 15.67 13.34 9.69 14.56 13.90 13.10 13.33 13.42 13.06 11.18 10.69 10.49 11.27 11.54 11.27 11.58 7.60 9.53 10.28 10.54 9.87 10.55 9.02 8.30 8.64 8.48 7.35 6.04

GFSNGP_sfc_wetblb_105.txt.gz
Wetbulb
37.79 39.69 40.12 38.56 37.91 38.56 36.81 37.01 32.96 36.89 38.49 42.04 42.45 40.49 38.91 39.18 38.81 38.90 39.71 39.26 40.22 39.63 37.22 36.52 40.98 42.20 44.35 47.99 55.89 57.38 57.33 57.77 57.52 59.23 60.19 60.99 60.32 58.89 58.87 58.73 58.31 58.31 58.35 58.67
33.64 37.71 38.42 35.99 36.97 35.93 35.68 36.69 38.61 39.59 38.58 43.24 41.85 39.95 35.02 34.46 35.04 34.32 35.16 36.11 35.63 37.67 35.91 35.15 38.97 39.25 41.03 41.83 43.75 47.00 47.34 47.67 55.24 57.91 58.05 58.00 57.80 57.78 58.03 57.95 58.19 57.99 57.93 58.35
27.99 34.31 34.17 30.41 35.00 36.86 37.77 39.72 39.33 35.70 39.29 43.60 37.63 33.50 32.01 32.70 33.27 32.55 32.75 33.48 34.17 33.27 34.43 35.00 37.82 39.39 38.88 39.22 40.64 40.99 41.18 42.53 44.70 47.58 48.82 49.80 55.28 56.47 56.34 57.13 58.18 57.61 57.48 57.59
29.23 31.57 23.46 35.12 41.33 40.29 39.56 38.31 38.74 37.74 38.31 36.84 32.86 32.36 32.84 33.87 32.59 31.84 33.36 33.31 33.36 32.14 32.57 34.83 37.14 37.91 38.30 38.53 38.05 38.04 38.09 39.23 40.60 42.44 43.26 44.48 45.48 46.68 46.79 45.65 44.37 44.76 44.15 43.78
29.68 29.71 32.52 35.30 38.01 37.47 36.93 33.51 38.71 37.34 37.61 38.97 36.13 36.68 33.85 33.54 33.59 32.50 33.22 34.38 33.93 33.92 32.14 33.85 35.03 37.50 37.26 37.20 36.37 35.94 34.90 36.23 38.81 39.47 39.54 40.36 39.76 39.99 40.69 38.63 36.87 36.35 36.56 36.56
32.60 26.48 23.99 32.75 39.47 42.62 42.03 30.56 37.59 38.33 35.89 36.15 36.75 35.59 32.66 33.52 33.22 32.86 34.11 34.75 34.27 33.78 33.41 32.61 32.70 35.86 34.67 34.03 35.06 34.39 33.09 34.95 37.19 38.30 38.54 38.11 38.14 36.79 36.03 35.24 33.84 33.56 32.37 32.96
31.58 30.45 31.92 32.95 37.29 41.63 31.02 28.31 35.41 36.40 36.33 35.74 31.38 31.56 32.56 32.86 31.95 32.50 33.69 34.44 35.88 34.02 32.21 32.86 34.29 34.08 33.58 33.73 32.55 34.03 35.01 35.19 36.06 37.00 37.78 37.84 37.91 36.32 34.82 33.33 32.57 31.88 31.45 31.51
32.60 29.58 25.81 32.90 38.51 31.78 32.59 34.33 34.87 34.44 35.36 34.30 33.55 32.99 31.93 31.23 31.21 31.74 31.87 33.22 34.93 34.15 32.03 32.40 33.50 33.53 32.07 32.24 34.34 33.76 33.45 34.44 34.89 35.12 35.99 37.46 37.26 37.59 37.33 36.13 34.65 33.85 32.90 32.46
29.41 27.66 32.37 33.10 31.82 33.51 35.39 33.98 33.95 34.56 35.16 35.06 33.73 32.13 31.44 30.78 30.70 30.85 31.74 32.79 34.40 35.08 34.19 33.10 32.97 32.66 30.60 32.71 34.24 34.01 32.84 32.38 32.74 32.79 34.37 34.00 33.95 34.64 35.32 35.67 34.89 33.80 33.25 32.82
31.10 30.95 31.52 33.26 34.07 34.69 34.67 33.45 33.87 34.41 34.72 35.04 33.37 33.30 32.31 31.81 31.32 30.81 31.00 31.05 33.34 33.43 32.60 31.71 31.94 32.20 32.38 33.50 35.13 34.17 32.61 31.49 31.19 28.61 28.35 29.60 30.69 29.99 29.17 31.82 32.39 32.34 32.19 31.09
30.81 31.82 32.72 32.22 32.85 33.56 32.89 33.71 34.09 34.67 33.95 33.53 34.16 32.91 32.59 31.43 30.88 30.71 30.38 31.08 31.36 30.92 30.87 30.88 31.20 30.25 31.07 32.42 33.51 33.45 33.07 32.65 31.85 31.10 28.99 26.92 26.09 27.06 27.99 28.37 29.05 29.60 28.39 28.97
28.99 32.53 32.30 30.60 32.43 33.45 32.14 31.27 32.34 32.83 32.61 32.71 32.50 31.75 32.24 30.55 30.38 30.19 29.17 29.88 29.99 29.95 29.93 29.56 29.51 28.30 29.19 30.55 31.23 31.35 31.23 30.92 31.01 31.19 31.20 29.80 27.63 24.99 26.53 27.57 27.87 28.02 28.45 28.04
31.46 33.06 32.63 32.79 32.28 32.45 30.86 30.75 31.55 31.46 31.56 30.95 30.83 31.03 30.30 28.92 28.45 28.21 28.77 27.94 27.68 27.30 27.84 28.24 26.54 25.62 27.29 28.81 29.60 28.88 28.98 29.57 30.12 30.17 30.20 29.57 29.13 27.83 24.27 24.88 25.09 25.58 26.08 26.19
33.88 33.65 31.04 32.21 29.97 31.79 31.41 31.69 31.23 31.10 30.64 29.78 29.82 29.91 28.85 27.46 27.22 26.08 25.80 26.67 26.99 26.28 25.57 25.51 25.03 23.88 26.03 28.62 27.86 28.74 28.90 27.89 28.93 29.18 29.04 29.13 28.48 28.02 28.25 26.31 24.24 23.01 23.94 24.36
32.30 32.94 31.24 30.53 30.61 30.09 31.73 31.43 29.45 28.40 28.11 27.47 28.10 27.02 26.98 25.28 23.99 23.66 24.46 25.18 25.74 24.44 23.23 23.00 22.08 21.82 24.97 26.89 28.56 26.71 27.25 28.33 28.60 28.11 28.10 28.12 28.12 27.77 27.34 26.25 25.30 25.31 26.10 25.39
31.35 30.60 29.60 28.21 27.55 27.83 28.79 28.37 27.16 25.46 25.57 25.47 25.17 24.83 25.20 24.90 24.03 23.08 22.60 21.83 20.21 19.26 20.28 19.85 20.07 21.20 23.13 24.77 27.36 27.10 26.63 26.34 27.30 27.83 27.96 27.50 27.30 26.70 26.10 25.06 23.54 22.06 20.91 22.18
30.19 28.49 28.39 27.08 26.18 25.85 25.19 25.82 25.19 24.19 23.61 22.75 21.69 22.36 23.34 23.04 22.05 20.30 19.65 20.01 19.08 17.92 19.16 18.45 18.63 21.10 21.41 23.23 26.40 26.85 27.56 26.72 26.21 26.50 25.98 25.87 25.37 24.85 24.53 23.84 21.82 19.89 18.66 19.54
31.60 30.42 29.71 29.20 27.21 25.49 24.26 24.12 23.82 22.52 20.16 19.53 18.29 16.91 15.91 16.25 16.44 16.42 16.68 18.04 18.45 17.90 17.17 17.36 19.11 20.56 21.04 20.91 23.99 26.43 26.40 26.04 25.77 25.11 24.79 24.61 24.15 23.83 23.40 22.89 22.11 20.71 19.69 18.89
29.34 27.51 27.13 26.57 26.34 25.19 23.88 22.01 20.63 19.34 18.01 16.72 15.79 14.56 14.60 14.56 15.19 15.20 16.37 15.73 15.89 17.10 16.05 17.31 18.93 20.42 20.87 19.92 22.47 25.32 25.16 24.91 24.37 23.57 23.61 23.19 22.53 21.93 21.58 21.33 20.32 20.14 19.98 18.97
26.25 26.37 25.44 24.65 24.64 23.47 21.06 20.76 19.97 16.93 16.59 16.18 14.95 14.04 13.72 12.35 12.69 13.99 16.96 14.59 14.37 15.11 17.51 17.75 18.48 20.44 19.66 20.71 21.81 24.12 22.81 23.25 21.95 21.30 20.90 21.20 21.09 20.04 18.58 17.21 19.31 19.36 18.82 18.01
22.70 22.02 20.27 18.67 16.60 16.18 15.93 16.11 15.35 13.69 12.51 12.72 12.95 11.28 11.93 12.90 12.94 13.30 17.97 20.08 17.19 14.93 17.98 18.19 17.10 16.22 19.27 18.56 22.12 22.07 21.72 21.57 20.84 20.56 20.11 19.96 19.90 19.28 18.64 18.48 18.12 17.91 17.32 16.86
20.08 17.81 16.17 16.07 16.03 15.83 16.54 16.93 15.43 13.82 13.46 11.95 10.47 11.04 12.41 16.75 15.17 15.06 13.47 14.70 19.50 13.10 18.37 17.88 15.38 12.13 15.45 16.76 19.83 19.58 19.23 18.77 18.92 19.13 18.63 18.47 18.37 17.71 17.07 16.77 15.84 15.86 15.67 15.36
19.10 18.51 18.01 16.87 17.79 18.01 17.16 16.07 15.15 14.55 13.61 13.52 13.57 14.89 16.37 17.44 18.55 17.29 16.88 16.40 17.60 14.95 17.84 15.56 10.83 10.79 12.38 17.73 18.04 17.69 16.92 16.24 16.41 16.32 16.29 16.37 16.36 16.30 16.07 15.29 15.18 14.83 14.42 13.93
20.71 20.29 19.28 19.97 18.75 19.20 18.59 18.14 18.96 16.95 14.97 16.34 14.23 13.04 15.80 18.38 20.29 19.86 18.60 14.16 12.58 13.05 13.77 12.10 10.98 10.63 12.80 16.54 15.83 15.72 15.68 15.67 15.35 15.26 15.69 12.48 15.11 14.98 14.59 13.78 13.48 14.07 12.75 11.69
20.63 20.02 19.46 18.86 20.20 21.43 20.14 20.17 19.01 18.58 18.44 19.31 18.16 18.72 17.45 19.09 17.19 17.57 16.98 16.97 12.36 14.32 16.32 9.56 10.22 11.45 15.10 15.13 14.36 14.06 14.56 13.99 12.45 14.18 13.79 13.81 13.41 13.25 13.55 13.19 11.38 12.15 11.78 11.68
22.13 23.76 23.55 21.84 22.69 23.30 23.70 23.33 21.42 22.49 21.87 20.20 20.85 20.85 20.25 19.38 18.59 17.17 17.76 14.29 15.35 13.89 15.50 15.33 14.78 13.31 14.93 14.55 13.28 13.19 13.19 13.90 13.80 13.51 10.85 12.78 12.72 12.17 11.77 10.67 10.45 10.95 11.35 11.20
23.19 21.07 23.33 22.92 23.99 23.68 22.80 21.37 20.19 20.70 21.78 21.19 18.95 20.55 19.15 18.41 17.84 14.87 13.36 16.36 16.09 15.56 15.46 15.90 15.39 14.03 13.25 12.66 13.66 13.49 13.51 13.73 11.94 11.99 11.56 12.08 12.11 12.04 11.49 10.47 10.66 10.52 9.86 9.05

GFSNGP_sfc_wetblb_111.txt.gz
Wetbulb
34.24 36.12 36.07 34.15 33.84 34.72 33.84 35.58 31.35 31.23 29.70 31.63 32.07 32.11 32.38 33.08 33.49 33.22 33.32 33.65 33.78 33.87 34.45 35.45 36.62 37.97 38.25 38.29 39.09 40.66 41.67 43.05 44.23 47.28 58.45 58.23 58.52 58.17 58.19 58.01 57.98 57.56 57.87 57.45
30.83 34.75 35.29 33.10 34.74 35.10 35.08 36.28 35.88 33.71 30.60 34.73 32.94 31.81 30.35 30.57 30.78 31.07 31.75 32.71 33.11 33.29 33.47 34.10 35.27 36.43 37.40 37.40 37.34 38.66 38.88 39.70 41.48 42.60 45.06 52.83 57.34 57.45 57.24 57.14 57.12 56.82 56.51 56.09
26.37 32.48 34.11 29.09 32.08 32.46 32.91 34.39 33.72 29.49 34.10 34.06 29.88 29.01 28.58 29.37 29.94 30.34 32.29 32.67 31.95 31.92 32.55 33.72 34.25 35.72 35.75 36.78 37.26 36.65 36.87 38.29 39.14 39.44 40.48 41.80 43.49 50.53 52.11 54.80 53.19 52.04 48.70 45.79
26.35 29.82 23.49 30.57 36.15 34.64 31.69 32.61 34.21 34.17 33.14 31.30 29.49 29.71 29.79 30.62 29.94 30.30 32.02 33.74 32.32 31.93 32.09 33.32 34.92 35.13 36.13 35.36 35.59 35.16 35.07 35.97 37.08 37.80 38.13 38.37 38.61 36.79 37.69 38.92 39.89 39.55 38.97 38.45
25.73 27.10 30.76 30.75 30.96 30.28 31.60 28.89 33.44 32.18 33.38 32.52 32.68 33.89 28.67 30.61 31.51 31.27 32.44 34.47 32.97 32.86 32.53 32.83 33.53 34.98 34.53 33.31 33.27 33.08 32.48 33.90 35.21 36.17 36.40 37.02 35.56 34.61 34.84 34.18 33.78 33.77 34.36 34.39
28.78 24.71 21.55 27.00 30.76 34.78 36.29 23.47 33.62 33.54 31.48 31.14 35.19 26.33 25.60 30.84 31.72 31.86 33.77 34.39 32.06 31.77 31.91 31.78 32.46 34.68 33.53 32.07 31.36 30.81 31.62 32.45 33.83 34.21 33.74 33.86 34.35 33.45 33.72 33.44 31.98 32.44 31.83 32.55
27.68 25.77 26.04 28.99 32.07 35.71 25.23 24.22 34.67 34.48 32.34 30.52 27.25 28.00 30.37 31.65 30.68 32.17 32.76 33.35 33.85 30.83 28.86 29.98 31.21 32.38 32.42 32.12 30.60 31.09 31.71 30.97 30.56 31.93 32.13 32.16 33.75 33.48 32.94 33.08 32.44 31.77 30.50 30.34
26.06 23.80 19.38 31.86 31.99 26.60 31.89 34.21 34.69 34.56 33.59 31.87 31.55 31.58 31.35 30.78 30.15 29.94 29.38 30.88 31.85 29.91 28.43 28.76 29.52 29.88 29.66 30.93 33.31 32.50 30.73 29.46 28.51 28.83 30.55 30.58 30.63 31.90 32.20 32.22 31.81 31.05 30.09 29.97
26.44 24.98 31.83 33.06 32.37 33.92 34.14 32.49 32.30 32.91 33.94 33.44 32.52 31.60 31.04 29.16 28.19 28.49 28.51 28.75 30.16 28.55 27.44 27.52 27.95 28.33 27.63 29.46 33.49 33.52 30.73 28.46 27.45 27.23 27.73 28.82 27.66 27.89 29.26 29.88 30.43 28.57 27.84 27.53
28.76 30.34 30.85 31.97 32.79 33.06 33.70 33.41 33.53 32.25 31.42 33.33 30.90 30.73 28.18 27.85 27.05 26.94 27.04 26.65 27.47 26.62 25.11 24.96 26.71 27.40 27.96 29.52 31.37 31.49 31.39 28.62 27.02 25.70 25.47 26.23 26.82 26.89 26.65 26.69 26.22 26.80 26.21 25.97
28.71 30.25 30.46 31.36 32.09 32.93 32.53 32.66 32.29 31.70 30.16 29.79 29.59 28.08 27.16 25.91 26.03 25.81 25.60 25.94 25.48 24.49 23.44 23.11 24.80 25.03 26.88 28.39 29.46 29.38 30.03 30.24 28.55 26.10 24.53 24.21 25.37 25.29 25.74 27.38 27.36 25.61 25.80 26.51
25.19 32.68 30.22 29.45 32.06 33.28 30.74 29.87 29.69 29.12 28.35 28.74 28.45 26.93 26.15 24.77 25.22 24.98 24.29 24.35 23.24 22.81 22.33 21.97 22.06 22.25 23.76 27.13 28.49 27.26 27.44 27.96 28.53 29.14 25.69 24.16 22.96 23.07 27.42 27.69 28.85 29.40 29.60 28.25
29.55 32.86 31.99 31.92 32.59 32.66 29.57 30.15 29.51 28.25 27.77 26.70 27.19 26.09 25.25 23.19 23.10 22.98 23.03 22.26 21.16 20.84 21.08 20.77 20.17 20.00 21.74 24.35 26.44 27.18 26.15 26.57 27.12 27.46 27.61 27.59 23.66 22.14 19.57 23.32 27.06 27.57 28.22 28.92
33.47 32.90 30.45 31.86 29.37 31.89 31.93 30.87 29.90 27.83 26.96 25.67 25.46 25.54 23.83 21.94 21.52 20.16 18.79 20.93 20.70 19.58 18.83 19.24 18.78 18.61 20.31 22.05 25.41 23.92 24.65 26.53 24.03 24.30 25.37 25.44 25.45 25.01 22.28 19.92 18.77 20.75 25.99 26.29
31.86 32.28 31.10 31.26 30.54 29.81 30.77 29.11 25.94 23.88 23.70 22.75 23.11 22.85 22.24 20.15 18.84 18.73 19.04 18.59 18.66 17.89 16.99 17.03 17.17 17.58 18.79 19.93 20.68 24.23 23.39 24.28 25.45 24.49 24.65 23.81 23.70 23.08 21.51 19.87 18.45 18.12 19.21 23.00
31.09 30.46 29.60 26.69 26.05 25.71 25.43 24.56 22.14 21.10 20.46 19.35 18.84 19.04 21.01 19.81 18.56 18.03 18.59 17.27 15.16 13.38 14.15 11.55 14.90 15.98 19.60 18.84 18.69 24.22 24.04 23.27 23.54 22.26 21.85 22.19 22.55 20.23 18.69 17.43 16.58 16.13 16.45 18.24
27.45 26.27 25.85 23.59 22.96 22.62 22.01 21.67 20.51 19.26 18.53 17.70 16.96 17.05 17.99 18.56 16.67 15.25 14.99 17.37 14.50 10.96 14.25 13.45 11.76 13.72 16.25 16.28 16.25 22.15 23.14 17.79 18.08 19.71 21.08 20.26 20.26 19.96 15.05 15.27 14.77 13.45 15.25 16.93
28.03 26.84 27.27 25.22 22.84 21.89 20.80 20.21 19.01 17.68 16.14 15.77 14.64 10.40 7.12 7.05 8.84 8.49 8.88 9.37 10.13 7.41 9.47 7.55 10.23 13.04 11.86 13.28 15.75 15.93 19.61 18.23 18.36 18.37 15.19 16.73 18.53 19.33 17.35 16.30 13.10 13.50 15.19 15.02
25.82 24.35 24.09 23.83 22.71 20.92 19.43 17.96 16.69 16.04 12.60 10.74 7.33 3.66 2.40 0.53 3.62 1.89 6.12 3.39 0.89 1.01 6.32 6.49 15.71 9.73 10.37 13.12 14.99 16.49 16.15 17.09 14.77 15.70 17.13 11.75 11.02 14.72 15.37 13.42 11.40 11.90 11.35 10.58
23.00 21.89 20.28 20.15 21.46 20.18 18.14 17.33 14.92 11.40 8.41 5.86 1.18 0.50 -1.08 -1.85 -3.03 -3.16 -1.69 2.65 1.58 1.90 3.26 6.07 8.06 8.47 10.07 12.90 11.33 16.33 15.31 15.64 16.81 17.20 13.98 12.20 13.87 10.00 8.69 9.63 10.94 6.46 3.55 3.48
16.80 15.80 13.87 13.16 10.89 10.12 7.52 5.21 4.57 1.37 -1.09 -3.10 -1.95 -3.51 -2.96 -0.45 -1.13 -1.76 1.66 8.51 7.82 3.84 11.66 8.79 8.12 7.93 10.10 9.90 12.70 10.76 10.33 10.83 12.40 14.00 13.31 14.41 13.24 9.93 7.01 5.19 5.19 6.79 7.93 8.09
11.78 10.04 7.47 7.28 8.85 5.51 4.12 4.05 3.95 0.48 -0.14 -1.53 -3.02 -4.22 -3.32 4.18 2.17 4.22 0.45 4.55 8.46 4.67 10.69 8.42 7.93 2.80 7.52 6.34 12.43 9.92 10.60 8.25 7.55 7.73 7.78 8.07 10.81 11.16 9.80 8.21 8.60 8.77 7.73 4.16
11.41 10.72 10.24 7.60 8.30 8.36 5.62 5.49 2.27 2.22 0.49 -0.49 -0.88 -0.14 1.44 6.97 9.59 5.92 6.90 8.62 9.94 6.06 10.35 4.76 1.23 0.08 1.47 7.92 3.16 3.63 6.93 6.37 6.58 5.07 -2.67 -1.54 -2.79 1.16 0.98 0.98 5.79 1.71 0.30 3.78
12.16 11.89 9.25 10.78 11.72 13.09 9.25 6.24 8.37 10.28 4.54 5.47 3.51 1.42 7.12 4.63 4.42 14.98 12.37 6.05 2.55 -1.56 0.39 1.86 -1.16 1.05 0.48 3.84 -2.13 -3.01 4.37 -4.10 -5.53 -0.97 6.00 3.77 -3.69 -3.35 -1.35 -5.53 -1.51 4.29 -1.70 -5.21
14.02 12.43 11.69 9.32 12.05 13.09 16.85 14.37 13.41 14.73 14.45 15.58 15.98 15.65 13.01 14.99 6.60 6.95 4.71 5.02 6.57 5.18 1.99 4.81 3.60 1.46 -2.67 4.50 -3.07 -3.87 -4.98 2.23 -4.21 -6.26 -6.79 -7.12 -1.36 -4.66 -4.08 -1.71 -7.06 -8.85 -8.13 -4.58
17.08 16.40 15.45 15.51 18.43 18.67 18.10 19.01 15.29 17.06 18.66 17.22 19.65 16.45 11.91 8.57 8.04 7.63 7.36 6.83 5.51 8.74 3.58 0.32 5.03 2.96 -2.12 -2.58 -4.61 -0.86 2.88 0.07 4.84 0.76 -5.13 -4.08 1.80 -3.93 1.47 -3.62 -7.83 -4.77 -1.35 -4.24
19.98 20.38 20.29 18.42 19.45 18.99 16.85 14.54 10.97 9.47 9.03 4.30 8.72 17.44 12.43 5.80 3.25 5.48 4.28 4.41 7.09 1.48 0.44 2.87 0.44 4.02 4.68 -0.27 -2.40 -1.55 -1.06 -1.33 3.64 0.35 -5.57 -7.31 -5.40 -3.91 1.01 -0.53 -5.35 -7.18 -8.64 -9.34

GFSNGP_sfc_wetblb_114.txt.gz
Wetbulb
34.50 35.23 34.98 32.48 35.17 35.27 34.29 32.88 27.60 28.07 26.54 27.84 28.92 29.24 30.30 31.04 31.53 31.29 31.62 31.97 32.03 32.18 33.05 34.25 34.82 35.46 36.66 37.04 38.33 38.71 38.74 39.57 40.60 42.24 43.76 46.80 56.90 57.08 58.13 58.10 57.97 58.07 57.81 57.04
30.36 33.76 33.34 30.43 31.96 33.03 34.30 33.13 30.90 29.21 26.58 30.60 30.34 30.07 28.99 29.60 30.33 30.64 31.62 31.40 31.19 31.57 32.18 33.30 33.86 34.46 35.45 35.72 35.75 37.70 36.96 37.33 39.02 40.50 40.84 40.88 43.32 53.58 57.46 57.51 57.31 57.31 57.12 56.42
26.40 32.29 31.63 24.58 29.35 30.25 30.72 31.69 32.51 28.49 30.08 30.40 26.66 26.65 26.95 28.15 29.73 30.55 32.47 30.68 30.59 30.81 31.25 32.46 33.66 34.45 33.67 34.12 35.14 34.60 35.72 35.80 37.04 37.81 38.74 38.84 39.12 39.18 41.10 43.83 49.84 47.97 47.52 46.46
27.13 29.48 18.84 28.65 34.25 32.58 29.63 31.70 31.94 31.90 29.88 28.46 27.30 28.23 28.82 28.75 28.59 29.39 32.17 30.23 30.09 30.24 30.79 31.60 33.36 34.69 34.58 33.86 33.12 32.58 32.41 34.20 34.84 35.89 36.34 37.48 37.60 35.75 35.08 35.60 36.43 37.28 36.96 37.59
26.91 25.97 27.50 27.84 29.10 28.21 28.94 27.12 33.57 30.34 32.68 30.48 30.29 31.63 27.16 30.44 31.16 31.01 32.34 30.25 29.11 29.39 30.51 30.69 31.38 33.30 33.16 32.15 31.45 30.88 30.26 30.63 32.62 33.80 34.01 34.85 33.76 34.15 34.51 33.58 32.89 31.91 33.01 33.25
28.68 22.53 18.39 25.07 29.24 33.08 33.50 22.96 33.61 31.66 29.76 28.83 32.08 22.98 24.27 30.01 31.31 29.73 31.11 30.08 28.45 28.30 28.34 29.05 29.65 31.93 32.45 31.45 30.16 29.19 29.31 29.36 30.64 32.05 31.91 32.42 32.78 33.24 33.28 33.22 32.59 32.29 31.53 31.85
26.85 23.90 24.84 27.78 31.27 34.98 23.68 23.47 33.57 32.11 30.03 28.26 25.17 26.70 29.45 30.91 28.26 28.63 29.46 29.58 29.18 27.32 25.83 26.45 28.77 30.10 29.31 30.80 31.14 30.52 30.01 29.40 29.01 29.60 30.28 30.53 32.11 32.15 32.33 32.15 32.32 31.89 31.22 30.90
25.29 21.13 18.20 30.60 30.24 27.15 30.31 33.07 32.76 33.04 31.84 29.63 30.06 30.68 28.84 26.55 26.61 26.96 26.30 26.88 27.14 25.72 24.97 26.06 27.56 27.87 27.45 28.12 32.48 31.77 29.71 27.94 27.30 27.77 28.78 29.14 28.92 30.24 30.26 31.10 29.68 29.39 30.28 29.97
26.10 23.79 30.67 32.08 31.73 33.40 32.94 31.02 30.12 29.92 32.74 32.08 29.31 27.11 26.62 25.53 25.31 25.35 24.59 24.67 25.46 24.00 23.91 24.47 25.38 25.79 25.83 28.07 30.58 31.56 27.86 25.72 25.16 26.29 26.36 27.04 26.92 27.35 27.20 27.90 27.95 27.55 27.77 27.87
26.31 29.94 30.24 31.46 32.25 32.30 31.36 31.39 29.41 29.05 29.55 29.72 26.67 26.12 25.20 24.81 24.35 24.03 23.43 22.80 23.56 22.84 21.57 21.41 22.61 23.72 24.52 27.18 29.27 29.70 29.23 26.05 24.90 24.29 24.64 25.82 26.31 26.87 26.48 25.86 25.64 26.18 26.53 27.08
27.84 29.55 30.31 31.40 31.92 31.24 29.81 30.01 28.73 28.51 28.09 27.29 26.17 24.61 24.26 23.42 23.25 22.91 22.19 22.21 22.02 20.87 20.49 19.92 20.87 21.39 22.26 24.25 27.36 26.80 27.48 28.24 27.07 24.59 23.48 23.26 25.16 26.25 26.50 28.10 28.30 26.31 27.03 27.94
25.31 31.35 29.93 29.78 31.76 31.34 27.95 26.38 27.05 26.36 25.37 26.35 25.39 23.41 22.90 21.21 21.27 21.73 20.55 20.58 19.50 19.55 19.33 18.76 19.52 19.90 20.74 22.62 25.81 26.31 25.72 25.99 26.68 26.85 23.53 22.69 21.93 22.13 27.47 27.90 29.01 29.92 30.27 28.20
30.37 32.60 31.89 32.00 30.69 29.73 26.84 26.30 26.37 25.31 25.15 23.65 24.21 22.99 21.74 20.14 20.12 20.79 20.22 19.18 18.13 17.67 18.05 18.54 18.41 18.90 19.75 21.65 23.71 25.28 25.04 25.96 24.93 25.40 25.69 24.30 21.18 21.15 18.47 22.44 27.28 27.77 28.29 29.19
33.08 32.04 29.43 31.05 27.07 30.17 27.92 26.92 26.84 24.53 23.70 23.39 22.55 22.35 21.22 19.45 19.24 17.67 16.61 17.73 17.87 16.56 16.58 16.76 17.18 16.62 19.32 20.89 21.97 22.58 21.18 23.47 23.10 22.31 20.95 21.21 18.95 18.07 17.64 17.92 17.16 18.16 23.95 25.55
31.11 32.29 30.54 28.67 27.39 27.29 26.93 25.20 22.25 21.06 20.80 19.87 21.02 20.76 19.82 17.69 16.86 17.23 17.04 17.47 16.59 15.42 14.83 14.81 15.34 14.44 16.97 19.06 19.19 22.25 22.01 22.13 20.85 19.99 21.67 21.55 18.60 17.50 16.28 16.20 15.31 16.06 18.04 19.94
30.74 30.21 26.39 24.35 23.25 23.46 22.81 21.99 19.72 18.66 18.51 18.10 18.03 19.07 18.27 17.68 16.26 16.00 17.26 15.57 13.55 11.58 12.81 9.71 13.44 13.81 16.08 16.23 16.54 21.26 20.84 18.03 17.78 18.00 17.78 20.02 15.46 14.42 15.12 14.78 14.86 15.75 15.44 15.85
26.59 24.35 23.31 22.41 21.75 21.12 19.94 19.70 18.75 17.78 17.44 16.57 15.74 16.58 17.52 16.09 15.09 14.14 12.99 15.80 12.03 8.58 12.41 10.83 8.11 10.43 12.05 12.20 11.96 14.08 18.90 15.74 12.73 14.78 16.18 18.07 16.72 9.76 10.57 12.99 14.18 13.95 13.66 14.50
27.41 27.20 25.34 23.65 21.05 19.59 18.85 18.88 18.18 16.91 15.03 15.09 12.60 7.81 4.39 4.49 6.52 6.33 6.79 5.70 5.90 6.07 6.61 4.51 6.06 6.10 7.96 9.55 11.72 13.33 13.20 12.47 13.87 15.54 11.74 11.57 15.23 15.95 11.02 8.63 12.91 13.58 12.48 12.45
24.81 23.98 23.32 22.59 21.18 19.70 18.60 17.06 16.03 15.08 11.35 8.97 4.74 1.54 -0.75 -3.02 0.79 -0.78 -0.37 -1.66 -3.64 -2.46 3.36 1.50 12.21 5.04 6.05 9.81 12.03 12.98 13.12 13.32 13.59 13.34 13.11 7.64 8.01 13.51 11.65 11.25 9.50 5.72 7.09 7.94
20.73 21.71 21.23 20.48 20.63 19.31 16.82 15.69 14.18 10.63 6.18 3.96 -4.32 -4.83 -3.40 -4.83 -7.73 -7.73 -4.50 -0.17 -2.18 1.32 -0.61 -0.41 3.55 5.93 7.84 10.28 9.40 12.04 9.65 9.78 13.49 13.03 13.63 10.54 5.63 2.96 7.44 10.23 7.52 2.37 1.31 2.27
17.05 15.85 14.35 13.64 10.06 8.70 6.51 4.57 3.52 -0.58 -3.86 -6.88 -2.73 -4.83 -4.29 -4.13 -7.55 -6.47 -0.84 2.13 0.87 0.79 5.30 6.09 5.57 6.59 10.00 7.62 10.80 6.52 4.51 4.22 5.64 7.05 8.17 8.68 7.80 6.40 -1.03 -2.48 4.00 5.88 4.66 6.46
10.27 9.00 6.79 6.96 7.47 2.60 -0.23 1.25 1.67 -3.25 -3.75 -5.20 -9.00 -10.45 -6.13 -0.93 -4.47 -1.33 -2.74 3.24 6.07 2.73 7.24 6.46 6.30 1.05 5.41 4.19 8.18 3.76 7.04 4.19 1.44 0.11 0.36 -0.69 2.70 3.89 4.43 3.19 2.71 0.94 -0.67 -1.58
9.49 9.64 8.69 6.63 7.48 6.76 1.90 1.86 -2.16 -0.41 -1.63 -3.24 -2.85 -3.62 -1.02 3.19 4.78 4.11 3.00 7.43 8.34 3.98 7.96 3.43 -0.21 -1.77 -1.59 -2.30 -4.83 -4.65 -2.86 -4.53 -4.29 -3.02 -5.01 -4.83 -4.83 -8.28 -5.92 -3.56 -4.30 -3.55 -3.75 -1.26
9.61 11.01 9.20 8.99 7.72 10.86 8.10 4.81 6.28 7.79 1.62 2.43 2.52 0.15 5.65 2.87 2.24 10.68 9.72 4.59 1.81 -2.53 -1.43 1.12 -2.37 0.18 -3.20 -4.29 -7.01 -8.82 -6.83 -8.49 -9.55 -10.63 -3.30 -4.29 -7.73 -6.83 -7.55 -9.00 -7.19 -9.55 -11.36 -10.09
12.18 11.05 10.87 9.80 11.77 11.50 11.83 10.73 10.42 10.29 13.27 14.40 14.07 15.32 11.85 12.66 6.38 6.64 2.62 4.38 4.38 3.55 0.63 -0.40 0.80 0.97 -7.19 -7.37 -9.91 -9.00 -9.18 -7.01 -4.47 -10.82 -11.54 -11.54 -7.01 -8.46 -8.28 -8.28 -12.08 -13.01 -13.17 -8.46
15.20 16.00 15.66 14.44 14.68 15.67 16.51 16.91 14.83 14.62 15.89 14.23 14.46 12.02 11.89 10.26 11.31 6.90 3.11 2.43 3.47 5.64 1.20 -2.36 -4.11 -1.05 -3.38 -6.10 -7.99 -9.76 -5.92 -3.07 -3.38 -0.52 -7.73 -10.27 -11.18 -5.38 -4.11 -6.51 -11.00 -11.54 -11.00 -11.18
16.20 15.79 16.83 16.51 18.11 18.14 15.81 14.82 11.32 8.44 6.28 0.96 4.73 9.06 12.79 10.19 4.28 4.22 -0.88 -3.44 -2.85 -3.20 -4.47 -4.65 -5.74 -3.93 -3.20 -4.47 -1.74 -5.12 -6.28 -6.12 -5.74 -5.74 -9.73 -11.90 -12.63 -8.10 -5.74 -7.01 -8.64 -10.27 -13.17 -14.99

GFSNGP_sfc_wetblb_117.txt.gz
Wetbulb
30.98 32.71 32.23 32.56 35.74 34.62 31.88 31.50 25.64 25.57 24.05 26.04 27.40 28.25 29.40 30.97 32.16 30.98 30.67 30.58 30.86 31.07 31.51 32.93 33.80 34.34 34.64 35.02 35.60 36.04 36.61 37.01 37.74 39.15 41.09 41.25 42.81 44.91 54.99 58.15 58.23 58.11 58.47 58.62
28.89 31.20 29.35 27.06 29.67 31.65 30.46 29.11 27.79 26.45 23.58 28.82 29.19 29.38 28.50 29.38 30.49 29.57 28.69 29.15 29.60 30.22 30.72 31.46 32.87 32.79 33.22 33.41 33.96 34.42 33.83 34.24 36.39 37.62 38.09 38.72 39.10 39.44 39.15 41.69 52.52 57.51 57.41 57.33
26.77 31.56 30.73 22.61 26.93 28.40 28.79 30.91 31.75 24.53 26.11 28.51 25.95 25.89 26.70 28.22 29.41 29.34 27.43 27.14 27.67 29.09 29.60 30.60 31.83 33.45 31.94 32.30 32.93 32.50 32.27 32.60 33.41 35.49 36.12 36.54 37.40 37.45 36.70 35.69 37.04 38.53 42.00 44.73
27.14 29.72 17.83 26.78 31.75 32.00 28.49 29.62 31.25 28.50 27.87 27.20 26.18 27.59 28.67 29.34 28.46 29.71 27.27 26.33 26.05 27.44 28.60 29.45 31.15 32.35 33.35 31.66 31.18 30.49 30.03 30.69 31.77 32.56 33.61 35.05 35.44 35.02 35.91 36.10 34.16 33.68 34.64 36.40
25.86 23.10 26.47 27.11 27.98 27.71 27.68 26.32 31.10 29.70 29.62 28.46 29.06 30.43 26.70 29.76 29.56 29.29 27.28 26.81 26.14 26.47 27.42 28.24 28.51 30.73 32.17 30.80 29.41 29.02 28.29 28.45 29.64 31.24 31.04 31.78 32.27 33.08 34.05 34.38 33.60 32.64 33.09 33.23
28.61 21.96 18.27 24.85 28.65 33.09 32.38 21.81 31.59 29.72 28.19 27.03 31.16 21.96 23.32 27.77 27.46 27.24 28.27 26.59 25.13 25.42 25.43 25.61 27.42 29.41 29.29 30.44 28.20 26.93 27.51 27.78 28.75 29.19 29.69 29.66 30.75 30.81 32.55 32.50 32.03 32.75 32.17 32.23
25.99 22.80 23.99 27.07 30.56 35.37 23.38 22.70 32.82 29.69 27.97 25.83 23.33 25.09 27.24 25.69 23.76 24.65 25.14 25.11 25.47 24.41 23.19 24.18 26.05 27.28 26.57 28.24 29.62 27.25 27.45 26.90 26.76 27.45 28.45 28.61 29.69 30.30 30.00 30.61 31.17 31.55 31.41 30.98
24.88 20.23 17.98 30.15 30.15 25.90 29.55 31.47 32.54 31.80 29.65 28.88 27.83 25.86 24.95 23.06 22.01 23.30 22.78 23.00 23.24 22.42 21.79 22.62 23.68 24.13 23.52 25.20 29.42 31.05 26.70 24.93 24.50 24.94 26.66 27.95 27.83 28.50 28.85 29.01 28.62 28.82 29.18 29.18
25.03 22.99 29.54 31.36 30.53 32.54 31.79 27.24 26.95 29.74 30.98 27.83 25.63 24.52 24.16 22.98 22.85 22.61 21.87 21.33 22.49 21.30 21.13 21.51 22.13 22.47 21.83 24.35 27.97 28.58 28.44 25.11 24.08 24.52 25.39 25.70 25.91 26.19 27.24 27.59 27.59 27.55 28.01 28.00
25.66 28.88 29.37 30.29 30.35 29.66 28.86 26.82 27.57 28.56 27.31 26.31 24.00 23.86 22.55 22.27 21.40 20.69 20.35 19.74 20.63 20.11 18.95 19.29 20.78 21.58 21.77 23.66 26.88 26.78 26.89 27.64 24.93 23.24 23.16 25.43 26.27 26.68 26.75 26.66 25.46 26.51 27.18 27.09
26.40 29.11 29.91 30.60 29.25 28.60 27.55 27.45 26.77 27.44 25.86 24.62 23.29 21.75 21.18 20.34 19.96 19.47 18.70 18.90 18.81 18.46 18.13 17.69 19.53 19.87 20.50 22.28 25.22 25.50 25.80 26.09 26.57 23.97 22.71 22.19 23.64 25.87 26.21 27.60 28.68 26.02 26.31 27.38
23.07 28.99 28.57 28.96 29.36 28.56 25.68 24.91 25.40 24.42 23.12 23.66 22.90 20.46 19.90 18.80 19.35 18.79 17.86 17.90 17.01 17.27 17.36 17.01 17.80 18.41 19.50 21.29 23.76 24.85 24.46 24.78 24.40 25.15 22.75 22.04 21.04 20.47 25.58 26.89 27.98 28.89 29.53 26.91
30.87 33.25 31.77 31.53 28.16 27.30 24.73 24.60 24.84 23.69 23.42 20.96 21.29 20.31 19.39 18.01 18.19 18.91 17.25 16.68 15.42 15.78 16.38 16.65 16.75 16.66 17.87 20.44 22.87 23.86 22.68 23.70 23.21 23.05 23.08 21.78 19.97 18.97 17.05 20.34 24.28 25.29 26.50 27.13
32.28 31.38 28.78 29.71 24.74 26.20 25.71 24.81 24.33 21.92 22.42 22.01 20.82 20.39 19.47 18.00 17.66 16.16 15.44 15.90 16.05 15.36 15.35 15.34 15.30 14.09 16.06 18.92 20.69 20.79 18.68 18.93 18.42 18.92 17.22 15.92 14.12 12.33 11.78 12.18 12.29 16.20 21.53 22.26
31.56 31.71 27.69 27.42 25.92 24.39 24.28 23.01 21.29 20.19 20.31 19.94 20.36 19.11 18.37 16.38 15.58 16.01 15.68 16.50 15.49 14.19 13.17 12.71 12.60 11.23 13.85 16.46 17.99 19.59 19.36 17.99 16.24 14.84 17.01 13.91 12.03 11.46 11.13 11.32 10.88 13.45 15.66 16.49
29.01 27.33 26.67 24.26 22.61 22.35 21.91 20.89 19.28 18.62 18.53 18.32 18.46 17.70 17.02 16.21 14.87 14.46 15.63 14.18 11.90 9.77 11.04 6.95 10.25 9.85 13.52 14.27 14.41 16.96 17.58 15.89 13.36 14.23 15.48 13.35 10.17 9.47 10.89 11.99 12.13 11.80 13.04 12.98
24.41 22.30 22.81 21.76 21.50 21.23 20.51 20.28 19.09 17.90 17.29 16.33 15.80 16.76 16.40 15.26 13.95 12.94 10.92 11.30 9.62 6.35 9.63 7.64 4.54 6.70 9.31 10.00 8.61 11.23 10.36 10.74 10.99 11.66 10.76 14.46 10.07 6.35 6.69 8.99 10.14 10.29 10.62 12.49
27.00 25.82 25.44 23.80 21.07 19.73 19.08 19.21 18.39 17.11 14.81 14.07 11.48 7.00 3.45 3.94 5.51 4.34 2.69 3.89 4.19 4.68 3.74 0.78 1.37 3.19 5.03 5.40 6.94 9.36 12.58 11.05 11.52 10.96 8.40 7.10 11.07 12.65 9.75 5.91 6.43 6.78 6.63 9.57
25.66 23.81 22.87 22.64 21.44 20.14 18.61 16.99 15.77 14.76 10.00 7.09 3.83 -1.27 -3.51 -4.95 -1.08 -3.16 -5.32 -5.22 -5.13 -3.50 -0.31 -0.99 9.45 3.96 4.20 7.32 9.57 8.57 7.51 8.06 10.75 12.35 10.30 5.50 5.69 8.56 6.44 2.83 2.05 -0.12 3.44 3.93
21.93 22.36 21.63 20.35 20.38 18.81 16.17 14.77 13.29 10.19 5.69 2.92 -3.90 -4.43 -3.07 -6.03 -10.02 -9.84 -8.21 -2.45 -3.18 -0.50 -4.22 -0.75 2.46 5.30 6.87 8.59 7.74 8.86 5.29 4.63 8.69 10.29 9.78 9.49 3.85 0.49 2.49 5.37 4.78 -0.78 -4.22 -3.16
18.60 17.69 16.05 14.87 10.88 8.36 6.65 5.21 4.65 1.87 -5.13 -7.75 -3.71 -5.14 -5.31 -7.85 -10.57 -11.29 -4.04 0.93 0.48 -0.99 2.82 4.77 4.63 5.50 8.52 6.04 8.05 2.58 -0.17 -2.06 -1.92 0.49 -0.05 3.47 2.88 1.70 -1.68 0.10 2.39 1.52 -0.05 0.67
11.10 10.19 7.23 6.16 6.91 0.93 -2.68 -2.15 0.18 -4.27 -5.96 -8.21 -11.84 -12.92 -10.57 -3.55 -6.76 -5.18 -4.52 2.90 4.95 2.04 5.98 5.40 5.27 0.21 4.31 0.29 6.31 -1.53 3.22 0.20 -2.77 -4.58 -5.67 -6.22 -1.68 -0.09 0.60 -0.83 -4.04 -4.04 -5.85 -6.22
9.07 8.99 7.46 5.67 6.57 5.80 1.39 0.32 -4.61 -2.87 -5.14 -6.76 -5.49 -5.05 -1.54 2.17 2.33 1.65 2.20 7.13 7.14 4.41 6.51 3.90 -0.77 -2.19 -2.95 -7.12 -6.94 -9.12 -8.58 -9.12 -8.75 -7.30 -6.94 -9.48 -9.48 -9.12 -7.12 -4.22 -4.77 -8.21 -7.67 -3.51
7.73 8.69 6.79 8.32 8.58 10.40 7.18 2.10 2.95 4.65 -2.25 -0.18 0.74 -1.95 4.53 3.16 1.22 9.96 9.62 4.36 1.53 -1.25 -2.98 -0.21 -3.75 0.15 -4.40 -8.94 -10.57 -11.29 -10.93 -12.20 -11.84 -14.01 -10.02 -10.57 -12.20 -9.66 -8.75 -9.12 -6.76 -9.66 -10.39 -9.66
10.81 10.14 9.44 7.51 9.77 8.84 9.42 8.10 8.58 8.40 10.83 12.52 12.74 14.23 10.54 11.53 7.52 6.69 3.23 3.56 3.92 3.83 2.18 -0.60 -1.68 -1.87 -7.85 -10.57 -11.29 -12.38 -12.38 -12.56 -11.47 -13.29 -12.74 -14.37 -13.29 -10.02 -10.75 -13.83 -14.56 -14.56 -16.55 -14.37
13.43 13.49 13.01 12.41 12.90 12.72 13.28 14.38 12.43 12.70 13.28 9.81 9.49 7.07 8.76 11.77 11.18 7.21 4.02 2.58 4.18 5.46 3.34 -1.27 -7.85 -9.12 -7.85 -5.49 -9.30 -10.75 -10.40 -5.36 -8.39 -8.21 -10.75 -12.74 -14.92 -12.56 -10.93 -6.76 -12.56 -13.83 -14.56 -15.28
14.85 14.65 15.42 15.07 16.12 16.09 15.06 14.10 12.03 10.49 6.95 1.40 4.59 3.32 4.84 2.67 4.08 2.97 0.38 -2.62 -1.20 -1.40 -4.04 -3.68 -8.03 -6.22 -4.22 -5.13 -3.50 -1.37 -6.94 -6.58 -8.03 -5.31 -8.94 -12.38 -15.10 -14.74 -11.29 -8.57 -9.12 -10.57 -13.11 -15.64

GFSNGP_sfc_wetblb_120.txt.gz
Wetbulb
30.45 30.13 30.34 29.38 31.02 32.81 29.65 29.31 23.34 23.20 21.74 24.01 25.89 27.13 28.47 30.56 29.48 27.56 27.30 28.38 29.01 29.01 29.57 30.98 32.10 32.25 32.48 33.04 33.40 34.31 34.60 34.78 35.01 37.04 38.11 38.36 39.80 40.65 41.33 40.88 42.98 45.04 58.56 59.08
27.60 33.15 28.71 25.27 27.32 29.61 29.60 28.04 26.02 24.60 21.78 27.67 28.66 28.75 27.41 28.47 28.10 25.94 25.18 25.61 26.79 28.05 28.52 29.02 30.61 32.27 30.97 30.74 31.42 32.41 32.24 32.31 34.24 35.25 35.95 36.42 36.87 37.96 38.74 39.00 39.27 38.88 40.56 44.79
24.19 30.00 28.92 21.80 25.65 26.39 27.37 27.75 28.58 22.34 24.95 27.42 25.23 25.12 25.56 26.39 27.81 25.10 24.56 24.84 24.78 25.35 26.38 27.76 29.18 31.27 31.11 29.35 30.70 30.08 30.07 30.77 31.47 33.01 33.88 34.64 34.97 35.56 35.92 36.02 36.94 36.97 36.64 36.97
26.80 28.79 17.16 26.16 32.17 31.12 26.99 28.25 28.61 26.42 26.15 26.36 25.57 26.40 27.09 27.45 26.51 24.75 24.44 23.95 24.18 24.66 25.17 27.04 28.68 30.16 32.04 29.45 28.29 28.50 28.14 28.64 29.62 30.55 30.96 32.55 33.21 33.14 33.54 34.71 34.30 34.28 34.54 35.12
24.18 22.31 25.39 27.08 27.21 27.66 27.38 25.06 29.06 28.53 27.56 27.30 28.73 28.79 23.76 26.00 26.01 25.39 24.79 24.55 24.34 25.12 24.91 25.25 25.79 28.79 29.89 30.62 26.23 25.78 25.84 26.06 27.43 29.25 29.22 29.74 29.99 31.01 32.14 32.09 32.21 32.43 32.10 32.61
26.57 22.16 17.71 23.67 27.90 31.74 32.26 21.94 29.11 28.24 26.04 25.42 29.33 20.39 20.37 23.44 23.94 22.96 23.62 23.44 22.90 23.19 22.89 22.93 23.13 26.18 27.37 28.32 28.64 23.88 23.99 24.78 26.04 27.39 28.02 28.28 29.34 29.41 30.87 31.59 31.17 31.27 30.43 30.80
25.36 22.25 23.18 26.54 30.47 33.76 23.06 21.71 29.47 27.29 25.05 25.13 22.78 22.16 23.05 22.59 20.04 21.23 22.60 22.33 23.01 22.48 21.00 21.32 22.45 24.01 24.29 25.94 26.36 28.29 26.20 24.90 24.74 26.32 26.88 27.32 28.64 29.53 29.68 30.07 30.25 30.19 29.99 30.36
25.24 20.79 18.16 29.63 30.56 25.61 28.84 31.03 30.56 27.75 27.63 23.98 23.68 23.74 23.06 20.14 19.73 20.92 19.93 20.59 21.34 20.52 20.24 20.79 21.50 22.44 22.55 23.07 27.04 28.14 27.29 25.07 24.16 24.88 26.71 27.10 27.06 27.61 27.68 28.29 28.44 27.94 28.59 29.13
24.12 22.10 28.80 29.39 29.35 30.19 28.41 26.36 28.02 28.03 26.39 25.59 23.85 22.67 22.41 20.85 20.20 19.50 19.05 18.77 20.15 19.16 19.30 20.14 20.48 21.20 20.71 22.80 26.06 26.73 26.51 26.17 24.21 24.46 24.39 26.35 25.83 26.30 26.76 26.81 25.97 26.22 26.52 26.52
25.89 27.35 27.75 27.84 28.15 27.83 27.35 26.62 28.23 27.06 25.45 24.49 22.46 22.19 20.78 20.10 19.14 18.05 17.36 17.28 18.24 18.19 17.28 17.74 19.45 20.64 20.97 22.77 25.88 25.84 25.03 25.53 25.74 23.24 23.15 23.54 24.99 25.94 25.02 25.87 25.15 24.83 24.90 24.42
26.37 29.02 29.01 27.44 27.04 27.12 26.95 27.53 26.19 25.69 24.67 23.08 22.10 20.59 20.13 19.10 18.18 17.56 16.62 16.72 17.34 16.94 16.79 16.59 17.78 18.37 19.32 21.38 24.44 24.25 24.43 24.28 24.13 24.53 22.58 22.15 22.59 23.79 23.99 25.17 26.26 24.42 24.06 24.40
18.21 28.35 27.23 26.91 26.98 27.67 25.66 24.83 24.92 22.83 21.61 21.93 20.84 19.25 18.95 17.65 17.93 16.44 15.49 15.85 15.24 15.81 15.71 15.40 15.94 16.56 17.65 20.04 23.37 22.51 22.55 22.71 22.64 22.64 21.51 21.19 19.72 19.47 23.86 25.20 25.59 26.03 26.48 25.12
29.44 31.55 29.65 28.36 26.54 26.09 24.29 24.04 23.92 22.79 21.56 19.61 19.55 18.97 18.22 16.58 16.72 17.19 15.37 15.01 14.38 14.45 14.65 14.71 14.75 14.86 15.90 18.59 21.78 21.43 20.56 21.27 20.75 20.81 19.74 18.38 16.77 15.74 12.62 17.18 22.46 23.44 23.57 24.31
31.82 30.25 26.53 26.52 23.52 25.10 24.53 23.71 23.71 21.57 21.42 20.69 19.36 19.35 18.53 16.99 16.58 15.13 13.91 14.83 14.86 13.54 12.79 12.85 12.91 12.37 14.19 17.06 18.98 18.84 16.05 15.68 14.63 15.82 13.46 10.26 7.83 8.58 8.94 11.33 9.11 11.22 17.58 19.89
31.20 30.91 28.54 25.83 24.26 22.86 23.02 21.94 20.63 19.92 20.13 18.97 19.41 18.11 17.43 15.22 14.79 13.92 14.35 15.15 14.54 12.57 10.88 9.60 10.03 9.41 12.09 15.05 15.75 15.45 16.93 16.18 13.48 11.24 10.20 8.96 8.78 8.94 8.78 10.15 10.51 11.39 12.87 14.31
27.83 26.54 24.81 23.70 22.09 21.83 21.55 20.76 19.21 18.95 19.06 18.55 17.45 16.75 16.03 14.93 13.70 13.11 13.82 12.58 10.71 7.57 8.67 4.08 7.89 8.16 11.35 11.91 12.51 14.15 12.41 12.68 10.49 10.54 10.16 9.78 7.70 7.70 8.03 7.52 7.87 7.93 8.57 8.82
23.89 22.35 22.74 21.87 21.74 21.12 20.82 20.87 19.78 18.46 17.82 16.76 15.90 16.33 15.32 14.35 13.09 10.94 8.75 10.06 7.50 4.80 7.66 5.01 1.30 6.14 8.02 7.09 6.07 8.34 8.23 9.36 8.45 9.41 8.29 9.46 6.50 5.90 5.20 4.57 4.65 5.05 2.89 1.57
26.69 26.13 25.61 24.15 22.35 20.64 19.60 19.43 18.40 17.09 14.58 13.92 11.45 6.94 2.72 4.15 5.35 3.32 0.16 2.57 3.21 2.51 1.60 -2.08 -1.10 2.88 4.21 4.19 4.82 6.62 6.12 7.69 8.87 7.04 7.29 6.38 9.96 11.69 7.28 1.39 2.10 2.62 0.14 4.83
25.41 24.28 23.61 23.66 22.15 20.75 18.84 17.10 15.62 14.45 9.53 6.38 3.14 -1.13 -3.22 -5.45 -1.59 -4.39 -7.81 -6.76 -6.72 -4.18 -0.86 -3.14 9.43 2.89 2.47 6.31 7.99 6.04 4.96 4.42 6.94 8.42 8.18 5.31 3.51 6.71 4.09 -0.02 -1.31 -3.66 0.41 1.44
22.83 22.93 22.18 20.91 20.51 18.98 16.31 14.88 12.73 10.07 5.59 2.48 -3.54 -6.36 -3.82 -6.54 -11.07 -11.25 -10.53 -3.63 -3.23 -0.90 -6.90 -1.91 1.66 4.32 5.66 6.98 5.96 7.12 2.82 0.36 4.97 3.79 3.81 5.80 0.33 -2.19 -1.46 2.51 2.14 -3.46 -7.99 -6.18
19.34 18.56 17.18 15.91 11.91 9.29 7.59 6.08 5.23 2.27 -6.72 -8.54 -4.36 -5.84 -5.09 -9.26 -12.52 -13.25 -4.19 0.64 0.24 -2.83 1.77 3.88 3.88 4.46 6.98 5.44 6.29 0.56 -2.99 -3.28 -3.65 -1.83 -4.91 -5.09 -1.32 1.52 -5.09 -7.81 -5.45 -6.54 -4.00 -0.79
12.89 12.43 9.11 7.39 7.65 1.05 -3.47 -2.48 0.44 -2.99 -6.76 -10.17 -14.15 -13.79 -9.44 -3.88 -8.53 -7.63 -4.48 2.81 4.43 1.32 4.47 5.17 4.62 0.08 3.29 -0.20 4.73 -3.11 1.98 -0.90 -3.46 -5.09 -5.09 -7.81 -10.89 -10.53 -5.45 -4.91 -6.72 -8.17 -7.99 -4.91
10.01 9.43 7.56 6.37 6.97 5.03 -1.77 -2.69 -6.59 -4.27 -6.41 -8.53 -7.45 -7.81 -3.84 1.72 1.79 1.37 2.70 6.41 6.36 4.06 5.27 3.41 0.41 -2.83 -4.00 -8.35 -8.90 -11.25 -10.71 -10.17 -10.53 -11.07 -12.52 -14.88 -11.43 -9.26 -7.63 -2.06 -7.63 -13.25 -12.70 -9.44
7.44 8.40 5.11 5.83 7.31 8.24 6.05 0.87 2.03 2.68 -4.31 -1.96 -1.39 -1.91 3.40 1.83 2.33 9.19 9.70 4.94 0.06 -1.28 -3.76 -1.32 -4.00 -0.92 -4.55 -9.98 -11.25 -12.88 -13.25 -13.25 -14.15 -15.24 -9.44 -12.70 -17.60 -15.97 -8.35 -6.36 -4.55 -11.98 -14.52 -14.52
9.01 7.31 6.65 6.52 9.05 8.53 8.52 7.24 7.30 6.74 9.21 11.24 11.54 12.90 8.97 10.34 8.38 8.21 3.92 3.22 2.32 2.09 0.74 0.22 -1.90 -3.82 -9.80 -11.80 -12.70 -12.34 -11.98 -14.33 -11.25 -15.79 -13.07 -15.60 -13.79 -15.79 -14.70 -10.71 -4.57 -11.25 -15.06 -17.05
11.72 11.53 10.72 10.85 11.06 11.04 11.37 12.40 9.79 10.68 11.57 7.63 7.90 3.88 4.55 5.87 10.16 9.90 8.82 3.67 1.42 3.04 1.45 0.70 -6.36 -9.44 -11.07 -8.71 -8.71 -8.35 -7.45 -4.92 -7.64 -8.90 -6.72 -3.83 -4.91 -9.62 -13.25 -8.71 -6.36 -10.35 -12.88 -13.97
12.61 12.36 13.18 12.72 14.06 14.08 13.04 12.20 9.50 9.12 8.07 2.13 3.91 2.62 3.23 -0.92 3.05 7.65 3.54 -2.80 -3.47 -3.30 -2.11 -2.97 -9.08 -7.09 -2.93 -1.14 -2.57 -2.74 -2.60 -5.81 -7.81 -3.82 -4.19 -5.63 -6.18 -6.54 -10.35 -7.99 -5.45 -3.34 -4.93 -4.78

GFSNGP_sfc_wetblb_123.txt.gz
Wetbulb
31.19 30.64 29.18 27.53 29.13 30.53 27.66 29.22 24.88 22.98 21.07 23.49 25.50 26.37 27.67 28.91 27.93 26.25 26.22 26.45 26.65 27.01 27.74 28.82 30.48 32.45 31.77 32.16 33.30 34.07 33.97 34.50 34.41 35.41 36.95 37.64 37.49 38.03 38.51 39.00 40.37 41.82 41.40 41.89
28.43 32.24 29.51 25.18 27.34 28.68 28.82 27.08 25.46 24.53 21.54 27.75 27.76 27.74 26.79 26.21 25.86 24.44 24.40 25.12 25.31 25.82 26.36 27.36 29.12 30.83 29.99 30.47 31.46 32.51 32.16 32.20 33.49 34.35 34.57 35.80 36.30 36.88 36.74 36.66 36.61 37.20 37.53 38.78
25.93 30.83 29.35 22.72 25.43 26.70 27.11 27.87 28.58 22.77 25.10 27.05 24.60 24.23 24.41 25.21 24.91 23.86 24.14 24.48 24.49 25.15 25.67 26.35 27.60 30.28 30.68 29.11 30.27 30.10 29.79 30.17 30.76 32.80 32.89 33.18 33.91 34.62 35.55 35.46 34.70 33.80 33.46 35.16
27.84 29.74 18.54 27.03 32.39 30.42 27.08 28.29 28.15 26.76 26.80 26.44 24.72 24.92 25.24 25.19 23.97 23.36 23.82 24.13 24.20 24.08 24.30 25.60 27.13 29.19 31.09 30.82 29.29 28.69 28.05 28.01 29.29 30.37 30.88 32.23 32.78 32.82 33.07 33.68 33.48 32.65 32.71 32.51
26.18 23.81 26.14 27.96 27.64 27.75 27.69 24.97 28.97 28.80 27.79 27.85 27.47 28.35 23.39 24.92 24.57 23.44 23.89 24.25 24.43 24.83 24.16 24.91 25.67 28.08 29.27 29.43 29.62 27.54 26.63 26.39 27.64 29.09 29.23 30.11 30.29 30.83 32.34 33.08 33.07 32.02 31.69 31.41
27.91 22.72 19.48 24.39 28.43 32.18 32.81 22.35 28.65 27.47 27.33 27.67 30.41 25.20 21.85 22.91 23.13 22.59 23.91 24.35 23.80 24.36 24.29 23.89 25.14 27.24 27.24 26.95 27.80 26.75 26.57 26.30 27.25 28.29 28.31 28.72 30.08 30.26 31.66 32.14 32.00 33.42 32.34 32.02
26.31 23.12 23.61 27.13 29.99 33.52 23.70 24.21 28.42 27.70 26.34 27.26 23.58 24.16 23.53 23.15 21.67 22.19 22.87 23.06 24.15 23.98 22.94 23.23 24.86 26.03 24.86 25.62 26.13 28.24 29.29 27.80 27.49 28.08 28.79 29.18 29.56 30.33 30.34 30.97 31.24 30.83 30.85 31.48
26.23 22.76 19.95 29.53 31.65 26.91 29.38 31.32 29.86 28.47 26.81 25.20 25.01 24.26 22.92 21.52 21.13 21.42 20.87 21.85 22.77 22.60 22.49 23.10 24.45 24.67 23.38 23.75 27.06 28.16 28.00 28.20 27.38 27.34 27.94 28.51 28.44 29.40 29.42 28.82 28.22 28.14 28.20 28.70
25.29 23.88 28.98 29.61 29.01 30.83 32.20 30.72 29.84 28.08 27.67 26.84 24.92 23.57 22.87 21.56 20.81 20.31 20.42 21.16 22.17 21.88 22.29 22.29 23.12 22.95 22.03 23.87 26.78 27.42 26.92 26.46 27.38 27.42 27.43 27.62 26.66 26.56 27.01 27.63 26.71 26.82 26.22 26.25
26.31 27.47 27.64 28.16 28.55 29.42 30.84 30.55 29.72 28.68 27.27 26.55 24.24 23.47 21.74 21.15 20.37 19.72 19.76 20.03 21.10 21.06 20.41 20.42 22.12 22.35 22.54 24.27 25.95 26.95 25.83 25.72 26.61 26.50 26.36 26.50 26.94 26.45 25.53 26.32 25.65 24.80 24.58 24.82
26.76 28.91 28.03 27.77 28.03 28.50 28.26 28.08 26.65 26.69 26.24 24.81 23.89 22.10 21.67 20.16 19.41 19.07 18.95 19.34 19.85 19.54 19.24 19.09 20.71 21.04 21.88 23.33 25.17 25.15 25.36 25.16 24.70 25.62 25.12 24.93 25.51 24.31 24.33 24.89 24.67 24.08 24.08 24.41
25.35 30.41 29.41 27.86 28.55 29.08 27.60 25.87 25.79 24.76 23.24 23.72 23.43 21.27 21.07 19.48 18.97 18.37 18.04 18.74 18.40 18.22 18.06 18.19 19.40 19.50 20.27 22.23 23.83 23.26 23.06 23.06 23.02 23.91 23.86 23.57 23.23 23.99 23.62 23.59 24.01 23.93 24.05 24.10
30.37 32.60 31.15 29.95 28.68 28.23 26.56 25.71 25.49 24.15 23.49 21.42 21.45 21.07 20.33 18.94 18.91 18.17 18.32 17.40 16.59 16.20 16.55 17.31 17.76 17.62 18.78 20.90 22.60 22.08 21.31 21.59 22.28 22.32 21.90 20.90 21.14 20.80 20.03 22.35 21.61 21.36 21.88 21.95
31.17 29.84 26.33 27.30 25.56 27.00 26.43 26.02 24.94 23.57 22.98 22.17 21.36 21.39 20.15 18.76 18.30 17.49 16.26 17.43 16.84 15.91 15.14 15.25 15.86 14.86 16.16 19.03 20.37 19.38 20.63 18.63 20.72 20.93 20.51 20.47 20.03 19.83 19.55 18.34 17.61 18.21 19.26 19.12
31.58 32.12 30.15 28.01 26.23 25.06 24.88 23.94 22.29 21.34 20.95 20.54 21.23 20.08 19.60 17.68 16.34 15.82 16.49 16.89 16.32 14.97 13.32 12.94 13.49 13.10 15.04 16.63 18.15 18.47 19.85 20.18 20.09 20.45 20.75 18.76 20.03 19.67 19.05 18.25 17.14 16.41 16.98 16.78
28.63 27.82 26.98 25.59 24.06 23.52 23.75 23.29 21.96 21.20 20.86 20.13 19.60 18.73 18.21 17.52 16.36 15.23 15.33 14.52 13.27 10.82 10.47 7.20 11.44 11.86 14.01 14.61 16.25 17.81 18.17 16.31 16.73 19.12 19.37 19.33 19.13 18.60 17.83 17.25 16.16 15.24 14.06 13.54
26.07 24.27 24.57 23.85 23.57 23.24 23.28 23.65 23.28 21.71 20.75 19.70 18.75 18.19 17.43 16.02 14.53 13.20 12.26 12.55 11.19 10.19 10.06 8.93 8.51 10.61 11.36 12.58 14.49 16.21 17.12 17.79 14.39 18.21 17.56 17.84 18.12 17.50 17.03 16.32 15.40 14.65 13.53 11.58
31.17 30.10 28.78 27.38 25.33 23.84 22.86 22.44 21.67 20.71 19.13 18.75 17.01 13.88 11.58 12.56 13.23 10.66 8.58 8.72 9.56 9.25 9.22 6.58 6.87 9.83 10.09 12.29 13.59 15.30 15.48 15.80 16.40 15.98 16.56 15.94 15.56 16.48 15.85 15.42 14.57 13.78 13.82 12.95
29.69 28.13 27.48 26.84 26.32 24.64 22.76 20.75 19.90 18.26 14.70 11.28 9.53 9.53 8.85 7.63 9.57 8.68 5.21 5.36 6.55 9.75 10.71 7.27 11.36 10.87 12.04 12.99 13.89 14.76 14.24 13.81 14.30 14.31 14.68 13.47 14.57 14.00 14.30 15.05 14.22 13.27 12.61 12.35
26.31 26.64 25.76 24.42 24.05 22.66 19.91 18.89 16.34 13.80 11.24 8.01 4.25 4.95 8.05 5.71 2.81 3.16 3.39 10.48 11.79 13.36 8.91 9.52 10.14 12.30 12.47 11.80 10.54 13.63 12.74 12.55 12.27 12.59 12.67 12.53 12.95 12.99 12.73 11.42 11.87 12.38 12.01 11.87
23.73 22.90 21.13 20.00 17.05 15.88 14.74 13.71 11.27 8.53 4.16 4.06 7.80 7.95 8.42 7.48 2.87 2.05 7.93 14.01 13.17 8.22 10.88 9.98 11.98 13.05 13.56 11.32 12.74 12.86 12.10 11.85 11.45 10.90 10.49 10.29 10.84 11.28 11.68 11.53 11.48 11.12 11.11 11.33
19.80 18.09 15.36 13.27 12.98 9.20 9.30 10.52 9.91 5.65 4.26 2.55 -0.48 2.05 3.54 8.88 5.10 5.13 6.15 12.75 15.65 7.19 12.27 14.49 14.42 8.10 10.36 7.04 12.82 12.23 11.40 11.02 10.93 10.89 10.54 10.31 10.17 9.86 10.12 10.06 9.95 10.36 10.23 9.96
17.05 16.40 13.86 12.24 12.34 11.64 6.57 8.15 6.15 6.99 4.30 4.38 5.64 6.95 9.46 15.26 15.73 14.53 14.96 14.37 14.16 12.69 13.74 14.98 9.87 6.22 4.71 11.11 12.53 11.61 11.09 9.93 9.88 9.84 9.57 8.99 8.92 9.00 8.91 8.94 9.39 9.52 9.25 8.89
14.45 14.70 13.27 11.57 10.20 10.64 10.13 8.45 7.73 8.74 6.67 7.98 7.94 6.99 11.31 13.01 14.74 15.07 16.70 12.53 8.25 10.16 13.72 14.18 11.50 6.88 2.03 12.19 11.64 11.32 10.79 11.43 10.33 10.21 9.75 3.83 8.51 7.93 8.77 8.71 8.44 9.73 8.64 7.96
14.83 12.65 11.13 10.74 12.63 14.03 13.76 11.86 10.84 11.58 11.91 14.24 14.91 15.43 11.82 14.23 14.56 18.15 16.86 16.06 11.08 10.62 15.75 11.07 6.36 5.22 11.15 12.13 11.68 10.68 10.90 10.98 10.83 9.94 9.42 8.99 8.78 8.46 8.73 8.63 7.78 9.13 8.46 7.75
14.89 15.72 15.19 15.11 17.33 16.45 16.17 14.80 15.39 16.14 16.21 16.75 17.45 18.00 18.05 16.41 16.37 15.45 16.21 14.52 14.53 12.20 14.65 15.40 12.79 11.51 11.72 11.31 11.42 10.82 10.61 10.80 10.51 10.30 8.21 9.63 10.08 9.20 9.22 8.62 8.29 8.57 8.58 7.92
16.40 15.00 15.42 15.52 16.86 16.87 17.07 17.18 17.50 18.05 17.00 18.79 18.87 18.48 16.54 15.94 15.81 13.39 12.23 15.62 14.70 13.65 13.30 13.02 12.05 10.10 11.67 11.77 11.46 12.00 11.70 11.44 9.20 9.62 9.80 9.87 9.47 9.61 9.28 8.74 8.15 8.45 8.29 7.27